<?xml version='1.0' encoding='UTF-8'?><gpx version="1.1" creator="JPX - https://github.com/jenetics/jpx" xmlns="http://www.topografix.com/GPX/1/1"><trk><trkseg><trkpt lat="45.57300225687129" lon="8.153916890248766"><ele>310.0</ele><time>2026-05-02T11:36:15Z</time></trkpt><trkpt lat="45.573061302132764" lon="8.153824574011614"><ele>310.0</ele><time>2026-05-02T11:36:17Z</time></trkpt><trkpt lat="45.5731110068259" lon="8.153747383521827"><ele>310.0</ele><time>2026-05-02T11:36:18Z</time></trkpt><trkpt lat="45.57315288187109" lon="8.15365191638163"><ele>310.0</ele><time>2026-05-02T11:36:19Z</time></trkpt><trkpt lat="45.573197304201045" lon="8.153545323308682"><ele>310.0</ele><time>2026-05-02T11:36:19.999Z</time></trkpt><trkpt lat="45.57322380789436" lon="8.15344160399174"><ele>310.0</ele><time>2026-05-02T11:36:20.999Z</time></trkpt><trkpt lat="45.57321753279533" lon="8.153338823696155"><ele>310.0</ele><time>2026-05-02T11:36:21.999Z</time></trkpt><trkpt lat="45.57319826397943" lon="8.153221177457997"><ele>310.0</ele><time>2026-05-02T11:36:22.999Z</time></trkpt><trkpt lat="45.57317073608675" lon="8.15311268265471"><ele>310.0</ele><time>2026-05-02T11:36:23.999Z</time></trkpt><trkpt lat="45.57311953768343" lon="8.152958451249894"><ele>310.0</ele><time>2026-05-02T11:36:25.999Z</time></trkpt><trkpt lat="45.573147837299665" lon="8.15287237356942"><ele>310.0</ele><time>2026-05-02T11:36:26.999Z</time></trkpt><trkpt lat="45.573199429510005" lon="8.152809843248148"><ele>310.0</ele><time>2026-05-02T11:36:27.999Z</time></trkpt><trkpt lat="45.57326476130326" lon="8.152763383132546"><ele>311.16666666666663</ele><time>2026-05-02T11:36:28.999Z</time></trkpt><trkpt lat="45.57334306313666" lon="8.152637414813004"><ele>312.3333333333333</ele><time>2026-05-02T11:36:30.999Z</time></trkpt><trkpt lat="45.57339350011641" lon="8.152569485118093"><ele>313.5</ele><time>2026-05-02T11:36:31.999Z</time></trkpt><trkpt lat="45.57351662466098" lon="8.152568299086587"><ele>314.6666666666667</ele><time>2026-05-02T11:36:33.999Z</time></trkpt><trkpt lat="45.573580717607015" lon="8.15255388398492"><ele>315.83333333333337</ele><time>2026-05-02T11:36:34.999Z</time></trkpt><trkpt lat="45.57363834267954" lon="8.152510527135458"><ele>317.0</ele><time>2026-05-02T11:36:35.999Z</time></trkpt><trkpt lat="45.57369765548438" lon="8.152453976645745"><ele>314.6</ele><time>2026-05-02T11:36:36.999Z</time></trkpt><trkpt lat="45.57378737706469" lon="8.152402071261443"><ele>312.2</ele><time>2026-05-02T11:36:38.999Z</time></trkpt><trkpt lat="45.57386353482765" lon="8.152301755358778"><ele>309.8</ele><time>2026-05-02T11:36:40.999Z</time></trkpt><trkpt lat="45.5739642245842" lon="8.15225586651955"><ele>307.4</ele><time>2026-05-02T11:36:42.999Z</time></trkpt><trkpt lat="45.57406412874678" lon="8.152226342492531"><ele>305.0</ele><time>2026-05-02T11:36:44.999Z</time></trkpt><trkpt lat="45.574153364793496" lon="8.15217117625031"><ele>305.0</ele><time>2026-05-02T11:36:47.999Z</time></trkpt><trkpt lat="45.57425862251243" lon="8.152139158237322"><ele>305.0</ele><time>2026-05-02T11:36:49.999Z</time></trkpt><trkpt lat="45.57430802094132" lon="8.152083315977302"><ele>305.0</ele><time>2026-05-02T11:36:50.999Z</time></trkpt><trkpt lat="45.57434008914826" lon="8.15199653520795"><ele>305.0</ele><time>2026-05-02T11:36:51.999Z</time></trkpt><trkpt lat="45.57442390246525" lon="8.151899261643427"><ele>305.0</ele><time>2026-05-02T11:36:53.999Z</time></trkpt><trkpt lat="45.57448173884116" lon="8.151841320464833"><ele>305.0</ele><time>2026-05-02T11:36:54.999Z</time></trkpt><trkpt lat="45.57453520474334" lon="8.151786411023824"><ele>302.6666666666667</ele><time>2026-05-02T11:36:55.999Z</time></trkpt><trkpt lat="45.57459065100588" lon="8.151727682871327"><ele>300.33333333333337</ele><time>2026-05-02T11:36:56.999Z</time></trkpt><trkpt lat="45.574624645498055" lon="8.151649916792945"><ele>298.0</ele><time>2026-05-02T11:36:57.999Z</time></trkpt><trkpt lat="45.574667342149446" lon="8.151573976718756"><ele>295.6666666666667</ele><time>2026-05-02T11:36:58.999Z</time></trkpt><trkpt lat="45.57474578596867" lon="8.151448932831759"><ele>293.3333333333333</ele><time>2026-05-02T11:37:00.999Z</time></trkpt><trkpt lat="45.57480987353576" lon="8.151367426878064"><ele>291.0</ele><time>2026-05-02T11:37:02.999Z</time></trkpt><trkpt lat="45.574886266088626" lon="8.151277802420525"><ele>291.0</ele><time>2026-05-02T11:37:04.999Z</time></trkpt><trkpt lat="45.57494183617906" lon="8.151234201850174"><ele>291.0</ele><time>2026-05-02T11:37:06.999Z</time></trkpt><trkpt lat="45.57501308090834" lon="8.151173217294192"><ele>291.0</ele><time>2026-05-02T11:37:09.999Z</time></trkpt><trkpt lat="45.575195357739055" lon="8.151013121105551"><ele>291.0</ele><time>2026-05-02T11:37:12.999Z</time></trkpt><trkpt lat="45.57526796057194" lon="8.150987624570915"><ele>291.0</ele><time>2026-05-02T11:37:13.999Z</time></trkpt><trkpt lat="45.5753444447783" lon="8.150965527824328"><ele>289.5</ele><time>2026-05-02T11:37:14.999Z</time></trkpt><trkpt lat="45.575419346889866" lon="8.150930676696436"><ele>288.0</ele><time>2026-05-02T11:37:15.999Z</time></trkpt><trkpt lat="45.57549055800577" lon="8.150888163520756"><ele>286.5</ele><time>2026-05-02T11:37:16.999Z</time></trkpt><trkpt lat="45.575567334893805" lon="8.150844203908683"><ele>285.0</ele><time>2026-05-02T11:37:17.999Z</time></trkpt><trkpt lat="45.575647663654166" lon="8.150803097014183"><ele>283.5</ele><time>2026-05-02T11:37:18.999Z</time></trkpt><trkpt lat="45.57572018469132" lon="8.150769270297346"><ele>282.0</ele><time>2026-05-02T11:37:19.999Z</time></trkpt><trkpt lat="45.57580023066032" lon="8.150728595886566"><ele>282.1666666666667</ele><time>2026-05-02T11:37:20.999Z</time></trkpt><trkpt lat="45.57588050696693" lon="8.150687377016196"><ele>282.3333333333333</ele><time>2026-05-02T11:37:21.999Z</time></trkpt><trkpt lat="45.57596999311924" lon="8.150649988786553"><ele>282.5</ele><time>2026-05-02T11:37:22.998Z</time></trkpt><trkpt lat="45.57605832364171" lon="8.150615535451811"><ele>282.66666666666663</ele><time>2026-05-02T11:37:23.998Z</time></trkpt><trkpt lat="45.57614292649955" lon="8.150604514028675"><ele>282.8333333333333</ele><time>2026-05-02T11:37:24.998Z</time></trkpt><trkpt lat="45.57622595479971" lon="8.15058995891906"><ele>283.0</ele><time>2026-05-02T11:37:25.998Z</time></trkpt><trkpt lat="45.57631176267792" lon="8.150567622623463"><ele>283.0</ele><time>2026-05-02T11:37:26.998Z</time></trkpt><trkpt lat="45.576398888977195" lon="8.150528047732893"><ele>283.0</ele><time>2026-05-02T11:37:27.998Z</time></trkpt><trkpt lat="45.57648125822426" lon="8.15048179630746"><ele>283.0</ele><time>2026-05-02T11:37:28.998Z</time></trkpt><trkpt lat="45.57656564394782" lon="8.15044534157965"><ele>283.0</ele><time>2026-05-02T11:37:29.998Z</time></trkpt><trkpt lat="45.576658511942355" lon="8.150416620513944"><ele>283.0</ele><time>2026-05-02T11:37:30.998Z</time></trkpt><trkpt lat="45.57676487847036" lon="8.150406182187506"><ele>283.0</ele><time>2026-05-02T11:37:31.998Z</time></trkpt><trkpt lat="45.57683680073825" lon="8.15038891119158"><ele>283.0</ele><time>2026-05-02T11:37:32.998Z</time></trkpt><trkpt lat="45.576911338233565" lon="8.150345231590371"><ele>283.0</ele><time>2026-05-02T11:37:33.998Z</time></trkpt><trkpt lat="45.576997251960805" lon="8.150298113488297"><ele>283.0</ele><time>2026-05-02T11:37:34.998Z</time></trkpt><trkpt lat="45.577077068629016" lon="8.150247521455684"><ele>283.0</ele><time>2026-05-02T11:37:35.998Z</time></trkpt><trkpt lat="45.57715983881446" lon="8.150206838549447"><ele>283.0</ele><time>2026-05-02T11:37:36.998Z</time></trkpt><trkpt lat="45.5772198506254" lon="8.150147273044913"><ele>283.3333333333333</ele><time>2026-05-02T11:37:37.998Z</time></trkpt><trkpt lat="45.57727802437753" lon="8.150085017445036"><ele>283.66666666666663</ele><time>2026-05-02T11:37:38.998Z</time></trkpt><trkpt lat="45.57733551666088" lon="8.149995357808745"><ele>284.0</ele><time>2026-05-02T11:37:39.998Z</time></trkpt><trkpt lat="45.577388060303115" lon="8.149896559943898"><ele>284.3333333333333</ele><time>2026-05-02T11:37:40.998Z</time></trkpt><trkpt lat="45.5774182050943" lon="8.14977451240978"><ele>284.6666666666667</ele><time>2026-05-02T11:37:41.998Z</time></trkpt><trkpt lat="45.57744713347545" lon="8.149661981750885"><ele>285.0</ele><time>2026-05-02T11:37:42.998Z</time></trkpt><trkpt lat="45.577481407262596" lon="8.149556525314493"><ele>285.6666666666667</ele><time>2026-05-02T11:37:43.998Z</time></trkpt><trkpt lat="45.57752052209893" lon="8.149469098277185"><ele>286.3333333333333</ele><time>2026-05-02T11:37:44.998Z</time></trkpt><trkpt lat="45.57757718733411" lon="8.149379337639566"><ele>287.0</ele><time>2026-05-02T11:37:45.998Z</time></trkpt><trkpt lat="45.577632120056364" lon="8.14928528989467"><ele>287.66666666666663</ele><time>2026-05-02T11:37:46.998Z</time></trkpt><trkpt lat="45.57768940674396" lon="8.1491821828529"><ele>288.3333333333333</ele><time>2026-05-02T11:37:48Z</time></trkpt><trkpt lat="45.57774635216847" lon="8.149083049154838"><ele>289.0</ele><time>2026-05-02T11:37:49Z</time></trkpt><trkpt lat="45.577808388991386" lon="8.1489810099906"><ele>288.8333333333333</ele><time>2026-05-02T11:37:50Z</time></trkpt><trkpt lat="45.57786689786273" lon="8.148871596597859"><ele>288.66666666666663</ele><time>2026-05-02T11:37:51Z</time></trkpt><trkpt lat="45.57793231522498" lon="8.148789358761382"><ele>288.5</ele><time>2026-05-02T11:37:52Z</time></trkpt><trkpt lat="45.57797556938368" lon="8.148699040306619"><ele>288.3333333333333</ele><time>2026-05-02T11:37:53Z</time></trkpt><trkpt lat="45.578022359165814" lon="8.14860284391362"><ele>288.1666666666667</ele><time>2026-05-02T11:37:54Z</time></trkpt><trkpt lat="45.57805313652572" lon="8.148490084155693"><ele>288.0</ele><time>2026-05-02T11:37:55Z</time></trkpt><trkpt lat="45.578083666285224" lon="8.148374392376796"><ele>288.0</ele><time>2026-05-02T11:37:56Z</time></trkpt><trkpt lat="45.57808906640216" lon="8.14824525372989"><ele>288.0</ele><time>2026-05-02T11:37:57Z</time></trkpt><trkpt lat="45.57807872861278" lon="8.148120562496299"><ele>288.0</ele><time>2026-05-02T11:37:58Z</time></trkpt><trkpt lat="45.5780791845673" lon="8.148011352715077"><ele>288.0</ele><time>2026-05-02T11:37:59Z</time></trkpt><trkpt lat="45.57810046393118" lon="8.147910387531596"><ele>288.0</ele><time>2026-05-02T11:38:00Z</time></trkpt><trkpt lat="45.578113006213464" lon="8.147821347715656"><ele>288.0</ele><time>2026-05-02T11:38:01Z</time></trkpt><trkpt lat="45.578089521371304" lon="8.147689854344405"><ele>289.0</ele><time>2026-05-02T11:38:03Z</time></trkpt><trkpt lat="45.57801212788669" lon="8.147606842762865"><ele>290.0</ele><time>2026-05-02T11:38:05Z</time></trkpt><trkpt lat="45.577931806594094" lon="8.147545928113797"><ele>291.0</ele><time>2026-05-02T11:38:07Z</time></trkpt><trkpt lat="45.57786643930102" lon="8.147466760573781"><ele>292.0</ele><time>2026-05-02T11:38:09Z</time></trkpt><trkpt lat="45.577785858344285" lon="8.147383506578942"><ele>293.0</ele><time>2026-05-02T11:38:11Z</time></trkpt><trkpt lat="45.57769491979015" lon="8.147314283530882"><ele>294.5</ele><time>2026-05-02T11:38:13Z</time></trkpt><trkpt lat="45.57760062705999" lon="8.147234519431263"><ele>296.0</ele><time>2026-05-02T11:38:14.999Z</time></trkpt><trkpt lat="45.57754845619315" lon="8.147174416846372"><ele>297.5</ele><time>2026-05-02T11:38:15.999Z</time></trkpt><trkpt lat="45.5774979230796" lon="8.147099348792523"><ele>299.0</ele><time>2026-05-02T11:38:16.999Z</time></trkpt><trkpt lat="45.57745353375336" lon="8.147004989896999"><ele>300.5</ele><time>2026-05-02T11:38:17.999Z</time></trkpt><trkpt lat="45.57742813095538" lon="8.146890667517846"><ele>302.0</ele><time>2026-05-02T11:38:18.999Z</time></trkpt><trkpt lat="45.57741641959794" lon="8.146771227186154"><ele>302.0</ele><time>2026-05-02T11:38:19.999Z</time></trkpt><trkpt lat="45.57741146077746" lon="8.14663849341423"><ele>302.0</ele><time>2026-05-02T11:38:20.999Z</time></trkpt><trkpt lat="45.57739504304543" lon="8.146501270397236"><ele>302.0</ele><time>2026-05-02T11:38:21.999Z</time></trkpt><trkpt lat="45.57737872202132" lon="8.146371908640948"><ele>302.0</ele><time>2026-05-02T11:38:22.999Z</time></trkpt><trkpt lat="45.57737298099895" lon="8.146234667006844"><ele>302.0</ele><time>2026-05-02T11:38:23.999Z</time></trkpt><trkpt lat="45.57737205469133" lon="8.14609873182499"><ele>302.1666666666667</ele><time>2026-05-02T11:38:24.999Z</time></trkpt><trkpt lat="45.57736208456433" lon="8.14597273022798"><ele>302.33333333333337</ele><time>2026-05-02T11:38:25.999Z</time></trkpt><trkpt lat="45.57734236514674" lon="8.145856221171657"><ele>302.5</ele><time>2026-05-02T11:38:26.999Z</time></trkpt><trkpt lat="45.57731658293104" lon="8.145747428149278"><ele>302.6666666666667</ele><time>2026-05-02T11:38:27.999Z</time></trkpt><trkpt lat="45.57728753538021" lon="8.145645522138974"><ele>302.8333333333333</ele><time>2026-05-02T11:38:28.999Z</time></trkpt><trkpt lat="45.577251665849644" lon="8.14554728161015"><ele>303.0</ele><time>2026-05-02T11:38:29.999Z</time></trkpt><trkpt lat="45.57721224948878" lon="8.145435251908014"><ele>303.8333333333333</ele><time>2026-05-02T11:38:30.999Z</time></trkpt><trkpt lat="45.57718235060113" lon="8.145329665943258"><ele>304.6666666666667</ele><time>2026-05-02T11:38:31.999Z</time></trkpt><trkpt lat="45.577165503719506" lon="8.145225471836904"><ele>305.5</ele><time>2026-05-02T11:38:32.999Z</time></trkpt><trkpt lat="45.57714575122635" lon="8.145113493193973"><ele>306.33333333333337</ele><time>2026-05-02T11:38:33.999Z</time></trkpt><trkpt lat="45.577129212247165" lon="8.144992185147053"><ele>307.1666666666667</ele><time>2026-05-02T11:38:34.999Z</time></trkpt><trkpt lat="45.577091939860935" lon="8.144876572389824"><ele>308.0</ele><time>2026-05-02T11:38:35.999Z</time></trkpt><trkpt lat="45.57705375172002" lon="8.144759511710166"><ele>307.0</ele><time>2026-05-02T11:38:36.999Z</time></trkpt><trkpt lat="45.57701151488944" lon="8.144632032613307"><ele>306.0</ele><time>2026-05-02T11:38:37.999Z</time></trkpt><trkpt lat="45.57696889059519" lon="8.144516318800495"><ele>305.0</ele><time>2026-05-02T11:38:38.999Z</time></trkpt><trkpt lat="45.57692506969199" lon="8.14441875913021"><ele>304.0</ele><time>2026-05-02T11:38:39.999Z</time></trkpt><trkpt lat="45.57688273458453" lon="8.144311715511423"><ele>303.0</ele><time>2026-05-02T11:38:40.999Z</time></trkpt><trkpt lat="45.57684568713533" lon="8.144219093353623"><ele>302.0</ele><time>2026-05-02T11:38:41.999Z</time></trkpt><trkpt lat="45.576810139671245" lon="8.144124622799447"><ele>302.5</ele><time>2026-05-02T11:38:42.999Z</time></trkpt><trkpt lat="45.57677010943627" lon="8.144023173960795"><ele>303.0</ele><time>2026-05-02T11:38:43.999Z</time></trkpt><trkpt lat="45.57672989233985" lon="8.143930500671685"><ele>303.5</ele><time>2026-05-02T11:38:44.999Z</time></trkpt><trkpt lat="45.57668237752526" lon="8.143830255874269"><ele>304.0</ele><time>2026-05-02T11:38:45.999Z</time></trkpt><trkpt lat="45.576648970358576" lon="8.143727165342751"><ele>304.5</ele><time>2026-05-02T11:38:46.999Z</time></trkpt><trkpt lat="45.5766094565684" lon="8.14362662487206"><ele>305.0</ele><time>2026-05-02T11:38:47.999Z</time></trkpt><trkpt lat="45.57657466469748" lon="8.143527982270273"><ele>305.0</ele><time>2026-05-02T11:38:48.999Z</time></trkpt><trkpt lat="45.57654234534195" lon="8.143423036192868"><ele>305.0</ele><time>2026-05-02T11:38:49.999Z</time></trkpt><trkpt lat="45.57650624422023" lon="8.143330047069991"><ele>305.0</ele><time>2026-05-02T11:38:50.999Z</time></trkpt><trkpt lat="45.57646880033714" lon="8.143236409736414"><ele>305.0</ele><time>2026-05-02T11:38:51.999Z</time></trkpt><trkpt lat="45.576434446682555" lon="8.143147070444156"><ele>305.0</ele><time>2026-05-02T11:38:52.999Z</time></trkpt><trkpt lat="45.57639915688084" lon="8.143040509080048"><ele>305.0</ele><time>2026-05-02T11:38:53.999Z</time></trkpt><trkpt lat="45.57636045158185" lon="8.14293573181584"><ele>305.5</ele><time>2026-05-02T11:38:54.999Z</time></trkpt><trkpt lat="45.57632351183839" lon="8.142823602634811"><ele>306.0</ele><time>2026-05-02T11:38:55.999Z</time></trkpt><trkpt lat="45.57628834139919" lon="8.142720834722189"><ele>306.5</ele><time>2026-05-02T11:38:56.999Z</time></trkpt><trkpt lat="45.576254769110385" lon="8.142626511724822"><ele>307.0</ele><time>2026-05-02T11:38:57.999Z</time></trkpt><trkpt lat="45.576220419576025" lon="8.14252391135806"><ele>307.5</ele><time>2026-05-02T11:38:58.999Z</time></trkpt><trkpt lat="45.576198328157425" lon="8.142417108329285"><ele>308.0</ele><time>2026-05-02T11:38:59.999Z</time></trkpt><trkpt lat="45.576184759585594" lon="8.142310631819173"><ele>309.1666666666667</ele><time>2026-05-02T11:39:00.999Z</time></trkpt><trkpt lat="45.57618740757466" lon="8.142198958747462"><ele>310.33333333333337</ele><time>2026-05-02T11:39:01.999Z</time></trkpt><trkpt lat="45.576198588930986" lon="8.142081863485018"><ele>311.5</ele><time>2026-05-02T11:39:02.999Z</time></trkpt><trkpt lat="45.57621234640172" lon="8.141961378340419"><ele>312.6666666666667</ele><time>2026-05-02T11:39:03.999Z</time></trkpt><trkpt lat="45.57623158427562" lon="8.141838609612348"><ele>313.8333333333333</ele><time>2026-05-02T11:39:04.999Z</time></trkpt><trkpt lat="45.57624361402719" lon="8.1417140111975"><ele>315.0</ele><time>2026-05-02T11:39:05.999Z</time></trkpt><trkpt lat="45.5762546296632" lon="8.141593214704736"><ele>315.8333333333333</ele><time>2026-05-02T11:39:06.999Z</time></trkpt><trkpt lat="45.5762672019503" lon="8.14146955589948"><ele>316.6666666666667</ele><time>2026-05-02T11:39:07.999Z</time></trkpt><trkpt lat="45.576274509346945" lon="8.141352251155588"><ele>317.5</ele><time>2026-05-02T11:39:08.999Z</time></trkpt><trkpt lat="45.57627242505377" lon="8.141230888704138"><ele>318.33333333333337</ele><time>2026-05-02T11:39:09.999Z</time></trkpt><trkpt lat="45.576276779936386" lon="8.141106449419095"><ele>319.1666666666667</ele><time>2026-05-02T11:39:10.999Z</time></trkpt><trkpt lat="45.576274828964884" lon="8.140983201309554"><ele>320.0</ele><time>2026-05-02T11:39:11.999Z</time></trkpt><trkpt lat="45.57627822165152" lon="8.140855718587273"><ele>320.0</ele><time>2026-05-02T11:39:12.999Z</time></trkpt><trkpt lat="45.57627550023291" lon="8.140732610017277"><ele>320.0</ele><time>2026-05-02T11:39:13.999Z</time></trkpt><trkpt lat="45.57627579277656" lon="8.140605407376325"><ele>320.0</ele><time>2026-05-02T11:39:14.999Z</time></trkpt><trkpt lat="45.57628051813427" lon="8.140483279944892"><ele>320.0</ele><time>2026-05-02T11:39:15.999Z</time></trkpt><trkpt lat="45.57627929687163" lon="8.14036077710246"><ele>320.0</ele><time>2026-05-02T11:39:16.999Z</time></trkpt><trkpt lat="45.576285006881115" lon="8.140236848906326"><ele>320.0</ele><time>2026-05-02T11:39:17.999Z</time></trkpt><trkpt lat="45.57629216868809" lon="8.140110387988116"><ele>320.0</ele><time>2026-05-02T11:39:18.999Z</time></trkpt><trkpt lat="45.57629760403659" lon="8.139984320217144"><ele>320.0</ele><time>2026-05-02T11:39:19.999Z</time></trkpt><trkpt lat="45.57630267399906" lon="8.139858343865006"><ele>320.0</ele><time>2026-05-02T11:39:20.999Z</time></trkpt><trkpt lat="45.57630713464435" lon="8.139729999823215"><ele>320.0</ele><time>2026-05-02T11:39:21.998Z</time></trkpt><trkpt lat="45.57631147530462" lon="8.139599332492388"><ele>320.0</ele><time>2026-05-02T11:39:22.998Z</time></trkpt><trkpt lat="45.576319129793575" lon="8.139470901665215"><ele>320.0</ele><time>2026-05-02T11:39:23.998Z</time></trkpt><trkpt lat="45.57632486203796" lon="8.13934340414034"><ele>320.0</ele><time>2026-05-02T11:39:24.998Z</time></trkpt><trkpt lat="45.57632810128693" lon="8.139215314662524"><ele>320.0</ele><time>2026-05-02T11:39:25.998Z</time></trkpt><trkpt lat="45.57633414617278" lon="8.139093245439302"><ele>320.0</ele><time>2026-05-02T11:39:26.998Z</time></trkpt><trkpt lat="45.5763390957875" lon="8.138975129628312"><ele>320.0</ele><time>2026-05-02T11:39:27.998Z</time></trkpt><trkpt lat="45.576345237960425" lon="8.13886139722148"><ele>320.0</ele><time>2026-05-02T11:39:28.998Z</time></trkpt><trkpt lat="45.57634945281016" lon="8.138754749632355"><ele>320.0</ele><time>2026-05-02T11:39:29.998Z</time></trkpt><trkpt lat="45.57635627521602" lon="8.138653977497508"><ele>320.0</ele><time>2026-05-02T11:39:30.998Z</time></trkpt><trkpt lat="45.57636556583648" lon="8.138557955787505"><ele>320.0</ele><time>2026-05-02T11:39:31.998Z</time></trkpt><trkpt lat="45.576369127442746" lon="8.138464004011137"><ele>320.0</ele><time>2026-05-02T11:39:32.998Z</time></trkpt><trkpt lat="45.57637767110981" lon="8.138322949822472"><ele>320.0</ele><time>2026-05-02T11:39:34.998Z</time></trkpt><trkpt lat="45.57646670310497" lon="8.138243673347178"><ele>320.0</ele><time>2026-05-02T11:39:40.998Z</time></trkpt><trkpt lat="45.57653842491002" lon="8.138235822878391"><ele>320.0</ele><time>2026-05-02T11:39:48.998Z</time></trkpt><trkpt lat="45.57660680920645" lon="8.138185581859892"><ele>320.6666666666667</ele><time>2026-05-02T11:39:55Z</time></trkpt><trkpt lat="45.57672077576412" lon="8.138185497998274"><ele>321.33333333333337</ele><time>2026-05-02T11:39:57Z</time></trkpt><trkpt lat="45.57683615608085" lon="8.1381882869368"><ele>322.0</ele><time>2026-05-02T11:39:59Z</time></trkpt><trkpt lat="45.57690067818425" lon="8.13819558481991"><ele>322.6666666666667</ele><time>2026-05-02T11:40:00Z</time></trkpt><trkpt lat="45.57697193265709" lon="8.138203335613404"><ele>323.3333333333333</ele><time>2026-05-02T11:40:01Z</time></trkpt><trkpt lat="45.57704145812953" lon="8.13821150715333"><ele>324.0</ele><time>2026-05-02T11:40:02Z</time></trkpt><trkpt lat="45.577159408650964" lon="8.138218888855357"><ele>324.79999999999995</ele><time>2026-05-02T11:40:04Z</time></trkpt><trkpt lat="45.5772479244497" lon="8.138226738527282"><ele>325.59999999999997</ele><time>2026-05-02T11:40:05Z</time></trkpt><trkpt lat="45.57734637957189" lon="8.138217838372977"><ele>326.4</ele><time>2026-05-02T11:40:06Z</time></trkpt><trkpt lat="45.57741716791209" lon="8.138196190014199"><ele>327.2</ele><time>2026-05-02T11:40:07Z</time></trkpt><trkpt lat="45.57753049464731" lon="8.138150593853233"><ele>328.0</ele><time>2026-05-02T11:40:09Z</time></trkpt><trkpt lat="45.57763257118705" lon="8.13806972292443"><ele>343.0</ele><time>2026-05-02T11:40:11Z</time></trkpt><trkpt lat="45.57747459182254" lon="8.137321811366538"><ele>343.0</ele><time>2026-05-02T11:40:12Z</time></trkpt><trkpt lat="45.577476461940385" lon="8.13721623486955"><ele>343.0</ele><time>2026-05-02T11:40:13Z</time></trkpt><trkpt lat="45.57748190726033" lon="8.1370996149697"><ele>343.0</ele><time>2026-05-02T11:40:14Z</time></trkpt><trkpt lat="45.5774852395183" lon="8.13699098252092"><ele>343.0</ele><time>2026-05-02T11:40:15Z</time></trkpt><trkpt lat="45.57748378810266" lon="8.136886838459406"><ele>343.0</ele><time>2026-05-02T11:40:16Z</time></trkpt><trkpt lat="45.57747758908732" lon="8.136774208985472"><ele>343.0</ele><time>2026-05-02T11:40:17Z</time></trkpt><trkpt lat="45.57746860449868" lon="8.136666942384247"><ele>343.0</ele><time>2026-05-02T11:40:18Z</time></trkpt><trkpt lat="45.57744897168148" lon="8.136554724796595"><ele>343.0</ele><time>2026-05-02T11:40:19Z</time></trkpt><trkpt lat="45.57743867446102" lon="8.136454825142266"><ele>343.0</ele><time>2026-05-02T11:40:20Z</time></trkpt><trkpt lat="45.57743159423262" lon="8.136304553425477"><ele>343.0</ele><time>2026-05-02T11:40:22Z</time></trkpt><trkpt lat="45.5774407422964" lon="8.136173472342774"><ele>343.0</ele><time>2026-05-02T11:40:24Z</time></trkpt><trkpt lat="45.577453702413" lon="8.136012017466188"><ele>343.14285714285717</ele><time>2026-05-02T11:40:25.999Z</time></trkpt><trkpt lat="45.57745128777256" lon="8.135918460333258"><ele>343.2857142857143</ele><time>2026-05-02T11:40:26.999Z</time></trkpt><trkpt lat="45.57745051776746" lon="8.135782402055758"><ele>343.42857142857144</ele><time>2026-05-02T11:40:28.999Z</time></trkpt><trkpt lat="45.577444488866675" lon="8.135690012189603"><ele>343.57142857142856</ele><time>2026-05-02T11:40:31.999Z</time></trkpt><trkpt lat="45.57745409562603" lon="8.135597862554954"><ele>343.7142857142857</ele><time>2026-05-02T11:40:36.999Z</time></trkpt><trkpt lat="45.57742755559649" lon="8.135708661965896"><ele>343.8571428571429</ele><time>2026-05-02T11:41:14.999Z</time></trkpt><trkpt lat="45.57742960130874" lon="8.135804633413665"><ele>344.0</ele><time>2026-05-02T11:41:16.999Z</time></trkpt><trkpt lat="45.577431723785054" lon="8.135898588536696"><ele>343.8571428571429</ele><time>2026-05-02T11:41:18.999Z</time></trkpt><trkpt lat="45.57745031780459" lon="8.136015735549053"><ele>343.7142857142857</ele><time>2026-05-02T11:41:21.999Z</time></trkpt><trkpt lat="45.57744255657138" lon="8.136115686466221"><ele>343.57142857142856</ele><time>2026-05-02T11:41:31.998Z</time></trkpt><trkpt lat="45.577429595859705" lon="8.13622483721814"><ele>343.42857142857144</ele><time>2026-05-02T11:41:33.998Z</time></trkpt><trkpt lat="45.57742167240606" lon="8.1363240063795"><ele>343.2857142857143</ele><time>2026-05-02T11:41:35.998Z</time></trkpt><trkpt lat="45.57741866105049" lon="8.136417501372419"><ele>343.14285714285717</ele><time>2026-05-02T11:41:37.998Z</time></trkpt><trkpt lat="45.57743635624128" lon="8.13650966323174"><ele>343.0</ele><time>2026-05-02T11:41:39.998Z</time></trkpt><trkpt lat="45.577447471979504" lon="8.136615471022157"><ele>343.0</ele><time>2026-05-02T11:41:41.998Z</time></trkpt><trkpt lat="45.577462005337" lon="8.136758940578432"><ele>343.0</ele><time>2026-05-02T11:41:43.998Z</time></trkpt><trkpt lat="45.5774747933836" lon="8.136905432629106"><ele>343.0</ele><time>2026-05-02T11:41:45.998Z</time></trkpt><trkpt lat="45.57747600404447" lon="8.137072910475219"><ele>343.0</ele><time>2026-05-02T11:41:47.998Z</time></trkpt><trkpt lat="45.577464450070444" lon="8.137253269972865"><ele>343.0</ele><time>2026-05-02T11:41:49.998Z</time></trkpt><trkpt lat="45.577461244135854" lon="8.13734556551958"><ele>341.59999999999997</ele><time>2026-05-02T11:41:50.998Z</time></trkpt><trkpt lat="45.577458796848816" lon="8.13750521433273"><ele>340.2</ele><time>2026-05-02T11:41:52.998Z</time></trkpt><trkpt lat="45.577428208345815" lon="8.137647177943403"><ele>338.8</ele><time>2026-05-02T11:41:54.998Z</time></trkpt><trkpt lat="45.577332214449044" lon="8.137732529866517"><ele>337.4</ele><time>2026-05-02T11:41:56.998Z</time></trkpt><trkpt lat="45.577277099896556" lon="8.137777970194913"><ele>336.0</ele><time>2026-05-02T11:41:57.998Z</time></trkpt><trkpt lat="45.57719144462403" lon="8.137832172440435"><ele>336.0</ele><time>2026-05-02T11:42:00Z</time></trkpt><trkpt lat="45.577077670102156" lon="8.13788823819357"><ele>336.0</ele><time>2026-05-02T11:42:02Z</time></trkpt><trkpt lat="45.576998110941716" lon="8.13790604118635"><ele>336.0</ele><time>2026-05-02T11:42:03Z</time></trkpt><trkpt lat="45.57692856629334" lon="8.137927991974701"><ele>336.0</ele><time>2026-05-02T11:42:04Z</time></trkpt><trkpt lat="45.57685936544674" lon="8.137955674027559"><ele>336.0</ele><time>2026-05-02T11:42:05Z</time></trkpt><trkpt lat="45.57678971453094" lon="8.137979939232086"><ele>336.0</ele><time>2026-05-02T11:42:06Z</time></trkpt><trkpt lat="45.57672447930028" lon="8.13807891566993"><ele>333.0</ele><time>2026-05-02T11:42:07Z</time></trkpt><trkpt lat="45.57661635891867" lon="8.138078835811799"><ele>330.0</ele><time>2026-05-02T11:42:09Z</time></trkpt><trkpt lat="45.57653710631251" lon="8.138066589434157"><ele>327.0</ele><time>2026-05-02T11:42:11Z</time></trkpt><trkpt lat="45.57631547166577" lon="8.138139982124569"><ele>324.0</ele><time>2026-05-02T11:42:14Z</time></trkpt><trkpt lat="45.576573193454664" lon="8.138179994460158"><ele>324.0</ele><time>2026-05-02T11:42:15Z</time></trkpt><trkpt lat="45.57664674870348" lon="8.138179991370231"><ele>324.0</ele><time>2026-05-02T11:42:16Z</time></trkpt><trkpt lat="45.57673820468187" lon="8.138179147322395"><ele>324.0</ele><time>2026-05-02T11:42:17Z</time></trkpt><trkpt lat="45.57685136528728" lon="8.138183595888918"><ele>324.0</ele><time>2026-05-02T11:42:18Z</time></trkpt><trkpt lat="45.57697019584484" lon="8.13819176523051"><ele>324.0</ele><time>2026-05-02T11:42:19Z</time></trkpt><trkpt lat="45.57710985689997" lon="8.138209831306652"><ele>324.79999999999995</ele><time>2026-05-02T11:42:20Z</time></trkpt><trkpt lat="45.57724638130642" lon="8.138230979943355"><ele>325.59999999999997</ele><time>2026-05-02T11:42:21Z</time></trkpt><trkpt lat="45.57735863401742" lon="8.138229127220349"><ele>326.4</ele><time>2026-05-02T11:42:22Z</time></trkpt><trkpt lat="45.57744960620965" lon="8.138201056199504"><ele>327.2</ele><time>2026-05-02T11:42:23Z</time></trkpt><trkpt lat="45.57754605798766" lon="8.138143562988171"><ele>328.0</ele><time>2026-05-02T11:42:24Z</time></trkpt><trkpt lat="45.57765164983498" lon="8.138097039131807"><ele>329.59999999999997</ele><time>2026-05-02T11:42:25Z</time></trkpt><trkpt lat="45.57775009507956" lon="8.1380470196486"><ele>331.2</ele><time>2026-05-02T11:42:26Z</time></trkpt><trkpt lat="45.577845808982865" lon="8.138001417135687"><ele>332.8</ele><time>2026-05-02T11:42:27Z</time></trkpt><trkpt lat="45.57794016473682" lon="8.137956404645294"><ele>334.4</ele><time>2026-05-02T11:42:28Z</time></trkpt><trkpt lat="45.57802816016594" lon="8.137920313006077"><ele>336.0</ele><time>2026-05-02T11:42:29Z</time></trkpt><trkpt lat="45.57811321404314" lon="8.137893267086238"><ele>332.6</ele><time>2026-05-02T11:42:30Z</time></trkpt><trkpt lat="45.57818735377984" lon="8.137866903083342"><ele>329.20000000000005</ele><time>2026-05-02T11:42:31Z</time></trkpt><trkpt lat="45.5782607754769" lon="8.137834868655142"><ele>325.79999999999995</ele><time>2026-05-02T11:42:32Z</time></trkpt><trkpt lat="45.57832979662538" lon="8.137838920978522"><ele>322.4</ele><time>2026-05-02T11:42:33Z</time></trkpt><trkpt lat="45.57834756353356" lon="8.137592256489746"><ele>319.0</ele><time>2026-05-02T11:42:35Z</time></trkpt><trkpt lat="45.5783720736557" lon="8.137480927032984"><ele>319.79999999999995</ele><time>2026-05-02T11:42:37Z</time></trkpt><trkpt lat="45.57838000837711" lon="8.137352612571803"><ele>320.59999999999997</ele><time>2026-05-02T11:42:39.999Z</time></trkpt><trkpt lat="45.578258216952136" lon="8.137245721819472"><ele>321.4</ele><time>2026-05-02T11:42:40.999Z</time></trkpt><trkpt lat="45.578229713491446" lon="8.137137505369953"><ele>322.2</ele><time>2026-05-02T11:42:42.999Z</time></trkpt><trkpt lat="45.578215214244665" lon="8.137018468010455"><ele>323.0</ele><time>2026-05-02T11:42:44.999Z</time></trkpt><trkpt lat="45.578182486890725" lon="8.136925482155132"><ele>323.0</ele><time>2026-05-02T11:42:46.999Z</time></trkpt><trkpt lat="45.578170327669646" lon="8.136799683684963"><ele>323.0</ele><time>2026-05-02T11:42:49.999Z</time></trkpt><trkpt lat="45.57820868648867" lon="8.136705072479266"><ele>323.0</ele><time>2026-05-02T11:42:54.999Z</time></trkpt><trkpt lat="45.57825465539398" lon="8.136639531629218"><ele>323.0</ele><time>2026-05-02T11:43:00.999Z</time></trkpt><trkpt lat="45.57829714085147" lon="8.136572189865579"><ele>323.0</ele><time>2026-05-02T11:43:29.999Z</time></trkpt><trkpt lat="45.578359125973215" lon="8.13649590792571"><ele>323.0</ele><time>2026-05-02T11:43:32.999Z</time></trkpt><trkpt lat="45.578452402956515" lon="8.136403488687689"><ele>323.4</ele><time>2026-05-02T11:43:34.999Z</time></trkpt><trkpt lat="45.57849049400701" lon="8.136330192677928"><ele>323.79999999999995</ele><time>2026-05-02T11:43:35.999Z</time></trkpt><trkpt lat="45.57857324612359" lon="8.136223616312762"><ele>324.2</ele><time>2026-05-02T11:43:37.999Z</time></trkpt><trkpt lat="45.57866013798283" lon="8.136117954529736"><ele>324.6</ele><time>2026-05-02T11:43:39.999Z</time></trkpt><trkpt lat="45.57866194479843" lon="8.135956299456545"><ele>325.0</ele><time>2026-05-02T11:43:41.999Z</time></trkpt><trkpt lat="45.57860508407335" lon="8.135916599096234"><ele>325.0</ele><time>2026-05-02T11:43:43.999Z</time></trkpt><trkpt lat="45.57858508719244" lon="8.135812679916011"><ele>325.0</ele><time>2026-05-02T11:43:45.999Z</time></trkpt><trkpt lat="45.57864001694656" lon="8.135664618424524"><ele>325.0</ele><time>2026-05-02T11:43:47.998Z</time></trkpt><trkpt lat="45.578597366179466" lon="8.13552866776374"><ele>325.0</ele><time>2026-05-02T11:43:49.998Z</time></trkpt><trkpt lat="45.57864565207867" lon="8.135424304894483"><ele>325.0</ele><time>2026-05-02T11:43:51.998Z</time></trkpt><trkpt lat="45.5786382057872" lon="8.135317670288218"><ele>324.8333333333333</ele><time>2026-05-02T11:43:53.998Z</time></trkpt><trkpt lat="45.57861493063522" lon="8.135208355737776"><ele>324.66666666666663</ele><time>2026-05-02T11:43:55.998Z</time></trkpt><trkpt lat="45.57859910293143" lon="8.135075073643982"><ele>324.5</ele><time>2026-05-02T11:43:58.998Z</time></trkpt><trkpt lat="45.57860403967885" lon="8.134967310600251"><ele>324.3333333333333</ele><time>2026-05-02T11:44:00.998Z</time></trkpt><trkpt lat="45.578667528468756" lon="8.134976466124476"><ele>324.1666666666667</ele><time>2026-05-02T11:44:03.998Z</time></trkpt><trkpt lat="45.57872638306177" lon="8.134932563156918"><ele>324.0</ele><time>2026-05-02T11:44:42.999Z</time></trkpt><trkpt lat="45.57878936534916" lon="8.1349855114551"><ele>323.6</ele><time>2026-05-02T11:44:44.999Z</time></trkpt><trkpt lat="45.5788911333451" lon="8.134948286171532"><ele>323.2</ele><time>2026-05-02T11:44:47.999Z</time></trkpt><trkpt lat="45.578978262526746" lon="8.134896105893867"><ele>322.8</ele><time>2026-05-02T11:44:48.999Z</time></trkpt><trkpt lat="45.5790557398648" lon="8.134803698120747"><ele>322.40000000000003</ele><time>2026-05-02T11:44:49.999Z</time></trkpt><trkpt lat="45.57910442455318" lon="8.13468985063223"><ele>322.0</ele><time>2026-05-02T11:44:50.999Z</time></trkpt><trkpt lat="45.57912923175666" lon="8.134566979497412"><ele>322.0</ele><time>2026-05-02T11:44:51.999Z</time></trkpt><trkpt lat="45.57914568387816" lon="8.134453444625803"><ele>322.0</ele><time>2026-05-02T11:44:52.999Z</time></trkpt><trkpt lat="45.579141462325424" lon="8.134329119620096"><ele>322.0</ele><time>2026-05-02T11:44:53.999Z</time></trkpt><trkpt lat="45.5791292413935" lon="8.134222784287582"><ele>322.0</ele><time>2026-05-02T11:44:54.999Z</time></trkpt><trkpt lat="45.579066612568205" lon="8.13400109022967"><ele>322.0</ele><time>2026-05-02T11:44:56.999Z</time></trkpt><trkpt lat="45.57908867784819" lon="8.133911206453535"><ele>323.20000000000005</ele><time>2026-05-02T11:44:57.999Z</time></trkpt><trkpt lat="45.57913871645729" lon="8.133855227085734"><ele>324.4</ele><time>2026-05-02T11:44:58.999Z</time></trkpt><trkpt lat="45.57919767720823" lon="8.133724093691324"><ele>325.6</ele><time>2026-05-02T11:44:59.999Z</time></trkpt><trkpt lat="45.579266548601474" lon="8.1335854180288"><ele>326.79999999999995</ele><time>2026-05-02T11:45:00.999Z</time></trkpt><trkpt lat="45.57933188208918" lon="8.1334559791781"><ele>328.0</ele><time>2026-05-02T11:45:01.999Z</time></trkpt><trkpt lat="45.579416671147136" lon="8.13340629693281"><ele>328.0</ele><time>2026-05-02T11:45:02.999Z</time></trkpt><trkpt lat="45.579475356938126" lon="8.133363108865446"><ele>328.0</ele><time>2026-05-02T11:45:03.999Z</time></trkpt><trkpt lat="45.57956712344388" lon="8.1333573629868"><ele>328.0</ele><time>2026-05-02T11:45:49.998Z</time></trkpt><trkpt lat="45.57964705670855" lon="8.133341089020398"><ele>328.0</ele><time>2026-05-02T11:46:22Z</time></trkpt><trkpt lat="45.57971715191928" lon="8.133291457431325"><ele>328.0</ele><time>2026-05-02T11:46:31Z</time></trkpt><trkpt lat="45.579793296256724" lon="8.133263839561842"><ele>328.0</ele><time>2026-05-02T11:46:32.999Z</time></trkpt><trkpt lat="45.57983860449503" lon="8.133165994893272"><ele>327.4</ele><time>2026-05-02T11:46:34.999Z</time></trkpt><trkpt lat="45.579848252947535" lon="8.132991783639875"><ele>326.79999999999995</ele><time>2026-05-02T11:46:36.999Z</time></trkpt><trkpt lat="45.579847622415755" lon="8.132877296597984"><ele>326.2</ele><time>2026-05-02T11:46:37.999Z</time></trkpt><trkpt lat="45.57985020872581" lon="8.132726960960303"><ele>325.6</ele><time>2026-05-02T11:46:38.999Z</time></trkpt><trkpt lat="45.57983409178764" lon="8.132637959132676"><ele>325.0</ele><time>2026-05-02T11:46:39.999Z</time></trkpt><trkpt lat="45.57977253188815" lon="8.132523411937042"><ele>325.0</ele><time>2026-05-02T11:46:41.999Z</time></trkpt><trkpt lat="45.57980215010029" lon="8.13241492608218"><ele>325.0</ele><time>2026-05-02T11:46:42.999Z</time></trkpt><trkpt lat="45.57981341697576" lon="8.132311797947736"><ele>325.0</ele><time>2026-05-02T11:46:43.999Z</time></trkpt><trkpt lat="45.579812155773105" lon="8.132192048558178"><ele>325.0</ele><time>2026-05-02T11:46:44.999Z</time></trkpt><trkpt lat="45.57975506457233" lon="8.132094838612705"><ele>325.0</ele><time>2026-05-02T11:46:45.999Z</time></trkpt><trkpt lat="45.57971422400192" lon="8.13189103611434"><ele>325.8</ele><time>2026-05-02T11:46:47.999Z</time></trkpt><trkpt lat="45.5797153827588" lon="8.131748083520407"><ele>326.6</ele><time>2026-05-02T11:46:48.999Z</time></trkpt><trkpt lat="45.57972996351332" lon="8.131580323956326"><ele>327.4</ele><time>2026-05-02T11:46:49.999Z</time></trkpt><trkpt lat="45.57973185712745" lon="8.131404911574066"><ele>328.2</ele><time>2026-05-02T11:46:50.999Z</time></trkpt><trkpt lat="45.57973327428467" lon="8.131280143055355"><ele>329.0</ele><time>2026-05-02T11:46:51.999Z</time></trkpt><trkpt lat="45.579706437257414" lon="8.131153993908923"><ele>329.2</ele><time>2026-05-02T11:46:52.999Z</time></trkpt><trkpt lat="45.57968150755507" lon="8.1309937679111"><ele>329.4</ele><time>2026-05-02T11:46:53.999Z</time></trkpt><trkpt lat="45.579687860359826" lon="8.130817099331948"><ele>329.6</ele><time>2026-05-02T11:46:54.999Z</time></trkpt><trkpt lat="45.57970166214983" lon="8.130671245429149"><ele>329.8</ele><time>2026-05-02T11:46:55.999Z</time></trkpt><trkpt lat="45.57969038224178" lon="8.130539016438028"><ele>330.0</ele><time>2026-05-02T11:46:56.999Z</time></trkpt><trkpt lat="45.57967436636758" lon="8.130427659964843"><ele>330.0</ele><time>2026-05-02T11:46:57.999Z</time></trkpt><trkpt lat="45.579651437967364" lon="8.130322762854412"><ele>330.0</ele><time>2026-05-02T11:46:58.999Z</time></trkpt><trkpt lat="45.57970577220285" lon="8.130249673157113"><ele>330.0</ele><time>2026-05-02T11:47:00.999Z</time></trkpt><trkpt lat="45.579710127380835" lon="8.130146586511817"><ele>330.0</ele><time>2026-05-02T11:47:01.999Z</time></trkpt><trkpt lat="45.57970177416226" lon="8.130007760990871"><ele>330.0</ele><time>2026-05-02T11:47:02.999Z</time></trkpt><trkpt lat="45.57967579226613" lon="8.129909871799281"><ele>330.0</ele><time>2026-05-02T11:47:03.999Z</time></trkpt><trkpt lat="45.579647597103715" lon="8.12974675646122"><ele>330.14285714285717</ele><time>2026-05-02T11:47:05.999Z</time></trkpt><trkpt lat="45.57965350197123" lon="8.12963492422244"><ele>330.2857142857143</ele><time>2026-05-02T11:47:06.999Z</time></trkpt><trkpt lat="45.57968644799709" lon="8.129554534709074"><ele>330.42857142857144</ele><time>2026-05-02T11:47:08.999Z</time></trkpt><trkpt lat="45.57973392525392" lon="8.129490519700402"><ele>330.57142857142856</ele><time>2026-05-02T11:47:11.999Z</time></trkpt><trkpt lat="45.57974810404512" lon="8.129373845569159"><ele>330.7142857142857</ele><time>2026-05-02T11:47:13.999Z</time></trkpt><trkpt lat="45.57981119422957" lon="8.129399195005815"><ele>330.8571428571429</ele><time>2026-05-02T11:47:15.999Z</time></trkpt><trkpt lat="45.57988742698993" lon="8.12944614994474"><ele>331.0</ele><time>2026-05-02T11:47:16.999Z</time></trkpt><trkpt lat="45.579980398253" lon="8.129418885832996"><ele>331.0</ele><time>2026-05-02T11:47:17.999Z</time></trkpt><trkpt lat="45.58006909750576" lon="8.129297863589285"><ele>331.0</ele><time>2026-05-02T11:47:19.999Z</time></trkpt><trkpt lat="45.580153264048704" lon="8.129261788280354"><ele>331.0</ele><time>2026-05-02T11:47:20.999Z</time></trkpt><trkpt lat="45.580244061890134" lon="8.129249583406427"><ele>331.0</ele><time>2026-05-02T11:47:21.999Z</time></trkpt><trkpt lat="45.58031019908864" lon="8.129245525139131"><ele>331.0</ele><time>2026-05-02T11:47:22.999Z</time></trkpt><trkpt lat="45.58037933958432" lon="8.129219732838836"><ele>331.0</ele><time>2026-05-02T11:47:23.999Z</time></trkpt><trkpt lat="45.580448523919316" lon="8.129194669704232"><ele>332.6</ele><time>2026-05-02T11:47:25.999Z</time></trkpt><trkpt lat="45.58051949765734" lon="8.129139982126922"><ele>334.20000000000005</ele><time>2026-05-02T11:47:41.999Z</time></trkpt><trkpt lat="45.58058937851627" lon="8.129153976822106"><ele>335.79999999999995</ele><time>2026-05-02T11:47:43.999Z</time></trkpt><trkpt lat="45.58066529395857" lon="8.12914848130008"><ele>337.4</ele><time>2026-05-02T11:47:45.999Z</time></trkpt><trkpt lat="45.58077473569535" lon="8.12916713130667"><ele>339.0</ele><time>2026-05-02T11:47:47.998Z</time></trkpt><trkpt lat="45.580905856623986" lon="8.129208599282038"><ele>339.0</ele><time>2026-05-02T11:47:49.998Z</time></trkpt><trkpt lat="45.58096761729038" lon="8.129246837511849"><ele>339.0</ele><time>2026-05-02T11:47:50.998Z</time></trkpt><trkpt lat="45.581077437952594" lon="8.12930249090949"><ele>339.0</ele><time>2026-05-02T11:47:52.998Z</time></trkpt><trkpt lat="45.58115363748833" lon="8.129303614618234"><ele>339.0</ele><time>2026-05-02T11:47:53.998Z</time></trkpt><trkpt lat="45.58126018796737" lon="8.12931495660737"><ele>339.0</ele><time>2026-05-02T11:47:55.998Z</time></trkpt><trkpt lat="45.581337669535685" lon="8.129298615125714"><ele>339.0</ele><time>2026-05-02T11:47:57.998Z</time></trkpt><trkpt lat="45.58141086952128" lon="8.129307031887139"><ele>341.5</ele><time>2026-05-02T11:47:58.998Z</time></trkpt><trkpt lat="45.58150630354618" lon="8.129312538701827"><ele>344.0</ele><time>2026-05-02T11:47:59.998Z</time></trkpt><trkpt lat="45.581605470487965" lon="8.129329543014457"><ele>346.5</ele><time>2026-05-02T11:48:00.998Z</time></trkpt><trkpt lat="45.58167932440298" lon="8.129331764120963"><ele>349.0</ele><time>2026-05-02T11:48:01.998Z</time></trkpt><trkpt lat="45.58177424972383" lon="8.129329442354134"><ele>351.5</ele><time>2026-05-02T11:48:02.998Z</time></trkpt><trkpt lat="45.58185511041984" lon="8.12932722493252"><ele>354.0</ele><time>2026-05-02T11:48:03.998Z</time></trkpt><trkpt lat="45.581946729877686" lon="8.129341426317886"><ele>356.8333333333333</ele><time>2026-05-02T11:48:04.998Z</time></trkpt><trkpt lat="45.58204033881882" lon="8.129348944863375"><ele>359.6666666666667</ele><time>2026-05-02T11:48:05.998Z</time></trkpt><trkpt lat="45.582119302531545" lon="8.129352890170246"><ele>362.5</ele><time>2026-05-02T11:48:06.998Z</time></trkpt><trkpt lat="45.58219131954832" lon="8.129351113007887"><ele>365.33333333333337</ele><time>2026-05-02T11:48:07.998Z</time></trkpt><trkpt lat="45.582254236259075" lon="8.129338098287189"><ele>368.1666666666667</ele><time>2026-05-02T11:48:08.998Z</time></trkpt><trkpt lat="45.58234515025681" lon="8.129367547488572"><ele>371.0</ele><time>2026-05-02T11:48:11.998Z</time></trkpt><trkpt lat="45.582446616702164" lon="8.129372779452005"><ele>371.0</ele><time>2026-05-02T11:48:13.998Z</time></trkpt><trkpt lat="45.5825595323876" lon="8.12937781239572"><ele>371.0</ele><time>2026-05-02T11:48:15.998Z</time></trkpt><trkpt lat="45.58264626989429" lon="8.129382035302555"><ele>371.0</ele><time>2026-05-02T11:48:18Z</time></trkpt><trkpt lat="45.582729147083306" lon="8.129386713727616"><ele>371.0</ele><time>2026-05-02T11:48:24Z</time></trkpt><trkpt lat="45.58283718572295" lon="8.129387660865515"><ele>371.0</ele><time>2026-05-02T11:48:26Z</time></trkpt><trkpt lat="45.582932722850614" lon="8.129395059317783"><ele>373.1666666666667</ele><time>2026-05-02T11:48:28Z</time></trkpt><trkpt lat="45.5830126144305" lon="8.129395479397338"><ele>375.33333333333337</ele><time>2026-05-02T11:48:30Z</time></trkpt><trkpt lat="45.58308367303832" lon="8.12939819614868"><ele>377.5</ele><time>2026-05-02T11:48:34Z</time></trkpt><trkpt lat="45.58311213805384" lon="8.129290139783256"><ele>379.6666666666667</ele><time>2026-05-02T11:48:51.999Z</time></trkpt><trkpt lat="45.58312019423936" lon="8.129166618382715"><ele>381.8333333333333</ele><time>2026-05-02T11:48:53.999Z</time></trkpt><trkpt lat="45.58319897593096" lon="8.129140474819847"><ele>384.0</ele><time>2026-05-02T11:48:56.999Z</time></trkpt><trkpt lat="45.583292227493146" lon="8.129172021095226"><ele>384.0</ele><time>2026-05-02T11:48:58.999Z</time></trkpt><trkpt lat="45.58331314908845" lon="8.129292199664341"><ele>384.0</ele><time>2026-05-02T11:49:00.999Z</time></trkpt><trkpt lat="45.583395327832676" lon="8.129387870478661"><ele>384.0</ele><time>2026-05-02T11:49:02.999Z</time></trkpt><trkpt lat="45.58351848882677" lon="8.129356480012776"><ele>384.0</ele><time>2026-05-02T11:49:04.999Z</time></trkpt><trkpt lat="45.583583380008534" lon="8.1293690115339"><ele>384.0</ele><time>2026-05-02T11:49:05.999Z</time></trkpt><trkpt lat="45.58364327286069" lon="8.129255517562669"><ele>383.5</ele><time>2026-05-02T11:49:06.999Z</time></trkpt><trkpt lat="45.58370665602023" lon="8.129181941321756"><ele>383.0</ele><time>2026-05-02T11:49:07.999Z</time></trkpt><trkpt lat="45.58377430514109" lon="8.12909873186692"><ele>382.5</ele><time>2026-05-02T11:49:08.999Z</time></trkpt><trkpt lat="45.5838435749586" lon="8.129019011557512"><ele>382.0</ele><time>2026-05-02T11:49:09.999Z</time></trkpt><trkpt lat="45.58392250496357" lon="8.128947730413941"><ele>381.5</ele><time>2026-05-02T11:49:10.999Z</time></trkpt><trkpt lat="45.583999273784244" lon="8.1288748433069"><ele>381.0</ele><time>2026-05-02T11:49:11.999Z</time></trkpt><trkpt lat="45.58406545696037" lon="8.12878854771179"><ele>381.0</ele><time>2026-05-02T11:49:12.999Z</time></trkpt><trkpt lat="45.58412819730288" lon="8.128716288329622"><ele>381.0</ele><time>2026-05-02T11:49:13.999Z</time></trkpt><trkpt lat="45.58419442309655" lon="8.1286502025914"><ele>381.0</ele><time>2026-05-02T11:49:14.999Z</time></trkpt><trkpt lat="45.58426457645994" lon="8.128568292436352"><ele>381.0</ele><time>2026-05-02T11:49:15.999Z</time></trkpt><trkpt lat="45.584359588430715" lon="8.128486012352766"><ele>381.0</ele><time>2026-05-02T11:49:16.999Z</time></trkpt><trkpt lat="45.58444709915029" lon="8.128406613207508"><ele>381.0</ele><time>2026-05-02T11:49:17.999Z</time></trkpt><trkpt lat="45.58452263381146" lon="8.128311246292094"><ele>381.0</ele><time>2026-05-02T11:49:18.999Z</time></trkpt><trkpt lat="45.58458313895947" lon="8.128214275669546"><ele>381.0</ele><time>2026-05-02T11:49:19.999Z</time></trkpt><trkpt lat="45.58462375359147" lon="8.128104749532758"><ele>381.0</ele><time>2026-05-02T11:49:20.999Z</time></trkpt><trkpt lat="45.58465136033156" lon="8.127997242389828"><ele>381.0</ele><time>2026-05-02T11:49:21.999Z</time></trkpt><trkpt lat="45.58467577016893" lon="8.127902337990967"><ele>381.0</ele><time>2026-05-02T11:49:22.999Z</time></trkpt><trkpt lat="45.58471710414686" lon="8.127829381007148"><ele>381.0</ele><time>2026-05-02T11:49:23.999Z</time></trkpt><trkpt lat="45.58480159966026" lon="8.12775777811179"><ele>381.0</ele><time>2026-05-02T11:49:25.999Z</time></trkpt><trkpt lat="45.58484254598115" lon="8.127689241541187"><ele>381.0</ele><time>2026-05-02T11:49:27.999Z</time></trkpt><trkpt lat="45.58476095158065" lon="8.127766321072048"><ele>381.0</ele><time>2026-05-02T11:50:41Z</time></trkpt><trkpt lat="45.58466360053097" lon="8.127867155600374"><ele>381.0</ele><time>2026-05-02T11:50:43Z</time></trkpt><trkpt lat="45.58462210230665" lon="8.127955328375888"><ele>381.0</ele><time>2026-05-02T11:50:44Z</time></trkpt><trkpt lat="45.58459776594642" lon="8.128062667740899"><ele>381.0</ele><time>2026-05-02T11:50:45Z</time></trkpt><trkpt lat="45.58455528938155" lon="8.12815522428122"><ele>381.0</ele><time>2026-05-02T11:50:46Z</time></trkpt><trkpt lat="45.58451919403763" lon="8.128250290211984"><ele>381.0</ele><time>2026-05-02T11:50:47Z</time></trkpt><trkpt lat="45.58445567255819" lon="8.128327733393713"><ele>381.0</ele><time>2026-05-02T11:50:48Z</time></trkpt><trkpt lat="45.58439088015793" lon="8.128396408367314"><ele>381.0</ele><time>2026-05-02T11:50:49Z</time></trkpt><trkpt lat="45.584324537315844" lon="8.12846500161974"><ele>381.0</ele><time>2026-05-02T11:50:50Z</time></trkpt><trkpt lat="45.58425609175514" lon="8.128530828209291"><ele>381.0</ele><time>2026-05-02T11:50:50.999Z</time></trkpt><trkpt lat="45.58418866686256" lon="8.128604462315936"><ele>381.0</ele><time>2026-05-02T11:50:51.999Z</time></trkpt><trkpt lat="45.584115609873145" lon="8.128663919213013"><ele>381.0</ele><time>2026-05-02T11:50:52.999Z</time></trkpt><trkpt lat="45.58404946981988" lon="8.128737135665006"><ele>381.0</ele><time>2026-05-02T11:50:53.999Z</time></trkpt><trkpt lat="45.58398702696784" lon="8.128818889824977"><ele>381.0</ele><time>2026-05-02T11:50:54.999Z</time></trkpt><trkpt lat="45.58391893499649" lon="8.128897062561855"><ele>381.0</ele><time>2026-05-02T11:50:55.999Z</time></trkpt><trkpt lat="45.583849457048025" lon="8.128971354897379"><ele>381.0</ele><time>2026-05-02T11:50:56.999Z</time></trkpt><trkpt lat="45.58378411852474" lon="8.129045022379882"><ele>381.0</ele><time>2026-05-02T11:50:57.999Z</time></trkpt><trkpt lat="45.58371527334178" lon="8.129116119817665"><ele>381.0</ele><time>2026-05-02T11:50:58.999Z</time></trkpt><trkpt lat="45.583654162018256" lon="8.129194944325906"><ele>381.0</ele><time>2026-05-02T11:50:59.999Z</time></trkpt><trkpt lat="45.583580341916985" lon="8.129244615865652"><ele>381.0</ele><time>2026-05-02T11:51:00.999Z</time></trkpt><trkpt lat="45.583520715129325" lon="8.129304024902444"><ele>381.6</ele><time>2026-05-02T11:51:01.999Z</time></trkpt><trkpt lat="45.58343022648262" lon="8.129358818414614"><ele>382.20000000000005</ele><time>2026-05-02T11:51:03.999Z</time></trkpt><trkpt lat="45.58331888568823" lon="8.12926375917348"><ele>382.79999999999995</ele><time>2026-05-02T11:51:08.999Z</time></trkpt><trkpt lat="45.58328360520802" lon="8.12912839310895"><ele>383.4</ele><time>2026-05-02T11:51:10.999Z</time></trkpt><trkpt lat="45.58320204603955" lon="8.129074322477353"><ele>384.0</ele><time>2026-05-02T11:51:12.999Z</time></trkpt><trkpt lat="45.58310868212772" lon="8.129145312461155"><ele>384.0</ele><time>2026-05-02T11:51:14.999Z</time></trkpt><trkpt lat="45.58309681817207" lon="8.129266249267006"><ele>384.0</ele><time>2026-05-02T11:51:16.999Z</time></trkpt><trkpt lat="45.583082064235064" lon="8.129374699635292"><ele>384.0</ele><time>2026-05-02T11:51:18.999Z</time></trkpt><trkpt lat="45.5829674680879" lon="8.129384661940941"><ele>384.0</ele><time>2026-05-02T11:51:21.999Z</time></trkpt><trkpt lat="45.58288021374277" lon="8.129378629216863"><ele>384.0</ele><time>2026-05-02T11:51:22.999Z</time></trkpt><trkpt lat="45.58278004092311" lon="8.129363615071778"><ele>381.8333333333333</ele><time>2026-05-02T11:51:24.999Z</time></trkpt><trkpt lat="45.5826841480128" lon="8.12934992386685"><ele>379.6666666666667</ele><time>2026-05-02T11:51:26.999Z</time></trkpt><trkpt lat="45.58259404615032" lon="8.129335617399205"><ele>377.5</ele><time>2026-05-02T11:51:28.999Z</time></trkpt><trkpt lat="45.58252571690346" lon="8.12932805594374"><ele>375.33333333333337</ele><time>2026-05-02T11:51:29.999Z</time></trkpt><trkpt lat="45.58245499787964" lon="8.129316374355795"><ele>373.1666666666667</ele><time>2026-05-02T11:51:30.999Z</time></trkpt><trkpt lat="45.582381211941154" lon="8.129296591826277"><ele>371.0</ele><time>2026-05-02T11:51:31.999Z</time></trkpt><trkpt lat="45.582273163415536" lon="8.129275510463899"><ele>371.0</ele><time>2026-05-02T11:51:33.999Z</time></trkpt><trkpt lat="45.58215882101356" lon="8.129274393349247"><ele>371.0</ele><time>2026-05-02T11:51:35.999Z</time></trkpt><trkpt lat="45.58201855830024" lon="8.129265010322966"><ele>371.0</ele><time>2026-05-02T11:51:37.999Z</time></trkpt><trkpt lat="45.58194942701122" lon="8.12926591077436"><ele>371.0</ele><time>2026-05-02T11:51:38.999Z</time></trkpt><trkpt lat="45.581856139498" lon="8.1292755735472"><ele>371.0</ele><time>2026-05-02T11:51:39.999Z</time></trkpt><trkpt lat="45.58175020837567" lon="8.129260339938451"><ele>367.6</ele><time>2026-05-02T11:51:40.999Z</time></trkpt><trkpt lat="45.58164546220139" lon="8.129239433545038"><ele>364.20000000000005</ele><time>2026-05-02T11:51:41.999Z</time></trkpt><trkpt lat="45.58154078560461" lon="8.12923028110224"><ele>360.79999999999995</ele><time>2026-05-02T11:51:42.999Z</time></trkpt><trkpt lat="45.581450011420024" lon="8.129224490048264"><ele>357.4</ele><time>2026-05-02T11:51:43.999Z</time></trkpt><trkpt lat="45.58138060575799" lon="8.1292318522633"><ele>354.0</ele><time>2026-05-02T11:51:44.999Z</time></trkpt><trkpt lat="45.58125084918483" lon="8.129218171533083"><ele>354.0</ele><time>2026-05-02T11:51:46.999Z</time></trkpt><trkpt lat="45.58117440395058" lon="8.129215050756104"><ele>354.0</ele><time>2026-05-02T11:51:47.999Z</time></trkpt><trkpt lat="45.58111174977471" lon="8.12919966709078"><ele>354.0</ele><time>2026-05-02T11:51:48.999Z</time></trkpt><trkpt lat="45.5810496427545" lon="8.12915341446028"><ele>354.0</ele><time>2026-05-02T11:51:51.999Z</time></trkpt><trkpt lat="45.58097940567478" lon="8.129170392058311"><ele>354.0</ele><time>2026-05-02T11:51:55.999Z</time></trkpt><trkpt lat="45.58104691019186" lon="8.129205267546842"><ele>354.0</ele><time>2026-05-02T11:51:59.999Z</time></trkpt><trkpt lat="45.58113055363099" lon="8.129195532333345"><ele>354.0</ele><time>2026-05-02T11:52:02.998Z</time></trkpt><trkpt lat="45.58130341151196" lon="8.129148245642837"><ele>353.25</ele><time>2026-05-02T11:52:04.998Z</time></trkpt><trkpt lat="45.58141072777002" lon="8.12904364460114"><ele>352.5</ele><time>2026-05-02T11:52:06.998Z</time></trkpt><trkpt lat="45.58149393177621" lon="8.128940030479495"><ele>351.75</ele><time>2026-05-02T11:52:07.998Z</time></trkpt><trkpt lat="45.58156722415109" lon="8.128818127639768"><ele>351.0</ele><time>2026-05-02T11:52:08.998Z</time></trkpt><trkpt lat="45.58163382265835" lon="8.128691670219416"><ele>351.0</ele><time>2026-05-02T11:52:09.998Z</time></trkpt><trkpt lat="45.58170094714257" lon="8.128575148299882"><ele>351.0</ele><time>2026-05-02T11:52:10.998Z</time></trkpt><trkpt lat="45.581771354165774" lon="8.128461599260527"><ele>351.0</ele><time>2026-05-02T11:52:11.998Z</time></trkpt><trkpt lat="45.5818475852853" lon="8.128351079819478"><ele>351.0</ele><time>2026-05-02T11:52:12.998Z</time></trkpt><trkpt lat="45.58189733707053" lon="8.12826302559519"><ele>351.0</ele><time>2026-05-02T11:52:13.998Z</time></trkpt><trkpt lat="45.58197291743803" lon="8.12813841224717"><ele>352.3333333333333</ele><time>2026-05-02T11:52:15.998Z</time></trkpt><trkpt lat="45.58204277683893" lon="8.128079437371303"><ele>353.6666666666667</ele><time>2026-05-02T11:52:18.998Z</time></trkpt><trkpt lat="45.582139832830244" lon="8.128119471245444"><ele>355.0</ele><time>2026-05-02T11:52:22.998Z</time></trkpt><trkpt lat="45.58209274235642" lon="8.128197515441098"><ele>356.33333333333337</ele><time>2026-05-02T11:52:26.998Z</time></trkpt><trkpt lat="45.58215078181337" lon="8.128257866335595"><ele>357.6666666666667</ele><time>2026-05-02T11:53:05.999Z</time></trkpt><trkpt lat="45.58220442677132" lon="8.12813939148931"><ele>359.0</ele><time>2026-05-02T11:53:07.999Z</time></trkpt><trkpt lat="45.58218339092494" lon="8.128016010453885"><ele>359.0</ele><time>2026-05-02T11:53:09.999Z</time></trkpt><trkpt lat="45.58208897344118" lon="8.12797634362541"><ele>359.0</ele><time>2026-05-02T11:53:11.999Z</time></trkpt><trkpt lat="45.58199370448549" lon="8.128006439290266"><ele>359.0</ele><time>2026-05-02T11:53:13.999Z</time></trkpt><trkpt lat="45.58189919325635" lon="8.128076565869447"><ele>359.0</ele><time>2026-05-02T11:53:15.999Z</time></trkpt><trkpt lat="45.58180954425865" lon="8.128242345870216"><ele>359.0</ele><time>2026-05-02T11:53:17.999Z</time></trkpt><trkpt lat="45.58174261738812" lon="8.128358625991376"><ele>357.4</ele><time>2026-05-02T11:53:18.999Z</time></trkpt><trkpt lat="45.58166051080197" lon="8.128463122545178"><ele>355.79999999999995</ele><time>2026-05-02T11:53:19.999Z</time></trkpt><trkpt lat="45.58158096888419" lon="8.128565797019846"><ele>354.20000000000005</ele><time>2026-05-02T11:53:20.999Z</time></trkpt><trkpt lat="45.58151784468413" lon="8.12866103384582"><ele>352.6</ele><time>2026-05-02T11:53:21.999Z</time></trkpt><trkpt lat="45.58146568718327" lon="8.128754565891757"><ele>351.0</ele><time>2026-05-02T11:53:22.999Z</time></trkpt><trkpt lat="45.58141538616972" lon="8.12884115589501"><ele>351.0</ele><time>2026-05-02T11:53:24.999Z</time></trkpt><trkpt lat="45.581369567700676" lon="8.128908622211515"><ele>351.0</ele><time>2026-05-02T11:53:32.999Z</time></trkpt><trkpt lat="45.58128257998708" lon="8.129024103072545"><ele>351.0</ele><time>2026-05-02T11:53:34.999Z</time></trkpt><trkpt lat="45.58123255229838" lon="8.129084162481739"><ele>351.0</ele><time>2026-05-02T11:53:35.999Z</time></trkpt><trkpt lat="45.58116008088956" lon="8.129168950862237"><ele>351.0</ele><time>2026-05-02T11:53:37.999Z</time></trkpt><trkpt lat="45.58102502532465" lon="8.129129704239782"><ele>349.0</ele><time>2026-05-02T11:53:39.999Z</time></trkpt><trkpt lat="45.58095048781923" lon="8.129109967841908"><ele>347.0</ele><time>2026-05-02T11:53:40.999Z</time></trkpt><trkpt lat="45.58087358197369" lon="8.129106022242423"><ele>345.0</ele><time>2026-05-02T11:53:41.999Z</time></trkpt><trkpt lat="45.58079981153719" lon="8.129079387564511"><ele>343.0</ele><time>2026-05-02T11:53:42.999Z</time></trkpt><trkpt lat="45.580713474844096" lon="8.129066810170668"><ele>341.0</ele><time>2026-05-02T11:53:43.999Z</time></trkpt><trkpt lat="45.58063219985097" lon="8.12908057839095"><ele>339.0</ele><time>2026-05-02T11:53:44.999Z</time></trkpt><trkpt lat="45.58055196862753" lon="8.129105207446322"><ele>339.0</ele><time>2026-05-02T11:53:45.999Z</time></trkpt><trkpt lat="45.580482236654916" lon="8.129118100812859"><ele>339.0</ele><time>2026-05-02T11:53:46.999Z</time></trkpt><trkpt lat="45.580402015193464" lon="8.12915197237604"><ele>339.0</ele><time>2026-05-02T11:53:47.999Z</time></trkpt><trkpt lat="45.580313005062955" lon="8.129171326238996"><ele>339.0</ele><time>2026-05-02T11:53:48.999Z</time></trkpt><trkpt lat="45.58022539992029" lon="8.129187875304666"><ele>339.0</ele><time>2026-05-02T11:53:49.999Z</time></trkpt><trkpt lat="45.580148550651344" lon="8.129208655684307"><ele>339.0</ele><time>2026-05-02T11:53:50.999Z</time></trkpt><trkpt lat="45.580075365645534" lon="8.129240688956829"><ele>337.6666666666667</ele><time>2026-05-02T11:53:51.999Z</time></trkpt><trkpt lat="45.580011047834965" lon="8.129289366322743"><ele>336.3333333333333</ele><time>2026-05-02T11:53:52.999Z</time></trkpt><trkpt lat="45.57994958858124" lon="8.129343734133467"><ele>335.0</ele><time>2026-05-02T11:53:53.999Z</time></trkpt><trkpt lat="45.57986700766503" lon="8.129388128799693"><ele>333.66666666666663</ele><time>2026-05-02T11:53:55.999Z</time></trkpt><trkpt lat="45.57979117937938" lon="8.12932963543385"><ele>332.3333333333333</ele><time>2026-05-02T11:53:57.999Z</time></trkpt><trkpt lat="45.57972850437289" lon="8.129298454898287"><ele>331.0</ele><time>2026-05-02T11:53:59.999Z</time></trkpt><trkpt lat="45.57970236240842" lon="8.129382697148554"><ele>331.0</ele><time>2026-05-02T11:54:02.999Z</time></trkpt><trkpt lat="45.57969226758615" lon="8.12951777506374"><ele>331.0</ele><time>2026-05-02T11:54:30.998Z</time></trkpt><trkpt lat="45.579608976415365" lon="8.129552639016952"><ele>331.0</ele><time>2026-05-02T11:54:33.998Z</time></trkpt><trkpt lat="45.57960028243318" lon="8.12966665953948"><ele>331.0</ele><time>2026-05-02T11:54:35.999Z</time></trkpt><trkpt lat="45.57961702717799" lon="8.129845766388291"><ele>331.0</ele><time>2026-05-02T11:54:37.999Z</time></trkpt><trkpt lat="45.579653661701485" lon="8.129982483846167"><ele>330.8</ele><time>2026-05-02T11:54:39.999Z</time></trkpt><trkpt lat="45.5796481327929" lon="8.13012638305978"><ele>330.6</ele><time>2026-05-02T11:54:41.999Z</time></trkpt><trkpt lat="45.579629335666624" lon="8.13021290251373"><ele>330.4</ele><time>2026-05-02T11:54:42.999Z</time></trkpt><trkpt lat="45.579585068540595" lon="8.130310779006289"><ele>330.2</ele><time>2026-05-02T11:54:44.999Z</time></trkpt><trkpt lat="45.57952809936629" lon="8.130399835159066"><ele>330.0</ele><time>2026-05-02T11:54:47.999Z</time></trkpt><trkpt lat="45.57939815432751" lon="8.130446131112224"><ele>332.6</ele><time>2026-05-02T11:54:49.999Z</time></trkpt><trkpt lat="45.579265528915904" lon="8.130463461157486"><ele>335.2</ele><time>2026-05-02T11:54:51.999Z</time></trkpt><trkpt lat="45.57925381693897" lon="8.130351371277813"><ele>337.79999999999995</ele><time>2026-05-02T11:55:14.999Z</time></trkpt><trkpt lat="45.57922858928295" lon="8.130205952253704"><ele>340.4</ele><time>2026-05-02T11:55:16.999Z</time></trkpt><trkpt lat="45.579223983728724" lon="8.130080097072888"><ele>343.0</ele><time>2026-05-02T11:55:19.999Z</time></trkpt><trkpt lat="45.579239879542875" lon="8.129905031537819"><ele>344.66666666666663</ele><time>2026-05-02T11:55:21.999Z</time></trkpt><trkpt lat="45.5792509398315" lon="8.129815563218067"><ele>346.3333333333333</ele><time>2026-05-02T11:55:22.999Z</time></trkpt><trkpt lat="45.57926622838586" lon="8.129720167905077"><ele>348.0</ele><time>2026-05-02T11:55:23.999Z</time></trkpt><trkpt lat="45.5793171671886" lon="8.129625220820218"><ele>349.6666666666667</ele><time>2026-05-02T11:55:24.999Z</time></trkpt><trkpt lat="45.5793685807656" lon="8.129521340369246"><ele>351.33333333333337</ele><time>2026-05-02T11:55:25.999Z</time></trkpt><trkpt lat="45.57941464230593" lon="8.129420239913415"><ele>353.0</ele><time>2026-05-02T11:55:26.999Z</time></trkpt><trkpt lat="45.579450709363506" lon="8.129283939948232"><ele>353.0</ele><time>2026-05-02T11:55:27.999Z</time></trkpt><trkpt lat="45.579465720124155" lon="8.129148420349312"><ele>353.0</ele><time>2026-05-02T11:55:28.999Z</time></trkpt><trkpt lat="45.57949156655815" lon="8.12902634219605"><ele>353.0</ele><time>2026-05-02T11:55:29.999Z</time></trkpt><trkpt lat="45.579564061899234" lon="8.128903531014492"><ele>353.0</ele><time>2026-05-02T11:55:30.999Z</time></trkpt><trkpt lat="45.579629174583296" lon="8.128827708052674"><ele>353.0</ele><time>2026-05-02T11:55:31.999Z</time></trkpt><trkpt lat="45.579688952486975" lon="8.128709165385214"><ele>349.79999999999995</ele><time>2026-05-02T11:55:32.999Z</time></trkpt><trkpt lat="45.57974645362609" lon="8.128599098495611"><ele>346.6</ele><time>2026-05-02T11:55:33.999Z</time></trkpt><trkpt lat="45.57976517177759" lon="8.128513151182922"><ele>343.4</ele><time>2026-05-02T11:55:34.999Z</time></trkpt><trkpt lat="45.57977604572979" lon="8.128367656505713"><ele>340.20000000000005</ele><time>2026-05-02T11:55:36.999Z</time></trkpt><trkpt lat="45.5798058345498" lon="8.12819107216962"><ele>337.0</ele><time>2026-05-02T11:55:38.999Z</time></trkpt><trkpt lat="45.57981164321331" lon="8.128092426232573"><ele>337.0</ele><time>2026-05-02T11:55:39.999Z</time></trkpt><trkpt lat="45.57982499210755" lon="8.127994683027106"><ele>337.0</ele><time>2026-05-02T11:55:40.999Z</time></trkpt><trkpt lat="45.57985931310156" lon="8.1278849725801"><ele>337.0</ele><time>2026-05-02T11:55:41.999Z</time></trkpt><trkpt lat="45.579898998289174" lon="8.127777821580521"><ele>337.0</ele><time>2026-05-02T11:55:42.999Z</time></trkpt><trkpt lat="45.57991236706238" lon="8.127685604838744"><ele>337.0</ele><time>2026-05-02T11:55:43.999Z</time></trkpt><trkpt lat="45.57989056135066" lon="8.127585692989662"><ele>337.0</ele><time>2026-05-02T11:55:45.999Z</time></trkpt><trkpt lat="45.57990368177824" lon="8.127447969261988"><ele>337.20000000000005</ele><time>2026-05-02T11:55:47.999Z</time></trkpt><trkpt lat="45.57990629281247" lon="8.127350786103253"><ele>337.4</ele><time>2026-05-02T11:55:48.999Z</time></trkpt><trkpt lat="45.579921983419304" lon="8.127231471811807"><ele>337.6</ele><time>2026-05-02T11:55:49.999Z</time></trkpt><trkpt lat="45.57992101304287" lon="8.127072642364997"><ele>337.79999999999995</ele><time>2026-05-02T11:55:50.999Z</time></trkpt><trkpt lat="45.57993479098372" lon="8.126932303058858"><ele>338.0</ele><time>2026-05-02T11:55:51.999Z</time></trkpt><trkpt lat="45.57995363688199" lon="8.126806166297635"><ele>338.0</ele><time>2026-05-02T11:55:52.999Z</time></trkpt><trkpt lat="45.5799912422027" lon="8.126691149486795"><ele>338.0</ele><time>2026-05-02T11:55:53.999Z</time></trkpt><trkpt lat="45.57999172536594" lon="8.126552989400034"><ele>338.0</ele><time>2026-05-02T11:55:54.999Z</time></trkpt><trkpt lat="45.57999854136765" lon="8.126406343389728"><ele>338.0</ele><time>2026-05-02T11:55:55.999Z</time></trkpt><trkpt lat="45.57999509592791" lon="8.126278774066826"><ele>338.0</ele><time>2026-05-02T11:55:56.999Z</time></trkpt><trkpt lat="45.58000884670866" lon="8.126163553245599"><ele>338.1666666666667</ele><time>2026-05-02T11:55:57.999Z</time></trkpt><trkpt lat="45.58002626749892" lon="8.126033876415372"><ele>338.33333333333337</ele><time>2026-05-02T11:55:59.999Z</time></trkpt><trkpt lat="45.58000675956328" lon="8.125940126373349"><ele>338.5</ele><time>2026-05-02T11:56:01.998Z</time></trkpt><trkpt lat="45.58000349245529" lon="8.12577694308206"><ele>338.6666666666667</ele><time>2026-05-02T11:56:03.998Z</time></trkpt><trkpt lat="45.580039266442505" lon="8.125664228980376"><ele>338.8333333333333</ele><time>2026-05-02T11:56:08.998Z</time></trkpt><trkpt lat="45.5800877453115" lon="8.125583220191917"><ele>339.0</ele><time>2026-05-02T11:56:13.998Z</time></trkpt><trkpt lat="45.58014329751076" lon="8.125507371525943"><ele>339.4</ele><time>2026-05-02T11:56:15.998Z</time></trkpt><trkpt lat="45.58027503180278" lon="8.125510274138298"><ele>339.79999999999995</ele><time>2026-05-02T11:56:18.998Z</time></trkpt><trkpt lat="45.58038017392862" lon="8.125512561919383"><ele>340.20000000000005</ele><time>2026-05-02T11:56:19.998Z</time></trkpt><trkpt lat="45.580465332171606" lon="8.125462732546426"><ele>340.6</ele><time>2026-05-02T11:56:20.998Z</time></trkpt><trkpt lat="45.58046176522854" lon="8.12536446816153"><ele>341.0</ele><time>2026-05-02T11:56:28.998Z</time></trkpt><trkpt lat="45.580518546633215" lon="8.125273644494897"><ele>341.0</ele><time>2026-05-02T11:57:18.999Z</time></trkpt><trkpt lat="45.58053973114127" lon="8.12518098676006"><ele>341.0</ele><time>2026-05-02T11:57:21.999Z</time></trkpt><trkpt lat="45.580525834630805" lon="8.125079858329217"><ele>341.0</ele><time>2026-05-02T11:57:24.999Z</time></trkpt><trkpt lat="45.5805295700769" lon="8.124978866603309"><ele>341.0</ele><time>2026-05-02T11:57:29.999Z</time></trkpt><trkpt lat="45.580595993103714" lon="8.124908485546118"><ele>341.0</ele><time>2026-05-02T11:57:35.999Z</time></trkpt><trkpt lat="45.58068607891833" lon="8.124882688837108"><ele>341.0</ele><time>2026-05-02T11:57:38.999Z</time></trkpt><trkpt lat="45.58072874727949" lon="8.124813931287632"><ele>343.1666666666667</ele><time>2026-05-02T11:57:39.999Z</time></trkpt><trkpt lat="45.58077625259375" lon="8.124725864529092"><ele>345.33333333333337</ele><time>2026-05-02T11:57:40.999Z</time></trkpt><trkpt lat="45.58083302062144" lon="8.12464515171451"><ele>347.5</ele><time>2026-05-02T11:57:41.999Z</time></trkpt><trkpt lat="45.580904296505864" lon="8.124574927865458"><ele>349.6666666666667</ele><time>2026-05-02T11:57:43.999Z</time></trkpt><trkpt lat="45.58087839467014" lon="8.12449120237894"><ele>351.8333333333333</ele><time>2026-05-02T11:57:44.999Z</time></trkpt><trkpt lat="45.580872092717534" lon="8.12437918792325"><ele>354.0</ele><time>2026-05-02T11:57:45.999Z</time></trkpt><trkpt lat="45.58087156323987" lon="8.124257643740028"><ele>354.0</ele><time>2026-05-02T11:57:46.999Z</time></trkpt><trkpt lat="45.58099158227766" lon="8.124168749980015"><ele>354.0</ele><time>2026-05-02T11:57:48.999Z</time></trkpt><trkpt lat="45.581057758277645" lon="8.124151442555533"><ele>354.0</ele><time>2026-05-02T11:57:49.999Z</time></trkpt><trkpt lat="45.58112278418496" lon="8.124069464403359"><ele>354.0</ele><time>2026-05-02T11:57:50.999Z</time></trkpt><trkpt lat="45.58116904066258" lon="8.123958710005445"><ele>354.0</ele><time>2026-05-02T11:57:51.999Z</time></trkpt><trkpt lat="45.58119772867346" lon="8.123818970680803"><ele>355.5</ele><time>2026-05-02T11:57:53.999Z</time></trkpt><trkpt lat="45.58118212432918" lon="8.123703269340627"><ele>357.0</ele><time>2026-05-02T11:57:54.999Z</time></trkpt><trkpt lat="45.58117295331002" lon="8.123602763403479"><ele>358.5</ele><time>2026-05-02T11:57:55.999Z</time></trkpt><trkpt lat="45.581087221301466" lon="8.123523398332011"><ele>360.0</ele><time>2026-05-02T11:57:58.999Z</time></trkpt><trkpt lat="45.58103948941022" lon="8.123448010951925"><ele>361.5</ele><time>2026-05-02T11:57:59.999Z</time></trkpt><trkpt lat="45.58101588335923" lon="8.12336104390406"><ele>363.0</ele><time>2026-05-02T11:58:00.999Z</time></trkpt><trkpt lat="45.58098499835172" lon="8.123238393547796"><ele>365.0</ele><time>2026-05-02T11:58:01.999Z</time></trkpt><trkpt lat="45.580973699081916" lon="8.123093606113285"><ele>367.0</ele><time>2026-05-02T11:58:02.999Z</time></trkpt><trkpt lat="45.58092409983751" lon="8.123010399135627"><ele>369.0</ele><time>2026-05-02T11:58:04.999Z</time></trkpt><trkpt lat="45.58086310017374" lon="8.12295167896352"><ele>371.0</ele><time>2026-05-02T11:58:05.999Z</time></trkpt><trkpt lat="45.58082813659235" lon="8.12286318077698"><ele>373.0</ele><time>2026-05-02T11:58:06.998Z</time></trkpt><trkpt lat="45.58104126550296" lon="8.122776061104465"><ele>373.0</ele><time>2026-05-02T11:58:15.998Z</time></trkpt><trkpt lat="45.581139141685945" lon="8.122661076582999"><ele>373.0</ele><time>2026-05-02T11:58:17.998Z</time></trkpt><trkpt lat="45.581183358341086" lon="8.12253970094689"><ele>373.0</ele><time>2026-05-02T11:58:18.998Z</time></trkpt><trkpt lat="45.5812231397011" lon="8.122393078808747"><ele>373.0</ele><time>2026-05-02T11:58:19.998Z</time></trkpt><trkpt lat="45.5812659461184" lon="8.122266171975006"><ele>373.0</ele><time>2026-05-02T11:58:20.998Z</time></trkpt><trkpt lat="45.581293685303805" lon="8.12212950646273"><ele>372.16666666666663</ele><time>2026-05-02T11:58:21.998Z</time></trkpt><trkpt lat="45.58129998579952" lon="8.122007330612751"><ele>371.3333333333333</ele><time>2026-05-02T11:58:22.998Z</time></trkpt><trkpt lat="45.58129437581532" lon="8.121900036431636"><ele>370.5</ele><time>2026-05-02T11:58:23.998Z</time></trkpt><trkpt lat="45.581272815226704" lon="8.121790621462747"><ele>369.6666666666667</ele><time>2026-05-02T11:58:24.998Z</time></trkpt><trkpt lat="45.581256835179815" lon="8.121690663121413"><ele>368.83333333333337</ele><time>2026-05-02T11:58:25.998Z</time></trkpt><trkpt lat="45.58122429858483" lon="8.12159591995698"><ele>368.0</ele><time>2026-05-02T11:58:26.998Z</time></trkpt><trkpt lat="45.58117128114011" lon="8.121490291134801"><ele>375.0</ele><time>2026-05-02T11:58:27.998Z</time></trkpt><trkpt lat="45.58113973684574" lon="8.121412070327342"><ele>382.0</ele><time>2026-05-02T11:58:28.998Z</time></trkpt><trkpt lat="45.58102383366574" lon="8.121291326228304"><ele>389.0</ele><time>2026-05-02T11:58:30.998Z</time></trkpt><trkpt lat="45.580764507717625" lon="8.121379517423815"><ele>388.99999999999994</ele><time>2026-05-02T11:58:31.998Z</time></trkpt><trkpt lat="45.580772832343435" lon="8.121213532458178"><ele>389.0</ele><time>2026-05-02T11:58:33.998Z</time></trkpt><trkpt lat="45.58082556060808" lon="8.12113914808571"><ele>389.0</ele><time>2026-05-02T11:58:34.998Z</time></trkpt><trkpt lat="45.580840132910424" lon="8.121033027091022"><ele>389.0</ele><time>2026-05-02T11:58:36.998Z</time></trkpt><trkpt lat="45.580807504298555" lon="8.120943151045287"><ele>388.99999999999994</ele><time>2026-05-02T11:58:39.998Z</time></trkpt><trkpt lat="45.58080505369596" lon="8.12084721820227"><ele>389.0</ele><time>2026-05-02T11:58:42.998Z</time></trkpt><trkpt lat="45.580757384720684" lon="8.120738830142377"><ele>389.6</ele><time>2026-05-02T11:58:45.998Z</time></trkpt><trkpt lat="45.58079277186461" lon="8.120648786552001"><ele>390.2</ele><time>2026-05-02T11:58:50.999Z</time></trkpt><trkpt lat="45.580820866722206" lon="8.120553244015788"><ele>390.8</ele><time>2026-05-02T11:58:53.999Z</time></trkpt><trkpt lat="45.58084831455135" lon="8.120449230825365"><ele>391.40000000000003</ele><time>2026-05-02T11:58:56.999Z</time></trkpt><trkpt lat="45.580951393784176" lon="8.120190700284928"><ele>392.0</ele><time>2026-05-02T11:58:59.999Z</time></trkpt><trkpt lat="45.580988865459766" lon="8.12007926532092"><ele>391.99999999999994</ele><time>2026-05-02T11:59:01.999Z</time></trkpt><trkpt lat="45.58093151806289" lon="8.119987992229001"><ele>392.0</ele><time>2026-05-02T11:59:03.999Z</time></trkpt><trkpt lat="45.58091517126548" lon="8.119892681995903"><ele>392.0</ele><time>2026-05-02T11:59:06.999Z</time></trkpt><trkpt lat="45.580914227725955" lon="8.119775628963152"><ele>392.0</ele><time>2026-05-02T11:59:10.999Z</time></trkpt><trkpt lat="45.58087688644459" lon="8.119680863600687"><ele>391.99999999999994</ele><time>2026-05-02T11:59:13.999Z</time></trkpt><trkpt lat="45.5808113840561" lon="8.119702193182285"><ele>392.0</ele><time>2026-05-02T11:59:17.999Z</time></trkpt><trkpt lat="45.58032191632229" lon="8.119553379734707"><ele>393.3333333333333</ele><time>2026-05-02T11:59:19.999Z</time></trkpt><trkpt lat="45.580327327157924" lon="8.119646194473605"><ele>394.66666666666663</ele><time>2026-05-02T11:59:21.999Z</time></trkpt><trkpt lat="45.58030463434034" lon="8.119774610421011"><ele>396.0</ele><time>2026-05-02T11:59:24.999Z</time></trkpt><trkpt lat="45.58032254986348" lon="8.119684474785034"><ele>397.33333333333337</ele><time>2026-05-02T11:59:33.999Z</time></trkpt><trkpt lat="45.580303005623804" lon="8.119576570028796"><ele>398.6666666666667</ele><time>2026-05-02T11:59:36.999Z</time></trkpt><trkpt lat="45.5802806863414" lon="8.119438964106973"><ele>400.0</ele><time>2026-05-02T11:59:38.999Z</time></trkpt><trkpt lat="45.580244241105774" lon="8.119344884355188"><ele>400.00000000000006</ele><time>2026-05-02T11:59:40.999Z</time></trkpt><trkpt lat="45.58019854854644" lon="8.119219811533902"><ele>400.0</ele><time>2026-05-02T11:59:42.999Z</time></trkpt><trkpt lat="45.580160507975734" lon="8.11913058008205"><ele>400.0</ele><time>2026-05-02T11:59:43.999Z</time></trkpt><trkpt lat="45.58012228138575" lon="8.119044605008611"><ele>400.0</ele><time>2026-05-02T11:59:44.999Z</time></trkpt><trkpt lat="45.580055261793056" lon="8.118973124756147"><ele>400.00000000000006</ele><time>2026-05-02T11:59:45.999Z</time></trkpt><trkpt lat="45.58001874847486" lon="8.118882578298704"><ele>400.0</ele><time>2026-05-02T11:59:46.999Z</time></trkpt><trkpt lat="45.57998544052132" lon="8.118793717903152"><ele>400.14285714285717</ele><time>2026-05-02T11:59:47.999Z</time></trkpt><trkpt lat="45.57995463070902" lon="8.118711522204189"><ele>400.2857142857143</ele><time>2026-05-02T11:59:48.999Z</time></trkpt><trkpt lat="45.57991726421394" lon="8.11861183429919"><ele>400.42857142857144</ele><time>2026-05-02T11:59:49.999Z</time></trkpt><trkpt lat="45.57987896427294" lon="8.118498378021055"><ele>400.57142857142856</ele><time>2026-05-02T11:59:50.999Z</time></trkpt><trkpt lat="45.5798345493758" lon="8.118425618712383"><ele>400.7142857142857</ele><time>2026-05-02T11:59:51.999Z</time></trkpt><trkpt lat="45.57980884288376" lon="8.11834051263144"><ele>400.8571428571429</ele><time>2026-05-02T11:59:52.999Z</time></trkpt><trkpt lat="45.57977156500324" lon="8.11824559023053"><ele>401.0</ele><time>2026-05-02T11:59:53.999Z</time></trkpt><trkpt lat="45.57973722127074" lon="8.118145452959126"><ele>401.8333333333333</ele><time>2026-05-02T11:59:54.999Z</time></trkpt><trkpt lat="45.57970854373825" lon="8.118040061889596"><ele>402.66666666666663</ele><time>2026-05-02T11:59:55.999Z</time></trkpt><trkpt lat="45.57968843893628" lon="8.117937576916063"><ele>403.5</ele><time>2026-05-02T11:59:56.999Z</time></trkpt><trkpt lat="45.57967425928316" lon="8.117836547748732"><ele>404.33333333333337</ele><time>2026-05-02T11:59:57.999Z</time></trkpt><trkpt lat="45.579662501533754" lon="8.117740153845038"><ele>405.1666666666667</ele><time>2026-05-02T11:59:58.999Z</time></trkpt><trkpt lat="45.57965185656144" lon="8.117640098547403"><ele>406.0</ele><time>2026-05-02T11:59:59.999Z</time></trkpt><trkpt lat="45.579639369282035" lon="8.117518389231755"><ele>406.00000000000006</ele><time>2026-05-02T12:00:00.999Z</time></trkpt><trkpt lat="45.57962986401981" lon="8.117425744572321"><ele>406.0</ele><time>2026-05-02T12:00:01.999Z</time></trkpt><trkpt lat="45.579617333329644" lon="8.117303612131959"><ele>406.0</ele><time>2026-05-02T12:00:02.999Z</time></trkpt><trkpt lat="45.579605699535364" lon="8.117178495197402"><ele>406.0</ele><time>2026-05-02T12:00:04Z</time></trkpt><trkpt lat="45.57959504751705" lon="8.117059963149977"><ele>406.00000000000006</ele><time>2026-05-02T12:00:05Z</time></trkpt><trkpt lat="45.579585848567206" lon="8.116954668180632"><ele>406.0</ele><time>2026-05-02T12:00:06Z</time></trkpt><trkpt lat="45.57957508403887" lon="8.116828399866145"><ele>406.83333333333337</ele><time>2026-05-02T12:00:07Z</time></trkpt><trkpt lat="45.57956445664087" lon="8.116703758204043"><ele>407.6666666666667</ele><time>2026-05-02T12:00:08Z</time></trkpt><trkpt lat="45.579554835441094" lon="8.116584578144378"><ele>408.5</ele><time>2026-05-02T12:00:09Z</time></trkpt><trkpt lat="45.579544736392386" lon="8.116459478829642"><ele>409.33333333333337</ele><time>2026-05-02T12:00:10Z</time></trkpt><trkpt lat="45.579535728292875" lon="8.116337289108891"><ele>410.1666666666667</ele><time>2026-05-02T12:00:11Z</time></trkpt><trkpt lat="45.57952809102232" lon="8.116227175964934"><ele>411.0</ele><time>2026-05-02T12:00:12Z</time></trkpt><trkpt lat="45.57952075690932" lon="8.116121433712062"><ele>411.0</ele><time>2026-05-02T12:00:13Z</time></trkpt><trkpt lat="45.579512106969915" lon="8.115996720013047"><ele>411.0</ele><time>2026-05-02T12:00:13.999Z</time></trkpt><trkpt lat="45.57950297664962" lon="8.115873647510877"><ele>411.0</ele><time>2026-05-02T12:00:14.999Z</time></trkpt><trkpt lat="45.579492369154934" lon="8.115748508269855"><ele>411.0</ele><time>2026-05-02T12:00:15.999Z</time></trkpt><trkpt lat="45.579482157302216" lon="8.115628036551708"><ele>411.0</ele><time>2026-05-02T12:00:16.999Z</time></trkpt><trkpt lat="45.57945604333547" lon="8.115513613093007"><ele>411.0</ele><time>2026-05-02T12:00:17.999Z</time></trkpt><trkpt lat="45.579461714233965" lon="8.11539802984143"><ele>411.0</ele><time>2026-05-02T12:00:18.999Z</time></trkpt><trkpt lat="45.579436004944085" lon="8.115295361805652"><ele>411.0</ele><time>2026-05-02T12:00:19.999Z</time></trkpt><trkpt lat="45.57944422309261" lon="8.115193920601667"><ele>411.0</ele><time>2026-05-02T12:00:20.999Z</time></trkpt><trkpt lat="45.579419918427654" lon="8.115033295267814"><ele>411.0</ele><time>2026-05-02T12:00:22.999Z</time></trkpt><trkpt lat="45.57941144709521" lon="8.114937798529963"><ele>411.0</ele><time>2026-05-02T12:00:23.999Z</time></trkpt><trkpt lat="45.57940168697435" lon="8.114848427961967"><ele>411.0</ele><time>2026-05-02T12:00:24.999Z</time></trkpt><trkpt lat="45.57940540594246" lon="8.114687438663456"><ele>411.75</ele><time>2026-05-02T12:00:26.999Z</time></trkpt><trkpt lat="45.579405790566845" lon="8.1145098386507"><ele>412.5</ele><time>2026-05-02T12:00:28.999Z</time></trkpt><trkpt lat="45.57942992130478" lon="8.114365602458466"><ele>413.25</ele><time>2026-05-02T12:00:30.999Z</time></trkpt><trkpt lat="45.579501009816795" lon="8.114233481371585"><ele>414.0</ele><time>2026-05-02T12:00:32.999Z</time></trkpt><trkpt lat="45.579565881911186" lon="8.114089876215003"><ele>415.2</ele><time>2026-05-02T12:00:34.999Z</time></trkpt><trkpt lat="45.57961946711266" lon="8.113953838358634"><ele>416.4</ele><time>2026-05-02T12:00:36.999Z</time></trkpt><trkpt lat="45.57966594953145" lon="8.113815072028425"><ele>417.6</ele><time>2026-05-02T12:00:38.999Z</time></trkpt><trkpt lat="45.57971377979964" lon="8.11367880046054"><ele>418.8</ele><time>2026-05-02T12:00:40.999Z</time></trkpt><trkpt lat="45.57973923517752" lon="8.113596446585996"><ele>420.0</ele><time>2026-05-02T12:00:41.999Z</time></trkpt><trkpt lat="45.57976377271711" lon="8.113511440489715"><ele>420.0</ele><time>2026-05-02T12:00:42.999Z</time></trkpt><trkpt lat="45.579795852510195" lon="8.113423733932203"><ele>420.0</ele><time>2026-05-02T12:00:43.999Z</time></trkpt><trkpt lat="45.57982800607468" lon="8.113333671599808"><ele>420.0</ele><time>2026-05-02T12:00:44.999Z</time></trkpt><trkpt lat="45.57985767351181" lon="8.113242211486897"><ele>420.0</ele><time>2026-05-02T12:00:45.999Z</time></trkpt><trkpt lat="45.57988785782705" lon="8.113071243563773"><ele>420.0</ele><time>2026-05-02T12:00:47.999Z</time></trkpt><trkpt lat="45.579873602311054" lon="8.112982967854702"><ele>420.0</ele><time>2026-05-02T12:00:48.999Z</time></trkpt><trkpt lat="45.57984178178137" lon="8.112898021514823"><ele>419.85714285714283</ele><time>2026-05-02T12:00:49.999Z</time></trkpt><trkpt lat="45.57980291613316" lon="8.112820978613776"><ele>419.7142857142857</ele><time>2026-05-02T12:00:50.999Z</time></trkpt><trkpt lat="45.5797770236406" lon="8.112723890253088"><ele>419.57142857142856</ele><time>2026-05-02T12:00:51.999Z</time></trkpt><trkpt lat="45.57973517433479" lon="8.11263766888545"><ele>419.42857142857144</ele><time>2026-05-02T12:00:52.999Z</time></trkpt><trkpt lat="45.579682563742786" lon="8.112566332892511"><ele>419.2857142857143</ele><time>2026-05-02T12:00:54.001Z</time></trkpt><trkpt lat="45.57965119128882" lon="8.11246423182595"><ele>419.1428571428571</ele><time>2026-05-02T12:00:55.001Z</time></trkpt><trkpt lat="45.579608625051044" lon="8.112374375007418"><ele>419.0</ele><time>2026-05-02T12:00:56.001Z</time></trkpt><trkpt lat="45.5795628603475" lon="8.112277766276401"><ele>418.85714285714283</ele><time>2026-05-02T12:00:57.001Z</time></trkpt><trkpt lat="45.57951868510242" lon="8.112184512823756"><ele>418.7142857142857</ele><time>2026-05-02T12:00:58.001Z</time></trkpt><trkpt lat="45.57947424094936" lon="8.112091039244497"><ele>418.57142857142856</ele><time>2026-05-02T12:00:59.001Z</time></trkpt><trkpt lat="45.579432844882284" lon="8.112007377234846"><ele>418.42857142857144</ele><time>2026-05-02T12:01:00.001Z</time></trkpt><trkpt lat="45.579391598451316" lon="8.111924017577826"><ele>418.2857142857143</ele><time>2026-05-02T12:01:01.001Z</time></trkpt><trkpt lat="45.579351193899996" lon="8.111842359423708"><ele>418.1428571428571</ele><time>2026-05-02T12:01:02.001Z</time></trkpt><trkpt lat="45.57931325661418" lon="8.111763162415238"><ele>418.0</ele><time>2026-05-02T12:01:03.001Z</time></trkpt><trkpt lat="45.57927530537291" lon="8.111682893420749"><ele>418.7142857142857</ele><time>2026-05-02T12:01:04.001Z</time></trkpt><trkpt lat="45.57923873257089" lon="8.111605539271201"><ele>419.42857142857144</ele><time>2026-05-02T12:01:05.001Z</time></trkpt><trkpt lat="45.579199823242455" lon="8.111517388036276"><ele>420.1428571428571</ele><time>2026-05-02T12:01:06.001Z</time></trkpt><trkpt lat="45.57915836061214" lon="8.111426226619146"><ele>420.8571428571429</ele><time>2026-05-02T12:01:07.001Z</time></trkpt><trkpt lat="45.57911651672344" lon="8.111335205647045"><ele>421.5714285714286</ele><time>2026-05-02T12:01:08.001Z</time></trkpt><trkpt lat="45.5790761597789" lon="8.111248355291377"><ele>422.2857142857143</ele><time>2026-05-02T12:01:09Z</time></trkpt><trkpt lat="45.579035616288955" lon="8.111161103447124"><ele>423.0</ele><time>2026-05-02T12:01:10Z</time></trkpt><trkpt lat="45.57899343873692" lon="8.111070335003859"><ele>423.3333333333333</ele><time>2026-05-02T12:01:11Z</time></trkpt><trkpt lat="45.57895034441533" lon="8.11097759363139"><ele>423.66666666666663</ele><time>2026-05-02T12:01:12Z</time></trkpt><trkpt lat="45.57890981379979" lon="8.110888407024195"><ele>424.0</ele><time>2026-05-02T12:01:13Z</time></trkpt><trkpt lat="45.578869982633535" lon="8.110799662982428"><ele>424.3333333333333</ele><time>2026-05-02T12:01:14Z</time></trkpt><trkpt lat="45.578829974365384" lon="8.110709716356165"><ele>424.66666666666663</ele><time>2026-05-02T12:01:15Z</time></trkpt><trkpt lat="45.57879022961472" lon="8.110619884354165"><ele>425.0</ele><time>2026-05-02T12:01:16Z</time></trkpt><trkpt lat="45.57875002813514" lon="8.110524796707917"><ele>424.99999999999994</ele><time>2026-05-02T12:01:17Z</time></trkpt><trkpt lat="45.57871101413179" lon="8.11042989069324"><ele>425.0</ele><time>2026-05-02T12:01:18Z</time></trkpt><trkpt lat="45.57867303492394" lon="8.110327670480615"><ele>425.0</ele><time>2026-05-02T12:01:19Z</time></trkpt><trkpt lat="45.57863648368631" lon="8.110223476108633"><ele>425.0</ele><time>2026-05-02T12:01:20Z</time></trkpt><trkpt lat="45.5786069351021" lon="8.110128266375904"><ele>424.99999999999994</ele><time>2026-05-02T12:01:21Z</time></trkpt><trkpt lat="45.57856486928696" lon="8.110044122651194"><ele>425.0</ele><time>2026-05-02T12:01:22Z</time></trkpt><trkpt lat="45.57853892903669" lon="8.109959023997453"><ele>424.85714285714283</ele><time>2026-05-02T12:01:23Z</time></trkpt><trkpt lat="45.578504246240605" lon="8.109881207807536"><ele>424.71428571428567</ele><time>2026-05-02T12:01:24Z</time></trkpt><trkpt lat="45.57844299613673" lon="8.109831234318019"><ele>424.57142857142856</ele><time>2026-05-02T12:01:25Z</time></trkpt><trkpt lat="45.57836894049714" lon="8.109818286387707"><ele>424.42857142857144</ele><time>2026-05-02T12:01:26Z</time></trkpt><trkpt lat="45.578298668886156" lon="8.109825947715384"><ele>424.2857142857143</ele><time>2026-05-02T12:01:27Z</time></trkpt><trkpt lat="45.578216818168066" lon="8.109846449586366"><ele>424.14285714285717</ele><time>2026-05-02T12:01:28Z</time></trkpt><trkpt lat="45.57813961926851" lon="8.109823399897966"><ele>424.0</ele><time>2026-05-02T12:01:29Z</time></trkpt><trkpt lat="45.57805980413699" lon="8.109822121341015"><ele>424.0</ele><time>2026-05-02T12:01:30Z</time></trkpt><trkpt lat="45.577983040749935" lon="8.109836836696214"><ele>424.0</ele><time>2026-05-02T12:01:31Z</time></trkpt><trkpt lat="45.5779009025684" lon="8.109826570542303"><ele>424.0</ele><time>2026-05-02T12:01:32Z</time></trkpt><trkpt lat="45.57782552724282" lon="8.109816967395293"><ele>424.0</ele><time>2026-05-02T12:01:33Z</time></trkpt><trkpt lat="45.577759340741885" lon="8.109818142153074"><ele>424.0</ele><time>2026-05-02T12:01:34Z</time></trkpt><trkpt lat="45.577695060420545" lon="8.109813629523698"><ele>424.0</ele><time>2026-05-02T12:01:35Z</time></trkpt><trkpt lat="45.57762988978053" lon="8.109811115467096"><ele>424.0</ele><time>2026-05-02T12:01:36Z</time></trkpt><trkpt lat="45.57756415274456" lon="8.10980813087595"><ele>423.79999999999995</ele><time>2026-05-02T12:01:37Z</time></trkpt><trkpt lat="45.57750340279404" lon="8.109780781896317"><ele>423.59999999999997</ele><time>2026-05-02T12:01:38Z</time></trkpt><trkpt lat="45.57740481770705" lon="8.109769275284371"><ele>423.4</ele><time>2026-05-02T12:01:40Z</time></trkpt><trkpt lat="45.57741502146004" lon="8.109536476201171"><ele>423.2</ele><time>2026-05-02T12:01:44Z</time></trkpt><trkpt lat="45.577425496094115" lon="8.109394854455688"><ele>423.0</ele><time>2026-05-02T12:01:46Z</time></trkpt><trkpt lat="45.57746200939642" lon="8.109228199453234"><ele>423.3333333333333</ele><time>2026-05-02T12:01:48Z</time></trkpt><trkpt lat="45.57747561471425" lon="8.109046473091658"><ele>423.66666666666663</ele><time>2026-05-02T12:01:50Z</time></trkpt><trkpt lat="45.57750730163126" lon="8.108957337214006"><ele>424.0</ele><time>2026-05-02T12:01:51Z</time></trkpt><trkpt lat="45.57752392595853" lon="8.108860429536179"><ele>424.3333333333333</ele><time>2026-05-02T12:01:52Z</time></trkpt><trkpt lat="45.57754014868426" lon="8.108763133156184"><ele>424.66666666666663</ele><time>2026-05-02T12:01:53Z</time></trkpt><trkpt lat="45.57755655589292" lon="8.108662755970517"><ele>425.0</ele><time>2026-05-02T12:01:54Z</time></trkpt><trkpt lat="45.577571874293" lon="8.1085605467174"><ele>425.0</ele><time>2026-05-02T12:01:55Z</time></trkpt><trkpt lat="45.57758679476737" lon="8.108460718811578"><ele>425.0</ele><time>2026-05-02T12:01:56Z</time></trkpt><trkpt lat="45.57759125994085" lon="8.108348684402044"><ele>425.0</ele><time>2026-05-02T12:01:57Z</time></trkpt><trkpt lat="45.57761668147594" lon="8.108248027514863"><ele>425.0</ele><time>2026-05-02T12:01:58Z</time></trkpt><trkpt lat="45.577632051753056" lon="8.10814841288937"><ele>425.0</ele><time>2026-05-02T12:01:59Z</time></trkpt><trkpt lat="45.57763524623527" lon="8.108042091605622"><ele>425.0</ele><time>2026-05-02T12:02:00Z</time></trkpt><trkpt lat="45.57762906454615" lon="8.107931495858058"><ele>425.0</ele><time>2026-05-02T12:02:01Z</time></trkpt><trkpt lat="45.57761782053333" lon="8.107832760709526"><ele>425.3333333333333</ele><time>2026-05-02T12:02:02Z</time></trkpt><trkpt lat="45.57761081023622" lon="8.107739021068646"><ele>425.66666666666663</ele><time>2026-05-02T12:02:03Z</time></trkpt><trkpt lat="45.577599437884345" lon="8.107566919385507"><ele>426.0</ele><time>2026-05-02T12:02:05Z</time></trkpt><trkpt lat="45.577586913367156" lon="8.107427943316333"><ele>426.33333333333337</ele><time>2026-05-02T12:02:07Z</time></trkpt><trkpt lat="45.577573396376685" lon="8.107316612052514"><ele>426.6666666666667</ele><time>2026-05-02T12:02:09Z</time></trkpt><trkpt lat="45.577561084824694" lon="8.10722137025013"><ele>427.0</ele><time>2026-05-02T12:02:11Z</time></trkpt><trkpt lat="45.57754918144475" lon="8.10712390634898"><ele>427.0</ele><time>2026-05-02T12:02:13Z</time></trkpt><trkpt lat="45.57753745623753" lon="8.107025654028087"><ele>427.0</ele><time>2026-05-02T12:02:15Z</time></trkpt><trkpt lat="45.57753437442156" lon="8.106931380408259"><ele>427.0</ele><time>2026-05-02T12:02:17Z</time></trkpt><trkpt lat="45.57751379048764" lon="8.10681450843324"><ele>427.0</ele><time>2026-05-02T12:02:20Z</time></trkpt><trkpt lat="45.57750801824242" lon="8.1067174944775"><ele>427.0</ele><time>2026-05-02T12:02:23Z</time></trkpt><trkpt lat="45.577517489190335" lon="8.10662509727054"><ele>427.0</ele><time>2026-05-02T12:02:25.999Z</time></trkpt><trkpt lat="45.5775104636923" lon="8.106500756775404"><ele>427.0</ele><time>2026-05-02T12:02:28.999Z</time></trkpt><trkpt lat="45.577496942238724" lon="8.106398300337323"><ele>426.42857142857144</ele><time>2026-05-02T12:02:31.999Z</time></trkpt><trkpt lat="45.577542924708986" lon="8.106319390061644"><ele>425.8571428571429</ele><time>2026-05-02T12:02:34.999Z</time></trkpt><trkpt lat="45.5774759087817" lon="8.1062952118986"><ele>425.2857142857143</ele><time>2026-05-02T12:04:31Z</time></trkpt><trkpt lat="45.577453464129555" lon="8.106422195079713"><ele>424.7142857142857</ele><time>2026-05-02T12:04:33.999Z</time></trkpt><trkpt lat="45.57739917228524" lon="8.106479816984344"><ele>424.14285714285717</ele><time>2026-05-02T12:04:38.999Z</time></trkpt><trkpt lat="45.577346331460774" lon="8.106410763102527"><ele>423.57142857142856</ele><time>2026-05-02T12:05:47Z</time></trkpt><trkpt lat="45.577288385580694" lon="8.10645389797082"><ele>423.0</ele><time>2026-05-02T12:20:59.999Z</time></trkpt><trkpt lat="45.57722521163328" lon="8.106516228372913"><ele>423.0</ele><time>2026-05-02T12:21:06.999Z</time></trkpt><trkpt lat="45.57716249456331" lon="8.106530258403"><ele>423.0</ele><time>2026-05-02T12:21:12.999Z</time></trkpt><trkpt lat="45.57723766205292" lon="8.106526394699273"><ele>423.0</ele><time>2026-05-02T12:22:08Z</time></trkpt><trkpt lat="45.5773022681643" lon="8.106500700627368"><ele>423.0</ele><time>2026-05-02T12:22:14Z</time></trkpt><trkpt lat="45.57734731180333" lon="8.10640625481247"><ele>423.0</ele><time>2026-05-02T12:22:39.999Z</time></trkpt><trkpt lat="45.57734398560384" lon="8.106512976782037"><ele>423.0</ele><time>2026-05-02T13:00:37.999Z</time></trkpt><trkpt lat="45.57742998967857" lon="8.106674276807002"><ele>423.6666666666667</ele><time>2026-05-02T13:00:50.999Z</time></trkpt><trkpt lat="45.57743392854392" lon="8.106775991243827"><ele>424.33333333333337</ele><time>2026-05-02T13:00:53.999Z</time></trkpt><trkpt lat="45.57741574227376" lon="8.106865698229761"><ele>425.0</ele><time>2026-05-02T13:00:56.999Z</time></trkpt><trkpt lat="45.577343022015" lon="8.106861070220608"><ele>425.6666666666667</ele><time>2026-05-02T13:00:59.999Z</time></trkpt><trkpt lat="45.57726573340799" lon="8.106838844944004"><ele>426.33333333333337</ele><time>2026-05-02T13:01:07.999Z</time></trkpt><trkpt lat="45.57731063796576" lon="8.106920308499642"><ele>427.0</ele><time>2026-05-02T13:01:10.999Z</time></trkpt><trkpt lat="45.57741964942472" lon="8.106857854056084"><ele>427.00000000000006</ele><time>2026-05-02T13:01:12.998Z</time></trkpt><trkpt lat="45.57742998228482" lon="8.106744435171546"><ele>427.0</ele><time>2026-05-02T13:01:14.998Z</time></trkpt><trkpt lat="45.57741542340511" lon="8.106594243755852"><ele>427.0</ele><time>2026-05-02T13:01:16.998Z</time></trkpt><trkpt lat="45.577448191534515" lon="8.106515245159391"><ele>427.0</ele><time>2026-05-02T13:01:21.998Z</time></trkpt><trkpt lat="45.57752032222477" lon="8.10656335395708"><ele>427.00000000000006</ele><time>2026-05-02T13:01:25.998Z</time></trkpt><trkpt lat="45.57758985791243" lon="8.106535121220695"><ele>427.0</ele><time>2026-05-02T13:01:27.998Z</time></trkpt><trkpt lat="45.577715950740135" lon="8.106405070563945"><ele>426.0</ele><time>2026-05-02T13:01:29.998Z</time></trkpt><trkpt lat="45.57780909371392" lon="8.106317003426273"><ele>425.0</ele><time>2026-05-02T13:01:30.998Z</time></trkpt><trkpt lat="45.57788300229262" lon="8.106209912597379"><ele>424.0</ele><time>2026-05-02T13:01:31.998Z</time></trkpt><trkpt lat="45.57790841626168" lon="8.106098453496472"><ele>423.0</ele><time>2026-05-02T13:01:32.998Z</time></trkpt><trkpt lat="45.5777939372757" lon="8.105908621962342"><ele>423.0</ele><time>2026-05-02T13:01:33.998Z</time></trkpt><trkpt lat="45.57782798343803" lon="8.105796883227933"><ele>423.0</ele><time>2026-05-02T13:01:41Z</time></trkpt><trkpt lat="45.57785626199619" lon="8.105650184351598"><ele>423.0</ele><time>2026-05-02T13:01:44Z</time></trkpt><trkpt lat="45.57791801137308" lon="8.105245595394985"><ele>427.33333333333337</ele><time>2026-05-02T13:01:48Z</time></trkpt><trkpt lat="45.578188074589136" lon="8.105570896543727"><ele>431.6666666666667</ele><time>2026-05-02T13:02:00Z</time></trkpt><trkpt lat="45.57826440928095" lon="8.105556348485694"><ele>436.0</ele><time>2026-05-02T13:02:19.999Z</time></trkpt><trkpt lat="45.578269111321816" lon="8.105420801120223"><ele>436.0</ele><time>2026-05-02T13:03:42.998Z</time></trkpt><trkpt lat="45.57829457301413" lon="8.105243141528328"><ele>436.0</ele><time>2026-05-02T13:03:45Z</time></trkpt><trkpt lat="45.57827694852761" lon="8.10513044302686"><ele>436.0</ele><time>2026-05-02T13:03:46Z</time></trkpt><trkpt lat="45.5782695701258" lon="8.104995989679981"><ele>436.0</ele><time>2026-05-02T13:03:47Z</time></trkpt><trkpt lat="45.578289603681455" lon="8.104896427482265"><ele>436.0</ele><time>2026-05-02T13:03:48Z</time></trkpt><trkpt lat="45.578103437944925" lon="8.104829932916267"><ele>436.33333333333337</ele><time>2026-05-02T13:03:49Z</time></trkpt><trkpt lat="45.57811993178143" lon="8.104705492200743"><ele>436.66666666666663</ele><time>2026-05-02T13:03:53Z</time></trkpt><trkpt lat="45.578128655936524" lon="8.104583195820174"><ele>437.0</ele><time>2026-05-02T13:03:57Z</time></trkpt><trkpt lat="45.578438923770904" lon="8.104382657227333"><ele>437.0</ele><time>2026-05-02T13:04:15Z</time></trkpt><trkpt lat="45.57843623775445" lon="8.104259912165558"><ele>437.0</ele><time>2026-05-02T13:04:19Z</time></trkpt><trkpt lat="45.578438653199186" lon="8.10416194478083"><ele>437.0</ele><time>2026-05-02T13:04:22.999Z</time></trkpt><trkpt lat="45.57837436673415" lon="8.104110724315198"><ele>437.0</ele><time>2026-05-02T13:04:24.999Z</time></trkpt><trkpt lat="45.57838490238064" lon="8.104002213859076"><ele>437.0</ele><time>2026-05-02T13:04:28.999Z</time></trkpt><trkpt lat="45.57840220022139" lon="8.10389755366833"><ele>437.0</ele><time>2026-05-02T13:04:30.999Z</time></trkpt><trkpt lat="45.578373888137925" lon="8.10381002828238"><ele>437.0</ele><time>2026-05-02T13:04:31.999Z</time></trkpt><trkpt lat="45.578358186092856" lon="8.103708436316277"><ele>437.0</ele><time>2026-05-02T13:04:32.999Z</time></trkpt><trkpt lat="45.57836186423664" lon="8.103611091341634"><ele>437.0</ele><time>2026-05-02T13:04:33.999Z</time></trkpt><trkpt lat="45.578373856351384" lon="8.10351899071772"><ele>437.0</ele><time>2026-05-02T13:04:34.999Z</time></trkpt><trkpt lat="45.57842344937428" lon="8.10343982349741"><ele>437.0</ele><time>2026-05-02T13:04:35.999Z</time></trkpt><trkpt lat="45.57847213670087" lon="8.10334483762723"><ele>437.0</ele><time>2026-05-02T13:04:36.999Z</time></trkpt><trkpt lat="45.578463322382035" lon="8.10325357687509"><ele>437.0</ele><time>2026-05-02T13:04:44.999Z</time></trkpt><trkpt lat="45.578458673513495" lon="8.103143017705282"><ele>437.0</ele><time>2026-05-02T13:04:48.999Z</time></trkpt><trkpt lat="45.578441845195464" lon="8.103024242009756"><ele>437.40000000000003</ele><time>2026-05-02T13:04:50.999Z</time></trkpt><trkpt lat="45.578399781110406" lon="8.102938415317054"><ele>437.80000000000007</ele><time>2026-05-02T13:04:51.999Z</time></trkpt><trkpt lat="45.57836175539514" lon="8.102860121669469"><ele>438.2</ele><time>2026-05-02T13:04:52.999Z</time></trkpt><trkpt lat="45.578312096774404" lon="8.102672403887857"><ele>438.6</ele><time>2026-05-02T13:04:54.999Z</time></trkpt><trkpt lat="45.57827151307902" lon="8.102549081946758"><ele>439.0</ele><time>2026-05-02T13:04:55.999Z</time></trkpt><trkpt lat="45.57826583844241" lon="8.102431515858997"><ele>439.00000000000006</ele><time>2026-05-02T13:05:01.999Z</time></trkpt><trkpt lat="45.578241339362535" lon="8.102284727596372"><ele>439.0</ele><time>2026-05-02T13:05:06.999Z</time></trkpt><trkpt lat="45.57824673620683" lon="8.102170491096432"><ele>439.0</ele><time>2026-05-02T13:05:09.999Z</time></trkpt><trkpt lat="45.57822614267349" lon="8.102053076364088"><ele>439.0</ele><time>2026-05-02T13:05:12.999Z</time></trkpt><trkpt lat="45.578241865124824" lon="8.10193863967045"><ele>439.00000000000006</ele><time>2026-05-02T13:05:15.999Z</time></trkpt><trkpt lat="45.57822939728208" lon="8.101841356003458"><ele>439.0</ele><time>2026-05-02T13:05:17.998Z</time></trkpt><trkpt lat="45.578230083157635" lon="8.101732698112118"><ele>439.00000000000006</ele><time>2026-05-02T13:05:20.998Z</time></trkpt><trkpt lat="45.57821154310838" lon="8.101631970182503"><ele>439.0</ele><time>2026-05-02T13:05:23.998Z</time></trkpt><trkpt lat="45.578209238387835" lon="8.10151442177599"><ele>439.0</ele><time>2026-05-02T13:05:26.998Z</time></trkpt><trkpt lat="45.57822332106072" lon="8.101377134930269"><ele>439.0</ele><time>2026-05-02T13:05:29.998Z</time></trkpt><trkpt lat="45.57822555347876" lon="8.101218953367477"><ele>439.00000000000006</ele><time>2026-05-02T13:05:31.998Z</time></trkpt><trkpt lat="45.578232622104885" lon="8.101114239118242"><ele>439.0</ele><time>2026-05-02T13:05:33.998Z</time></trkpt><trkpt lat="45.57822075706141" lon="8.100958660046205"><ele>439.6</ele><time>2026-05-02T13:05:35.998Z</time></trkpt><trkpt lat="45.57825952057178" lon="8.100852902883124"><ele>440.2</ele><time>2026-05-02T13:05:39.998Z</time></trkpt><trkpt lat="45.57830306985917" lon="8.100714731697654"><ele>440.80000000000007</ele><time>2026-05-02T13:05:42.998Z</time></trkpt><trkpt lat="45.57837293420519" lon="8.100501916340908"><ele>441.40000000000003</ele><time>2026-05-02T13:05:46.998Z</time></trkpt><trkpt lat="45.578371964619286" lon="8.100401452119877"><ele>442.0</ele><time>2026-05-02T13:05:47.998Z</time></trkpt><trkpt lat="45.57842258899442" lon="8.100318694375897"><ele>442.33333333333337</ele><time>2026-05-02T13:05:49.998Z</time></trkpt><trkpt lat="45.57847955264845" lon="8.100260335506052"><ele>442.6666666666667</ele><time>2026-05-02T13:05:55Z</time></trkpt><trkpt lat="45.57854092942924" lon="8.100164063711613"><ele>443.0</ele><time>2026-05-02T13:05:58Z</time></trkpt><trkpt lat="45.578611227784826" lon="8.100083017573718"><ele>443.33333333333337</ele><time>2026-05-02T13:06:01Z</time></trkpt><trkpt lat="45.57865707846364" lon="8.10000538396954"><ele>443.6666666666667</ele><time>2026-05-02T13:06:03Z</time></trkpt><trkpt lat="45.57869756828356" lon="8.099928713727676"><ele>444.0</ele><time>2026-05-02T13:06:05Z</time></trkpt><trkpt lat="45.57888724785547" lon="8.099237753122262"><ele>444.6</ele><time>2026-05-02T13:06:07Z</time></trkpt><trkpt lat="45.578907374798575" lon="8.09909680076111"><ele>445.2</ele><time>2026-05-02T13:06:08Z</time></trkpt><trkpt lat="45.57892194201011" lon="8.098956617286364"><ele>445.80000000000007</ele><time>2026-05-02T13:06:10Z</time></trkpt><trkpt lat="45.5789711559296" lon="8.098874213440288"><ele>446.40000000000003</ele><time>2026-05-02T13:06:11Z</time></trkpt><trkpt lat="45.57901609918273" lon="8.098716929199938"><ele>447.0</ele><time>2026-05-02T13:06:12Z</time></trkpt><trkpt lat="45.57897898405209" lon="8.099370926571671"><ele>447.0</ele><time>2026-05-02T13:06:13Z</time></trkpt><trkpt lat="45.57904205349047" lon="8.099162676630181"><ele>447.00000000000006</ele><time>2026-05-02T13:06:15Z</time></trkpt><trkpt lat="45.57908691121007" lon="8.099053678924376"><ele>447.00000000000006</ele><time>2026-05-02T13:06:16Z</time></trkpt><trkpt lat="45.579113547615094" lon="8.098936682762996"><ele>447.0</ele><time>2026-05-02T13:06:17Z</time></trkpt><trkpt lat="45.579147832766225" lon="8.098833151397312"><ele>447.0</ele><time>2026-05-02T13:06:18Z</time></trkpt><trkpt lat="45.57917541559571" lon="8.098744775709815"><ele>447.0</ele><time>2026-05-02T13:06:19Z</time></trkpt><trkpt lat="45.57921052439848" lon="8.098625929173922"><ele>447.00000000000006</ele><time>2026-05-02T13:06:20Z</time></trkpt><trkpt lat="45.57923527348995" lon="8.09851906076322"><ele>447.00000000000006</ele><time>2026-05-02T13:06:21Z</time></trkpt><trkpt lat="45.57926162921602" lon="8.098378572078062"><ele>447.0</ele><time>2026-05-02T13:06:21.999Z</time></trkpt><trkpt lat="45.579287835436645" lon="8.098246370369983"><ele>447.0</ele><time>2026-05-02T13:06:22.999Z</time></trkpt><trkpt lat="45.57929554749227" lon="8.098113285352966"><ele>446.8</ele><time>2026-05-02T13:06:23.999Z</time></trkpt><trkpt lat="45.57929043127004" lon="8.098007736910985"><ele>446.6</ele><time>2026-05-02T13:06:24.999Z</time></trkpt><trkpt lat="45.5793057656959" lon="8.09785424147319"><ele>446.40000000000003</ele><time>2026-05-02T13:06:25.999Z</time></trkpt><trkpt lat="45.579319847270895" lon="8.097714352758533"><ele>446.20000000000005</ele><time>2026-05-02T13:06:26.999Z</time></trkpt><trkpt lat="45.57930085218011" lon="8.097530897761532"><ele>446.0</ele><time>2026-05-02T13:06:28.999Z</time></trkpt><trkpt lat="45.57930959494668" lon="8.09740447524075"><ele>445.75</ele><time>2026-05-02T13:06:29.999Z</time></trkpt><trkpt lat="45.57927588522999" lon="8.097312379489743"><ele>445.5</ele><time>2026-05-02T13:06:30.999Z</time></trkpt><trkpt lat="45.579037706490716" lon="8.097282633629481"><ele>445.25</ele><time>2026-05-02T13:06:32.999Z</time></trkpt><trkpt lat="45.579124897313214" lon="8.097187658792315"><ele>445.0</ele><time>2026-05-02T13:08:19.999Z</time></trkpt><trkpt lat="45.57930611326848" lon="8.09721955540622"><ele>445.0</ele><time>2026-05-02T13:08:24.999Z</time></trkpt><trkpt lat="45.57939010575811" lon="8.097215674578852"><ele>445.0</ele><time>2026-05-02T13:08:26.999Z</time></trkpt><trkpt lat="45.57948139680661" lon="8.097210217148584"><ele>445.0</ele><time>2026-05-02T13:08:28.999Z</time></trkpt><trkpt lat="45.57957893735821" lon="8.097187623161163"><ele>445.0</ele><time>2026-05-02T13:08:30.999Z</time></trkpt><trkpt lat="45.57967668348937" lon="8.097172264098349"><ele>445.0</ele><time>2026-05-02T13:08:32.999Z</time></trkpt><trkpt lat="45.5797706056828" lon="8.097154396026067"><ele>446.4</ele><time>2026-05-02T13:08:34.999Z</time></trkpt><trkpt lat="45.579875895301825" lon="8.097162874374234"><ele>447.8</ele><time>2026-05-02T13:08:36.999Z</time></trkpt><trkpt lat="45.579975038284225" lon="8.097146946717862"><ele>449.20000000000005</ele><time>2026-05-02T13:08:38.999Z</time></trkpt><trkpt lat="45.58007311293246" lon="8.097137752866953"><ele>450.6</ele><time>2026-05-02T13:08:40.999Z</time></trkpt><trkpt lat="45.58017496774747" lon="8.097140000613429"><ele>452.0</ele><time>2026-05-02T13:08:42.999Z</time></trkpt><trkpt lat="45.580271331491005" lon="8.097139965387605"><ele>453.40000000000003</ele><time>2026-05-02T13:08:44.999Z</time></trkpt><trkpt lat="45.58036989157351" lon="8.097142990740988"><ele>454.80000000000007</ele><time>2026-05-02T13:08:46.999Z</time></trkpt><trkpt lat="45.58047370510418" lon="8.097145958480924"><ele>456.2</ele><time>2026-05-02T13:08:48.999Z</time></trkpt><trkpt lat="45.58057777776481" lon="8.097144764412722"><ele>457.6</ele><time>2026-05-02T13:08:50.999Z</time></trkpt><trkpt lat="45.58069307603058" lon="8.097140301824775"><ele>459.0</ele><time>2026-05-02T13:08:52.999Z</time></trkpt><trkpt lat="45.58079123823985" lon="8.09713181336832"><ele>459.0</ele><time>2026-05-02T13:08:54.999Z</time></trkpt><trkpt lat="45.58088280344456" lon="8.097128148164844"><ele>459.0</ele><time>2026-05-02T13:08:56.999Z</time></trkpt><trkpt lat="45.58096205951017" lon="8.097127374258198"><ele>459.0</ele><time>2026-05-02T13:08:58.999Z</time></trkpt><trkpt lat="45.58103354066312" lon="8.097136345682614"><ele>459.0</ele><time>2026-05-02T13:09:02.999Z</time></trkpt><trkpt lat="45.58110702595885" lon="8.097278837905385"><ele>459.0</ele><time>2026-05-02T13:09:04.999Z</time></trkpt><trkpt lat="45.58115479532745" lon="8.097373555938217"><ele>459.0</ele><time>2026-05-02T13:09:05.999Z</time></trkpt><trkpt lat="45.58120183385341" lon="8.097476556961034"><ele>460.5</ele><time>2026-05-02T13:09:06.999Z</time></trkpt><trkpt lat="45.58124353091508" lon="8.097590411177332"><ele>462.0</ele><time>2026-05-02T13:09:07.999Z</time></trkpt><trkpt lat="45.5812747444246" lon="8.097708371662419"><ele>463.5</ele><time>2026-05-02T13:09:08.999Z</time></trkpt><trkpt lat="45.58129427704652" lon="8.097826299747325"><ele>465.0</ele><time>2026-05-02T13:09:09.999Z</time></trkpt><trkpt lat="45.581318168259806" lon="8.097938072102236"><ele>466.5</ele><time>2026-05-02T13:09:10.999Z</time></trkpt><trkpt lat="45.58134288843496" lon="8.098049180183905"><ele>468.0</ele><time>2026-05-02T13:09:11.999Z</time></trkpt><trkpt lat="45.581380919000765" lon="8.098159423193474"><ele>468.1666666666667</ele><time>2026-05-02T13:09:12.999Z</time></trkpt><trkpt lat="45.5814016133333" lon="8.098264644468053"><ele>468.33333333333337</ele><time>2026-05-02T13:09:13.998Z</time></trkpt><trkpt lat="45.581417544976034" lon="8.098368903169462"><ele>468.5</ele><time>2026-05-02T13:09:14.998Z</time></trkpt><trkpt lat="45.581437234810714" lon="8.098470196143474"><ele>468.6666666666667</ele><time>2026-05-02T13:09:15.998Z</time></trkpt><trkpt lat="45.5814827380317" lon="8.098611192592037"><ele>468.83333333333337</ele><time>2026-05-02T13:09:17.998Z</time></trkpt><trkpt lat="45.58158068315995" lon="8.0986269557055"><ele>469.0</ele><time>2026-05-02T13:09:19.998Z</time></trkpt><trkpt lat="45.58163781896028" lon="8.098584595085192"><ele>469.00000000000006</ele><time>2026-05-02T13:09:20.998Z</time></trkpt><trkpt lat="45.58169820946864" lon="8.098547034183527"><ele>469.0</ele><time>2026-05-02T13:09:21.998Z</time></trkpt><trkpt lat="45.581763254664835" lon="8.098534313459977"><ele>469.0</ele><time>2026-05-02T13:09:22.998Z</time></trkpt><trkpt lat="45.58183446333678" lon="8.098521095655398"><ele>469.0</ele><time>2026-05-02T13:09:23.998Z</time></trkpt><trkpt lat="45.58190170886072" lon="8.098515421017225"><ele>469.00000000000006</ele><time>2026-05-02T13:09:24.998Z</time></trkpt><trkpt lat="45.582050373102355" lon="8.098492711344695"><ele>469.0</ele><time>2026-05-02T13:09:26.998Z</time></trkpt><trkpt lat="45.582135641360345" lon="8.098467331434954"><ele>469.50000000000006</ele><time>2026-05-02T13:09:27.998Z</time></trkpt><trkpt lat="45.58221721291129" lon="8.09844822307334"><ele>470.0</ele><time>2026-05-02T13:09:28.998Z</time></trkpt><trkpt lat="45.58230472336811" lon="8.098423615085512"><ele>470.5</ele><time>2026-05-02T13:09:29.998Z</time></trkpt><trkpt lat="45.58238913693064" lon="8.098412017816283"><ele>471.0</ele><time>2026-05-02T13:09:30.998Z</time></trkpt><trkpt lat="45.58246822008529" lon="8.09840006456888"><ele>471.50000000000006</ele><time>2026-05-02T13:09:31.998Z</time></trkpt><trkpt lat="45.58255080059318" lon="8.098385676752054"><ele>472.0</ele><time>2026-05-02T13:09:32.998Z</time></trkpt><trkpt lat="45.5826284349095" lon="8.098365284205912"><ele>472.0</ele><time>2026-05-02T13:09:33.998Z</time></trkpt><trkpt lat="45.58277948778324" lon="8.098333972351083"><ele>472.00000000000006</ele><time>2026-05-02T13:09:35.998Z</time></trkpt><trkpt lat="45.58285651335978" lon="8.09832022703206"><ele>472.00000000000006</ele><time>2026-05-02T13:09:36.998Z</time></trkpt><trkpt lat="45.58292957074171" lon="8.098316322780281"><ele>472.0</ele><time>2026-05-02T13:09:37.998Z</time></trkpt><trkpt lat="45.58300758443294" lon="8.098299820420445"><ele>472.0</ele><time>2026-05-02T13:09:38.998Z</time></trkpt><trkpt lat="45.583109861082825" lon="8.098292913680776"><ele>473.50000000000006</ele><time>2026-05-02T13:09:39.998Z</time></trkpt><trkpt lat="45.583178860274906" lon="8.098277771434434"><ele>475.0</ele><time>2026-05-02T13:09:40.998Z</time></trkpt><trkpt lat="45.583260469643214" lon="8.098257846224433"><ele>476.5</ele><time>2026-05-02T13:09:41.998Z</time></trkpt><trkpt lat="45.583340550090256" lon="8.098207077151637"><ele>478.0</ele><time>2026-05-02T13:09:42.998Z</time></trkpt><trkpt lat="45.583409721316364" lon="8.098120545359187"><ele>479.50000000000006</ele><time>2026-05-02T13:09:43.998Z</time></trkpt><trkpt lat="45.583478415467305" lon="8.098032290030705"><ele>481.0</ele><time>2026-05-02T13:09:44.998Z</time></trkpt><trkpt lat="45.583546821532835" lon="8.097946671511966"><ele>482.6666666666667</ele><time>2026-05-02T13:09:45.998Z</time></trkpt><trkpt lat="45.58362270487783" lon="8.097877639324029"><ele>484.33333333333337</ele><time>2026-05-02T13:09:46.998Z</time></trkpt><trkpt lat="45.58369404859469" lon="8.09780735841281"><ele>486.0</ele><time>2026-05-02T13:09:47.998Z</time></trkpt><trkpt lat="45.583761957957435" lon="8.097734051903721"><ele>487.66666666666663</ele><time>2026-05-02T13:09:48.998Z</time></trkpt><trkpt lat="45.58382511266428" lon="8.097657880170921"><ele>489.3333333333333</ele><time>2026-05-02T13:09:49.998Z</time></trkpt><trkpt lat="45.58389007487805" lon="8.097590646235131"><ele>491.0</ele><time>2026-05-02T13:09:50.998Z</time></trkpt><trkpt lat="45.58395749545399" lon="8.097537100305567"><ele>491.71428571428567</ele><time>2026-05-02T13:09:51.998Z</time></trkpt><trkpt lat="45.5840275847432" lon="8.097514791246047"><ele>492.4285714285714</ele><time>2026-05-02T13:09:52.998Z</time></trkpt><trkpt lat="45.584100054233616" lon="8.097526930728566"><ele>493.1428571428571</ele><time>2026-05-02T13:09:53.998Z</time></trkpt><trkpt lat="45.58417015364266" lon="8.097562739553844"><ele>493.8571428571429</ele><time>2026-05-02T13:09:54.998Z</time></trkpt><trkpt lat="45.58423873470253" lon="8.097607998524287"><ele>494.5714285714286</ele><time>2026-05-02T13:09:55.998Z</time></trkpt><trkpt lat="45.584308748396424" lon="8.097651324630968"><ele>495.28571428571433</ele><time>2026-05-02T13:09:56.998Z</time></trkpt><trkpt lat="45.58438245922158" lon="8.097684284551715"><ele>496.0</ele><time>2026-05-02T13:09:57.998Z</time></trkpt><trkpt lat="45.58446041606597" lon="8.09770450268712"><ele>497.28571428571433</ele><time>2026-05-02T13:09:58.998Z</time></trkpt><trkpt lat="45.58453560363236" lon="8.097702430380444"><ele>498.5714285714286</ele><time>2026-05-02T13:09:59.998Z</time></trkpt><trkpt lat="45.58461106485545" lon="8.097682935111363"><ele>499.8571428571429</ele><time>2026-05-02T13:10:00.998Z</time></trkpt><trkpt lat="45.58468295378315" lon="8.097659631470668"><ele>501.1428571428571</ele><time>2026-05-02T13:10:01.998Z</time></trkpt><trkpt lat="45.58475862893279" lon="8.097648794842737"><ele>502.4285714285714</ele><time>2026-05-02T13:10:02.999Z</time></trkpt><trkpt lat="45.58482974205137" lon="8.097665712219092"><ele>503.71428571428567</ele><time>2026-05-02T13:10:03.999Z</time></trkpt><trkpt lat="45.58488803762802" lon="8.097720000078038"><ele>505.0</ele><time>2026-05-02T13:10:04.999Z</time></trkpt><trkpt lat="45.58495250609654" lon="8.097793498173807"><ele>505.0</ele><time>2026-05-02T13:10:05.999Z</time></trkpt><trkpt lat="45.585003647344195" lon="8.09787952815073"><ele>504.99999999999994</ele><time>2026-05-02T13:10:06.999Z</time></trkpt><trkpt lat="45.58505023471664" lon="8.09797246802529"><ele>505.0</ele><time>2026-05-02T13:10:07.999Z</time></trkpt><trkpt lat="45.58509731746796" lon="8.098050828511406"><ele>505.0</ele><time>2026-05-02T13:10:08.999Z</time></trkpt><trkpt lat="45.58515347814605" lon="8.098121352574703"><ele>504.99999999999994</ele><time>2026-05-02T13:10:09.999Z</time></trkpt><trkpt lat="45.58521303646806" lon="8.098181588527021"><ele>505.0</ele><time>2026-05-02T13:10:10.999Z</time></trkpt><trkpt lat="45.58527403401571" lon="8.098210789642621"><ele>505.0</ele><time>2026-05-02T13:10:11.999Z</time></trkpt><trkpt lat="45.58539071739745" lon="8.098231655542426"><ele>504.57142857142856</ele><time>2026-05-02T13:10:13.999Z</time></trkpt><trkpt lat="45.585456518588494" lon="8.09826968764474"><ele>504.1428571428571</ele><time>2026-05-02T13:10:15.999Z</time></trkpt><trkpt lat="45.585526822534426" lon="8.098294872610607"><ele>503.71428571428567</ele><time>2026-05-02T13:10:48.999Z</time></trkpt><trkpt lat="45.58561644543442" lon="8.098301958811383"><ele>503.2857142857142</ele><time>2026-05-02T13:10:52.999Z</time></trkpt><trkpt lat="45.58567937592176" lon="8.098324291364827"><ele>502.85714285714283</ele><time>2026-05-02T13:10:58.999Z</time></trkpt><trkpt lat="45.585739944008075" lon="8.098373695963724"><ele>502.42857142857133</ele><time>2026-05-02T13:11:06.999Z</time></trkpt><trkpt lat="45.58578793490547" lon="8.098452748251232"><ele>501.99999999999994</ele><time>2026-05-02T13:11:08.999Z</time></trkpt><trkpt lat="45.58584470246572" lon="8.098546026845929"><ele>502.00000000000006</ele><time>2026-05-02T13:11:10.999Z</time></trkpt><trkpt lat="45.58591037546918" lon="8.098632690866442"><ele>502.0</ele><time>2026-05-02T13:11:12.999Z</time></trkpt><trkpt lat="45.58598242237704" lon="8.098677539667722"><ele>502.0</ele><time>2026-05-02T13:11:16.998Z</time></trkpt><trkpt lat="45.58604551244867" lon="8.09866984087452"><ele>502.0</ele><time>2026-05-02T13:11:19.998Z</time></trkpt><trkpt lat="45.58612299388637" lon="8.098645341955836"><ele>502.00000000000006</ele><time>2026-05-02T13:11:21.998Z</time></trkpt><trkpt lat="45.58619710547318" lon="8.098643079850534"><ele>502.0</ele><time>2026-05-02T13:11:23.998Z</time></trkpt><trkpt lat="45.58628248056089" lon="8.098640970896493"><ele>499.8571428571428</ele><time>2026-05-02T13:11:25.998Z</time></trkpt><trkpt lat="45.58637227965556" lon="8.098602610055789"><ele>497.71428571428567</ele><time>2026-05-02T13:11:28.998Z</time></trkpt><trkpt lat="45.58642217024893" lon="8.09853798147755"><ele>495.57142857142856</ele><time>2026-05-02T13:11:30.998Z</time></trkpt><trkpt lat="45.58644658425124" lon="8.098435240327394"><ele>493.4285714285714</ele><time>2026-05-02T13:11:33.998Z</time></trkpt><trkpt lat="45.58649136563588" lon="8.098353972711124"><ele>491.2857142857142</ele><time>2026-05-02T13:11:37.998Z</time></trkpt><trkpt lat="45.58655683411328" lon="8.098350197882695"><ele>489.14285714285717</ele><time>2026-05-02T13:11:51.998Z</time></trkpt><trkpt lat="45.58661635353306" lon="8.098409895678957"><ele>487.0</ele><time>2026-05-02T13:11:56.998Z</time></trkpt><trkpt lat="45.586696868116114" lon="8.098415065278127"><ele>487.00000000000006</ele><time>2026-05-02T13:11:59.998Z</time></trkpt><trkpt lat="45.58677742830186" lon="8.098421077844975"><ele>487.0</ele><time>2026-05-02T13:12:02.998Z</time></trkpt><trkpt lat="45.58686573052337" lon="8.09839853625162"><ele>487.0</ele><time>2026-05-02T13:12:04.998Z</time></trkpt><trkpt lat="45.58694639129583" lon="8.098424453323794"><ele>487.0</ele><time>2026-05-02T13:12:06.998Z</time></trkpt><trkpt lat="45.58701950720615" lon="8.098397496634291"><ele>487.00000000000006</ele><time>2026-05-02T13:12:09.999Z</time></trkpt><trkpt lat="45.58708292783991" lon="8.098377981190874"><ele>487.0</ele><time>2026-05-02T13:12:11.999Z</time></trkpt><trkpt lat="45.58714602718983" lon="8.098368420025375"><ele>485.6666666666667</ele><time>2026-05-02T13:12:13.999Z</time></trkpt><trkpt lat="45.587228236920836" lon="8.09834452194262"><ele>484.33333333333337</ele><time>2026-05-02T13:12:16.999Z</time></trkpt><trkpt lat="45.5872995694767" lon="8.098385561827069"><ele>483.0</ele><time>2026-05-02T13:12:19.999Z</time></trkpt><trkpt lat="45.587382020926185" lon="8.098438558314182"><ele>481.66666666666663</ele><time>2026-05-02T13:12:21.999Z</time></trkpt><trkpt lat="45.58747053748752" lon="8.098499444306892"><ele>480.3333333333333</ele><time>2026-05-02T13:12:23.999Z</time></trkpt><trkpt lat="45.58755397681944" lon="8.098510159797181"><ele>479.0</ele><time>2026-05-02T13:12:25.999Z</time></trkpt><trkpt lat="45.587641024203386" lon="8.098530040949516"><ele>478.99999999999994</ele><time>2026-05-02T13:12:27.999Z</time></trkpt><trkpt lat="45.58771923672306" lon="8.09856605790893"><ele>479.0</ele><time>2026-05-02T13:12:29.999Z</time></trkpt><trkpt lat="45.58779113185402" lon="8.098617874200908"><ele>479.0</ele><time>2026-05-02T13:12:31.999Z</time></trkpt><trkpt lat="45.587863011880785" lon="8.098614549862116"><ele>479.0</ele><time>2026-05-02T13:12:33.999Z</time></trkpt><trkpt lat="45.58796243552923" lon="8.098608219854224"><ele>478.99999999999994</ele><time>2026-05-02T13:12:35.999Z</time></trkpt><trkpt lat="45.58805438527108" lon="8.098602362433901"><ele>479.0</ele><time>2026-05-02T13:12:37.999Z</time></trkpt><trkpt lat="45.58817730093295" lon="8.098525674825325"><ele>477.79999999999995</ele><time>2026-05-02T13:12:39.999Z</time></trkpt><trkpt lat="45.588263965742186" lon="8.098493240848736"><ele>476.59999999999997</ele><time>2026-05-02T13:12:40.999Z</time></trkpt><trkpt lat="45.588327520739824" lon="8.098455202099027"><ele>475.4</ele><time>2026-05-02T13:12:41.999Z</time></trkpt><trkpt lat="45.58842190509463" lon="8.098392824157965"><ele>474.2</ele><time>2026-05-02T13:12:44.999Z</time></trkpt><trkpt lat="45.58854992922714" lon="8.098408447279843"><ele>473.0</ele><time>2026-05-02T13:12:46.999Z</time></trkpt><trkpt lat="45.58861901831539" lon="8.09838844600775"><ele>469.4</ele><time>2026-05-02T13:12:47.999Z</time></trkpt><trkpt lat="45.58869381131414" lon="8.098355904286748"><ele>465.79999999999995</ele><time>2026-05-02T13:12:48.999Z</time></trkpt><trkpt lat="45.588815945899356" lon="8.098343727912821"><ele>462.2</ele><time>2026-05-02T13:12:50.999Z</time></trkpt><trkpt lat="45.58889369873764" lon="8.098334633072938"><ele>458.6</ele><time>2026-05-02T13:12:51.999Z</time></trkpt><trkpt lat="45.588976228323794" lon="8.098326692434398"><ele>455.0</ele><time>2026-05-02T13:12:52.999Z</time></trkpt><trkpt lat="45.58907550122488" lon="8.098310916899925"><ele>455.0</ele><time>2026-05-02T13:12:53.999Z</time></trkpt><trkpt lat="45.589167096271446" lon="8.09827430040691"><ele>455.0</ele><time>2026-05-02T13:12:54.999Z</time></trkpt><trkpt lat="45.589255941132166" lon="8.098241548185312"><ele>455.0</ele><time>2026-05-02T13:12:55.999Z</time></trkpt><trkpt lat="45.5893267424261" lon="8.098199264796683"><ele>455.0</ele><time>2026-05-02T13:12:56.999Z</time></trkpt><trkpt lat="45.58938109976071" lon="8.098151986520852"><ele>455.0</ele><time>2026-05-02T13:12:57.999Z</time></trkpt><trkpt lat="45.58950333721872" lon="8.09805773662846"><ele>455.6</ele><time>2026-05-02T13:12:59.999Z</time></trkpt><trkpt lat="45.58955489763927" lon="8.097993738983273"><ele>456.2</ele><time>2026-05-02T13:13:00.999Z</time></trkpt><trkpt lat="45.58965744080982" lon="8.097978596042283"><ele>456.79999999999995</ele><time>2026-05-02T13:13:02.999Z</time></trkpt><trkpt lat="45.589760973199795" lon="8.097939360410217"><ele>457.4</ele><time>2026-05-02T13:13:04.999Z</time></trkpt><trkpt lat="45.589854956654605" lon="8.09794064770638"><ele>458.0</ele><time>2026-05-02T13:13:07.999Z</time></trkpt><trkpt lat="45.5899314857635" lon="8.09795499902049"><ele>458.0</ele><time>2026-05-02T13:13:09.999Z</time></trkpt><trkpt lat="45.590033580082356" lon="8.097966938461827"><ele>457.99999999999994</ele><time>2026-05-02T13:13:11.999Z</time></trkpt><trkpt lat="45.590146131657605" lon="8.097953853565608"><ele>457.99999999999994</ele><time>2026-05-02T13:13:12.999Z</time></trkpt><trkpt lat="45.590215664993416" lon="8.097934396764273"><ele>458.0</ele><time>2026-05-02T13:13:14.999Z</time></trkpt><trkpt lat="45.5903505842455" lon="8.09788383867665"><ele>458.0</ele><time>2026-05-02T13:13:16.999Z</time></trkpt><trkpt lat="45.59042064293507" lon="8.097854073931087"><ele>456.0</ele><time>2026-05-02T13:13:17.999Z</time></trkpt><trkpt lat="45.59048615630097" lon="8.097815994926664"><ele>453.99999999999994</ele><time>2026-05-02T13:13:18.999Z</time></trkpt><trkpt lat="45.59055434293313" lon="8.097779031753612"><ele>451.99999999999994</ele><time>2026-05-02T13:13:19.999Z</time></trkpt><trkpt lat="45.59064985436394" lon="8.097704029880584"><ele>450.0</ele><time>2026-05-02T13:13:21.999Z</time></trkpt><trkpt lat="45.59072687749275" lon="8.097609178490254"><ele>448.0</ele><time>2026-05-02T13:13:23.999Z</time></trkpt><trkpt lat="45.59081142378985" lon="8.097492651286721"><ele>448.0</ele><time>2026-05-02T13:13:25.999Z</time></trkpt><trkpt lat="45.59089949724467" lon="8.09741971501083"><ele>447.99999999999994</ele><time>2026-05-02T13:13:27.999Z</time></trkpt><trkpt lat="45.59097013204493" lon="8.097398780784518"><ele>447.99999999999994</ele><time>2026-05-02T13:13:31.998Z</time></trkpt><trkpt lat="45.59102493504628" lon="8.097472087088939"><ele>448.0</ele><time>2026-05-02T13:13:34.998Z</time></trkpt><trkpt lat="45.59109515931951" lon="8.09753992543409"><ele>448.0</ele><time>2026-05-02T13:13:37.998Z</time></trkpt><trkpt lat="45.59121449217324" lon="8.097616447575682"><ele>447.83333333333337</ele><time>2026-05-02T13:13:39.998Z</time></trkpt><trkpt lat="45.59129016971543" lon="8.09765302727432"><ele>447.6666666666667</ele><time>2026-05-02T13:13:40.998Z</time></trkpt><trkpt lat="45.591368780857515" lon="8.097762987222584"><ele>447.5</ele><time>2026-05-02T13:13:42.998Z</time></trkpt><trkpt lat="45.59140677804288" lon="8.097682737953967"><ele>447.33333333333337</ele><time>2026-05-02T13:13:43.998Z</time></trkpt><trkpt lat="45.59150336394362" lon="8.097627123629083"><ele>447.1666666666667</ele><time>2026-05-02T13:13:45.998Z</time></trkpt><trkpt lat="45.59157637748463" lon="8.097601037248756"><ele>447.0</ele><time>2026-05-02T13:13:46.998Z</time></trkpt><trkpt lat="45.5916596595622" lon="8.097569805426211"><ele>447.0</ele><time>2026-05-02T13:13:47.998Z</time></trkpt><trkpt lat="45.591728911567124" lon="8.097539836991317"><ele>447.0</ele><time>2026-05-02T13:13:48.998Z</time></trkpt><trkpt lat="45.591804424933216" lon="8.097486849775485"><ele>447.0</ele><time>2026-05-02T13:13:49.998Z</time></trkpt><trkpt lat="45.59186430106716" lon="8.09744546831986"><ele>447.0</ele><time>2026-05-02T13:13:50.998Z</time></trkpt><trkpt lat="45.59193963083124" lon="8.097372715985237"><ele>447.0</ele><time>2026-05-02T13:13:51.998Z</time></trkpt><trkpt lat="45.5920054791184" lon="8.09734035955871"><ele>447.0</ele><time>2026-05-02T13:13:52.998Z</time></trkpt><trkpt lat="45.59209437012799" lon="8.097347224380108"><ele>448.0</ele><time>2026-05-02T13:13:53.998Z</time></trkpt><trkpt lat="45.592199997953365" lon="8.097331446881299"><ele>449.0</ele><time>2026-05-02T13:13:54.998Z</time></trkpt><trkpt lat="45.59228396415579" lon="8.097324557871154"><ele>450.0</ele><time>2026-05-02T13:13:55.998Z</time></trkpt><trkpt lat="45.592369944246066" lon="8.097298844673398"><ele>451.0</ele><time>2026-05-02T13:13:56.998Z</time></trkpt><trkpt lat="45.59244621670236" lon="8.097258342900277"><ele>452.0</ele><time>2026-05-02T13:13:57.998Z</time></trkpt><trkpt lat="45.59250782872291" lon="8.097222614886764"><ele>453.0</ele><time>2026-05-02T13:13:58.998Z</time></trkpt><trkpt lat="45.59256468948393" lon="8.097179485525885"><ele>452.99999999999994</ele><time>2026-05-02T13:13:59.998Z</time></trkpt><trkpt lat="45.59262859112885" lon="8.097165183771992"><ele>453.0</ele><time>2026-05-02T13:14:00.998Z</time></trkpt><trkpt lat="45.59269454141568" lon="8.09714462351966"><ele>452.99999999999994</ele><time>2026-05-02T13:14:01.998Z</time></trkpt><trkpt lat="45.59277930698438" lon="8.09711887956642"><ele>452.99999999999994</ele><time>2026-05-02T13:14:03.998Z</time></trkpt><trkpt lat="45.59284332919262" lon="8.097161918946625"><ele>453.0</ele><time>2026-05-02T13:14:06.998Z</time></trkpt><trkpt lat="45.59289362119529" lon="8.097256548273727"><ele>452.99999999999994</ele><time>2026-05-02T13:14:10.998Z</time></trkpt><trkpt lat="45.59296868230293" lon="8.097262204312765"><ele>452.99999999999994</ele><time>2026-05-02T13:14:13.999Z</time></trkpt><trkpt lat="45.593009678139424" lon="8.097331592076385"><ele>450.8333333333333</ele><time>2026-05-02T13:14:16.999Z</time></trkpt><trkpt lat="45.593039612781006" lon="8.097477522486203"><ele>448.66666666666663</ele><time>2026-05-02T13:14:18.999Z</time></trkpt><trkpt lat="45.593079219732324" lon="8.097554395755273"><ele>446.5</ele><time>2026-05-02T13:14:20.999Z</time></trkpt><trkpt lat="45.59303640846156" lon="8.09762082585101"><ele>444.3333333333333</ele><time>2026-05-02T13:15:48.998Z</time></trkpt><trkpt lat="45.5929780814674" lon="8.097687878339377"><ele>442.16666666666663</ele><time>2026-05-02T13:15:53.998Z</time></trkpt><trkpt lat="45.59290105465108" lon="8.09768969362789"><ele>440.0</ele><time>2026-05-02T13:16:01.998Z</time></trkpt><trkpt lat="45.592816048414164" lon="8.097705048157858"><ele>440.0</ele><time>2026-05-02T13:16:04.998Z</time></trkpt><trkpt lat="45.59274545992235" lon="8.097720350133661"><ele>440.0</ele><time>2026-05-02T13:16:06.998Z</time></trkpt><trkpt lat="45.59265662808885" lon="8.097791837259996"><ele>440.0</ele><time>2026-05-02T13:16:08.998Z</time></trkpt><trkpt lat="45.59261211226969" lon="8.097878422337041"><ele>440.0</ele><time>2026-05-02T13:16:12.998Z</time></trkpt><trkpt lat="45.59258967645155" lon="8.097990132391748"><ele>440.0</ele><time>2026-05-02T13:16:16.998Z</time></trkpt><trkpt lat="45.59267368361928" lon="8.09811469338565"><ele>441.2</ele><time>2026-05-02T13:16:18.998Z</time></trkpt><trkpt lat="45.592662500401" lon="8.098327497713594"><ele>442.4</ele><time>2026-05-02T13:16:20.999Z</time></trkpt><trkpt lat="45.59270724050409" lon="8.098394402295188"><ele>443.6</ele><time>2026-05-02T13:16:21.999Z</time></trkpt><trkpt lat="45.59276338314817" lon="8.098483789202568"><ele>444.8</ele><time>2026-05-02T13:16:22.999Z</time></trkpt><trkpt lat="45.5928376293152" lon="8.098591164093069"><ele>446.0</ele><time>2026-05-02T13:16:23.999Z</time></trkpt><trkpt lat="45.59290182447617" lon="8.098733836567693"><ele>446.0</ele><time>2026-05-02T13:16:24.999Z</time></trkpt><trkpt lat="45.592973154800546" lon="8.098827845525904"><ele>446.0</ele><time>2026-05-02T13:16:26.999Z</time></trkpt><trkpt lat="45.593071803387566" lon="8.098959351571065"><ele>446.0</ele><time>2026-05-02T13:16:28.999Z</time></trkpt><trkpt lat="45.59314803144521" lon="8.099036973768373"><ele>446.0</ele><time>2026-05-02T13:16:30.999Z</time></trkpt><trkpt lat="45.59322743566833" lon="8.099156728152067"><ele>446.0</ele><time>2026-05-02T13:16:32.999Z</time></trkpt><trkpt lat="45.59331362734905" lon="8.099311413839347"><ele>449.20000000000005</ele><time>2026-05-02T13:16:33.999Z</time></trkpt><trkpt lat="45.59336902787834" lon="8.099392929639167"><ele>452.40000000000003</ele><time>2026-05-02T13:16:34.999Z</time></trkpt><trkpt lat="45.59342296189344" lon="8.099459270719935"><ele>455.6</ele><time>2026-05-02T13:16:37.999Z</time></trkpt><trkpt lat="45.59346037450262" lon="8.099553719316607"><ele>458.8</ele><time>2026-05-02T13:16:39.999Z</time></trkpt><trkpt lat="45.593488014565295" lon="8.099638818206493"><ele>462.0</ele><time>2026-05-02T13:16:40.999Z</time></trkpt><trkpt lat="45.59366095359033" lon="8.099942244746515"><ele>464.5</ele><time>2026-05-02T13:16:42.999Z</time></trkpt><trkpt lat="45.59372130818263" lon="8.100084890670793"><ele>467.0</ele><time>2026-05-02T13:16:44.999Z</time></trkpt><trkpt lat="45.59375120896552" lon="8.100171791804835"><ele>469.5</ele><time>2026-05-02T13:16:45.999Z</time></trkpt><trkpt lat="45.59368207653062" lon="8.100054743382586"><ele>472.0</ele><time>2026-05-02T13:16:46.999Z</time></trkpt><trkpt lat="45.59393542141077" lon="8.100408354117894"><ele>472.0</ele><time>2026-05-02T13:16:49.999Z</time></trkpt><trkpt lat="45.59407835101782" lon="8.100426707705411"><ele>472.0</ele><time>2026-05-02T13:16:51.999Z</time></trkpt><trkpt lat="45.59415447428351" lon="8.100485402649248"><ele>472.0</ele><time>2026-05-02T13:16:52.999Z</time></trkpt><trkpt lat="45.59430264469784" lon="8.100558894225685"><ele>472.0</ele><time>2026-05-02T13:16:54.999Z</time></trkpt><trkpt lat="45.59448357637448" lon="8.100743089134598"><ele>474.40000000000003</ele><time>2026-05-02T13:16:56.999Z</time></trkpt><trkpt lat="45.594620959043446" lon="8.100785271559817"><ele>476.80000000000007</ele><time>2026-05-02T13:16:58.999Z</time></trkpt><trkpt lat="45.594707964931594" lon="8.100887594641486"><ele>479.2</ele><time>2026-05-02T13:16:59.999Z</time></trkpt><trkpt lat="45.5947292012802" lon="8.101055213239139"><ele>481.6</ele><time>2026-05-02T13:17:00.999Z</time></trkpt><trkpt lat="45.59473162939791" lon="8.101154951336337"><ele>484.0</ele><time>2026-05-02T13:17:01.999Z</time></trkpt><trkpt lat="45.59477629386082" lon="8.101312230864437"><ele>484.00000000000006</ele><time>2026-05-02T13:17:03.999Z</time></trkpt><trkpt lat="45.59480032220564" lon="8.10140186921736"><ele>484.0</ele><time>2026-05-02T13:17:04.999Z</time></trkpt><trkpt lat="45.59472284498168" lon="8.101485369504049"><ele>484.0</ele><time>2026-05-02T13:17:06.999Z</time></trkpt><trkpt lat="45.594655840079206" lon="8.101511213032259"><ele>484.0</ele><time>2026-05-02T13:17:09.999Z</time></trkpt><trkpt lat="45.59459902583265" lon="8.101620200016443"><ele>484.00000000000006</ele><time>2026-05-02T13:17:11.999Z</time></trkpt><trkpt lat="45.5945504318022" lon="8.101687058252203"><ele>484.0</ele><time>2026-05-02T13:17:13.999Z</time></trkpt><trkpt lat="45.594471538847" lon="8.101726928669061"><ele>486.1666666666667</ele><time>2026-05-02T13:17:16.999Z</time></trkpt><trkpt lat="45.59437557443703" lon="8.101787347584755"><ele>488.33333333333337</ele><time>2026-05-02T13:17:20.999Z</time></trkpt><trkpt lat="45.59431605044553" lon="8.101839584847877"><ele>490.5</ele><time>2026-05-02T13:17:21.999Z</time></trkpt><trkpt lat="45.59426398514809" lon="8.101899943203275"><ele>492.66666666666663</ele><time>2026-05-02T13:17:22.999Z</time></trkpt><trkpt lat="45.59418828820015" lon="8.101933399821197"><ele>494.8333333333333</ele><time>2026-05-02T13:17:23.999Z</time></trkpt><trkpt lat="45.594114293246975" lon="8.101957924180256"><ele>497.0</ele><time>2026-05-02T13:17:24.999Z</time></trkpt><trkpt lat="45.594059253583005" lon="8.102021908498449"><ele>497.0</ele><time>2026-05-02T13:17:26.999Z</time></trkpt><trkpt lat="45.59402723223778" lon="8.102111602902418"><ele>497.0</ele><time>2026-05-02T13:17:27.999Z</time></trkpt><trkpt lat="45.593971376005676" lon="8.1022110516525"><ele>497.0</ele><time>2026-05-02T13:17:28.999Z</time></trkpt><trkpt lat="45.59354464081069" lon="8.102584486756635"><ele>496.49999999999994</ele><time>2026-05-02T13:17:30.999Z</time></trkpt><trkpt lat="45.59351285513039" lon="8.10270054995869"><ele>496.0</ele><time>2026-05-02T13:17:32.999Z</time></trkpt><trkpt lat="45.59347694879629" lon="8.102780066145586"><ele>495.5</ele><time>2026-05-02T13:17:34.999Z</time></trkpt><trkpt lat="45.59346528355118" lon="8.102876960125952"><ele>495.0</ele><time>2026-05-02T13:17:36.999Z</time></trkpt><trkpt lat="45.59348718945475" lon="8.102979556664263"><ele>494.49999999999994</ele><time>2026-05-02T13:17:41.999Z</time></trkpt><trkpt lat="45.59352512201932" lon="8.103105658064587"><ele>494.0</ele><time>2026-05-02T13:17:44.999Z</time></trkpt><trkpt lat="45.59355663967502" lon="8.103187128144459"><ele>498.0</ele><time>2026-05-02T13:17:45.999Z</time></trkpt><trkpt lat="45.59359243924667" lon="8.103276582284158"><ele>502.0</ele><time>2026-05-02T13:17:48.999Z</time></trkpt><trkpt lat="45.593604616396846" lon="8.103403429698197"><ele>506.0</ele><time>2026-05-02T13:17:50.999Z</time></trkpt><trkpt lat="45.59397618566356" lon="8.10388444957472"><ele>510.8</ele><time>2026-05-02T13:17:51.999Z</time></trkpt><trkpt lat="45.59392903624938" lon="8.103975360548853"><ele>515.6</ele><time>2026-05-02T13:17:53.998Z</time></trkpt><trkpt lat="45.593945450044096" lon="8.104085352450882"><ele>520.4</ele><time>2026-05-02T13:17:54.998Z</time></trkpt><trkpt lat="45.59388003418165" lon="8.104228973458143"><ele>525.2</ele><time>2026-05-02T13:17:56.998Z</time></trkpt><trkpt lat="45.593824164652354" lon="8.104321218284904"><ele>530.0</ele><time>2026-05-02T13:17:57.998Z</time></trkpt><trkpt lat="45.593789275295194" lon="8.104451288825283"><ele>528.6</ele><time>2026-05-02T13:17:58.998Z</time></trkpt><trkpt lat="45.59375309371046" lon="8.10459597219523"><ele>527.2</ele><time>2026-05-02T13:17:59.998Z</time></trkpt><trkpt lat="45.593702323692185" lon="8.10475544299688"><ele>525.8</ele><time>2026-05-02T13:18:00.998Z</time></trkpt><trkpt lat="45.59363285499474" lon="8.104841007772498"><ele>524.4</ele><time>2026-05-02T13:18:01.998Z</time></trkpt><trkpt lat="45.593574643132236" lon="8.10492543225466"><ele>523.0</ele><time>2026-05-02T13:18:02.998Z</time></trkpt><trkpt lat="45.59345227362822" lon="8.10500187949344"><ele>529.0</ele><time>2026-05-02T13:18:03.998Z</time></trkpt><trkpt lat="45.59336063683175" lon="8.105072903477108"><ele>535.0</ele><time>2026-05-02T13:18:04.998Z</time></trkpt><trkpt lat="45.59329560969624" lon="8.105171564504513"><ele>541.0</ele><time>2026-05-02T13:18:06.998Z</time></trkpt><trkpt lat="45.5934307463559" lon="8.105763452324204"><ele>544.6666666666667</ele><time>2026-05-02T13:18:07.998Z</time></trkpt><trkpt lat="45.593455091124795" lon="8.105933143035697"><ele>548.3333333333334</ele><time>2026-05-02T13:18:09.998Z</time></trkpt><trkpt lat="45.59346060010006" lon="8.10603481979528"><ele>552.0</ele><time>2026-05-02T13:18:10.998Z</time></trkpt><trkpt lat="45.5937613733168" lon="8.105753691179029"><ele>552.8000000000001</ele><time>2026-05-02T13:18:14.998Z</time></trkpt><trkpt lat="45.593796625494214" lon="8.105856893245273"><ele>553.6</ele><time>2026-05-02T13:18:15.998Z</time></trkpt><trkpt lat="45.59380034623801" lon="8.105974296476159"><ele>554.4000000000001</ele><time>2026-05-02T13:18:17.998Z</time></trkpt><trkpt lat="45.59367708377668" lon="8.10618448233386"><ele>555.2</ele><time>2026-05-02T13:18:18.998Z</time></trkpt><trkpt lat="45.59374679007115" lon="8.106164104657076"><ele>556.0</ele><time>2026-05-02T13:18:21.998Z</time></trkpt><trkpt lat="45.59379241224473" lon="8.106056891729633"><ele>556.0</ele><time>2026-05-02T13:18:24.998Z</time></trkpt><trkpt lat="45.593896053785244" lon="8.105824154216677"><ele>556.0</ele><time>2026-05-02T13:18:27Z</time></trkpt><trkpt lat="45.593837560666984" lon="8.105781494256059"><ele>556.0</ele><time>2026-05-02T13:19:46.999Z</time></trkpt><trkpt lat="45.59376214690627" lon="8.105748064144551"><ele>556.0</ele><time>2026-05-02T13:19:48.999Z</time></trkpt><trkpt lat="45.59366629794066" lon="8.105770437925258"><ele>556.0</ele><time>2026-05-02T13:19:50.999Z</time></trkpt><trkpt lat="45.5935833126966" lon="8.105835718371"><ele>555.2</ele><time>2026-05-02T13:19:51.999Z</time></trkpt><trkpt lat="45.59351221262541" lon="8.105863649035358"><ele>554.4000000000001</ele><time>2026-05-02T13:19:52.999Z</time></trkpt><trkpt lat="45.59343873145119" lon="8.105786507751148"><ele>553.6</ele><time>2026-05-02T13:19:54.999Z</time></trkpt><trkpt lat="45.593391170055725" lon="8.105687459068898"><ele>552.8000000000001</ele><time>2026-05-02T13:19:56.999Z</time></trkpt><trkpt lat="45.59343386935159" lon="8.105532738619482"><ele>552.0</ele><time>2026-05-02T13:19:59.999Z</time></trkpt><trkpt lat="45.59335711823358" lon="8.105421417452042"><ele>550.1666666666666</ele><time>2026-05-02T13:20:03.999Z</time></trkpt><trkpt lat="45.593282793110035" lon="8.105313814537256"><ele>548.3333333333334</ele><time>2026-05-02T13:20:05.999Z</time></trkpt><trkpt lat="45.59319941955601" lon="8.105300527943465"><ele>546.5</ele><time>2026-05-02T13:20:07.998Z</time></trkpt><trkpt lat="45.593129451995814" lon="8.105284068572328"><ele>544.6666666666667</ele><time>2026-05-02T13:20:08.998Z</time></trkpt><trkpt lat="45.5930693568891" lon="8.105241544926027"><ele>542.8333333333334</ele><time>2026-05-02T13:20:09.998Z</time></trkpt><trkpt lat="45.59301191949371" lon="8.105178379550592"><ele>541.0</ele><time>2026-05-02T13:20:10.998Z</time></trkpt><trkpt lat="45.59291702526999" lon="8.105129305811605"><ele>538.6</ele><time>2026-05-02T13:20:11.998Z</time></trkpt><trkpt lat="45.592812226633356" lon="8.10505399294933"><ele>536.2</ele><time>2026-05-02T13:20:13.998Z</time></trkpt><trkpt lat="45.59275003943232" lon="8.10502654840484"><ele>533.8</ele><time>2026-05-02T13:20:14.998Z</time></trkpt><trkpt lat="45.59267137961119" lon="8.104991454051117"><ele>531.4</ele><time>2026-05-02T13:20:16.998Z</time></trkpt><trkpt lat="45.5925983589373" lon="8.104937851158784"><ele>529.0</ele><time>2026-05-02T13:20:18.998Z</time></trkpt><trkpt lat="45.59250404034496" lon="8.105006301938158"><ele>529.0</ele><time>2026-05-02T13:20:20.998Z</time></trkpt><trkpt lat="45.592421834120934" lon="8.105035425826964"><ele>529.0</ele><time>2026-05-02T13:20:22.998Z</time></trkpt><trkpt lat="45.59236730003104" lon="8.105090393256948"><ele>529.0</ele><time>2026-05-02T13:20:41.999Z</time></trkpt><trkpt lat="45.59229629722812" lon="8.105049645657338"><ele>529.0</ele><time>2026-05-02T13:20:43.999Z</time></trkpt><trkpt lat="45.59224877398868" lon="8.104941984880103"><ele>529.0</ele><time>2026-05-02T13:20:52.999Z</time></trkpt><trkpt lat="45.59214848362254" lon="8.104836868526894"><ele>529.0</ele><time>2026-05-02T13:20:54.999Z</time></trkpt><trkpt lat="45.59204613634514" lon="8.10473968640264"><ele>526.0</ele><time>2026-05-02T13:20:56.999Z</time></trkpt><trkpt lat="45.59193499166413" lon="8.10469868428372"><ele>523.0</ele><time>2026-05-02T13:20:58.999Z</time></trkpt><trkpt lat="45.5918476811899" lon="8.10466809403322"><ele>520.0</ele><time>2026-05-02T13:20:59.999Z</time></trkpt><trkpt lat="45.59178420565793" lon="8.104625053119056"><ele>517.0</ele><time>2026-05-02T13:21:00.999Z</time></trkpt><trkpt lat="45.591737609582424" lon="8.104559111870188"><ele>514.0</ele><time>2026-05-02T13:21:01.999Z</time></trkpt><trkpt lat="45.59168183140459" lon="8.10451418897032"><ele>511.0</ele><time>2026-05-02T13:21:02.999Z</time></trkpt><trkpt lat="45.59160118282301" lon="8.104486273378098"><ele>511.00000000000006</ele><time>2026-05-02T13:21:03.999Z</time></trkpt><trkpt lat="45.59152305778867" lon="8.104411165122487"><ele>511.0</ele><time>2026-05-02T13:21:05.999Z</time></trkpt><trkpt lat="45.59147132219136" lon="8.104333931842078"><ele>511.0</ele><time>2026-05-02T13:21:07.999Z</time></trkpt><trkpt lat="45.59136342425553" lon="8.104263537606101"><ele>511.0</ele><time>2026-05-02T13:21:09.999Z</time></trkpt><trkpt lat="45.59129437088672" lon="8.104231105709522"><ele>511.00000000000006</ele><time>2026-05-02T13:21:10.999Z</time></trkpt><trkpt lat="45.59120893590053" lon="8.104241426784016"><ele>511.0</ele><time>2026-05-02T13:21:11.999Z</time></trkpt><trkpt lat="45.5911325497432" lon="8.1042144676318"><ele>509.8</ele><time>2026-05-02T13:21:12.999Z</time></trkpt><trkpt lat="45.59107210166441" lon="8.104185203915796"><ele>508.6</ele><time>2026-05-02T13:21:13.999Z</time></trkpt><trkpt lat="45.59098651322931" lon="8.104146555870456"><ele>507.4</ele><time>2026-05-02T13:21:15.999Z</time></trkpt><trkpt lat="45.59088301857865" lon="8.104127397327558"><ele>506.2</ele><time>2026-05-02T13:21:17.999Z</time></trkpt><trkpt lat="45.59082291399473" lon="8.10406646850148"><ele>505.0</ele><time>2026-05-02T13:21:19.999Z</time></trkpt><trkpt lat="45.59068523762946" lon="8.103869022651374"><ele>503.1666666666667</ele><time>2026-05-02T13:21:22.999Z</time></trkpt><trkpt lat="45.59063174705533" lon="8.103820674865407"><ele>501.33333333333337</ele><time>2026-05-02T13:21:23.999Z</time></trkpt><trkpt lat="45.590582464731" lon="8.103762076444523"><ele>499.5</ele><time>2026-05-02T13:21:24.999Z</time></trkpt><trkpt lat="45.59052149974235" lon="8.103694421967678"><ele>497.66666666666663</ele><time>2026-05-02T13:21:25.999Z</time></trkpt><trkpt lat="45.590450241310265" lon="8.103620929692571"><ele>495.8333333333333</ele><time>2026-05-02T13:21:26.999Z</time></trkpt><trkpt lat="45.59035642238464" lon="8.103519841698487"><ele>494.0</ele><time>2026-05-02T13:21:27.999Z</time></trkpt><trkpt lat="45.59027622579028" lon="8.103454597586637"><ele>493.99999999999994</ele><time>2026-05-02T13:21:28.999Z</time></trkpt><trkpt lat="45.590202285814506" lon="8.103426988815997"><ele>494.0</ele><time>2026-05-02T13:21:29.999Z</time></trkpt><trkpt lat="45.590117971450006" lon="8.103392943701103"><ele>494.0</ele><time>2026-05-02T13:21:30.999Z</time></trkpt><trkpt lat="45.59004033465804" lon="8.103331730161685"><ele>494.0</ele><time>2026-05-02T13:21:31.999Z</time></trkpt><trkpt lat="45.58995977868392" lon="8.103251888540425"><ele>493.99999999999994</ele><time>2026-05-02T13:21:32.999Z</time></trkpt><trkpt lat="45.58988231720005" lon="8.103212099520993"><ele>494.0</ele><time>2026-05-02T13:21:33.999Z</time></trkpt><trkpt lat="45.589802839301875" lon="8.103208608892675"><ele>494.0</ele><time>2026-05-02T13:21:34.999Z</time></trkpt><trkpt lat="45.58972792305937" lon="8.103231496126403"><ele>494.0</ele><time>2026-05-02T13:21:35.999Z</time></trkpt><trkpt lat="45.589660285172386" lon="8.103259441496935"><ele>494.0</ele><time>2026-05-02T13:21:36.999Z</time></trkpt><trkpt lat="45.58959702377259" lon="8.103262636634971"><ele>494.0</ele><time>2026-05-02T13:21:37.999Z</time></trkpt><trkpt lat="45.589511921953246" lon="8.103277946465335"><ele>494.0</ele><time>2026-05-02T13:21:39.999Z</time></trkpt><trkpt lat="45.589459862976184" lon="8.103353576630422"><ele>494.0</ele><time>2026-05-02T13:22:01.999Z</time></trkpt><trkpt lat="45.58941843676334" lon="8.103431313823986"><ele>494.0</ele><time>2026-05-02T13:22:03.999Z</time></trkpt><trkpt lat="45.58934682305275" lon="8.103442806790287"><ele>492.6</ele><time>2026-05-02T13:22:05.998Z</time></trkpt><trkpt lat="45.589268102445324" lon="8.103395715840886"><ele>491.2</ele><time>2026-05-02T13:22:07.998Z</time></trkpt><trkpt lat="45.58914967631619" lon="8.103413629768596"><ele>489.80000000000007</ele><time>2026-05-02T13:22:09.998Z</time></trkpt><trkpt lat="45.589077141598615" lon="8.103394935265593"><ele>488.40000000000003</ele><time>2026-05-02T13:22:10.998Z</time></trkpt><trkpt lat="45.58899907783548" lon="8.10337102768769"><ele>487.0</ele><time>2026-05-02T13:22:13.998Z</time></trkpt><trkpt lat="45.58888577122868" lon="8.103367121880554"><ele>487.0</ele><time>2026-05-02T13:22:15.998Z</time></trkpt><trkpt lat="45.58881238488934" lon="8.10341422892256"><ele>487.00000000000006</ele><time>2026-05-02T13:22:17.998Z</time></trkpt><trkpt lat="45.588742488613576" lon="8.103363932483115"><ele>487.00000000000006</ele><time>2026-05-02T13:22:19.998Z</time></trkpt><trkpt lat="45.588667989923266" lon="8.103236921241665"><ele>487.0</ele><time>2026-05-02T13:22:21.998Z</time></trkpt><trkpt lat="45.58865234809257" lon="8.10310407272226"><ele>487.0</ele><time>2026-05-02T13:22:23.998Z</time></trkpt><trkpt lat="45.58860616072798" lon="8.102874017705252"><ele>486.0</ele><time>2026-05-02T13:22:26.998Z</time></trkpt><trkpt lat="45.588683900878586" lon="8.102788683290605"><ele>485.00000000000006</ele><time>2026-05-02T13:22:28.998Z</time></trkpt><trkpt lat="45.588775864164234" lon="8.102695908619202"><ele>484.00000000000006</ele><time>2026-05-02T13:22:30.998Z</time></trkpt><trkpt lat="45.58885178667513" lon="8.102611470836004"><ele>483.0</ele><time>2026-05-02T13:22:32.998Z</time></trkpt><trkpt lat="45.588844323126004" lon="8.102482552689406"><ele>482.0</ele><time>2026-05-02T13:22:34.998Z</time></trkpt><trkpt lat="45.58882778915767" lon="8.102307109487088"><ele>479.16666666666663</ele><time>2026-05-02T13:22:36.998Z</time></trkpt><trkpt lat="45.588821487912824" lon="8.10221589186763"><ele>476.3333333333333</ele><time>2026-05-02T13:22:37.999Z</time></trkpt><trkpt lat="45.58884603101799" lon="8.102056995528478"><ele>473.5</ele><time>2026-05-02T13:22:39.999Z</time></trkpt><trkpt lat="45.58885723479784" lon="8.10195967867222"><ele>470.66666666666663</ele><time>2026-05-02T13:22:40.999Z</time></trkpt><trkpt lat="45.588871189628875" lon="8.101864856157894"><ele>467.8333333333333</ele><time>2026-05-02T13:22:41.999Z</time></trkpt><trkpt lat="45.588932291573805" lon="8.101764382462584"><ele>465.0</ele><time>2026-05-02T13:22:43.999Z</time></trkpt><trkpt lat="45.588978679516515" lon="8.101698740566967"><ele>465.0</ele><time>2026-05-02T13:22:45.999Z</time></trkpt><trkpt lat="45.58904679895698" lon="8.101625988440519"><ele>465.0</ele><time>2026-05-02T13:22:47.999Z</time></trkpt><trkpt lat="45.58905586025774" lon="8.101429454888198"><ele>465.0</ele><time>2026-05-02T13:22:49.999Z</time></trkpt><trkpt lat="45.58907392260711" lon="8.101312926736119"><ele>465.0</ele><time>2026-05-02T13:22:50.999Z</time></trkpt><trkpt lat="45.58911241725764" lon="8.101234018493566"><ele>465.0</ele><time>2026-05-02T13:22:51.999Z</time></trkpt><trkpt lat="45.58908464916409" lon="8.101102432088346"><ele>462.1666666666667</ele><time>2026-05-02T13:22:53.999Z</time></trkpt><trkpt lat="45.58907602602752" lon="8.100958188904157"><ele>459.33333333333337</ele><time>2026-05-02T13:22:55.999Z</time></trkpt><trkpt lat="45.589102671954315" lon="8.100862547326313"><ele>456.5</ele><time>2026-05-02T13:22:57.999Z</time></trkpt><trkpt lat="45.589083732108534" lon="8.10075520642147"><ele>453.6666666666667</ele><time>2026-05-02T13:22:59.999Z</time></trkpt><trkpt lat="45.5890012797609" lon="8.100731973915531"><ele>450.83333333333337</ele><time>2026-05-02T13:23:01.999Z</time></trkpt><trkpt lat="45.58893490280094" lon="8.100687484338454"><ele>448.0</ele><time>2026-05-02T13:23:04.999Z</time></trkpt><trkpt lat="45.58887605708418" lon="8.100643223900208"><ele>448.00000000000006</ele><time>2026-05-02T13:23:58.999Z</time></trkpt><trkpt lat="45.58880866576281" lon="8.100665652279911"><ele>448.0</ele><time>2026-05-02T13:24:26.999Z</time></trkpt><trkpt lat="45.58874757851787" lon="8.100750341217124"><ele>448.0</ele><time>2026-05-02T13:24:29.999Z</time></trkpt><trkpt lat="45.588701150849765" lon="8.100816231270038"><ele>448.0</ele><time>2026-05-02T13:24:31.999Z</time></trkpt><trkpt lat="45.58864064539799" lon="8.100872147953725"><ele>448.00000000000006</ele><time>2026-05-02T13:24:33.999Z</time></trkpt><trkpt lat="45.58857920549617" lon="8.100924493359349"><ele>448.0</ele><time>2026-05-02T13:24:35.999Z</time></trkpt><trkpt lat="45.588495557665695" lon="8.100964934471452"><ele>445.59999999999997</ele><time>2026-05-02T13:24:38.999Z</time></trkpt><trkpt lat="45.58842604124733" lon="8.100989868877742"><ele>443.19999999999993</ele><time>2026-05-02T13:24:40.999Z</time></trkpt><trkpt lat="45.58833303029711" lon="8.101014581285751"><ele>440.8</ele><time>2026-05-02T13:24:42.999Z</time></trkpt><trkpt lat="45.588240756951066" lon="8.101058137900347"><ele>438.4</ele><time>2026-05-02T13:24:45Z</time></trkpt><trkpt lat="45.5881400189985" lon="8.101113802201494"><ele>436.0</ele><time>2026-05-02T13:24:47Z</time></trkpt><trkpt lat="45.588028460155265" lon="8.101170136389463"><ele>436.00000000000006</ele><time>2026-05-02T13:24:49Z</time></trkpt><trkpt lat="45.58796445742218" lon="8.101204776837246"><ele>436.0</ele><time>2026-05-02T13:24:50Z</time></trkpt><trkpt lat="45.587901564759036" lon="8.10123136611102"><ele>436.0</ele><time>2026-05-02T13:24:51Z</time></trkpt><trkpt lat="45.587839137974456" lon="8.10125303427485"><ele>436.0</ele><time>2026-05-02T13:24:52Z</time></trkpt><trkpt lat="45.58773884947164" lon="8.101334062398683"><ele>436.00000000000006</ele><time>2026-05-02T13:24:54Z</time></trkpt><trkpt lat="45.58764239897378" lon="8.101455851243362"><ele>436.0</ele><time>2026-05-02T13:24:56Z</time></trkpt><trkpt lat="45.58758906516365" lon="8.101505650672193"><ele>435.8571428571429</ele><time>2026-05-02T13:24:57Z</time></trkpt><trkpt lat="45.58753405797836" lon="8.101561956518006"><ele>435.7142857142857</ele><time>2026-05-02T13:24:58Z</time></trkpt><trkpt lat="45.58747955064449" lon="8.101618961426103"><ele>435.57142857142856</ele><time>2026-05-02T13:24:59Z</time></trkpt><trkpt lat="45.587421220040355" lon="8.101683342161616"><ele>435.42857142857144</ele><time>2026-05-02T13:25:00Z</time></trkpt><trkpt lat="45.58735922522755" lon="8.101741389205328"><ele>435.2857142857143</ele><time>2026-05-02T13:25:01Z</time></trkpt><trkpt lat="45.58729182566274" lon="8.101797366327776"><ele>435.14285714285717</ele><time>2026-05-02T13:25:02Z</time></trkpt><trkpt lat="45.58722307067217" lon="8.10185643148844"><ele>435.0</ele><time>2026-05-02T13:25:03Z</time></trkpt><trkpt lat="45.5871633403619" lon="8.10191221051521"><ele>435.0</ele><time>2026-05-02T13:25:04Z</time></trkpt><trkpt lat="45.58710827111332" lon="8.101958648528658"><ele>435.0</ele><time>2026-05-02T13:25:05Z</time></trkpt><trkpt lat="45.587014120188705" lon="8.102051695205366"><ele>435.0</ele><time>2026-05-02T13:25:07Z</time></trkpt><trkpt lat="45.58692533434866" lon="8.102136300029432"><ele>435.0</ele><time>2026-05-02T13:25:09Z</time></trkpt><trkpt lat="45.586833474456114" lon="8.10220572687454"><ele>435.0</ele><time>2026-05-02T13:25:11Z</time></trkpt><trkpt lat="45.58676727179601" lon="8.102272467514037"><ele>434.0</ele><time>2026-05-02T13:25:13Z</time></trkpt><trkpt lat="45.58669452993799" lon="8.102352812067098"><ele>433.0</ele><time>2026-05-02T13:25:15Z</time></trkpt><trkpt lat="45.586629068273645" lon="8.102406488632264"><ele>432.0</ele><time>2026-05-02T13:25:17Z</time></trkpt><trkpt lat="45.586543806883434" lon="8.102490493729647"><ele>431.0</ele><time>2026-05-02T13:25:19Z</time></trkpt><trkpt lat="45.58649407532333" lon="8.102625562294316"><ele>430.0</ele><time>2026-05-02T13:25:21Z</time></trkpt><trkpt lat="45.58647483241579" lon="8.10278527770427"><ele>429.5</ele><time>2026-05-02T13:25:23Z</time></trkpt><trkpt lat="45.5864436828779" lon="8.10295780103126"><ele>429.0</ele><time>2026-05-02T13:25:25Z</time></trkpt><trkpt lat="45.58643551988011" lon="8.103132301573298"><ele>428.5</ele><time>2026-05-02T13:25:27Z</time></trkpt><trkpt lat="45.58643382392704" lon="8.103305938759284"><ele>428.0</ele><time>2026-05-02T13:25:29Z</time></trkpt><trkpt lat="45.586481079464676" lon="8.103463598681481"><ele>427.59999999999997</ele><time>2026-05-02T13:25:31Z</time></trkpt><trkpt lat="45.58655272092189" lon="8.103593178163324"><ele>427.19999999999993</ele><time>2026-05-02T13:25:33Z</time></trkpt><trkpt lat="45.58659454247064" lon="8.103668836508364"><ele>426.8</ele><time>2026-05-02T13:25:34Z</time></trkpt><trkpt lat="45.586682543187635" lon="8.103777908460833"><ele>426.4</ele><time>2026-05-02T13:25:36Z</time></trkpt><trkpt lat="45.58677141149977" lon="8.103875784412926"><ele>426.0</ele><time>2026-05-02T13:25:38Z</time></trkpt><trkpt lat="45.58686877945787" lon="8.10393889893417"><ele>426.0</ele><time>2026-05-02T13:25:40Z</time></trkpt><trkpt lat="45.58695479434016" lon="8.104015208602315"><ele>426.0</ele><time>2026-05-02T13:25:42Z</time></trkpt><trkpt lat="45.58696374820819" lon="8.104134907788964"><ele>426.0</ele><time>2026-05-02T13:25:44Z</time></trkpt><trkpt lat="45.58693770469421" lon="8.10425934070562"><ele>426.0</ele><time>2026-05-02T13:25:46Z</time></trkpt><trkpt lat="45.58693934439974" lon="8.104360050863344"><ele>426.0</ele><time>2026-05-02T13:25:50Z</time></trkpt><trkpt lat="45.58684350517228" lon="8.104354054580348"><ele>426.0</ele><time>2026-05-02T13:26:09Z</time></trkpt><trkpt lat="45.586769363261766" lon="8.10436443260658"><ele>425.3333333333333</ele><time>2026-05-02T13:26:11Z</time></trkpt><trkpt lat="45.58669738956976" lon="8.104359085366498"><ele>424.66666666666663</ele><time>2026-05-02T13:26:12.999Z</time></trkpt><trkpt lat="45.58663103374413" lon="8.104320939055313"><ele>424.0</ele><time>2026-05-02T13:26:14.999Z</time></trkpt><trkpt lat="45.58656770433525" lon="8.104280672186816"><ele>423.3333333333333</ele><time>2026-05-02T13:26:16.999Z</time></trkpt><trkpt lat="45.58648995283917" lon="8.104220758382255"><ele>422.66666666666663</ele><time>2026-05-02T13:26:18.999Z</time></trkpt><trkpt lat="45.586418877461604" lon="8.1041626176763"><ele>422.0</ele><time>2026-05-02T13:26:20.999Z</time></trkpt><trkpt lat="45.58634318374244" lon="8.104124073309903"><ele>421.99999999999994</ele><time>2026-05-02T13:26:22.999Z</time></trkpt><trkpt lat="45.58627727113763" lon="8.104055449491023"><ele>422.0</ele><time>2026-05-02T13:26:24.999Z</time></trkpt><trkpt lat="45.58628560502323" lon="8.104170405558463"><ele>422.0</ele><time>2026-05-02T13:26:31.999Z</time></trkpt><trkpt lat="45.586353992611166" lon="8.104272941935333"><ele>422.0</ele><time>2026-05-02T13:26:33.999Z</time></trkpt><trkpt lat="45.58637572517267" lon="8.104400690584253"><ele>421.99999999999994</ele><time>2026-05-02T13:26:35.999Z</time></trkpt><trkpt lat="45.58638385325544" lon="8.104492817791579"><ele>422.0</ele><time>2026-05-02T13:26:36.999Z</time></trkpt><trkpt lat="45.58649504269938" lon="8.10470312634165"><ele>421.99999999999994</ele><time>2026-05-02T13:26:38.999Z</time></trkpt><trkpt lat="45.58650768051575" lon="8.104794729664416"><ele>422.0</ele><time>2026-05-02T13:26:40.999Z</time></trkpt><trkpt lat="45.58646773441787" lon="8.104873087511407"><ele>422.0</ele><time>2026-05-02T13:26:42.999Z</time></trkpt><trkpt lat="45.586386467433215" lon="8.104941910630899"><ele>422.0</ele><time>2026-05-02T13:26:44.999Z</time></trkpt><trkpt lat="45.58627984262101" lon="8.104973162304633"><ele>421.99999999999994</ele><time>2026-05-02T13:26:46.999Z</time></trkpt><trkpt lat="45.58619090054872" lon="8.105037219373708"><ele>422.0</ele><time>2026-05-02T13:26:48.999Z</time></trkpt><trkpt lat="45.58611209200803" lon="8.105096451654864"><ele>422.8333333333333</ele><time>2026-05-02T13:26:51Z</time></trkpt><trkpt lat="45.58604988528894" lon="8.105125274904845"><ele>423.66666666666663</ele><time>2026-05-02T13:26:53Z</time></trkpt><trkpt lat="45.586028399730864" lon="8.105269577080275"><ele>424.5</ele><time>2026-05-02T13:26:55Z</time></trkpt><trkpt lat="45.58605321928122" lon="8.105363247681646"><ele>425.33333333333337</ele><time>2026-05-02T13:26:57Z</time></trkpt><trkpt lat="45.58613884917764" lon="8.105373830642733"><ele>426.1666666666667</ele><time>2026-05-02T13:27:22Z</time></trkpt><trkpt lat="45.586096479802656" lon="8.105290630182"><ele>427.0</ele><time>2026-05-02T13:27:36Z</time></trkpt><trkpt lat="45.58611675507545" lon="8.105148958666184"><ele>426.1666666666667</ele><time>2026-05-02T13:27:39Z</time></trkpt><trkpt lat="45.58618492417238" lon="8.10510151454897"><ele>425.33333333333337</ele><time>2026-05-02T13:27:41Z</time></trkpt><trkpt lat="45.586287328774674" lon="8.105048703409446"><ele>424.5</ele><time>2026-05-02T13:27:43Z</time></trkpt><trkpt lat="45.5863485699894" lon="8.105008859009349"><ele>423.66666666666663</ele><time>2026-05-02T13:27:45Z</time></trkpt><trkpt lat="45.58643385725013" lon="8.104948887439974"><ele>422.8333333333333</ele><time>2026-05-02T13:27:47Z</time></trkpt><trkpt lat="45.58650790997313" lon="8.104853939236833"><ele>422.0</ele><time>2026-05-02T13:27:49Z</time></trkpt><trkpt lat="45.58655082253897" lon="8.10474149921684"><ele>421.99999999999994</ele><time>2026-05-02T13:28:08Z</time></trkpt><trkpt lat="45.5866253642117" lon="8.104794140905897"><ele>422.0</ele><time>2026-05-02T13:28:13Z</time></trkpt><trkpt lat="45.586688410290364" lon="8.104781179752655"><ele>422.0</ele><time>2026-05-02T13:28:15.999Z</time></trkpt><trkpt lat="45.58679435739878" lon="8.104746827655154"><ele>422.0</ele><time>2026-05-02T13:28:17.999Z</time></trkpt><trkpt lat="45.58686401524494" lon="8.104746852386272"><ele>421.99999999999994</ele><time>2026-05-02T13:28:18.999Z</time></trkpt><trkpt lat="45.5869630433218" lon="8.104773465826995"><ele>422.0</ele><time>2026-05-02T13:28:20.999Z</time></trkpt><trkpt lat="45.58707748642491" lon="8.104866624521517"><ele>424.3333333333333</ele><time>2026-05-02T13:28:22.999Z</time></trkpt><trkpt lat="45.58713034800606" lon="8.104927201672256"><ele>426.66666666666663</ele><time>2026-05-02T13:28:23.999Z</time></trkpt><trkpt lat="45.58718470073968" lon="8.10501750366724"><ele>429.0</ele><time>2026-05-02T13:28:25.999Z</time></trkpt><trkpt lat="45.587143626006124" lon="8.105145931229284"><ele>431.33333333333337</ele><time>2026-05-02T13:28:27.999Z</time></trkpt><trkpt lat="45.58707983571114" lon="8.105176348114616"><ele>433.6666666666667</ele><time>2026-05-02T13:28:30.999Z</time></trkpt><trkpt lat="45.58701790191871" lon="8.105234013042471"><ele>436.0</ele><time>2026-05-02T13:28:32.999Z</time></trkpt><trkpt lat="45.58696990870377" lon="8.105347378274447"><ele>436.00000000000006</ele><time>2026-05-02T13:28:35.999Z</time></trkpt><trkpt lat="45.58689921099448" lon="8.105372047987258"><ele>436.0</ele><time>2026-05-02T13:28:38.999Z</time></trkpt><trkpt lat="45.58683084327969" lon="8.105510273204995"><ele>436.0</ele><time>2026-05-02T13:28:39.999Z</time></trkpt><trkpt lat="45.5867552927801" lon="8.105560856185937"><ele>436.0</ele><time>2026-05-02T13:28:42.999Z</time></trkpt><trkpt lat="45.586760158742095" lon="8.105708536565581"><ele>436.00000000000006</ele><time>2026-05-02T13:28:44.999Z</time></trkpt><trkpt lat="45.58673897623468" lon="8.105804800028556"><ele>436.0</ele><time>2026-05-02T13:28:46.999Z</time></trkpt><trkpt lat="45.58667537896876" lon="8.105905326454668"><ele>438.5</ele><time>2026-05-02T13:28:49.999Z</time></trkpt><trkpt lat="45.58666253667686" lon="8.105998546998968"><ele>441.0</ele><time>2026-05-02T13:28:51.999Z</time></trkpt><trkpt lat="45.586623353903214" lon="8.106073436638189"><ele>443.5</ele><time>2026-05-02T13:28:53.999Z</time></trkpt><trkpt lat="45.58645268898565" lon="8.106367423664452"><ele>446.0</ele><time>2026-05-02T13:28:58Z</time></trkpt><trkpt lat="45.58652658526843" lon="8.106408958019822"><ele>446.0</ele><time>2026-05-02T13:29:01Z</time></trkpt><trkpt lat="45.58656943986085" lon="8.10649321820661"><ele>446.0</ele><time>2026-05-02T13:29:05Z</time></trkpt><trkpt lat="45.58664768382709" lon="8.106509195733254"><ele>446.0</ele><time>2026-05-02T13:29:08Z</time></trkpt><trkpt lat="45.58695500114674" lon="8.106568238443714"><ele>447.49999999999994</ele><time>2026-05-02T13:29:18Z</time></trkpt><trkpt lat="45.58691620913955" lon="8.106664128227665"><ele>449.0</ele><time>2026-05-02T13:30:47.999Z</time></trkpt><trkpt lat="45.58692892540386" lon="8.106755321004542"><ele>450.5</ele><time>2026-05-02T13:30:49.999Z</time></trkpt><trkpt lat="45.58690341549129" lon="8.106848646709183"><ele>452.0</ele><time>2026-05-02T13:30:51.999Z</time></trkpt><trkpt lat="45.586901998539865" lon="8.106985793995984"><ele>453.49999999999994</ele><time>2026-05-02T13:30:53.999Z</time></trkpt><trkpt lat="45.5869192771269" lon="8.10711892608107"><ele>455.0</ele><time>2026-05-02T13:30:58.999Z</time></trkpt><trkpt lat="45.5869517040176" lon="8.107199741845985"><ele>454.99999999999994</ele><time>2026-05-02T13:31:02Z</time></trkpt><trkpt lat="45.58697474681268" lon="8.10731355678469"><ele>455.0</ele><time>2026-05-02T13:31:06Z</time></trkpt><trkpt lat="45.587015983423896" lon="8.10739609728931"><ele>455.0</ele><time>2026-05-02T13:31:09Z</time></trkpt><trkpt lat="45.58707465830981" lon="8.10744746772567"><ele>455.0</ele><time>2026-05-02T13:31:11Z</time></trkpt><trkpt lat="45.587149560062656" lon="8.107446758598888"><ele>454.99999999999994</ele><time>2026-05-02T13:31:13Z</time></trkpt><trkpt lat="45.58724110676002" lon="8.107430296577025"><ele>455.0</ele><time>2026-05-02T13:31:15Z</time></trkpt><trkpt lat="45.58737019069494" lon="8.107452312344394"><ele>458.42857142857144</ele><time>2026-05-02T13:31:16Z</time></trkpt><trkpt lat="45.58743641904442" lon="8.107453240955458"><ele>461.8571428571429</ele><time>2026-05-02T13:31:17Z</time></trkpt><trkpt lat="45.58749905996186" lon="8.107440255684084"><ele>465.2857142857143</ele><time>2026-05-02T13:31:18Z</time></trkpt><trkpt lat="45.58756676444008" lon="8.107499244869624"><ele>468.7142857142857</ele><time>2026-05-02T13:31:21Z</time></trkpt><trkpt lat="45.58763495113269" lon="8.107514771065741"><ele>472.14285714285717</ele><time>2026-05-02T13:31:23Z</time></trkpt><trkpt lat="45.587698955720285" lon="8.107546884506393"><ele>475.57142857142856</ele><time>2026-05-02T13:31:25Z</time></trkpt><trkpt lat="45.58778724312862" lon="8.107606294713237"><ele>479.0</ele><time>2026-05-02T13:31:47Z</time></trkpt><trkpt lat="45.587868732690495" lon="8.107678908247946"><ele>479.99999999999994</ele><time>2026-05-02T13:31:49Z</time></trkpt><trkpt lat="45.58796673522053" lon="8.107767461017854"><ele>481.0</ele><time>2026-05-02T13:31:51Z</time></trkpt><trkpt lat="45.588063388418604" lon="8.107783355238197"><ele>482.0</ele><time>2026-05-02T13:31:53Z</time></trkpt><trkpt lat="45.588135872998066" lon="8.107797297180683"><ele>483.0</ele><time>2026-05-02T13:31:55Z</time></trkpt><trkpt lat="45.58819514799505" lon="8.107852008024224"><ele>483.99999999999994</ele><time>2026-05-02T13:31:58Z</time></trkpt><trkpt lat="45.58825905513443" lon="8.107875065181743"><ele>485.0</ele><time>2026-05-02T13:31:59Z</time></trkpt><trkpt lat="45.58833863843452" lon="8.107900216526504"><ele>484.99999999999994</ele><time>2026-05-02T13:32:00Z</time></trkpt><trkpt lat="45.588434662251224" lon="8.107914203933097"><ele>485.0</ele><time>2026-05-02T13:32:02Z</time></trkpt><trkpt lat="45.5885069884331" lon="8.107908769844602"><ele>485.0</ele><time>2026-05-02T13:32:03Z</time></trkpt><trkpt lat="45.58856591627026" lon="8.10794816111619"><ele>485.0</ele><time>2026-05-02T13:32:04Z</time></trkpt><trkpt lat="45.58868333702256" lon="8.108039504612302"><ele>484.99999999999994</ele><time>2026-05-02T13:32:06Z</time></trkpt><trkpt lat="45.58875317223468" lon="8.108083267249508"><ele>485.0</ele><time>2026-05-02T13:32:07Z</time></trkpt><trkpt lat="45.58881594785033" lon="8.108144906848715"><ele>484.4</ele><time>2026-05-02T13:32:08Z</time></trkpt><trkpt lat="45.58888571314084" lon="8.108209239747488"><ele>483.8</ele><time>2026-05-02T13:32:09Z</time></trkpt><trkpt lat="45.588974947564985" lon="8.108245586566396"><ele>483.20000000000005</ele><time>2026-05-02T13:32:10Z</time></trkpt><trkpt lat="45.5890401523277" lon="8.108282207661444"><ele>482.6</ele><time>2026-05-02T13:32:11Z</time></trkpt><trkpt lat="45.58915155887971" lon="8.108350440004541"><ele>482.0</ele><time>2026-05-02T13:32:13Z</time></trkpt><trkpt lat="45.58924023936904" lon="8.108423104190555"><ele>483.16666666666663</ele><time>2026-05-02T13:32:15Z</time></trkpt><trkpt lat="45.58930735338015" lon="8.108419845848402"><ele>484.3333333333333</ele><time>2026-05-02T13:32:16Z</time></trkpt><trkpt lat="45.58938691110127" lon="8.108403765023308"><ele>485.5</ele><time>2026-05-02T13:32:17Z</time></trkpt><trkpt lat="45.5894588647653" lon="8.108417291535773"><ele>486.66666666666663</ele><time>2026-05-02T13:32:19Z</time></trkpt><trkpt lat="45.58940571277495" lon="8.108474076057233"><ele>487.8333333333333</ele><time>2026-05-02T13:32:22Z</time></trkpt><trkpt lat="45.58938960239801" lon="8.108639234578312"><ele>489.0</ele><time>2026-05-02T13:32:25Z</time></trkpt><trkpt lat="45.58936717850098" lon="8.108724203522822"><ele>489.0</ele><time>2026-05-02T13:32:26Z</time></trkpt><trkpt lat="45.58930896348664" lon="8.108770513005952"><ele>489.0</ele><time>2026-05-02T13:32:27Z</time></trkpt><trkpt lat="45.58940495102782" lon="8.108859010376358"><ele>489.0</ele><time>2026-05-02T13:32:28.999Z</time></trkpt><trkpt lat="45.58946843143017" lon="8.108978185011225"><ele>489.0</ele><time>2026-05-02T13:32:30.999Z</time></trkpt><trkpt lat="45.589522259574956" lon="8.109027561625958"><ele>489.0</ele><time>2026-05-02T13:32:31.999Z</time></trkpt><trkpt lat="45.589576437606006" lon="8.109087552309663"><ele>489.0</ele><time>2026-05-02T13:32:33.999Z</time></trkpt><trkpt lat="45.58969191701776" lon="8.109042546964186"><ele>490.8333333333333</ele><time>2026-05-02T13:32:35.999Z</time></trkpt><trkpt lat="45.589757396260694" lon="8.109001396241426"><ele>492.66666666666663</ele><time>2026-05-02T13:32:36.999Z</time></trkpt><trkpt lat="45.58982785540881" lon="8.108939997831282"><ele>494.5</ele><time>2026-05-02T13:32:37.999Z</time></trkpt><trkpt lat="45.58989589986748" lon="8.109010926984784"><ele>496.3333333333333</ele><time>2026-05-02T13:32:39.999Z</time></trkpt><trkpt lat="45.58995855224676" lon="8.109107663011564"><ele>498.16666666666663</ele><time>2026-05-02T13:32:40.999Z</time></trkpt><trkpt lat="45.590032458094846" lon="8.109178702144307"><ele>500.0</ele><time>2026-05-02T13:32:41.999Z</time></trkpt><trkpt lat="45.590145541377254" lon="8.109248929672708"><ele>500.8</ele><time>2026-05-02T13:32:43.999Z</time></trkpt><trkpt lat="45.59025526657871" lon="8.109218206689116"><ele>501.6</ele><time>2026-05-02T13:32:44.999Z</time></trkpt><trkpt lat="45.59032757713307" lon="8.10927161386483"><ele>502.4</ele><time>2026-05-02T13:32:45.999Z</time></trkpt><trkpt lat="45.590438660297345" lon="8.10926346037429"><ele>503.2</ele><time>2026-05-02T13:32:46.999Z</time></trkpt><trkpt lat="45.59053470728087" lon="8.10924400739486"><ele>504.0</ele><time>2026-05-02T13:32:47.999Z</time></trkpt><trkpt lat="45.59061407478102" lon="8.109242727734479"><ele>504.1428571428571</ele><time>2026-05-02T13:32:48.999Z</time></trkpt><trkpt lat="45.59068059338925" lon="8.109237401618266"><ele>504.2857142857143</ele><time>2026-05-02T13:32:49.999Z</time></trkpt><trkpt lat="45.590742783474084" lon="8.10920419619108"><ele>504.42857142857144</ele><time>2026-05-02T13:32:51.999Z</time></trkpt><trkpt lat="45.59072573675664" lon="8.109112783202503"><ele>504.57142857142856</ele><time>2026-05-02T13:32:56.999Z</time></trkpt><trkpt lat="45.59067613703739" lon="8.109056715317575"><ele>504.71428571428567</ele><time>2026-05-02T13:33:02.999Z</time></trkpt><trkpt lat="45.5906176890238" lon="8.109013984640548"><ele>504.85714285714283</ele><time>2026-05-02T13:33:04.999Z</time></trkpt><trkpt lat="45.590549702206346" lon="8.108997136803696"><ele>505.0</ele><time>2026-05-02T13:33:07Z</time></trkpt><trkpt lat="45.59047855410579" lon="8.109001812892028"><ele>505.0</ele><time>2026-05-02T13:33:09Z</time></trkpt><trkpt lat="45.590416304138934" lon="8.108986368781599"><ele>504.99999999999994</ele><time>2026-05-02T13:33:11Z</time></trkpt><trkpt lat="45.59036382537355" lon="8.10893643742293"><ele>505.0</ele><time>2026-05-02T13:33:15Z</time></trkpt><trkpt lat="45.590386937827766" lon="8.109027713737511"><ele>505.0</ele><time>2026-05-02T13:54:43.999Z</time></trkpt><trkpt lat="45.5904636831767" lon="8.109047427746308"><ele>504.99999999999994</ele><time>2026-05-02T13:54:46.999Z</time></trkpt><trkpt lat="45.59054826098912" lon="8.109047747505533"><ele>505.0</ele><time>2026-05-02T13:54:49.999Z</time></trkpt><trkpt lat="45.590613884479694" lon="8.109067291601864"><ele>505.0</ele><time>2026-05-02T13:54:52.999Z</time></trkpt><trkpt lat="45.590630559172745" lon="8.109163240907465"><ele>506.50000000000006</ele><time>2026-05-02T13:54:55.999Z</time></trkpt><trkpt lat="45.590580043902314" lon="8.109253909867034"><ele>508.0</ele><time>2026-05-02T13:54:58.999Z</time></trkpt><trkpt lat="45.59054736289382" lon="8.109354564669962"><ele>509.5</ele><time>2026-05-02T13:55:00.999Z</time></trkpt><trkpt lat="45.59052945230865" lon="8.109477912121353"><ele>511.0</ele><time>2026-05-02T13:55:02.999Z</time></trkpt><trkpt lat="45.59049557254484" lon="8.109606659821369"><ele>512.5</ele><time>2026-05-02T13:55:04.999Z</time></trkpt><trkpt lat="45.590443595702176" lon="8.109734931852739"><ele>514.0</ele><time>2026-05-02T13:55:06.999Z</time></trkpt><trkpt lat="45.59038811084251" lon="8.109887317766912"><ele>514.1666666666667</ele><time>2026-05-02T13:55:08.999Z</time></trkpt><trkpt lat="45.59035859465378" lon="8.109996392740657"><ele>514.3333333333334</ele><time>2026-05-02T13:55:10.999Z</time></trkpt><trkpt lat="45.590342431277804" lon="8.110097449131072"><ele>514.5</ele><time>2026-05-02T13:55:49.998Z</time></trkpt><trkpt lat="45.59036908536448" lon="8.110232441418878"><ele>514.6666666666666</ele><time>2026-05-02T13:55:52.998Z</time></trkpt><trkpt lat="45.590395885291606" lon="8.110335394420925"><ele>514.8333333333333</ele><time>2026-05-02T13:55:54.998Z</time></trkpt><trkpt lat="45.590389186083165" lon="8.110453530461736"><ele>515.0</ele><time>2026-05-02T13:55:56.998Z</time></trkpt><trkpt lat="45.5903776803462" lon="8.11057940596225"><ele>515.0</ele><time>2026-05-02T13:55:58.998Z</time></trkpt><trkpt lat="45.59038013705559" lon="8.110700928437275"><ele>515.0</ele><time>2026-05-02T13:56:00.998Z</time></trkpt><trkpt lat="45.59039130058715" lon="8.110818336036097"><ele>515.0</ele><time>2026-05-02T13:56:02.998Z</time></trkpt><trkpt lat="45.59039209176661" lon="8.11094105185786"><ele>515.0</ele><time>2026-05-02T13:56:04.998Z</time></trkpt><trkpt lat="45.590372134050476" lon="8.111047047081192"><ele>515.0</ele><time>2026-05-02T13:56:06.998Z</time></trkpt><trkpt lat="45.59035663725228" lon="8.111146355568202"><ele>515.0</ele><time>2026-05-02T13:56:08.998Z</time></trkpt><trkpt lat="45.59035765739045" lon="8.11125601083459"><ele>513.4285714285714</ele><time>2026-05-02T13:56:10.999Z</time></trkpt><trkpt lat="45.5903654582504" lon="8.111367551630746"><ele>511.85714285714283</ele><time>2026-05-02T13:56:12.999Z</time></trkpt><trkpt lat="45.59039936408492" lon="8.111452660919692"><ele>510.2857142857143</ele><time>2026-05-02T13:56:14.999Z</time></trkpt><trkpt lat="45.59042493169354" lon="8.111552640589016"><ele>508.7142857142857</ele><time>2026-05-02T13:56:17.999Z</time></trkpt><trkpt lat="45.59046127958021" lon="8.111645409208602"><ele>507.1428571428571</ele><time>2026-05-02T13:56:35.999Z</time></trkpt><trkpt lat="45.59048250332579" lon="8.111741877479274"><ele>505.57142857142856</ele><time>2026-05-02T13:56:37.999Z</time></trkpt><trkpt lat="45.590503654366074" lon="8.11182801984863"><ele>504.0</ele><time>2026-05-02T13:56:39.999Z</time></trkpt><trkpt lat="45.59054063746037" lon="8.111948545675249"><ele>501.6666666666667</ele><time>2026-05-02T13:56:42.999Z</time></trkpt><trkpt lat="45.59057574718923" lon="8.112053645540625"><ele>499.33333333333337</ele><time>2026-05-02T13:56:45.999Z</time></trkpt><trkpt lat="45.59062876959964" lon="8.112150392116765"><ele>497.0</ele><time>2026-05-02T13:56:48.999Z</time></trkpt><trkpt lat="45.590685950131636" lon="8.112218994101275"><ele>494.6666666666667</ele><time>2026-05-02T13:56:50.999Z</time></trkpt><trkpt lat="45.59076502284896" lon="8.112319429275834"><ele>492.33333333333337</ele><time>2026-05-02T13:56:52.999Z</time></trkpt><trkpt lat="45.59084197012823" lon="8.11239268122975"><ele>490.0</ele><time>2026-05-02T13:56:54.999Z</time></trkpt><trkpt lat="45.59089382945944" lon="8.112489976897953"><ele>489.4</ele><time>2026-05-02T13:56:56.999Z</time></trkpt><trkpt lat="45.590909350310966" lon="8.112641991674925"><ele>488.8</ele><time>2026-05-02T13:56:58.999Z</time></trkpt><trkpt lat="45.59097768506298" lon="8.11274167987743"><ele>488.20000000000005</ele><time>2026-05-02T13:57:00.999Z</time></trkpt><trkpt lat="45.59105065442241" lon="8.11276000720915"><ele>487.6</ele><time>2026-05-02T13:57:02.999Z</time></trkpt><trkpt lat="45.591128477715884" lon="8.11281499960919"><ele>487.0</ele><time>2026-05-02T13:57:04.999Z</time></trkpt><trkpt lat="45.591125803149424" lon="8.112972882436416"><ele>487.0</ele><time>2026-05-02T13:57:06.999Z</time></trkpt><trkpt lat="45.59102131113851" lon="8.113012083083165"><ele>487.00000000000006</ele><time>2026-05-02T13:57:08.999Z</time></trkpt><trkpt lat="45.59095069483741" lon="8.113014500270646"><ele>487.00000000000006</ele><time>2026-05-02T13:57:09.999Z</time></trkpt><trkpt lat="45.59088591589813" lon="8.113018514148497"><ele>487.0</ele><time>2026-05-02T13:57:10.999Z</time></trkpt><trkpt lat="45.5907873563642" lon="8.112999735350197"><ele>487.0</ele><time>2026-05-02T13:57:12.999Z</time></trkpt><trkpt lat="45.590686154803834" lon="8.112943252686218"><ele>487.0</ele><time>2026-05-02T13:57:14.999Z</time></trkpt><trkpt lat="45.59060691216532" lon="8.112905952324752"><ele>487.00000000000006</ele><time>2026-05-02T13:57:16.999Z</time></trkpt><trkpt lat="45.590536137509645" lon="8.112965844155909"><ele>487.00000000000006</ele><time>2026-05-02T13:57:18.999Z</time></trkpt><trkpt lat="45.59051239604824" lon="8.113108220205003"><ele>487.0</ele><time>2026-05-02T13:57:20.999Z</time></trkpt><trkpt lat="45.590462846126826" lon="8.113201420046053"><ele>487.0</ele><time>2026-05-02T13:57:22.999Z</time></trkpt><trkpt lat="45.59035671801808" lon="8.113172289830155"><ele>485.00000000000006</ele><time>2026-05-02T13:57:24.999Z</time></trkpt><trkpt lat="45.59027259093764" lon="8.113168572332464"><ele>483.0</ele><time>2026-05-02T13:57:26.999Z</time></trkpt><trkpt lat="45.59021017688707" lon="8.113186118140268"><ele>481.0</ele><time>2026-05-02T13:57:30.999Z</time></trkpt><trkpt lat="45.59012588050679" lon="8.1132342985577"><ele>479.0</ele><time>2026-05-02T13:57:32.999Z</time></trkpt><trkpt lat="45.590028383974975" lon="8.113176197834466"><ele>477.00000000000006</ele><time>2026-05-02T13:57:34.999Z</time></trkpt><trkpt lat="45.59000002481932" lon="8.113092765117358"><ele>475.0</ele><time>2026-05-02T13:57:35.999Z</time></trkpt><trkpt lat="45.58997686574801" lon="8.113005425381381"><ele>475.0</ele><time>2026-05-02T13:57:36.999Z</time></trkpt><trkpt lat="45.58992561313752" lon="8.112847559619679"><ele>475.0</ele><time>2026-05-02T13:57:38.999Z</time></trkpt><trkpt lat="45.58984808859513" lon="8.11276066356511"><ele>475.0</ele><time>2026-05-02T13:57:40.999Z</time></trkpt><trkpt lat="45.58979754749515" lon="8.112841026875051"><ele>475.0</ele><time>2026-05-02T13:57:41.999Z</time></trkpt><trkpt lat="45.589803127160394" lon="8.11299705306734"><ele>475.0</ele><time>2026-05-02T13:57:43.999Z</time></trkpt><trkpt lat="45.58982815419997" lon="8.113147017714953"><ele>475.0</ele><time>2026-05-02T13:57:45.999Z</time></trkpt><trkpt lat="45.589840140157825" lon="8.113235928529399"><ele>475.0</ele><time>2026-05-02T13:57:46.999Z</time></trkpt><trkpt lat="45.58987282891761" lon="8.113402253514634"><ele>475.0</ele><time>2026-05-02T13:57:48.999Z</time></trkpt><trkpt lat="45.589935728794174" lon="8.1135300177716"><ele>475.0</ele><time>2026-05-02T13:57:50.999Z</time></trkpt><trkpt lat="45.59003470282071" lon="8.113632395111539"><ele>475.0</ele><time>2026-05-02T13:57:52.999Z</time></trkpt><trkpt lat="45.59009117586056" lon="8.11368330254688"><ele>472.00000000000006</ele><time>2026-05-02T13:57:53.999Z</time></trkpt><trkpt lat="45.59014672513347" lon="8.113726098159514"><ele>469.0</ele><time>2026-05-02T13:57:54.999Z</time></trkpt><trkpt lat="45.5902290547957" lon="8.11385410614649"><ele>466.0</ele><time>2026-05-02T13:57:56.998Z</time></trkpt><trkpt lat="45.590212040632736" lon="8.11396179537713"><ele>463.0</ele><time>2026-05-02T13:57:57.998Z</time></trkpt><trkpt lat="45.59017929563292" lon="8.114040816882932"><ele>460.00000000000006</ele><time>2026-05-02T13:57:58.998Z</time></trkpt><trkpt lat="45.59015162034814" lon="8.114128765486884"><ele>457.0</ele><time>2026-05-02T13:57:59.998Z</time></trkpt><trkpt lat="45.59012551914615" lon="8.114221272631683"><ele>454.20000000000005</ele><time>2026-05-02T13:58:00.998Z</time></trkpt><trkpt lat="45.59010286064935" lon="8.114318131199365"><ele>451.40000000000003</ele><time>2026-05-02T13:58:01.998Z</time></trkpt><trkpt lat="45.5900889457104" lon="8.114409877933523"><ele>448.59999999999997</ele><time>2026-05-02T13:58:02.998Z</time></trkpt><trkpt lat="45.59008161645525" lon="8.114577127505578"><ele>445.79999999999995</ele><time>2026-05-02T13:58:04.998Z</time></trkpt><trkpt lat="45.5901115244371" lon="8.114736897921777"><ele>443.0</ele><time>2026-05-02T13:58:06.998Z</time></trkpt><trkpt lat="45.59013958298216" lon="8.114890107596112"><ele>442.8333333333333</ele><time>2026-05-02T13:58:08.998Z</time></trkpt><trkpt lat="45.5901786131783" lon="8.115013409024595"><ele>442.66666666666663</ele><time>2026-05-02T13:58:10.998Z</time></trkpt><trkpt lat="45.59018457686606" lon="8.115109787679966"><ele>442.5</ele><time>2026-05-02T13:58:12.998Z</time></trkpt><trkpt lat="45.59019082552009" lon="8.11520596338328"><ele>442.33333333333337</ele><time>2026-05-02T13:58:36.999Z</time></trkpt><trkpt lat="45.59019425914778" lon="8.115329058616172"><ele>442.1666666666667</ele><time>2026-05-02T13:58:40.999Z</time></trkpt><trkpt lat="45.5901430429502" lon="8.115436966268357"><ele>442.0</ele><time>2026-05-02T13:58:43.999Z</time></trkpt><trkpt lat="45.590087228373804" lon="8.115486712393741"><ele>442.00000000000006</ele><time>2026-05-02T13:58:45.999Z</time></trkpt><trkpt lat="45.590026882055156" lon="8.115553550188459"><ele>442.0</ele><time>2026-05-02T13:58:47.999Z</time></trkpt><trkpt lat="45.589967516000435" lon="8.115649483515904"><ele>442.0</ele><time>2026-05-02T13:58:50.999Z</time></trkpt><trkpt lat="45.58996162004275" lon="8.115739605433822"><ele>442.0</ele><time>2026-05-02T13:58:52.999Z</time></trkpt><trkpt lat="45.589972317761884" lon="8.115858431944604"><ele>442.00000000000006</ele><time>2026-05-02T13:58:55.999Z</time></trkpt><trkpt lat="45.59001590424264" lon="8.115945805776576"><ele>442.0</ele><time>2026-05-02T13:58:58.999Z</time></trkpt><trkpt lat="45.5900802798649" lon="8.116060010170921"><ele>441.20000000000005</ele><time>2026-05-02T13:59:00.999Z</time></trkpt><trkpt lat="45.59013272244111" lon="8.116175643916788"><ele>440.40000000000003</ele><time>2026-05-02T13:59:02.999Z</time></trkpt><trkpt lat="45.59019418991047" lon="8.116309039042978"><ele>439.59999999999997</ele><time>2026-05-02T13:59:04.999Z</time></trkpt><trkpt lat="45.59026550243811" lon="8.11643121374755"><ele>438.79999999999995</ele><time>2026-05-02T13:59:06.999Z</time></trkpt><trkpt lat="45.590339858597446" lon="8.116567371272117"><ele>438.0</ele><time>2026-05-02T13:59:08.999Z</time></trkpt><trkpt lat="45.59038107215792" lon="8.11665478467397"><ele>435.4</ele><time>2026-05-02T13:59:09.999Z</time></trkpt><trkpt lat="45.59038143329143" lon="8.116766628359454"><ele>432.79999999999995</ele><time>2026-05-02T13:59:10.999Z</time></trkpt><trkpt lat="45.59045029983088" lon="8.116915924761146"><ele>430.2</ele><time>2026-05-02T13:59:12.999Z</time></trkpt><trkpt lat="45.59051491075458" lon="8.117035567327262"><ele>427.6</ele><time>2026-05-02T13:59:14.999Z</time></trkpt><trkpt lat="45.59053041313609" lon="8.117138215491115"><ele>425.0</ele><time>2026-05-02T13:59:16.999Z</time></trkpt><trkpt lat="45.59059087426661" lon="8.117213926259684"><ele>425.0</ele><time>2026-05-02T13:59:18.999Z</time></trkpt><trkpt lat="45.59065101107162" lon="8.117273974643966"><ele>425.0</ele><time>2026-05-02T13:59:22.999Z</time></trkpt><trkpt lat="45.59073336120123" lon="8.117373240306806"><ele>425.0</ele><time>2026-05-02T13:59:26.999Z</time></trkpt><trkpt lat="45.59081685499479" lon="8.117461191487921"><ele>425.0</ele><time>2026-05-02T13:59:28.999Z</time></trkpt><trkpt lat="45.59088878655811" lon="8.117552947887376"><ele>425.0</ele><time>2026-05-02T13:59:30.999Z</time></trkpt><trkpt lat="45.590958280784264" lon="8.117643933416995"><ele>425.16666666666663</ele><time>2026-05-02T13:59:32.999Z</time></trkpt><trkpt lat="45.59102755958035" lon="8.117726421416814"><ele>425.3333333333333</ele><time>2026-05-02T13:59:34.999Z</time></trkpt><trkpt lat="45.59109084895807" lon="8.117801925383446"><ele>425.5</ele><time>2026-05-02T13:59:36.999Z</time></trkpt><trkpt lat="45.59115376560071" lon="8.117904152031292"><ele>425.66666666666663</ele><time>2026-05-02T13:59:38.999Z</time></trkpt><trkpt lat="45.59121568890019" lon="8.117944863006885"><ele>425.8333333333333</ele><time>2026-05-02T13:59:40.999Z</time></trkpt><trkpt lat="45.59127839480987" lon="8.11803142236254"><ele>426.0</ele><time>2026-05-02T13:59:46.999Z</time></trkpt><trkpt lat="45.59131189612395" lon="8.118129203277165"><ele>423.4</ele><time>2026-05-02T13:59:48.999Z</time></trkpt><trkpt lat="45.59133949002963" lon="8.118264917195312"><ele>420.8</ele><time>2026-05-02T13:59:50.999Z</time></trkpt><trkpt lat="45.591389195276946" lon="8.118391827226874"><ele>418.2</ele><time>2026-05-02T13:59:52.999Z</time></trkpt><trkpt lat="45.59143916364445" lon="8.118456052618951"><ele>415.59999999999997</ele><time>2026-05-02T13:59:53.999Z</time></trkpt><trkpt lat="45.59148787107145" lon="8.118525603134078"><ele>413.0</ele><time>2026-05-02T13:59:54.999Z</time></trkpt><trkpt lat="45.59137974985183" lon="8.118725866711811"><ele>413.0</ele><time>2026-05-02T13:59:55.999Z</time></trkpt><trkpt lat="45.59142469596572" lon="8.118833072052322"><ele>413.0</ele><time>2026-05-02T13:59:56.999Z</time></trkpt><trkpt lat="45.591459545294974" lon="8.118908769365442"><ele>413.0</ele><time>2026-05-02T13:59:57.999Z</time></trkpt><trkpt lat="45.591496802131374" lon="8.11898969882336"><ele>413.0</ele><time>2026-05-02T13:59:58.999Z</time></trkpt><trkpt lat="45.59152730908585" lon="8.11910531884651"><ele>413.0</ele><time>2026-05-02T14:00:00.999Z</time></trkpt><trkpt lat="45.59155419290763" lon="8.119192011054976"><ele>413.0</ele><time>2026-05-02T14:00:01.999Z</time></trkpt><trkpt lat="45.591560416188976" lon="8.119284142967107"><ele>413.0</ele><time>2026-05-02T14:00:03.999Z</time></trkpt><trkpt lat="45.591579579102486" lon="8.119383014452463"><ele>412.99999999999994</ele><time>2026-05-02T14:00:04.998Z</time></trkpt><trkpt lat="45.59159941267931" lon="8.119482155387466"><ele>413.0</ele><time>2026-05-02T14:00:05.998Z</time></trkpt><trkpt lat="45.591633485045165" lon="8.119652470928754"><ele>413.0</ele><time>2026-05-02T14:00:07.998Z</time></trkpt><trkpt lat="45.59166370452487" lon="8.119803527385194"><ele>413.0</ele><time>2026-05-02T14:00:09.998Z</time></trkpt><trkpt lat="45.59168184633352" lon="8.119894211784834"><ele>412.99999999999994</ele><time>2026-05-02T14:00:10.998Z</time></trkpt><trkpt lat="45.591701012295054" lon="8.11999001549107"><ele>413.0</ele><time>2026-05-02T14:00:11.998Z</time></trkpt><trkpt lat="45.59172721999114" lon="8.120123924469416"><ele>412.3333333333333</ele><time>2026-05-02T14:00:12.998Z</time></trkpt><trkpt lat="45.59177012628783" lon="8.120265066723105"><ele>411.66666666666663</ele><time>2026-05-02T14:00:13.998Z</time></trkpt><trkpt lat="45.59180617108895" lon="8.120357081371107"><ele>411.0</ele><time>2026-05-02T14:00:14.998Z</time></trkpt><trkpt lat="45.59186197827429" lon="8.120489316390882"><ele>410.33333333333337</ele><time>2026-05-02T14:00:16.998Z</time></trkpt><trkpt lat="45.59189227686473" lon="8.120571615334255"><ele>409.6666666666667</ele><time>2026-05-02T14:00:17.998Z</time></trkpt><trkpt lat="45.59192771957423" lon="8.120664001156173"><ele>409.0</ele><time>2026-05-02T14:00:18.998Z</time></trkpt><trkpt lat="45.591959247252404" lon="8.12074618338507"><ele>406.5</ele><time>2026-05-02T14:00:19.998Z</time></trkpt><trkpt lat="45.591981087768396" lon="8.120859072762194"><ele>404.0</ele><time>2026-05-02T14:00:21.999Z</time></trkpt><trkpt lat="45.59271864819968" lon="8.120755229347141"><ele>403.49999999999994</ele><time>2026-05-02T14:00:25.999Z</time></trkpt><trkpt lat="45.59277027605375" lon="8.120817246227634"><ele>403.0</ele><time>2026-05-02T14:00:26.999Z</time></trkpt><trkpt lat="45.59281887104" lon="8.12090025204768"><ele>402.5</ele><time>2026-05-02T14:00:27.999Z</time></trkpt><trkpt lat="45.59286074379977" lon="8.120975456501634"><ele>402.0</ele><time>2026-05-02T14:00:28.999Z</time></trkpt><trkpt lat="45.5928997373434" lon="8.12106937617179"><ele>401.49999999999994</ele><time>2026-05-02T14:00:29.999Z</time></trkpt><trkpt lat="45.59295405894674" lon="8.121172216308683"><ele>401.0</ele><time>2026-05-02T14:00:30.999Z</time></trkpt><trkpt lat="45.5930096094601" lon="8.121282757357047"><ele>398.49999999999994</ele><time>2026-05-02T14:00:31.999Z</time></trkpt><trkpt lat="45.593053802843556" lon="8.121384753154297"><ele>396.0</ele><time>2026-05-02T14:00:32.999Z</time></trkpt><trkpt lat="45.59309793208553" lon="8.12147994020161"><ele>393.5</ele><time>2026-05-02T14:00:33.999Z</time></trkpt><trkpt lat="45.59315506321349" lon="8.121560425754673"><ele>391.0</ele><time>2026-05-02T14:00:34.999Z</time></trkpt><trkpt lat="45.59321109441584" lon="8.121623781685761"><ele>388.49999999999994</ele><time>2026-05-02T14:00:35.999Z</time></trkpt><trkpt lat="45.59325622223891" lon="8.121692677740395"><ele>386.0</ele><time>2026-05-02T14:00:36.999Z</time></trkpt><trkpt lat="45.59330659213592" lon="8.121786726906537"><ele>385.99999999999994</ele><time>2026-05-02T14:00:37.999Z</time></trkpt><trkpt lat="45.59335062691946" lon="8.12188984728964"><ele>386.0</ele><time>2026-05-02T14:00:38.999Z</time></trkpt><trkpt lat="45.59339936836233" lon="8.121983213753227"><ele>386.0</ele><time>2026-05-02T14:00:39.999Z</time></trkpt><trkpt lat="45.59346525177457" lon="8.122029660256283"><ele>386.0</ele><time>2026-05-02T14:00:40.999Z</time></trkpt><trkpt lat="45.59351415004699" lon="8.122125008644446"><ele>385.99999999999994</ele><time>2026-05-02T14:00:42.999Z</time></trkpt><trkpt lat="45.5935659700043" lon="8.122207903932328"><ele>386.0</ele><time>2026-05-02T14:01:06.999Z</time></trkpt><trkpt lat="45.59358686816458" lon="8.122325793614197"><ele>385.6</ele><time>2026-05-02T14:02:05.998Z</time></trkpt><trkpt lat="45.593555957774946" lon="8.122452264219666"><ele>385.20000000000005</ele><time>2026-05-02T14:02:08.998Z</time></trkpt><trkpt lat="45.59348068481669" lon="8.12252937405657"><ele>384.79999999999995</ele><time>2026-05-02T14:02:10.998Z</time></trkpt><trkpt lat="45.5933998727804" lon="8.122578373648588"><ele>384.4</ele><time>2026-05-02T14:02:12.998Z</time></trkpt><trkpt lat="45.59338914115061" lon="8.122728060206246"><ele>384.0</ele><time>2026-05-02T14:02:14.998Z</time></trkpt><trkpt lat="45.59338948973871" lon="8.12283010224145"><ele>384.0</ele><time>2026-05-02T14:02:15.998Z</time></trkpt><trkpt lat="45.593358900706036" lon="8.122948819309553"><ele>384.0</ele><time>2026-05-02T14:02:17.998Z</time></trkpt><trkpt lat="45.59342782659469" lon="8.12296244255108"><ele>384.0</ele><time>2026-05-02T14:02:20.998Z</time></trkpt><trkpt lat="45.5934946706784" lon="8.123040288932303"><ele>384.0</ele><time>2026-05-02T14:02:23.998Z</time></trkpt><trkpt lat="45.59348842180204" lon="8.123172119620948"><ele>384.0</ele><time>2026-05-02T14:02:26.998Z</time></trkpt><trkpt lat="45.5933936337529" lon="8.12324720695811"><ele>384.0</ele><time>2026-05-02T14:02:28.999Z</time></trkpt><trkpt lat="45.59332254726561" lon="8.123324985470086"><ele>382.0</ele><time>2026-05-02T14:02:31.999Z</time></trkpt><trkpt lat="45.59321939707565" lon="8.123395899154128"><ele>380.0</ele><time>2026-05-02T14:02:33.999Z</time></trkpt><trkpt lat="45.593150230732164" lon="8.123508320036162"><ele>378.0</ele><time>2026-05-02T14:02:35.999Z</time></trkpt><trkpt lat="45.59309515174374" lon="8.123556496012046"><ele>376.0</ele><time>2026-05-02T14:02:36.999Z</time></trkpt><trkpt lat="45.59302186806383" lon="8.123624308607772"><ele>374.0</ele><time>2026-05-02T14:02:38.999Z</time></trkpt><trkpt lat="45.592936248852574" lon="8.12375128539285"><ele>374.0</ele><time>2026-05-02T14:02:40.999Z</time></trkpt><trkpt lat="45.59289701454119" lon="8.123855105130877"><ele>374.0</ele><time>2026-05-02T14:02:42.999Z</time></trkpt><trkpt lat="45.59285781756176" lon="8.123966109223671"><ele>374.0</ele><time>2026-05-02T14:02:44.999Z</time></trkpt><trkpt lat="45.592859223912306" lon="8.124147071457175"><ele>374.0</ele><time>2026-05-02T14:02:46.999Z</time></trkpt><trkpt lat="45.59285868294303" lon="8.124255104110182"><ele>374.0</ele><time>2026-05-02T14:02:47.999Z</time></trkpt><trkpt lat="45.59286005711403" lon="8.12441505246585"><ele>373.83333333333337</ele><time>2026-05-02T14:02:49.999Z</time></trkpt><trkpt lat="45.59285676403333" lon="8.124578530978996"><ele>373.6666666666667</ele><time>2026-05-02T14:02:51.999Z</time></trkpt><trkpt lat="45.59279698925202" lon="8.12463455324021"><ele>373.5</ele><time>2026-05-02T14:02:52.999Z</time></trkpt><trkpt lat="45.59273475740421" lon="8.124689583851762"><ele>373.3333333333333</ele><time>2026-05-02T14:02:53.999Z</time></trkpt><trkpt lat="45.59266169398315" lon="8.124729743165265"><ele>373.16666666666663</ele><time>2026-05-02T14:02:54.999Z</time></trkpt><trkpt lat="45.59258248006379" lon="8.124763499438776"><ele>373.0</ele><time>2026-05-02T14:02:56.999Z</time></trkpt><trkpt lat="45.59249002160822" lon="8.124772792895904"><ele>373.0</ele><time>2026-05-02T14:02:58.999Z</time></trkpt><trkpt lat="45.59238429160653" lon="8.124793748896343"><ele>373.0</ele><time>2026-05-02T14:03:00.999Z</time></trkpt><trkpt lat="45.59231515707902" lon="8.124799368055532"><ele>373.0</ele><time>2026-05-02T14:03:01.999Z</time></trkpt><trkpt lat="45.59224916113276" lon="8.124766287964468"><ele>373.0</ele><time>2026-05-02T14:03:02.999Z</time></trkpt><trkpt lat="45.592189072644096" lon="8.124732041417513"><ele>373.0</ele><time>2026-05-02T14:03:03.999Z</time></trkpt><trkpt lat="45.592144096720595" lon="8.124804737419755"><ele>373.0</ele><time>2026-05-02T14:03:12.999Z</time></trkpt><trkpt lat="45.59217616400998" lon="8.124905526511801"><ele>371.3333333333333</ele><time>2026-05-02T14:03:14.999Z</time></trkpt><trkpt lat="45.59225089715939" lon="8.124974032058738"><ele>369.66666666666663</ele><time>2026-05-02T14:03:16.999Z</time></trkpt><trkpt lat="45.592340717627756" lon="8.12499463600092"><ele>368.0</ele><time>2026-05-02T14:03:18.999Z</time></trkpt><trkpt lat="45.59238218794158" lon="8.125094027768874"><ele>366.3333333333333</ele><time>2026-05-02T14:03:22.999Z</time></trkpt><trkpt lat="45.592357160327516" lon="8.125177968898946"><ele>364.6666666666667</ele><time>2026-05-02T14:03:36.999Z</time></trkpt><trkpt lat="45.59230948628724" lon="8.125266820612074"><ele>363.0</ele><time>2026-05-02T14:03:50.999Z</time></trkpt><trkpt lat="45.59221297436947" lon="8.125284046163442"><ele>363.0</ele><time>2026-05-02T14:03:53.999Z</time></trkpt><trkpt lat="45.59215941465742" lon="8.125358833845393"><ele>363.0</ele><time>2026-05-02T14:03:57.999Z</time></trkpt><trkpt lat="45.59209625526357" lon="8.125346429558553"><ele>363.0</ele><time>2026-05-02T14:04:16.998Z</time></trkpt><trkpt lat="45.59202852380112" lon="8.125382923481617"><ele>363.0</ele><time>2026-05-02T14:04:19.998Z</time></trkpt><trkpt lat="45.59193996738403" lon="8.125398819662871"><ele>363.0</ele><time>2026-05-02T14:04:22.998Z</time></trkpt><trkpt lat="45.59185005944821" lon="8.125460216793456"><ele>363.0</ele><time>2026-05-02T14:04:24.998Z</time></trkpt><trkpt lat="45.59183342182323" lon="8.125661163910458"><ele>362.6666666666667</ele><time>2026-05-02T14:06:10.999Z</time></trkpt><trkpt lat="45.59177556456372" lon="8.125740161509617"><ele>362.3333333333333</ele><time>2026-05-02T14:07:42.999Z</time></trkpt><trkpt lat="45.59170055670654" lon="8.12572559313936"><ele>362.0</ele><time>2026-05-02T14:07:49.999Z</time></trkpt><trkpt lat="45.591647220318336" lon="8.125631992856597"><ele>361.66666666666663</ele><time>2026-05-02T14:07:52.999Z</time></trkpt><trkpt lat="45.591581831720816" lon="8.125630865684906"><ele>361.3333333333333</ele><time>2026-05-02T14:07:56.999Z</time></trkpt><trkpt lat="45.59152292164768" lon="8.125664079320803"><ele>361.0</ele><time>2026-05-02T14:08:03.999Z</time></trkpt><trkpt lat="45.59142308933438" lon="8.12574017412543"><ele>361.0</ele><time>2026-05-02T14:08:14.999Z</time></trkpt><trkpt lat="45.591356975934204" lon="8.125768804879081"><ele>361.0</ele><time>2026-05-02T14:08:16.999Z</time></trkpt><trkpt lat="45.591270874657766" lon="8.125811170424864"><ele>361.0</ele><time>2026-05-02T14:08:18.999Z</time></trkpt><trkpt lat="45.59115763877321" lon="8.125874448550588"><ele>361.0</ele><time>2026-05-02T14:08:20.999Z</time></trkpt><trkpt lat="45.59109348022604" lon="8.125917161101185"><ele>361.0</ele><time>2026-05-02T14:08:21.999Z</time></trkpt><trkpt lat="45.59102845518571" lon="8.125962490819456"><ele>361.0</ele><time>2026-05-02T14:08:22.999Z</time></trkpt><trkpt lat="45.59096868711478" lon="8.126006192573593"><ele>359.3333333333333</ele><time>2026-05-02T14:08:23.999Z</time></trkpt><trkpt lat="45.59091804639401" lon="8.126061314234745"><ele>357.66666666666663</ele><time>2026-05-02T14:08:24.999Z</time></trkpt><trkpt lat="45.590878624221844" lon="8.126132553370459"><ele>356.0</ele><time>2026-05-02T14:08:25.999Z</time></trkpt><trkpt lat="45.59082578531094" lon="8.12621091210762"><ele>354.3333333333333</ele><time>2026-05-02T14:08:26.999Z</time></trkpt><trkpt lat="45.5907611740956" lon="8.12626379937015"><ele>352.6666666666667</ele><time>2026-05-02T14:08:27.999Z</time></trkpt><trkpt lat="45.59070020722137" lon="8.126321286490674"><ele>351.0</ele><time>2026-05-02T14:08:28.999Z</time></trkpt><trkpt lat="45.59062760602878" lon="8.126496117099808"><ele>351.8</ele><time>2026-05-02T14:08:30.999Z</time></trkpt><trkpt lat="45.59059173314211" lon="8.126607956992228"><ele>352.6</ele><time>2026-05-02T14:08:31.999Z</time></trkpt><trkpt lat="45.59053285413262" lon="8.126700346224945"><ele>353.4</ele><time>2026-05-02T14:08:32.999Z</time></trkpt><trkpt lat="45.590487545534415" lon="8.126803662998098"><ele>354.2</ele><time>2026-05-02T14:08:33.999Z</time></trkpt><trkpt lat="45.5904630284798" lon="8.12698558429797"><ele>355.0</ele><time>2026-05-02T14:08:35.999Z</time></trkpt><trkpt lat="45.59046976780849" lon="8.127098184506005"><ele>355.0</ele><time>2026-05-02T14:08:36.999Z</time></trkpt><trkpt lat="45.59048014691617" lon="8.127222831059576"><ele>355.0</ele><time>2026-05-02T14:08:37.999Z</time></trkpt><trkpt lat="45.590491595402646" lon="8.127328883857468"><ele>355.0</ele><time>2026-05-02T14:08:38.999Z</time></trkpt><trkpt lat="45.59044315409776" lon="8.127457567373439"><ele>355.0</ele><time>2026-05-02T14:08:40.999Z</time></trkpt><trkpt lat="45.59035507141621" lon="8.127573958960422"><ele>355.0</ele><time>2026-05-02T14:08:42.999Z</time></trkpt><trkpt lat="45.590281835076155" lon="8.1276522109048"><ele>354.5</ele><time>2026-05-02T14:08:44.999Z</time></trkpt><trkpt lat="45.59022464752773" lon="8.127725431827944"><ele>354.0</ele><time>2026-05-02T14:08:48Z</time></trkpt><trkpt lat="45.59014848065521" lon="8.127807746373286"><ele>353.5</ele><time>2026-05-02T14:08:50Z</time></trkpt><trkpt lat="45.59005762820759" lon="8.1278407469919"><ele>353.0</ele><time>2026-05-02T14:08:52Z</time></trkpt><trkpt lat="45.58999524110092" lon="8.127858135779007"><ele>352.5</ele><time>2026-05-02T14:08:53Z</time></trkpt><trkpt lat="45.58989846482772" lon="8.127915838198614"><ele>352.0</ele><time>2026-05-02T14:08:55Z</time></trkpt><trkpt lat="45.589830591708825" lon="8.12798995490629"><ele>352.0</ele><time>2026-05-02T14:08:57Z</time></trkpt><trkpt lat="45.58976601826352" lon="8.1281473344357"><ele>352.0</ele><time>2026-05-02T14:08:59Z</time></trkpt><trkpt lat="45.58972654731527" lon="8.128262964545915"><ele>352.0</ele><time>2026-05-02T14:09:00Z</time></trkpt><trkpt lat="45.58969145851272" lon="8.128405574783901"><ele>352.0</ele><time>2026-05-02T14:09:01Z</time></trkpt><trkpt lat="45.5896637127869" lon="8.12855266644259"><ele>352.0</ele><time>2026-05-02T14:09:02Z</time></trkpt><trkpt lat="45.58963662367626" lon="8.128678727337146"><ele>352.8333333333333</ele><time>2026-05-02T14:09:03Z</time></trkpt><trkpt lat="45.58962537456315" lon="8.128799521587075"><ele>353.66666666666663</ele><time>2026-05-02T14:09:04Z</time></trkpt><trkpt lat="45.58961068042464" lon="8.128914219507912"><ele>354.5</ele><time>2026-05-02T14:09:05Z</time></trkpt><trkpt lat="45.5895680462346" lon="8.129010517696601"><ele>355.3333333333333</ele><time>2026-05-02T14:09:06Z</time></trkpt><trkpt lat="45.58953630016047" lon="8.129102859463517"><ele>356.1666666666667</ele><time>2026-05-02T14:09:07Z</time></trkpt><trkpt lat="45.58951656564565" lon="8.129200927055463"><ele>357.0</ele><time>2026-05-02T14:09:08Z</time></trkpt><trkpt lat="45.589496085937725" lon="8.129296357489132"><ele>354.5</ele><time>2026-05-02T14:09:09Z</time></trkpt><trkpt lat="45.5894612147082" lon="8.129383525572146"><ele>352.0</ele><time>2026-05-02T14:09:10Z</time></trkpt><trkpt lat="45.589418798102386" lon="8.129467518560089"><ele>349.5</ele><time>2026-05-02T14:09:11Z</time></trkpt><trkpt lat="45.589388910995524" lon="8.129568274590966"><ele>347.0</ele><time>2026-05-02T14:09:12Z</time></trkpt><trkpt lat="45.58937226096966" lon="8.129688716460588"><ele>344.5</ele><time>2026-05-02T14:09:13Z</time></trkpt><trkpt lat="45.58933552929738" lon="8.129812934916869"><ele>342.0</ele><time>2026-05-02T14:09:14Z</time></trkpt><trkpt lat="45.589285186672136" lon="8.129890647107786"><ele>342.6666666666667</ele><time>2026-05-02T14:09:15Z</time></trkpt><trkpt lat="45.5892340353959" lon="8.129948655590999"><ele>343.3333333333333</ele><time>2026-05-02T14:09:16Z</time></trkpt><trkpt lat="45.5891378398337" lon="8.130092183157466"><ele>344.0</ele><time>2026-05-02T14:09:18Z</time></trkpt><trkpt lat="45.5890914901943" lon="8.13017655619158"><ele>344.66666666666663</ele><time>2026-05-02T14:09:19Z</time></trkpt><trkpt lat="45.5890451106971" lon="8.130238114459386"><ele>345.3333333333333</ele><time>2026-05-02T14:09:20Z</time></trkpt><trkpt lat="45.58900257108376" lon="8.130371704845023"><ele>346.0</ele><time>2026-05-02T14:09:22Z</time></trkpt><trkpt lat="45.58906248146197" lon="8.130541135688024"><ele>346.0</ele><time>2026-05-02T14:09:24Z</time></trkpt><trkpt lat="45.58911045555273" lon="8.130618187498579"><ele>346.0</ele><time>2026-05-02T14:09:25Z</time></trkpt><trkpt lat="45.58916172448722" lon="8.130685563906987"><ele>346.0</ele><time>2026-05-02T14:09:26Z</time></trkpt><trkpt lat="45.589208078503134" lon="8.130759495820644"><ele>346.0</ele><time>2026-05-02T14:09:27Z</time></trkpt><trkpt lat="45.58915945521897" lon="8.130832243424441"><ele>346.0</ele><time>2026-05-02T14:09:31Z</time></trkpt><trkpt lat="45.58904528094806" lon="8.130729824141257"><ele>346.0</ele><time>2026-05-02T14:09:33Z</time></trkpt><trkpt lat="45.588927590228046" lon="8.130650913733552"><ele>346.0</ele><time>2026-05-02T14:09:35Z</time></trkpt><trkpt lat="45.588860477135896" lon="8.130491893347918"><ele>346.0</ele><time>2026-05-02T14:09:37Z</time></trkpt><trkpt lat="45.588823726349425" lon="8.13041285335718"><ele>346.0</ele><time>2026-05-02T14:09:38Z</time></trkpt><trkpt lat="45.58872525968476" lon="8.130353820212045"><ele>346.0</ele><time>2026-05-02T14:09:40Z</time></trkpt><trkpt lat="45.5886254098683" lon="8.130465903997235"><ele>346.0</ele><time>2026-05-02T14:09:42Z</time></trkpt><trkpt lat="45.58858926890653" lon="8.13056680761409"><ele>344.8333333333333</ele><time>2026-05-02T14:09:43Z</time></trkpt><trkpt lat="45.58854050164426" lon="8.130665408431785"><ele>343.66666666666663</ele><time>2026-05-02T14:09:44Z</time></trkpt><trkpt lat="45.58848158869055" lon="8.13076740063122"><ele>342.5</ele><time>2026-05-02T14:09:45Z</time></trkpt><trkpt lat="45.588426709991545" lon="8.13086767465279"><ele>341.3333333333333</ele><time>2026-05-02T14:09:46Z</time></trkpt><trkpt lat="45.588397216501335" lon="8.1309608400123"><ele>340.1666666666667</ele><time>2026-05-02T14:09:47Z</time></trkpt><trkpt lat="45.58836508231673" lon="8.131081180734746"><ele>339.0</ele><time>2026-05-02T14:09:49Z</time></trkpt><trkpt lat="45.58831006061219" lon="8.131159937969025"><ele>339.0</ele><time>2026-05-02T14:09:51Z</time></trkpt><trkpt lat="45.58820041954908" lon="8.131225966220693"><ele>339.0</ele><time>2026-05-02T14:09:53Z</time></trkpt><trkpt lat="45.58812081519957" lon="8.131246819570794"><ele>339.0</ele><time>2026-05-02T14:09:54Z</time></trkpt><trkpt lat="45.588057873614915" lon="8.13125814481364"><ele>339.0</ele><time>2026-05-02T14:09:55Z</time></trkpt><trkpt lat="45.58799356292362" lon="8.131267708525804"><ele>339.0</ele><time>2026-05-02T14:09:56Z</time></trkpt><trkpt lat="45.587907179378604" lon="8.131292310866675"><ele>339.0</ele><time>2026-05-02T14:09:57Z</time></trkpt><trkpt lat="45.587823087122985" lon="8.131327733526518"><ele>338.0</ele><time>2026-05-02T14:09:58Z</time></trkpt><trkpt lat="45.58776593648153" lon="8.131368076310446"><ele>337.0</ele><time>2026-05-02T14:09:59Z</time></trkpt><trkpt lat="45.5877050372107" lon="8.131452156911312"><ele>336.0</ele><time>2026-05-02T14:10:01Z</time></trkpt><trkpt lat="45.587641202685404" lon="8.131477461941502"><ele>335.0</ele><time>2026-05-02T14:10:11Z</time></trkpt><trkpt lat="45.58758152408109" lon="8.131545724842603"><ele>334.0</ele><time>2026-05-02T14:10:15Z</time></trkpt><trkpt lat="45.58750950399401" lon="8.13154402241978"><ele>333.0</ele><time>2026-05-02T14:11:40Z</time></trkpt><trkpt lat="45.58748740891468" lon="8.131634948783532"><ele>332.0</ele><time>2026-05-02T14:11:42Z</time></trkpt><trkpt lat="45.587543719089766" lon="8.131765002983316"><ele>332.0</ele><time>2026-05-02T14:11:44Z</time></trkpt><trkpt lat="45.58752914622432" lon="8.131890067500281"><ele>332.0</ele><time>2026-05-02T14:11:46Z</time></trkpt><trkpt lat="45.58749303484287" lon="8.132035401599223"><ele>332.0</ele><time>2026-05-02T14:11:48Z</time></trkpt><trkpt lat="45.58745763177077" lon="8.132120127419567"><ele>332.0</ele><time>2026-05-02T14:11:49Z</time></trkpt><trkpt lat="45.58743134684145" lon="8.132208681130038"><ele>332.0</ele><time>2026-05-02T14:11:50Z</time></trkpt><trkpt lat="45.58740844579235" lon="8.132299867647614"><ele>332.0</ele><time>2026-05-02T14:11:51Z</time></trkpt><trkpt lat="45.58738515073926" lon="8.132471510454904"><ele>334.5</ele><time>2026-05-02T14:11:53Z</time></trkpt><trkpt lat="45.58736125344921" lon="8.132605430644544"><ele>337.0</ele><time>2026-05-02T14:11:55Z</time></trkpt><trkpt lat="45.5872718717368" lon="8.132736067774289"><ele>339.5</ele><time>2026-05-02T14:11:57Z</time></trkpt><trkpt lat="45.587214567268745" lon="8.132813748079565"><ele>342.0</ele><time>2026-05-02T14:11:58Z</time></trkpt><trkpt lat="45.58716312703828" lon="8.132868916316314"><ele>344.5</ele><time>2026-05-02T14:11:59Z</time></trkpt><trkpt lat="45.58711181086561" lon="8.132921592159477"><ele>347.0</ele><time>2026-05-02T14:12:00Z</time></trkpt><trkpt lat="45.58705377984794" lon="8.133020754999617"><ele>347.0</ele><time>2026-05-02T14:12:02Z</time></trkpt><trkpt lat="45.58704893284597" lon="8.133119736602819"><ele>347.0</ele><time>2026-05-02T14:12:04Z</time></trkpt><trkpt lat="45.58712410180707" lon="8.133213478746807"><ele>347.0</ele><time>2026-05-02T14:12:07Z</time></trkpt><trkpt lat="45.587183687212196" lon="8.133292922420322"><ele>347.0</ele><time>2026-05-02T14:12:10Z</time></trkpt><trkpt lat="45.587246998021435" lon="8.133395164772766"><ele>347.0</ele><time>2026-05-02T14:12:12Z</time></trkpt><trkpt lat="45.587293525616175" lon="8.133463505894927"><ele>347.0</ele><time>2026-05-02T14:12:13Z</time></trkpt><trkpt lat="45.58738887748467" lon="8.133606147350056"><ele>349.1666666666667</ele><time>2026-05-02T14:12:15Z</time></trkpt><trkpt lat="45.58743748428623" lon="8.13368474347669"><ele>351.33333333333337</ele><time>2026-05-02T14:12:16Z</time></trkpt><trkpt lat="45.58748078255555" lon="8.133760642016451"><ele>353.5</ele><time>2026-05-02T14:12:17Z</time></trkpt><trkpt lat="45.58751717125052" lon="8.133836401799606"><ele>355.6666666666667</ele><time>2026-05-02T14:12:18Z</time></trkpt><trkpt lat="45.58759748440796" lon="8.133944787535796"><ele>357.8333333333333</ele><time>2026-05-02T14:12:20Z</time></trkpt><trkpt lat="45.58760929171686" lon="8.13405967049162"><ele>360.0</ele><time>2026-05-02T14:12:22Z</time></trkpt><trkpt lat="45.58761995484914" lon="8.134198965903655"><ele>361.0</ele><time>2026-05-02T14:12:24Z</time></trkpt><trkpt lat="45.58764333153587" lon="8.134308366884179"><ele>362.0</ele><time>2026-05-02T14:12:26Z</time></trkpt><trkpt lat="45.587741664929695" lon="8.134404897140108"><ele>363.0</ele><time>2026-05-02T14:12:41.999Z</time></trkpt><trkpt lat="45.58780940209576" lon="8.134497107949338"><ele>364.0</ele><time>2026-05-02T14:12:43.999Z</time></trkpt><trkpt lat="45.587864732278" lon="8.13464667452572"><ele>365.0</ele><time>2026-05-02T14:12:45.999Z</time></trkpt><trkpt lat="45.58791672118877" lon="8.134802812070493"><ele>366.33333333333337</ele><time>2026-05-02T14:12:47.999Z</time></trkpt><trkpt lat="45.58798717645323" lon="8.134945207530322"><ele>367.6666666666667</ele><time>2026-05-02T14:12:49.999Z</time></trkpt><trkpt lat="45.5880207751313" lon="8.135069042887938"><ele>369.0</ele><time>2026-05-02T14:12:51.999Z</time></trkpt><trkpt lat="45.58807656353154" lon="8.135135697472762"><ele>370.3333333333333</ele><time>2026-05-02T14:12:53.999Z</time></trkpt><trkpt lat="45.5881286746216" lon="8.135192529394464"><ele>371.66666666666663</ele><time>2026-05-02T14:12:57Z</time></trkpt><trkpt lat="45.588164088532174" lon="8.135293744292614"><ele>373.0</ele><time>2026-05-02T14:13:34Z</time></trkpt><trkpt lat="45.58813060805483" lon="8.13539953524562"><ele>373.0</ele><time>2026-05-02T14:13:36Z</time></trkpt><trkpt lat="45.58817585955747" lon="8.135529442921802"><ele>373.0</ele><time>2026-05-02T14:13:39Z</time></trkpt><trkpt lat="45.588256005906885" lon="8.135629656660006"><ele>373.0</ele><time>2026-05-02T14:13:41Z</time></trkpt><trkpt lat="45.5883404239219" lon="8.135735850415058"><ele>373.0</ele><time>2026-05-02T14:13:43Z</time></trkpt><trkpt lat="45.58842211644237" lon="8.135844279019553"><ele>373.0</ele><time>2026-05-02T14:13:45Z</time></trkpt><trkpt lat="45.58850712854958" lon="8.135931470551684"><ele>372.8333333333333</ele><time>2026-05-02T14:13:47Z</time></trkpt><trkpt lat="45.58859414163139" lon="8.135984036834538"><ele>372.66666666666663</ele><time>2026-05-02T14:13:49Z</time></trkpt><trkpt lat="45.58868279828724" lon="8.135990909541478"><ele>372.5</ele><time>2026-05-02T14:13:51Z</time></trkpt><trkpt lat="45.588759154826285" lon="8.13597293112375"><ele>372.3333333333333</ele><time>2026-05-02T14:13:53Z</time></trkpt><trkpt lat="45.58882962810863" lon="8.135943320085197"><ele>372.1666666666667</ele><time>2026-05-02T14:13:55Z</time></trkpt><trkpt lat="45.5888929217446" lon="8.135910451222179"><ele>372.0</ele><time>2026-05-02T14:13:57Z</time></trkpt><trkpt lat="45.588981697910505" lon="8.13585939689085"><ele>372.0</ele><time>2026-05-02T14:14:00Z</time></trkpt><trkpt lat="45.58904040335072" lon="8.135814701047545"><ele>372.0</ele><time>2026-05-02T14:14:02Z</time></trkpt><trkpt lat="45.58909855697226" lon="8.135777376875625"><ele>372.0</ele><time>2026-05-02T14:14:04Z</time></trkpt><trkpt lat="45.589193464039276" lon="8.135741678898238"><ele>372.0</ele><time>2026-05-02T14:14:07Z</time></trkpt><trkpt lat="45.58927165859286" lon="8.135678957202993"><ele>372.0</ele><time>2026-05-02T14:14:09Z</time></trkpt><trkpt lat="45.58936523917746" lon="8.13561997010511"><ele>372.0</ele><time>2026-05-02T14:14:11Z</time></trkpt><trkpt lat="45.58945636638023" lon="8.135564634627698"><ele>373.8333333333333</ele><time>2026-05-02T14:14:13Z</time></trkpt><trkpt lat="45.58953991982559" lon="8.135512681355392"><ele>375.6666666666667</ele><time>2026-05-02T14:14:15Z</time></trkpt><trkpt lat="45.58962266544531" lon="8.135476992648371"><ele>377.5</ele><time>2026-05-02T14:14:18Z</time></trkpt><trkpt lat="45.58971064342391" lon="8.135459723442565"><ele>379.33333333333337</ele><time>2026-05-02T14:14:21Z</time></trkpt><trkpt lat="45.58978800889934" lon="8.135467139732635"><ele>381.1666666666667</ele><time>2026-05-02T14:14:22.999Z</time></trkpt><trkpt lat="45.589883755645445" lon="8.13550020182206"><ele>383.0</ele><time>2026-05-02T14:14:24.999Z</time></trkpt><trkpt lat="45.58997235014971" lon="8.135560753911765"><ele>383.0</ele><time>2026-05-02T14:14:26.999Z</time></trkpt><trkpt lat="45.59006305534827" lon="8.135635317335957"><ele>383.0</ele><time>2026-05-02T14:14:28.999Z</time></trkpt><trkpt lat="45.59015047178719" lon="8.13571477376653"><ele>383.0</ele><time>2026-05-02T14:14:30.999Z</time></trkpt><trkpt lat="45.590239569221325" lon="8.135801847316436"><ele>383.0</ele><time>2026-05-02T14:14:32.999Z</time></trkpt><trkpt lat="45.59032714132221" lon="8.135857090696257"><ele>383.0</ele><time>2026-05-02T14:14:34.999Z</time></trkpt><trkpt lat="45.59042568736223" lon="8.135902419886534"><ele>383.0</ele><time>2026-05-02T14:14:36.999Z</time></trkpt><trkpt lat="45.59052096144595" lon="8.135949826217004"><ele>383.0</ele><time>2026-05-02T14:14:38.999Z</time></trkpt><trkpt lat="45.59061575362982" lon="8.135983225094305"><ele>383.0</ele><time>2026-05-02T14:14:40.999Z</time></trkpt><trkpt lat="45.590709108177194" lon="8.136005854048054"><ele>383.0</ele><time>2026-05-02T14:14:42.999Z</time></trkpt><trkpt lat="45.59080726208497" lon="8.135959625885524"><ele>383.0</ele><time>2026-05-02T14:14:44.999Z</time></trkpt><trkpt lat="45.59087138372115" lon="8.135895955317366"><ele>383.0</ele><time>2026-05-02T14:14:46.999Z</time></trkpt><trkpt lat="45.59093903267581" lon="8.135865025517676"><ele>383.0</ele><time>2026-05-02T14:14:48.999Z</time></trkpt><trkpt lat="45.59104421888677" lon="8.135874092050386"><ele>383.0</ele><time>2026-05-02T14:14:50.999Z</time></trkpt><trkpt lat="45.59115109901774" lon="8.135908446765786"><ele>383.0</ele><time>2026-05-02T14:14:52.999Z</time></trkpt><trkpt lat="45.59123204906148" lon="8.135944187832752"><ele>383.0</ele><time>2026-05-02T14:14:54.999Z</time></trkpt><trkpt lat="45.59131258224261" lon="8.135996349974553"><ele>384.0</ele><time>2026-05-02T14:14:56.999Z</time></trkpt><trkpt lat="45.59138792361612" lon="8.136047979203333"><ele>385.0</ele><time>2026-05-02T14:14:58.999Z</time></trkpt><trkpt lat="45.59146025079651" lon="8.136093970485854"><ele>386.0</ele><time>2026-05-02T14:15:00.999Z</time></trkpt><trkpt lat="45.59151755101002" lon="8.136142761383683"><ele>387.0</ele><time>2026-05-02T14:15:03Z</time></trkpt><trkpt lat="45.5915708115235" lon="8.13622265286247"><ele>387.99999999999994</ele><time>2026-05-02T14:15:07Z</time></trkpt><trkpt lat="45.5916075336627" lon="8.136314163514214"><ele>389.0</ele><time>2026-05-02T14:15:33Z</time></trkpt><trkpt lat="45.591599015242714" lon="8.136430436903506"><ele>388.99999999999994</ele><time>2026-05-02T14:15:36Z</time></trkpt><trkpt lat="45.59160300011039" lon="8.136528776383246"><ele>389.0</ele><time>2026-05-02T14:15:38Z</time></trkpt><trkpt lat="45.591602770492116" lon="8.136628368506232"><ele>389.0</ele><time>2026-05-02T14:15:40Z</time></trkpt><trkpt lat="45.591610758876335" lon="8.13675084563696"><ele>389.0</ele><time>2026-05-02T14:15:42Z</time></trkpt><trkpt lat="45.59161633434327" lon="8.136892254030764"><ele>388.99999999999994</ele><time>2026-05-02T14:15:44Z</time></trkpt><trkpt lat="45.591616766891875" lon="8.137041783115912"><ele>389.0</ele><time>2026-05-02T14:15:46Z</time></trkpt><trkpt lat="45.59162923175354" lon="8.137199612883398"><ele>388.16666666666663</ele><time>2026-05-02T14:15:48Z</time></trkpt><trkpt lat="45.591640058087165" lon="8.137339990716832"><ele>387.3333333333333</ele><time>2026-05-02T14:15:50Z</time></trkpt><trkpt lat="45.59165819024962" lon="8.137442404302726"><ele>386.5</ele><time>2026-05-02T14:15:52Z</time></trkpt><trkpt lat="45.591665555829074" lon="8.137541205411575"><ele>385.66666666666663</ele><time>2026-05-02T14:15:54Z</time></trkpt><trkpt lat="45.59163863313897" lon="8.137659911485278"><ele>384.8333333333333</ele><time>2026-05-02T14:15:56Z</time></trkpt><trkpt lat="45.59154565866916" lon="8.137687998882095"><ele>384.0</ele><time>2026-05-02T14:15:58Z</time></trkpt><trkpt lat="45.59148771570801" lon="8.137725468974184"><ele>383.6666666666667</ele><time>2026-05-02T14:16:00Z</time></trkpt><trkpt lat="45.591425781040506" lon="8.137774847595798"><ele>383.3333333333333</ele><time>2026-05-02T14:16:02Z</time></trkpt><trkpt lat="45.59138281697019" lon="8.137850325286891"><ele>383.0</ele><time>2026-05-02T14:16:04Z</time></trkpt><trkpt lat="45.5913312911803" lon="8.137960263120895"><ele>382.66666666666663</ele><time>2026-05-02T14:16:07Z</time></trkpt><trkpt lat="45.59127293040978" lon="8.138073137069318"><ele>382.3333333333333</ele><time>2026-05-02T14:16:10Z</time></trkpt><trkpt lat="45.59121064455064" lon="8.13816479340725"><ele>382.0</ele><time>2026-05-02T14:16:12Z</time></trkpt><trkpt lat="45.591146693277615" lon="8.138273184550467"><ele>382.0</ele><time>2026-05-02T14:16:14Z</time></trkpt><trkpt lat="45.59113114682839" lon="8.138418532334981"><ele>382.0</ele><time>2026-05-02T14:16:16Z</time></trkpt><trkpt lat="45.5910836720627" lon="8.138525305416097"><ele>382.0</ele><time>2026-05-02T14:16:18Z</time></trkpt><trkpt lat="45.59103519699652" lon="8.138628514928177"><ele>382.0</ele><time>2026-05-02T14:16:20Z</time></trkpt><trkpt lat="45.59101577511099" lon="8.138765658864981"><ele>382.0</ele><time>2026-05-02T14:16:21.999Z</time></trkpt><trkpt lat="45.59102170449893" lon="8.13892388412533"><ele>381.0</ele><time>2026-05-02T14:16:23.999Z</time></trkpt><trkpt lat="45.59100534659421" lon="8.139086929412567"><ele>380.0</ele><time>2026-05-02T14:16:25.999Z</time></trkpt><trkpt lat="45.59101072974891" lon="8.139248414636759"><ele>379.0</ele><time>2026-05-02T14:16:27.999Z</time></trkpt><trkpt lat="45.591005895175115" lon="8.139412116513322"><ele>378.0</ele><time>2026-05-02T14:16:29.999Z</time></trkpt><trkpt lat="45.59096836034099" lon="8.139562677966765"><ele>378.0</ele><time>2026-05-02T14:16:31.999Z</time></trkpt><trkpt lat="45.59091236769872" lon="8.139706512271527"><ele>378.0</ele><time>2026-05-02T14:16:33.999Z</time></trkpt><trkpt lat="45.59085080135653" lon="8.139834852706077"><ele>378.0</ele><time>2026-05-02T14:16:35.999Z</time></trkpt><trkpt lat="45.59078964234115" lon="8.139946184929208"><ele>378.0</ele><time>2026-05-02T14:16:37.999Z</time></trkpt><trkpt lat="45.59073152668274" lon="8.140041448594447"><ele>378.0</ele><time>2026-05-02T14:16:39.999Z</time></trkpt><trkpt lat="45.590669292411214" lon="8.140139700281521"><ele>377.0</ele><time>2026-05-02T14:16:42.999Z</time></trkpt><trkpt lat="45.59059857765199" lon="8.140235788871994"><ele>376.0</ele><time>2026-05-02T14:16:45.999Z</time></trkpt><trkpt lat="45.59054337818581" lon="8.140295011636601"><ele>375.0</ele><time>2026-05-02T14:16:47.999Z</time></trkpt><trkpt lat="45.59052225474713" lon="8.14038075210275"><ele>374.0</ele><time>2026-05-02T14:16:53.999Z</time></trkpt><trkpt lat="45.590589523919085" lon="8.140405613737059"><ele>373.0</ele><time>2026-05-02T14:17:30Z</time></trkpt><trkpt lat="45.59065370482022" lon="8.14043111549996"><ele>372.0</ele><time>2026-05-02T14:17:34Z</time></trkpt><trkpt lat="45.59075293923286" lon="8.140466334296356"><ele>372.0</ele><time>2026-05-02T14:17:37Z</time></trkpt><trkpt lat="45.59085231583953" lon="8.140462981566236"><ele>372.0</ele><time>2026-05-02T14:17:40Z</time></trkpt><trkpt lat="45.59092082149378" lon="8.140430998099365"><ele>372.0</ele><time>2026-05-02T14:17:42Z</time></trkpt><trkpt lat="45.591001405944745" lon="8.140417879145875"><ele>372.0</ele><time>2026-05-02T14:17:45Z</time></trkpt><trkpt lat="45.59106442284616" lon="8.1404124034142"><ele>372.0</ele><time>2026-05-02T14:17:49Z</time></trkpt><trkpt lat="45.5911475337417" lon="8.140422093056525"><ele>372.0</ele><time>2026-05-02T14:18:01Z</time></trkpt><trkpt lat="45.59108061928395" lon="8.140412858128048"><ele>372.0</ele><time>2026-05-02T14:18:10.999Z</time></trkpt><trkpt lat="45.591011550531455" lon="8.140440997936052"><ele>372.0</ele><time>2026-05-02T14:18:12.999Z</time></trkpt><trkpt lat="45.59094203427806" lon="8.140452823337197"><ele>372.0</ele><time>2026-05-02T14:18:14.999Z</time></trkpt><trkpt lat="45.59084011864416" lon="8.140463844767869"><ele>372.0</ele><time>2026-05-02T14:18:17.999Z</time></trkpt><trkpt lat="45.59075965700118" lon="8.140459396478212"><ele>372.0</ele><time>2026-05-02T14:18:19.999Z</time></trkpt><trkpt lat="45.59068064352048" lon="8.140462005560826"><ele>372.0</ele><time>2026-05-02T14:18:21.999Z</time></trkpt><trkpt lat="45.590609980670955" lon="8.140461236857867"><ele>372.0</ele><time>2026-05-02T14:18:24.999Z</time></trkpt><trkpt lat="45.590595035393925" lon="8.14035534227366"><ele>372.0</ele><time>2026-05-02T14:18:28.999Z</time></trkpt><trkpt lat="45.590647516570996" lon="8.140277743131051"><ele>372.0</ele><time>2026-05-02T14:18:31.999Z</time></trkpt><trkpt lat="45.59070014242191" lon="8.140220247980347"><ele>372.0</ele><time>2026-05-02T14:18:34.999Z</time></trkpt><trkpt lat="45.590744069661255" lon="8.14015436010596"><ele>372.0</ele><time>2026-05-02T14:18:37.999Z</time></trkpt><trkpt lat="45.59078214891849" lon="8.14006574753172"><ele>372.0</ele><time>2026-05-02T14:18:40.999Z</time></trkpt><trkpt lat="45.59085490893775" lon="8.139930793290665"><ele>373.0</ele><time>2026-05-02T14:18:44.999Z</time></trkpt><trkpt lat="45.59090337324244" lon="8.139837520959057"><ele>374.0</ele><time>2026-05-02T14:18:47.999Z</time></trkpt><trkpt lat="45.59093712636989" lon="8.139750567998254"><ele>375.0</ele><time>2026-05-02T14:18:49.999Z</time></trkpt><trkpt lat="45.5909737522113" lon="8.139638592418473"><ele>376.0</ele><time>2026-05-02T14:18:52.999Z</time></trkpt><trkpt lat="45.59101387961627" lon="8.139516293006825"><ele>377.0</ele><time>2026-05-02T14:18:55.999Z</time></trkpt><trkpt lat="45.59103839956857" lon="8.139419835196003"><ele>378.0</ele><time>2026-05-02T14:18:57.999Z</time></trkpt><trkpt lat="45.591035125880694" lon="8.139300888033134"><ele>378.0</ele><time>2026-05-02T14:18:59.999Z</time></trkpt><trkpt lat="45.59104394984388" lon="8.139183743938988"><ele>378.0</ele><time>2026-05-02T14:19:01.999Z</time></trkpt><trkpt lat="45.59103319088405" lon="8.139040103211837"><ele>378.0</ele><time>2026-05-02T14:19:03.999Z</time></trkpt><trkpt lat="45.59102071842761" lon="8.138901706388628"><ele>378.0</ele><time>2026-05-02T14:19:05.999Z</time></trkpt><trkpt lat="45.59101604775639" lon="8.138760777955397"><ele>378.0</ele><time>2026-05-02T14:19:07.999Z</time></trkpt><trkpt lat="45.591031371427995" lon="8.13862176172952"><ele>378.79999999999995</ele><time>2026-05-02T14:19:09.999Z</time></trkpt><trkpt lat="45.59106530654043" lon="8.13849878967022"><ele>379.6</ele><time>2026-05-02T14:19:11.999Z</time></trkpt><trkpt lat="45.591126255762134" lon="8.138391773642777"><ele>380.4</ele><time>2026-05-02T14:19:13.999Z</time></trkpt><trkpt lat="45.59118177453331" lon="8.138274952283304"><ele>381.20000000000005</ele><time>2026-05-02T14:19:16Z</time></trkpt><trkpt lat="45.591238611664245" lon="8.138180488812882"><ele>382.0</ele><time>2026-05-02T14:19:18Z</time></trkpt><trkpt lat="45.59130921450128" lon="8.138065807096208"><ele>382.0</ele><time>2026-05-02T14:19:20Z</time></trkpt><trkpt lat="45.59137349466905" lon="8.137962403285266"><ele>382.0</ele><time>2026-05-02T14:19:22Z</time></trkpt><trkpt lat="45.591423860973556" lon="8.137852546748263"><ele>382.0</ele><time>2026-05-02T14:19:24Z</time></trkpt><trkpt lat="45.59148232694128" lon="8.137767547366675"><ele>382.0</ele><time>2026-05-02T14:19:26Z</time></trkpt><trkpt lat="45.59157666148988" lon="8.13770933488986"><ele>382.0</ele><time>2026-05-02T14:19:28Z</time></trkpt><trkpt lat="45.59165515147086" lon="8.137634984071108"><ele>382.0</ele><time>2026-05-02T14:19:30Z</time></trkpt><trkpt lat="45.5917105449793" lon="8.137519792107293"><ele>382.0</ele><time>2026-05-02T14:19:32Z</time></trkpt><trkpt lat="45.59168920954414" lon="8.137421749946174"><ele>382.0</ele><time>2026-05-02T14:19:33Z</time></trkpt><trkpt lat="45.59165946295969" lon="8.137321782109895"><ele>382.0</ele><time>2026-05-02T14:19:35Z</time></trkpt><trkpt lat="45.59175475211922" lon="8.1373851119377"><ele>382.0</ele><time>2026-05-02T14:19:58Z</time></trkpt><trkpt lat="45.591805836601985" lon="8.137492219633751"><ele>382.0</ele><time>2026-05-02T14:20:00Z</time></trkpt><trkpt lat="45.5918536733559" lon="8.137595943323305"><ele>382.0</ele><time>2026-05-02T14:20:02Z</time></trkpt><trkpt lat="45.59189595863242" lon="8.137673199789376"><ele>382.0</ele><time>2026-05-02T14:20:04Z</time></trkpt><trkpt lat="45.591957353440705" lon="8.13769718530953"><ele>382.0</ele><time>2026-05-02T14:20:15.999Z</time></trkpt><trkpt lat="45.5919508555296" lon="8.137595153863996"><ele>382.0</ele><time>2026-05-02T14:20:22.999Z</time></trkpt><trkpt lat="45.59191268102118" lon="8.137504293616812"><ele>382.0</ele><time>2026-05-02T14:20:25.999Z</time></trkpt><trkpt lat="45.591924104884875" lon="8.137391663531359"><ele>382.0</ele><time>2026-05-02T14:20:28.999Z</time></trkpt><trkpt lat="45.59200955797759" lon="8.137413756164495"><ele>382.0</ele><time>2026-05-02T14:20:34.999Z</time></trkpt><trkpt lat="45.59208464015225" lon="8.137480038045934"><ele>379.20000000000005</ele><time>2026-05-02T14:20:37.999Z</time></trkpt><trkpt lat="45.59215337086435" lon="8.137477985448875"><ele>376.4</ele><time>2026-05-02T14:20:40.999Z</time></trkpt><trkpt lat="45.59224058437296" lon="8.137467217883227"><ele>373.6</ele><time>2026-05-02T14:20:43.999Z</time></trkpt><trkpt lat="45.59231327581971" lon="8.137474285749198"><ele>370.79999999999995</ele><time>2026-05-02T14:20:45.999Z</time></trkpt><trkpt lat="45.59245800001196" lon="8.137481049941918"><ele>368.0</ele><time>2026-05-02T14:21:17.999Z</time></trkpt><trkpt lat="45.592563297811594" lon="8.137460310361565"><ele>368.0</ele><time>2026-05-02T14:21:24Z</time></trkpt><trkpt lat="45.592635809292304" lon="8.137386976028443"><ele>368.0</ele><time>2026-05-02T14:21:27Z</time></trkpt><trkpt lat="45.592683792043324" lon="8.137315923312569"><ele>368.0</ele><time>2026-05-02T14:21:29Z</time></trkpt><trkpt lat="45.59275308455397" lon="8.137234984256187"><ele>368.0</ele><time>2026-05-02T14:21:37Z</time></trkpt><trkpt lat="45.592815767455214" lon="8.13716489473203"><ele>368.0</ele><time>2026-05-02T14:21:40Z</time></trkpt><trkpt lat="45.592870225821706" lon="8.137094994704794"><ele>368.0</ele><time>2026-05-02T14:21:44Z</time></trkpt><trkpt lat="45.59291250283869" lon="8.137011394836206"><ele>369.0</ele><time>2026-05-02T14:21:47Z</time></trkpt><trkpt lat="45.59299187580371" lon="8.136905744636259"><ele>370.0</ele><time>2026-05-02T14:22:14Z</time></trkpt><trkpt lat="45.59297244654203" lon="8.137009597998304"><ele>371.0</ele><time>2026-05-02T14:22:25Z</time></trkpt><trkpt lat="45.592929781462544" lon="8.13710040293616"><ele>372.0</ele><time>2026-05-02T14:22:28Z</time></trkpt><trkpt lat="45.592899277994" lon="8.137212390008527"><ele>373.0</ele><time>2026-05-02T14:22:38.999Z</time></trkpt><trkpt lat="45.59283251637139" lon="8.137217066252802"><ele>374.0</ele><time>2026-05-02T14:22:43.999Z</time></trkpt><trkpt lat="45.592867580342784" lon="8.137316019319654"><ele>374.0</ele><time>2026-05-02T14:22:50.999Z</time></trkpt><trkpt lat="45.59292745759747" lon="8.137381413226915"><ele>374.0</ele><time>2026-05-02T14:22:53.999Z</time></trkpt><trkpt lat="45.59297593255341" lon="8.13743895909975"><ele>374.0</ele><time>2026-05-02T14:22:58.999Z</time></trkpt><trkpt lat="45.59294884265993" lon="8.13752837666684"><ele>374.0</ele><time>2026-05-02T14:23:07.999Z</time></trkpt><trkpt lat="45.592944901882376" lon="8.137436524296032"><ele>374.0</ele><time>2026-05-02T14:24:55.999Z</time></trkpt><trkpt lat="45.592906305707224" lon="8.137365318222667"><ele>374.0</ele><time>2026-05-02T14:25:17.999Z</time></trkpt><trkpt lat="45.59284477040809" lon="8.137301319462845"><ele>374.0</ele><time>2026-05-02T14:25:21.999Z</time></trkpt><trkpt lat="45.59277766580643" lon="8.137287374953173"><ele>375.0</ele><time>2026-05-02T14:25:24.999Z</time></trkpt><trkpt lat="45.59271660532433" lon="8.13732509367222"><ele>376.0</ele><time>2026-05-02T14:25:27.999Z</time></trkpt><trkpt lat="45.592658494993" lon="8.13740096375706"><ele>377.0</ele><time>2026-05-02T14:25:30.999Z</time></trkpt><trkpt lat="45.592592165273665" lon="8.137449136216613"><ele>378.0</ele><time>2026-05-02T14:25:34Z</time></trkpt><trkpt lat="45.59250941193909" lon="8.13746895532305"><ele>379.0</ele><time>2026-05-02T14:25:37Z</time></trkpt><trkpt lat="45.592442445937415" lon="8.13749626233854"><ele>380.0</ele><time>2026-05-02T14:26:06Z</time></trkpt><trkpt lat="45.59236779939439" lon="8.137525735394918"><ele>380.33333333333337</ele><time>2026-05-02T14:26:21Z</time></trkpt><trkpt lat="45.59228924529416" lon="8.137530496716233"><ele>380.6666666666667</ele><time>2026-05-02T14:26:24Z</time></trkpt><trkpt lat="45.59220365813005" lon="8.137528033797803"><ele>381.0</ele><time>2026-05-02T14:26:27Z</time></trkpt><trkpt lat="45.59213072708479" lon="8.137552274317274"><ele>381.3333333333333</ele><time>2026-05-02T14:26:30Z</time></trkpt><trkpt lat="45.59204617441181" lon="8.137517747448642"><ele>381.66666666666663</ele><time>2026-05-02T14:26:33Z</time></trkpt><trkpt lat="45.591987539453555" lon="8.137423379846929"><ele>382.0</ele><time>2026-05-02T14:26:36Z</time></trkpt><trkpt lat="45.591930103986996" lon="8.13746415927841"><ele>382.0</ele><time>2026-05-02T14:26:42Z</time></trkpt><trkpt lat="45.591957497029156" lon="8.137571955820379"><ele>382.0</ele><time>2026-05-02T14:26:46Z</time></trkpt><trkpt lat="45.59197995832874" lon="8.137681295784121"><ele>382.0</ele><time>2026-05-02T14:26:49Z</time></trkpt><trkpt lat="45.591899538720185" lon="8.13765828770135"><ele>382.0</ele><time>2026-05-02T14:26:53Z</time></trkpt><trkpt lat="45.591866216217056" lon="8.137580643210189"><ele>382.0</ele><time>2026-05-02T14:26:55Z</time></trkpt><trkpt lat="45.59181331094719" lon="8.1374866622349"><ele>382.0</ele><time>2026-05-02T14:26:58Z</time></trkpt><trkpt lat="45.59175834472151" lon="8.137395693463828"><ele>382.3333333333333</ele><time>2026-05-02T14:27:00Z</time></trkpt><trkpt lat="45.591682950730146" lon="8.137304194326317"><ele>382.66666666666663</ele><time>2026-05-02T14:27:02Z</time></trkpt><trkpt lat="45.59163970633008" lon="8.13721009066483"><ele>383.0</ele><time>2026-05-02T14:27:03.999Z</time></trkpt><trkpt lat="45.591601731128556" lon="8.13708951120247"><ele>383.3333333333333</ele><time>2026-05-02T14:27:05.999Z</time></trkpt><trkpt lat="45.59159685704359" lon="8.13697375296532"><ele>383.6666666666667</ele><time>2026-05-02T14:27:07.999Z</time></trkpt><trkpt lat="45.59159666257389" lon="8.13687261488596"><ele>384.0</ele><time>2026-05-02T14:27:09.999Z</time></trkpt><trkpt lat="45.591602735915195" lon="8.136757661766472"><ele>384.0</ele><time>2026-05-02T14:27:11.999Z</time></trkpt><trkpt lat="45.59160116955585" lon="8.13664105582452"><ele>384.0</ele><time>2026-05-02T14:27:13.999Z</time></trkpt><trkpt lat="45.59159731330921" lon="8.136528917024329"><ele>384.0</ele><time>2026-05-02T14:27:15.999Z</time></trkpt><trkpt lat="45.59160473026575" lon="8.136427254441447"><ele>384.0</ele><time>2026-05-02T14:27:17.999Z</time></trkpt><trkpt lat="45.59161434305669" lon="8.13632225051976"><ele>384.0</ele><time>2026-05-02T14:27:20.999Z</time></trkpt><trkpt lat="45.59171084424339" lon="8.136274268081188"><ele>384.0</ele><time>2026-05-02T14:27:23.999Z</time></trkpt><trkpt lat="45.59179483765887" lon="8.136315747556381"><ele>384.0</ele><time>2026-05-02T14:27:25.999Z</time></trkpt><trkpt lat="45.59186266762599" lon="8.136395075520497"><ele>384.0</ele><time>2026-05-02T14:27:27.999Z</time></trkpt><trkpt lat="45.591918058933494" lon="8.136519086527375"><ele>384.0</ele><time>2026-05-02T14:27:29.999Z</time></trkpt><trkpt lat="45.591966843085814" lon="8.136630877602064"><ele>384.0</ele><time>2026-05-02T14:27:31.999Z</time></trkpt><trkpt lat="45.59203112671761" lon="8.136737976351311"><ele>384.0</ele><time>2026-05-02T14:27:33.999Z</time></trkpt><trkpt lat="45.5921317208311" lon="8.136838214098463"><ele>383.2</ele><time>2026-05-02T14:27:35.999Z</time></trkpt><trkpt lat="45.59224293415975" lon="8.136868095468024"><ele>382.4</ele><time>2026-05-02T14:27:37.999Z</time></trkpt><trkpt lat="45.59234386204454" lon="8.13686015373704"><ele>381.6</ele><time>2026-05-02T14:27:40.001Z</time></trkpt><trkpt lat="45.592440147998666" lon="8.136848894363508"><ele>380.8</ele><time>2026-05-02T14:27:42.001Z</time></trkpt><trkpt lat="45.59253239847471" lon="8.136798649579259"><ele>380.0</ele><time>2026-05-02T14:27:44.001Z</time></trkpt><trkpt lat="45.592603476503335" lon="8.136710128201125"><ele>380.0</ele><time>2026-05-02T14:27:46.001Z</time></trkpt><trkpt lat="45.59267363966022" lon="8.136618359755362"><ele>380.0</ele><time>2026-05-02T14:27:48Z</time></trkpt><trkpt lat="45.59269569810163" lon="8.136526269154531"><ele>380.0</ele><time>2026-05-02T14:27:49Z</time></trkpt><trkpt lat="45.59274657926275" lon="8.13640377718666"><ele>380.0</ele><time>2026-05-02T14:27:51Z</time></trkpt><trkpt lat="45.59280955285242" lon="8.136244874270275"><ele>380.0</ele><time>2026-05-02T14:27:53Z</time></trkpt><trkpt lat="45.59285448779396" lon="8.136070660528288"><ele>378.83333333333337</ele><time>2026-05-02T14:27:55Z</time></trkpt><trkpt lat="45.59287587835651" lon="8.13598072012445"><ele>377.6666666666667</ele><time>2026-05-02T14:27:56Z</time></trkpt><trkpt lat="45.59290088733488" lon="8.135890522438004"><ele>376.5</ele><time>2026-05-02T14:27:57Z</time></trkpt><trkpt lat="45.59293334648677" lon="8.135801135765446"><ele>375.3333333333333</ele><time>2026-05-02T14:27:58Z</time></trkpt><trkpt lat="45.59297384998885" lon="8.135724361955619"><ele>374.16666666666663</ele><time>2026-05-02T14:27:59Z</time></trkpt><trkpt lat="45.593084247878735" lon="8.135642463264238"><ele>373.0</ele><time>2026-05-02T14:28:01Z</time></trkpt><trkpt lat="45.59314847001746" lon="8.135650242146236"><ele>373.0</ele><time>2026-05-02T14:28:02Z</time></trkpt><trkpt lat="45.59326041092807" lon="8.135724539123874"><ele>373.0</ele><time>2026-05-02T14:28:04Z</time></trkpt><trkpt lat="45.59328433489086" lon="8.135818660031044"><ele>373.0</ele><time>2026-05-02T14:28:05Z</time></trkpt><trkpt lat="45.593332495142185" lon="8.13588375556196"><ele>373.0</ele><time>2026-05-02T14:28:06Z</time></trkpt><trkpt lat="45.593363002336" lon="8.135965242780856"><ele>373.0</ele><time>2026-05-02T14:28:07Z</time></trkpt><trkpt lat="45.5934117912498" lon="8.136131455336564"><ele>373.0</ele><time>2026-05-02T14:28:09Z</time></trkpt><trkpt lat="45.59344287315947" lon="8.136210844294052"><ele>373.0</ele><time>2026-05-02T14:28:10Z</time></trkpt><trkpt lat="45.593476359159986" lon="8.13628920606285"><ele>373.0</ele><time>2026-05-02T14:28:11Z</time></trkpt><trkpt lat="45.59351892250116" lon="8.136358293370126"><ele>373.0</ele><time>2026-05-02T14:28:12Z</time></trkpt><trkpt lat="45.59353476818445" lon="8.136446873971355"><ele>373.0</ele><time>2026-05-02T14:28:13Z</time></trkpt><trkpt lat="45.59356964187109" lon="8.13660767720011"><ele>373.0</ele><time>2026-05-02T14:28:15Z</time></trkpt><trkpt lat="45.59357926106873" lon="8.136764134083919"><ele>373.2</ele><time>2026-05-02T14:28:17Z</time></trkpt><trkpt lat="45.59357087416746" lon="8.136906685928736"><ele>373.4</ele><time>2026-05-02T14:28:19Z</time></trkpt><trkpt lat="45.59355831918944" lon="8.13704717312858"><ele>373.59999999999997</ele><time>2026-05-02T14:28:21Z</time></trkpt><trkpt lat="45.59354587712743" lon="8.137190729114762"><ele>373.79999999999995</ele><time>2026-05-02T14:28:23Z</time></trkpt><trkpt lat="45.59354760706987" lon="8.137344945952387"><ele>374.0</ele><time>2026-05-02T14:28:25Z</time></trkpt><trkpt lat="45.59353197103761" lon="8.137501788106654"><ele>373.0</ele><time>2026-05-02T14:28:27Z</time></trkpt><trkpt lat="45.59352117826639" lon="8.13765800443032"><ele>372.0</ele><time>2026-05-02T14:28:29Z</time></trkpt><trkpt lat="45.59349389411989" lon="8.13780208685845"><ele>371.0</ele><time>2026-05-02T14:28:31Z</time></trkpt><trkpt lat="45.59349373168939" lon="8.137954295045661"><ele>370.0</ele><time>2026-05-02T14:28:33Z</time></trkpt><trkpt lat="45.5935579195699" lon="8.138105031206189"><ele>369.0</ele><time>2026-05-02T14:28:35Z</time></trkpt><trkpt lat="45.59365432322917" lon="8.1382155297951"><ele>369.6</ele><time>2026-05-02T14:28:37Z</time></trkpt><trkpt lat="45.59371758820884" lon="8.138237487210908"><ele>370.2</ele><time>2026-05-02T14:28:38Z</time></trkpt><trkpt lat="45.59383599837852" lon="8.13821320204579"><ele>370.8</ele><time>2026-05-02T14:28:40Z</time></trkpt><trkpt lat="45.59393120648207" lon="8.138205247418279"><ele>371.40000000000003</ele><time>2026-05-02T14:28:42Z</time></trkpt><trkpt lat="45.594022790534275" lon="8.138195526932527"><ele>372.0</ele><time>2026-05-02T14:28:44Z</time></trkpt><trkpt lat="45.59410905674755" lon="8.138177496907007"><ele>373.6666666666667</ele><time>2026-05-02T14:28:47Z</time></trkpt><trkpt lat="45.594187689415065" lon="8.138178830156926"><ele>375.3333333333333</ele><time>2026-05-02T14:28:50Z</time></trkpt><trkpt lat="45.594215812475426" lon="8.13808950432326"><ele>377.0</ele><time>2026-05-02T14:29:36.999Z</time></trkpt><trkpt lat="45.59424661181979" lon="8.13797646288866"><ele>378.66666666666663</ele><time>2026-05-02T14:29:38.999Z</time></trkpt><trkpt lat="45.59433592368665" lon="8.137886028588808"><ele>380.3333333333333</ele><time>2026-05-02T14:29:40.999Z</time></trkpt><trkpt lat="45.594393156642596" lon="8.137836845281312"><ele>382.0</ele><time>2026-05-02T14:29:41.999Z</time></trkpt><trkpt lat="45.59448432740044" lon="8.138035015067436"><ele>382.0</ele><time>2026-05-02T14:29:42.999Z</time></trkpt><trkpt lat="45.59457026400263" lon="8.137988848261823"><ele>382.0</ele><time>2026-05-02T14:29:46Z</time></trkpt><trkpt lat="45.594632650383666" lon="8.137953358759946"><ele>382.0</ele><time>2026-05-02T14:29:47Z</time></trkpt><trkpt lat="45.594778013212185" lon="8.137861516021886"><ele>382.0</ele><time>2026-05-02T14:29:49Z</time></trkpt><trkpt lat="45.59484538611283" lon="8.137801767088984"><ele>382.0</ele><time>2026-05-02T14:29:50Z</time></trkpt><trkpt lat="45.59492078855929" lon="8.137689367102734"><ele>382.0</ele><time>2026-05-02T14:29:52Z</time></trkpt><trkpt lat="45.59496088220505" lon="8.1376003775397"><ele>382.0</ele><time>2026-05-02T14:29:54Z</time></trkpt><trkpt lat="45.59483890402414" lon="8.137358432738804"><ele>382.0</ele><time>2026-05-02T14:30:12Z</time></trkpt><trkpt lat="45.594875886097405" lon="8.137248039912613"><ele>382.0</ele><time>2026-05-02T14:30:32Z</time></trkpt><trkpt lat="45.5949106883991" lon="8.137127879435685"><ele>383.8333333333333</ele><time>2026-05-02T14:30:35Z</time></trkpt><trkpt lat="45.594952580376194" lon="8.137047823364849"><ele>385.66666666666663</ele><time>2026-05-02T14:30:37Z</time></trkpt><trkpt lat="45.59499123884086" lon="8.136923459093756"><ele>387.5</ele><time>2026-05-02T14:30:39Z</time></trkpt><trkpt lat="45.595005469340784" lon="8.13682370121011"><ele>389.3333333333333</ele><time>2026-05-02T14:30:41Z</time></trkpt><trkpt lat="45.59503362854358" lon="8.136715239250076"><ele>391.1666666666667</ele><time>2026-05-02T14:30:42Z</time></trkpt><trkpt lat="45.59508388492641" lon="8.136609374948025"><ele>393.0</ele><time>2026-05-02T14:30:43Z</time></trkpt><trkpt lat="45.595128208448266" lon="8.136489422208177"><ele>393.0</ele><time>2026-05-02T14:30:44Z</time></trkpt><trkpt lat="45.595145755784394" lon="8.136394424639896"><ele>393.0</ele><time>2026-05-02T14:30:45Z</time></trkpt><trkpt lat="45.59513707867378" lon="8.136268214332809"><ele>393.0</ele><time>2026-05-02T14:30:47Z</time></trkpt><trkpt lat="45.59510357318332" lon="8.136171452718477"><ele>393.0</ele><time>2026-05-02T14:30:49.999Z</time></trkpt><trkpt lat="45.59522141018309" lon="8.136212345479242"><ele>393.0</ele><time>2026-05-02T14:31:07.999Z</time></trkpt><trkpt lat="45.595266577111055" lon="8.136282201324"><ele>393.0</ele><time>2026-05-02T14:31:09.999Z</time></trkpt><trkpt lat="45.59522459446299" lon="8.13645628101464"><ele>393.0</ele><time>2026-05-02T14:31:12.999Z</time></trkpt><trkpt lat="45.59524079178936" lon="8.136612574334146"><ele>393.0</ele><time>2026-05-02T14:31:14.999Z</time></trkpt><trkpt lat="45.59525152464295" lon="8.13675939816132"><ele>393.0</ele><time>2026-05-02T14:31:15.999Z</time></trkpt><trkpt lat="45.59524000337206" lon="8.136873825084383"><ele>393.0</ele><time>2026-05-02T14:31:16.999Z</time></trkpt><trkpt lat="45.59517306687219" lon="8.13701145933904"><ele>393.0</ele><time>2026-05-02T14:31:18.999Z</time></trkpt><trkpt lat="45.59511405492983" lon="8.137070396480752"><ele>393.0</ele><time>2026-05-02T14:31:19.999Z</time></trkpt><trkpt lat="45.59505288058169" lon="8.137150072142374"><ele>393.0</ele><time>2026-05-02T14:31:20.999Z</time></trkpt><trkpt lat="45.59500046178806" lon="8.137234671776364"><ele>393.0</ele><time>2026-05-02T14:31:21.999Z</time></trkpt><trkpt lat="45.59495565460727" lon="8.137333707303048"><ele>393.0</ele><time>2026-05-02T14:31:22.999Z</time></trkpt><trkpt lat="45.594906785576526" lon="8.13743446513027"><ele>393.0</ele><time>2026-05-02T14:31:23.999Z</time></trkpt><trkpt lat="45.594818531810525" lon="8.13752935895929"><ele>393.0</ele><time>2026-05-02T14:31:25.999Z</time></trkpt><trkpt lat="45.5947546566724" lon="8.137542717112296"><ele>391.1666666666667</ele><time>2026-05-02T14:31:26.999Z</time></trkpt><trkpt lat="45.594677713424545" lon="8.137576665257278"><ele>389.3333333333333</ele><time>2026-05-02T14:31:27.999Z</time></trkpt><trkpt lat="45.594603001182556" lon="8.137628035942717"><ele>387.5</ele><time>2026-05-02T14:31:28.999Z</time></trkpt><trkpt lat="45.59453696200967" lon="8.137675079677042"><ele>385.66666666666663</ele><time>2026-05-02T14:31:29.999Z</time></trkpt><trkpt lat="45.59447903669567" lon="8.137736697073924"><ele>383.8333333333333</ele><time>2026-05-02T14:31:30.999Z</time></trkpt><trkpt lat="45.594403784732336" lon="8.13782726111961"><ele>382.0</ele><time>2026-05-02T14:31:31.999Z</time></trkpt><trkpt lat="45.594333337555504" lon="8.137899671803964"><ele>382.0</ele><time>2026-05-02T14:31:32.999Z</time></trkpt><trkpt lat="45.59424710700489" lon="8.137986096270156"><ele>382.0</ele><time>2026-05-02T14:31:34.999Z</time></trkpt><trkpt lat="45.59423431021055" lon="8.13807546348426"><ele>382.0</ele><time>2026-05-02T14:31:36.999Z</time></trkpt><trkpt lat="45.59430076908223" lon="8.138110888105757"><ele>382.0</ele><time>2026-05-02T14:31:39.999Z</time></trkpt><trkpt lat="45.59441168593704" lon="8.138072397477957"><ele>382.0</ele><time>2026-05-02T14:31:41.999Z</time></trkpt><trkpt lat="45.59452473130742" lon="8.138012137825125"><ele>382.0</ele><time>2026-05-02T14:31:43.999Z</time></trkpt><trkpt lat="45.594637550612944" lon="8.137934878802415"><ele>382.0</ele><time>2026-05-02T14:31:45.999Z</time></trkpt><trkpt lat="45.594755524794785" lon="8.137864868662836"><ele>382.0</ele><time>2026-05-02T14:31:47.999Z</time></trkpt><trkpt lat="45.59481378486541" lon="8.137826650290057"><ele>382.0</ele><time>2026-05-02T14:31:48.999Z</time></trkpt><trkpt lat="45.59486737427343" lon="8.137766397580458"><ele>382.0</ele><time>2026-05-02T14:31:49.999Z</time></trkpt><trkpt lat="45.59491402518169" lon="8.137699022185059"><ele>382.0</ele><time>2026-05-02T14:31:51Z</time></trkpt><trkpt lat="45.59495102291155" lon="8.13761914676618"><ele>382.0</ele><time>2026-05-02T14:31:52Z</time></trkpt><trkpt lat="45.59498670050934" lon="8.137537017180117"><ele>382.0</ele><time>2026-05-02T14:31:53Z</time></trkpt><trkpt lat="45.595026482046215" lon="8.137467210309506"><ele>382.0</ele><time>2026-05-02T14:31:54Z</time></trkpt><trkpt lat="45.59512253850966" lon="8.1373697957407"><ele>382.0</ele><time>2026-05-02T14:31:56Z</time></trkpt><trkpt lat="45.59523792230796" lon="8.137371731957918"><ele>382.0</ele><time>2026-05-02T14:31:58Z</time></trkpt><trkpt lat="45.59532342894193" lon="8.137491772950819"><ele>382.0</ele><time>2026-05-02T14:32:00Z</time></trkpt><trkpt lat="45.59534646671119" lon="8.137648624419892"><ele>382.0</ele><time>2026-05-02T14:32:02Z</time></trkpt><trkpt lat="45.595322022711414" lon="8.13780033550146"><ele>382.0</ele><time>2026-05-02T14:32:04Z</time></trkpt><trkpt lat="45.595287116194356" lon="8.137937204434692"><ele>382.0</ele><time>2026-05-02T14:32:06Z</time></trkpt><trkpt lat="45.595238005090216" lon="8.138081573372657"><ele>382.0</ele><time>2026-05-02T14:32:08Z</time></trkpt><trkpt lat="45.595177215968015" lon="8.138223832240653"><ele>382.20000000000005</ele><time>2026-05-02T14:32:10Z</time></trkpt><trkpt lat="45.59511607162591" lon="8.138367558167927"><ele>382.4</ele><time>2026-05-02T14:32:12Z</time></trkpt><trkpt lat="45.595047108034635" lon="8.138515434250872"><ele>382.6</ele><time>2026-05-02T14:32:14Z</time></trkpt><trkpt lat="45.59500678490227" lon="8.138586303299277"><ele>382.79999999999995</ele><time>2026-05-02T14:32:15Z</time></trkpt><trkpt lat="45.59491929921168" lon="8.138716470839542"><ele>383.0</ele><time>2026-05-02T14:32:17Z</time></trkpt><trkpt lat="45.59482635999203" lon="8.13884437453801"><ele>383.0</ele><time>2026-05-02T14:32:19Z</time></trkpt><trkpt lat="45.59477761379218" lon="8.138910155575196"><ele>383.0</ele><time>2026-05-02T14:32:20Z</time></trkpt><trkpt lat="45.59472442010557" lon="8.138971532548648"><ele>383.0</ele><time>2026-05-02T14:32:21Z</time></trkpt><trkpt lat="45.594664228963715" lon="8.139024850794296"><ele>383.0</ele><time>2026-05-02T14:32:22Z</time></trkpt><trkpt lat="45.59460589430315" lon="8.139070132703244"><ele>383.0</ele><time>2026-05-02T14:32:23Z</time></trkpt><trkpt lat="45.59454110688098" lon="8.139113653547437"><ele>383.0</ele><time>2026-05-02T14:32:24Z</time></trkpt><trkpt lat="45.59448512057287" lon="8.139162632761945"><ele>383.0</ele><time>2026-05-02T14:32:25Z</time></trkpt><trkpt lat="45.59441450082592" lon="8.139284629882443"><ele>383.85714285714283</ele><time>2026-05-02T14:32:27Z</time></trkpt><trkpt lat="45.594401849333536" lon="8.13938463701547"><ele>384.71428571428567</ele><time>2026-05-02T14:32:29Z</time></trkpt><trkpt lat="45.59443817254635" lon="8.139461067259813"><ele>385.57142857142856</ele><time>2026-05-02T14:32:31Z</time></trkpt><trkpt lat="45.594525538863806" lon="8.139472161839178"><ele>386.42857142857144</ele><time>2026-05-02T14:32:34Z</time></trkpt><trkpt lat="45.59459456727869" lon="8.139419042510756"><ele>387.2857142857143</ele><time>2026-05-02T14:32:37Z</time></trkpt><trkpt lat="45.59463728032647" lon="8.139337095170456"><ele>388.14285714285717</ele><time>2026-05-02T14:32:39Z</time></trkpt><trkpt lat="45.59468020841735" lon="8.139270686524943"><ele>389.0</ele><time>2026-05-02T14:32:41Z</time></trkpt><trkpt lat="45.594732235026164" lon="8.139198699964501"><ele>388.99999999999994</ele><time>2026-05-02T14:32:43Z</time></trkpt><trkpt lat="45.59480126977245" lon="8.139133347707173"><ele>389.0</ele><time>2026-05-02T14:32:45Z</time></trkpt><trkpt lat="45.59487505649571" lon="8.139065912439735"><ele>389.0</ele><time>2026-05-02T14:32:47Z</time></trkpt><trkpt lat="45.59495324828873" lon="8.139010642679024"><ele>389.0</ele><time>2026-05-02T14:32:49Z</time></trkpt><trkpt lat="45.59503295590974" lon="8.138951082585143"><ele>388.99999999999994</ele><time>2026-05-02T14:32:51Z</time></trkpt><trkpt lat="45.595111687003126" lon="8.138903600976908"><ele>389.0</ele><time>2026-05-02T14:32:53Z</time></trkpt><trkpt lat="45.59519559995526" lon="8.138874028682888"><ele>389.66666666666663</ele><time>2026-05-02T14:32:54.999Z</time></trkpt><trkpt lat="45.59528034694369" lon="8.138879329824531"><ele>390.3333333333333</ele><time>2026-05-02T14:32:56.999Z</time></trkpt><trkpt lat="45.595341617842415" lon="8.138927638551294"><ele>391.0</ele><time>2026-05-02T14:32:59.999Z</time></trkpt><trkpt lat="45.59540170325118" lon="8.138959190219925"><ele>391.66666666666663</ele><time>2026-05-02T14:33:03.999Z</time></trkpt><trkpt lat="45.595477821880614" lon="8.13888353937321"><ele>392.3333333333333</ele><time>2026-05-02T14:33:05.999Z</time></trkpt><trkpt lat="45.59557341982697" lon="8.138817351687065"><ele>393.0</ele><time>2026-05-02T14:33:07.999Z</time></trkpt><trkpt lat="45.59567437758208" lon="8.13876612683771"><ele>393.0</ele><time>2026-05-02T14:33:09.999Z</time></trkpt><trkpt lat="45.59577386086046" lon="8.138708573801575"><ele>393.0</ele><time>2026-05-02T14:33:11.999Z</time></trkpt><trkpt lat="45.59587957765911" lon="8.138663297177864"><ele>393.0</ele><time>2026-05-02T14:33:13.999Z</time></trkpt><trkpt lat="45.59598326326483" lon="8.138614870797374"><ele>393.0</ele><time>2026-05-02T14:33:15.999Z</time></trkpt><trkpt lat="45.59606061775971" lon="8.138575143287166"><ele>393.0</ele><time>2026-05-02T14:33:17.999Z</time></trkpt><trkpt lat="45.596136042992306" lon="8.138536440012302"><ele>393.0</ele><time>2026-05-02T14:33:19.999Z</time></trkpt><trkpt lat="45.596205602107936" lon="8.138527552695262"><ele>393.0</ele><time>2026-05-02T14:33:21.999Z</time></trkpt><trkpt lat="45.59627863765923" lon="8.13852674653095"><ele>393.0</ele><time>2026-05-02T14:33:24.999Z</time></trkpt><trkpt lat="45.596340905180625" lon="8.138551619077335"><ele>393.0</ele><time>2026-05-02T14:33:27.999Z</time></trkpt><trkpt lat="45.59627113274735" lon="8.138541456367745"><ele>393.0</ele><time>2026-05-02T14:33:32.999Z</time></trkpt><trkpt lat="45.59619050866021" lon="8.13852328826237"><ele>393.0</ele><time>2026-05-02T14:33:34.999Z</time></trkpt><trkpt lat="45.59609486843727" lon="8.13854591092822"><ele>393.0</ele><time>2026-05-02T14:33:36.999Z</time></trkpt><trkpt lat="45.59602739221851" lon="8.138578374966263"><ele>393.0</ele><time>2026-05-02T14:33:38.999Z</time></trkpt><trkpt lat="45.5959789514397" lon="8.138642475713564"><ele>393.0</ele><time>2026-05-02T14:33:42.999Z</time></trkpt><trkpt lat="45.59600317801308" lon="8.138744991032379"><ele>393.0</ele><time>2026-05-02T14:33:46.999Z</time></trkpt><trkpt lat="45.5959900372252" lon="8.1388502841303"><ele>393.0</ele><time>2026-05-02T14:33:48.999Z</time></trkpt><trkpt lat="45.59594658477938" lon="8.138966825779544"><ele>393.0</ele><time>2026-05-02T14:33:50.999Z</time></trkpt><trkpt lat="45.59586674152379" lon="8.139040806727625"><ele>393.1666666666667</ele><time>2026-05-02T14:33:52.999Z</time></trkpt><trkpt lat="45.595756087764826" lon="8.13908639735502"><ele>393.33333333333337</ele><time>2026-05-02T14:33:54.999Z</time></trkpt><trkpt lat="45.59569417134106" lon="8.139106150187759"><ele>393.5</ele><time>2026-05-02T14:33:55.999Z</time></trkpt><trkpt lat="45.59562576663194" lon="8.13912596375084"><ele>393.6666666666667</ele><time>2026-05-02T14:33:57Z</time></trkpt><trkpt lat="45.595564367179186" lon="8.139160237733176"><ele>393.83333333333337</ele><time>2026-05-02T14:33:58Z</time></trkpt><trkpt lat="45.59550441405756" lon="8.139201597722865"><ele>394.0</ele><time>2026-05-02T14:33:59Z</time></trkpt><trkpt lat="45.595416050636906" lon="8.139284012563843"><ele>392.75</ele><time>2026-05-02T14:34:01Z</time></trkpt><trkpt lat="45.59518635158452" lon="8.139144275668501"><ele>391.5</ele><time>2026-05-02T14:34:03Z</time></trkpt><trkpt lat="45.59512841573967" lon="8.13922454492462"><ele>390.25</ele><time>2026-05-02T14:34:05Z</time></trkpt><trkpt lat="45.595072117793976" lon="8.13930538438939"><ele>389.0</ele><time>2026-05-02T14:34:07Z</time></trkpt><trkpt lat="45.59500925793745" lon="8.13940409574061"><ele>388.99999999999994</ele><time>2026-05-02T14:34:09Z</time></trkpt><trkpt lat="45.594959104039305" lon="8.139493386185968"><ele>389.0</ele><time>2026-05-02T14:34:11Z</time></trkpt><trkpt lat="45.59491179882206" lon="8.139569573357115"><ele>389.0</ele><time>2026-05-02T14:34:13Z</time></trkpt><trkpt lat="45.5948409765244" lon="8.139653267302629"><ele>389.0</ele><time>2026-05-02T14:34:15Z</time></trkpt><trkpt lat="45.59479774665669" lon="8.139726024372056"><ele>388.99999999999994</ele><time>2026-05-02T14:34:16Z</time></trkpt><trkpt lat="45.59475438766468" lon="8.139824076158767"><ele>389.0</ele><time>2026-05-02T14:34:18Z</time></trkpt><trkpt lat="45.5947087696213" lon="8.139944662030656"><ele>389.3333333333333</ele><time>2026-05-02T14:34:20Z</time></trkpt><trkpt lat="45.59467652684822" lon="8.140066004949881"><ele>389.66666666666663</ele><time>2026-05-02T14:34:22Z</time></trkpt><trkpt lat="45.59498621560973" lon="8.140299793896407"><ele>390.0</ele><time>2026-05-02T14:34:24Z</time></trkpt><trkpt lat="45.59497500096184" lon="8.140389815735203"><ele>390.0</ele><time>2026-05-02T14:34:26Z</time></trkpt><trkpt lat="45.59494595645941" lon="8.140481673891594"><ele>390.0</ele><time>2026-05-02T14:34:28Z</time></trkpt><trkpt lat="45.59489946028288" lon="8.140556478042486"><ele>390.0</ele><time>2026-05-02T14:34:30Z</time></trkpt><trkpt lat="45.59482737946509" lon="8.140606184065364"><ele>390.0</ele><time>2026-05-02T14:34:32Z</time></trkpt><trkpt lat="45.594765128022466" lon="8.140682281503505"><ele>390.0</ele><time>2026-05-02T14:34:35Z</time></trkpt><trkpt lat="45.5947593498045" lon="8.140800690244625"><ele>390.0</ele><time>2026-05-02T14:34:57.999Z</time></trkpt><trkpt lat="45.59473710985527" lon="8.140951776666551"><ele>389.5</ele><time>2026-05-02T14:34:59.999Z</time></trkpt><trkpt lat="45.5947298072506" lon="8.141106350404499"><ele>389.0</ele><time>2026-05-02T14:35:01.999Z</time></trkpt><trkpt lat="45.5947236351011" lon="8.141210420725947"><ele>388.5</ele><time>2026-05-02T14:35:02.999Z</time></trkpt><trkpt lat="45.59472990687164" lon="8.141311690053119"><ele>388.0</ele><time>2026-05-02T14:35:03.999Z</time></trkpt><trkpt lat="45.59469798912328" lon="8.141459931676081"><ele>387.5</ele><time>2026-05-02T14:35:05.999Z</time></trkpt><trkpt lat="45.59467319578367" lon="8.141552040869584"><ele>387.0</ele><time>2026-05-02T14:35:06.999Z</time></trkpt><trkpt lat="45.59466285666685" lon="8.141674852767938"><ele>386.6666666666667</ele><time>2026-05-02T14:35:07.999Z</time></trkpt><trkpt lat="45.59465214492201" lon="8.14179892406556"><ele>386.33333333333337</ele><time>2026-05-02T14:35:08.999Z</time></trkpt><trkpt lat="45.594641436143945" lon="8.141891806208479"><ele>386.0</ele><time>2026-05-02T14:35:09.999Z</time></trkpt><trkpt lat="45.594618967281875" lon="8.1419784223047"><ele>385.6666666666667</ele><time>2026-05-02T14:35:10.999Z</time></trkpt><trkpt lat="45.59458327988344" lon="8.142081333661924"><ele>385.33333333333337</ele><time>2026-05-02T14:35:11.999Z</time></trkpt><trkpt lat="45.594549334256435" lon="8.142212530266935"><ele>385.0</ele><time>2026-05-02T14:35:13.999Z</time></trkpt><trkpt lat="45.59447109879184" lon="8.14231504758863"><ele>384.50000000000006</ele><time>2026-05-02T14:35:15.999Z</time></trkpt><trkpt lat="45.59443527992817" lon="8.142390170705234"><ele>384.0</ele><time>2026-05-02T14:35:16.999Z</time></trkpt><trkpt lat="45.59442277079956" lon="8.142538393224829"><ele>383.5</ele><time>2026-05-02T14:35:18.999Z</time></trkpt><trkpt lat="45.594429829718706" lon="8.142670660291758"><ele>383.0</ele><time>2026-05-02T14:35:20.999Z</time></trkpt><trkpt lat="45.59440061641734" lon="8.142814618779695"><ele>382.5</ele><time>2026-05-02T14:35:22.999Z</time></trkpt><trkpt lat="45.59435117311752" lon="8.142895612969198"><ele>382.0</ele><time>2026-05-02T14:35:25.999Z</time></trkpt><trkpt lat="45.59429960716985" lon="8.1429641772167"><ele>382.0</ele><time>2026-05-02T14:35:27.999Z</time></trkpt><trkpt lat="45.59422254817287" lon="8.143011307644759"><ele>382.0</ele><time>2026-05-02T14:35:30.999Z</time></trkpt><trkpt lat="45.59414973427699" lon="8.142992860654461"><ele>382.0</ele><time>2026-05-02T14:35:33.999Z</time></trkpt><trkpt lat="45.594067300481264" lon="8.142976404827314"><ele>382.0</ele><time>2026-05-02T14:35:36.999Z</time></trkpt><trkpt lat="45.59396444899177" lon="8.142940094473484"><ele>382.0</ele><time>2026-05-02T14:35:39.999Z</time></trkpt><trkpt lat="45.59386296734794" lon="8.142884965968783"><ele>382.0</ele><time>2026-05-02T14:35:41.999Z</time></trkpt><trkpt lat="45.59377073393918" lon="8.142830386833078"><ele>382.0</ele><time>2026-05-02T14:35:43.999Z</time></trkpt><trkpt lat="45.59369813809843" lon="8.142818463932452"><ele>382.0</ele><time>2026-05-02T14:35:45.999Z</time></trkpt><trkpt lat="45.59359815028544" lon="8.142815109698995"><ele>382.0</ele><time>2026-05-02T14:35:48.999Z</time></trkpt><trkpt lat="45.593517360246906" lon="8.14284713611276"><ele>382.0</ele><time>2026-05-02T14:35:50.999Z</time></trkpt><trkpt lat="45.59345019179426" lon="8.142871737338696"><ele>382.0</ele><time>2026-05-02T14:35:53.999Z</time></trkpt><trkpt lat="45.59337394028517" lon="8.142910508413621"><ele>380.0</ele><time>2026-05-02T14:35:55.999Z</time></trkpt><trkpt lat="45.59332683410197" lon="8.142972381423398"><ele>378.0</ele><time>2026-05-02T14:35:58.999Z</time></trkpt><trkpt lat="45.593268241575764" lon="8.143057315191758"><ele>376.0</ele><time>2026-05-02T14:36:29.999Z</time></trkpt><trkpt lat="45.59330283778056" lon="8.142973589894684"><ele>374.0</ele><time>2026-05-02T14:37:26.999Z</time></trkpt><trkpt lat="45.59336463068192" lon="8.142903131651414"><ele>372.0</ele><time>2026-05-02T14:37:30.999Z</time></trkpt><trkpt lat="45.5934248798898" lon="8.142829635195417"><ele>370.0</ele><time>2026-05-02T14:37:33.999Z</time></trkpt><trkpt lat="45.5935091425713" lon="8.142781931122867"><ele>370.0</ele><time>2026-05-02T14:37:36.999Z</time></trkpt><trkpt lat="45.59358568752956" lon="8.14275083706029"><ele>370.0</ele><time>2026-05-02T14:37:39.999Z</time></trkpt><trkpt lat="45.59365396991323" lon="8.142774723774597"><ele>370.0</ele><time>2026-05-02T14:37:46.999Z</time></trkpt><trkpt lat="45.59373770948222" lon="8.142798811839734"><ele>370.0</ele><time>2026-05-02T14:37:48.999Z</time></trkpt><trkpt lat="45.59380510362814" lon="8.142805474230341"><ele>370.0</ele><time>2026-05-02T14:37:50.999Z</time></trkpt><trkpt lat="45.593860471600365" lon="8.142866361834285"><ele>370.0</ele><time>2026-05-02T14:37:52.999Z</time></trkpt><trkpt lat="45.59396041800531" lon="8.142907215688927"><ele>372.0</ele><time>2026-05-02T14:37:55.999Z</time></trkpt><trkpt lat="45.594029155912025" lon="8.142923797698527"><ele>374.0</ele><time>2026-05-02T14:37:56.999Z</time></trkpt><trkpt lat="45.594095224780254" lon="8.142925533031443"><ele>376.0</ele><time>2026-05-02T14:37:58.999Z</time></trkpt><trkpt lat="45.594183032123226" lon="8.142907829976421"><ele>378.0</ele><time>2026-05-02T14:38:00.999Z</time></trkpt><trkpt lat="45.59426289200392" lon="8.142811870129094"><ele>380.0</ele><time>2026-05-02T14:38:03.999Z</time></trkpt><trkpt lat="45.594296839470076" lon="8.14272551175641"><ele>382.0</ele><time>2026-05-02T14:38:06.999Z</time></trkpt><trkpt lat="45.59429956445517" lon="8.142613015949715"><ele>382.0</ele><time>2026-05-02T14:38:10Z</time></trkpt><trkpt lat="45.59432709738225" lon="8.142464540828904"><ele>382.0</ele><time>2026-05-02T14:38:12Z</time></trkpt><trkpt lat="45.59435646937857" lon="8.142370601147782"><ele>382.0</ele><time>2026-05-02T14:38:13Z</time></trkpt><trkpt lat="45.59442385913489" lon="8.142203384290871"><ele>382.0</ele><time>2026-05-02T14:38:15Z</time></trkpt><trkpt lat="45.59447616930319" lon="8.142089151653298"><ele>382.0</ele><time>2026-05-02T14:38:17Z</time></trkpt><trkpt lat="45.5945647501772" lon="8.141769006818881"><ele>382.6</ele><time>2026-05-02T14:38:20Z</time></trkpt><trkpt lat="45.594637829793186" lon="8.141807279643047"><ele>383.20000000000005</ele><time>2026-05-02T14:38:29Z</time></trkpt><trkpt lat="45.59470256547443" lon="8.141847543258335"><ele>383.8</ele><time>2026-05-02T14:39:02.999Z</time></trkpt><trkpt lat="45.594912989916594" lon="8.141900266684818"><ele>384.4</ele><time>2026-05-02T14:39:11.999Z</time></trkpt><trkpt lat="45.594919174933025" lon="8.142009166215448"><ele>385.0</ele><time>2026-05-02T14:39:14.999Z</time></trkpt><trkpt lat="45.59486436576902" lon="8.142170954427096"><ele>385.00000000000006</ele><time>2026-05-02T14:39:16.999Z</time></trkpt><trkpt lat="45.59484738363517" lon="8.142272740613597"><ele>385.0</ele><time>2026-05-02T14:39:17.999Z</time></trkpt><trkpt lat="45.59483445381858" lon="8.142381316943007"><ele>385.0</ele><time>2026-05-02T14:39:19.999Z</time></trkpt><trkpt lat="45.5949017270397" lon="8.14230052043107"><ele>385.0</ele><time>2026-05-02T14:39:22.999Z</time></trkpt><trkpt lat="45.59501740236118" lon="8.142393282880235"><ele>385.00000000000006</ele><time>2026-05-02T14:39:27.999Z</time></trkpt><trkpt lat="45.594987790082186" lon="8.14249066697662"><ele>385.0</ele><time>2026-05-02T14:39:28.999Z</time></trkpt><trkpt lat="45.595008014743556" lon="8.14260172146448"><ele>382.25</ele><time>2026-05-02T14:39:30.999Z</time></trkpt><trkpt lat="45.595189369027906" lon="8.142497597524672"><ele>379.5</ele><time>2026-05-02T14:39:35.999Z</time></trkpt><trkpt lat="45.59527516578677" lon="8.142445933466565"><ele>376.75</ele><time>2026-05-02T14:39:36.999Z</time></trkpt><trkpt lat="45.59535517607275" lon="8.14241236422231"><ele>374.0</ele><time>2026-05-02T14:39:37.999Z</time></trkpt><trkpt lat="45.59544457518935" lon="8.142376020479622"><ele>372.79999999999995</ele><time>2026-05-02T14:39:38.999Z</time></trkpt><trkpt lat="45.595512787356434" lon="8.14232448087475"><ele>371.59999999999997</ele><time>2026-05-02T14:39:40.999Z</time></trkpt><trkpt lat="45.59552904845565" lon="8.142172907483761"><ele>370.4</ele><time>2026-05-02T14:39:42.999Z</time></trkpt><trkpt lat="45.59570449054931" lon="8.142202927939467"><ele>369.2</ele><time>2026-05-02T14:39:47.999Z</time></trkpt><trkpt lat="45.59577332547652" lon="8.142215705537144"><ele>368.0</ele><time>2026-05-02T14:39:49.999Z</time></trkpt><trkpt lat="45.59584884045315" lon="8.142210509942949"><ele>368.0</ele><time>2026-05-02T14:39:51.999Z</time></trkpt><trkpt lat="45.595871746212815" lon="8.142311053788696"><ele>368.0</ele><time>2026-05-02T14:39:56.999Z</time></trkpt><trkpt lat="45.595852246435186" lon="8.142440375909045"><ele>368.0</ele><time>2026-05-02T14:40:26Z</time></trkpt><trkpt lat="45.595788998974854" lon="8.142437839561829"><ele>368.0</ele><time>2026-05-02T14:40:45Z</time></trkpt><trkpt lat="45.5957521709867" lon="8.142538048767907"><ele>368.0</ele><time>2026-05-02T14:42:05.999Z</time></trkpt><trkpt lat="45.59571780370259" lon="8.142619077824572"><ele>368.0</ele><time>2026-05-02T14:42:07.999Z</time></trkpt><trkpt lat="45.595710486961515" lon="8.142719913081686"><ele>368.0</ele><time>2026-05-02T14:42:09.999Z</time></trkpt><trkpt lat="45.59564979032143" lon="8.14279923917266"><ele>367.4</ele><time>2026-05-02T14:42:11.999Z</time></trkpt><trkpt lat="45.59558069099522" lon="8.142909506584886"><ele>366.79999999999995</ele><time>2026-05-02T14:42:13.999Z</time></trkpt><trkpt lat="45.59552856023448" lon="8.143032482068769"><ele>366.2</ele><time>2026-05-02T14:42:16.999Z</time></trkpt><trkpt lat="45.595473558820295" lon="8.143134769145549"><ele>365.6</ele><time>2026-05-02T14:42:18.999Z</time></trkpt><trkpt lat="45.595395413870506" lon="8.143193749803979"><ele>365.0</ele><time>2026-05-02T14:42:21Z</time></trkpt><trkpt lat="45.59533418251744" lon="8.143263090096424"><ele>364.33333333333337</ele><time>2026-05-02T14:42:24Z</time></trkpt><trkpt lat="45.59526322014366" lon="8.14330589338491"><ele>363.6666666666667</ele><time>2026-05-02T14:42:26Z</time></trkpt><trkpt lat="45.59519937606999" lon="8.143350319396914"><ele>363.0</ele><time>2026-05-02T14:42:28Z</time></trkpt><trkpt lat="45.59514074539215" lon="8.143410578108746"><ele>362.3333333333333</ele><time>2026-05-02T14:42:30Z</time></trkpt><trkpt lat="45.59508304635802" lon="8.143463598089038"><ele>361.66666666666663</ele><time>2026-05-02T14:42:32Z</time></trkpt><trkpt lat="45.595024220672606" lon="8.143547934849233"><ele>361.0</ele><time>2026-05-02T14:42:34Z</time></trkpt><trkpt lat="45.594971437715195" lon="8.14367482951002"><ele>361.0</ele><time>2026-05-02T14:42:36Z</time></trkpt><trkpt lat="45.59491877760057" lon="8.143781126725415"><ele>361.0</ele><time>2026-05-02T14:42:38Z</time></trkpt><trkpt lat="45.5948858498776" lon="8.14387318917622"><ele>361.0</ele><time>2026-05-02T14:42:40Z</time></trkpt><trkpt lat="45.594855208331396" lon="8.143964640724512"><ele>361.0</ele><time>2026-05-02T14:42:42Z</time></trkpt><trkpt lat="45.594812853129504" lon="8.144052914954115"><ele>361.0</ele><time>2026-05-02T14:42:45Z</time></trkpt><trkpt lat="45.5947824855032" lon="8.144138245844525"><ele>361.0</ele><time>2026-05-02T14:42:49Z</time></trkpt><trkpt lat="45.5948225825438" lon="8.144245030456204"><ele>359.5714285714286</ele><time>2026-05-02T14:42:55.999Z</time></trkpt><trkpt lat="45.59485950748457" lon="8.144331601978783"><ele>358.1428571428571</ele><time>2026-05-02T14:42:58.999Z</time></trkpt><trkpt lat="45.59489862480926" lon="8.144407636076567"><ele>356.7142857142857</ele><time>2026-05-02T14:43:01.999Z</time></trkpt><trkpt lat="45.59495122833933" lon="8.144490335436284"><ele>355.28571428571433</ele><time>2026-05-02T14:43:04.999Z</time></trkpt><trkpt lat="45.59500563778863" lon="8.144561281363345"><ele>353.8571428571429</ele><time>2026-05-02T14:43:33.999Z</time></trkpt><trkpt lat="45.5949231039369" lon="8.144577865769335"><ele>352.42857142857144</ele><time>2026-05-02T14:43:50.999Z</time></trkpt><trkpt lat="45.594877214637805" lon="8.14464835077341"><ele>351.0</ele><time>2026-05-02T14:43:52.999Z</time></trkpt><trkpt lat="45.594800042482014" lon="8.144682357886193"><ele>351.0</ele><time>2026-05-02T14:43:54.999Z</time></trkpt><trkpt lat="45.59471991235723" lon="8.144724669769548"><ele>351.0</ele><time>2026-05-02T14:43:58.999Z</time></trkpt><trkpt lat="45.59461811870591" lon="8.144739491904536"><ele>351.0</ele><time>2026-05-02T14:44:01.999Z</time></trkpt><trkpt lat="45.594554618349186" lon="8.144707686131362"><ele>351.0</ele><time>2026-05-02T14:44:02.999Z</time></trkpt><trkpt lat="45.59448978947502" lon="8.144681676011563"><ele>351.0</ele><time>2026-05-02T14:44:03.999Z</time></trkpt><trkpt lat="45.59437266930578" lon="8.144675811506765"><ele>351.0</ele><time>2026-05-02T14:44:05.999Z</time></trkpt><trkpt lat="45.594311533193284" lon="8.144729105155042"><ele>352.20000000000005</ele><time>2026-05-02T14:44:07.999Z</time></trkpt><trkpt lat="45.59424019820777" lon="8.144799704695933"><ele>353.40000000000003</ele><time>2026-05-02T14:44:14.999Z</time></trkpt><trkpt lat="45.59414017175041" lon="8.14480211937984"><ele>354.6</ele><time>2026-05-02T14:44:16.999Z</time></trkpt><trkpt lat="45.594046949534274" lon="8.144785611849406"><ele>355.8</ele><time>2026-05-02T14:44:17.999Z</time></trkpt><trkpt lat="45.59393598399249" lon="8.144751489411941"><ele>357.0</ele><time>2026-05-02T14:44:18.999Z</time></trkpt><trkpt lat="45.593832756588405" lon="8.144733971712231"><ele>357.0</ele><time>2026-05-02T14:44:19.999Z</time></trkpt><trkpt lat="45.59376321126395" lon="8.144737332959707"><ele>357.0</ele><time>2026-05-02T14:44:20.999Z</time></trkpt><trkpt lat="45.593709832902356" lon="8.144833616289189"><ele>357.0</ele><time>2026-05-02T14:44:23.999Z</time></trkpt><trkpt lat="45.59363595665044" lon="8.144844450139386"><ele>357.0</ele><time>2026-05-02T14:44:24.999Z</time></trkpt><trkpt lat="45.59357038573231" lon="8.144861813352932"><ele>357.0</ele><time>2026-05-02T14:44:25.999Z</time></trkpt><trkpt lat="45.593467613911734" lon="8.144923615493314"><ele>357.0</ele><time>2026-05-02T14:44:27.999Z</time></trkpt><trkpt lat="45.593397307511104" lon="8.145046334536739"><ele>357.6666666666667</ele><time>2026-05-02T14:44:29.999Z</time></trkpt><trkpt lat="45.59335935780665" lon="8.145126863250661"><ele>358.3333333333333</ele><time>2026-05-02T14:44:30.999Z</time></trkpt><trkpt lat="45.593332046944475" lon="8.145243421860254"><ele>359.0</ele><time>2026-05-02T14:44:31.999Z</time></trkpt><trkpt lat="45.593312261693136" lon="8.145339028315478"><ele>359.66666666666663</ele><time>2026-05-02T14:44:32.999Z</time></trkpt><trkpt lat="45.5933212353447" lon="8.145503721516414"><ele>360.3333333333333</ele><time>2026-05-02T14:44:34.999Z</time></trkpt><trkpt lat="45.593323889158356" lon="8.14560406347305"><ele>361.0</ele><time>2026-05-02T14:44:35.999Z</time></trkpt><trkpt lat="45.59330221474576" lon="8.145794040670486"><ele>361.0</ele><time>2026-05-02T14:44:37.999Z</time></trkpt><trkpt lat="45.5932650219215" lon="8.145957907016797"><ele>361.0</ele><time>2026-05-02T14:44:39.999Z</time></trkpt><trkpt lat="45.59322794677323" lon="8.146032020351608"><ele>361.0</ele><time>2026-05-02T14:44:40.999Z</time></trkpt><trkpt lat="45.59317150630502" lon="8.146081415603142"><ele>361.0</ele><time>2026-05-02T14:44:41.999Z</time></trkpt><trkpt lat="45.59312622877862" lon="8.146144540263615"><ele>361.0</ele><time>2026-05-02T14:44:42.999Z</time></trkpt><trkpt lat="45.59304349429582" lon="8.146192810455592"><ele>361.0</ele><time>2026-05-02T14:44:43.999Z</time></trkpt><trkpt lat="45.59298228394904" lon="8.14627479065244"><ele>361.0</ele><time>2026-05-02T14:44:44.999Z</time></trkpt><trkpt lat="45.59292600681777" lon="8.14634460739177"><ele>361.0</ele><time>2026-05-02T14:44:45.999Z</time></trkpt><trkpt lat="45.59286964448434" lon="8.146395325498576"><ele>361.0</ele><time>2026-05-02T14:44:46.999Z</time></trkpt><trkpt lat="45.592808453718966" lon="8.14646993699496"><ele>361.0</ele><time>2026-05-02T14:44:47.999Z</time></trkpt><trkpt lat="45.59274472515288" lon="8.146561967417568"><ele>361.0</ele><time>2026-05-02T14:44:48.999Z</time></trkpt><trkpt lat="45.592683771136066" lon="8.146634711973046"><ele>361.0</ele><time>2026-05-02T14:44:49.999Z</time></trkpt><trkpt lat="45.59261528231111" lon="8.146696371028998"><ele>362.0</ele><time>2026-05-02T14:44:50.999Z</time></trkpt><trkpt lat="45.59255279832274" lon="8.14673923712922"><ele>363.0</ele><time>2026-05-02T14:44:51.999Z</time></trkpt><trkpt lat="45.59250173959377" lon="8.146796123883751"><ele>364.0</ele><time>2026-05-02T14:44:55.999Z</time></trkpt><trkpt lat="45.59246306133849" lon="8.146872867742792"><ele>365.0</ele><time>2026-05-02T14:45:01.999Z</time></trkpt><trkpt lat="45.59241488209271" lon="8.146957606080683"><ele>366.0</ele><time>2026-05-02T14:45:08.999Z</time></trkpt><trkpt lat="45.59244150178149" lon="8.14707068005402"><ele>367.0</ele><time>2026-05-02T14:45:13.999Z</time></trkpt><trkpt lat="45.59246989146877" lon="8.14716208996359"><ele>368.0</ele><time>2026-05-02T14:45:26.999Z</time></trkpt><trkpt lat="45.5924539183989" lon="8.14726085192959"><ele>368.0</ele><time>2026-05-02T14:45:30.999Z</time></trkpt><trkpt lat="45.59240985049799" lon="8.147330063448297"><ele>368.0</ele><time>2026-05-02T14:45:51.999Z</time></trkpt><trkpt lat="45.59242808814067" lon="8.147437307129604"><ele>368.0</ele><time>2026-05-02T14:45:54.999Z</time></trkpt><trkpt lat="45.592436051776104" lon="8.14753010829666"><ele>368.0</ele><time>2026-05-02T14:45:56.999Z</time></trkpt><trkpt lat="45.59242773354422" lon="8.147649889691706"><ele>368.0</ele><time>2026-05-02T14:45:59.999Z</time></trkpt><trkpt lat="45.59246809050169" lon="8.147735786392087"><ele>368.0</ele><time>2026-05-02T14:46:02.999Z</time></trkpt><trkpt lat="45.592465154161964" lon="8.147856490125854"><ele>368.0</ele><time>2026-05-02T14:46:06.999Z</time></trkpt><trkpt lat="45.592452434822185" lon="8.14795524166384"><ele>368.1666666666667</ele><time>2026-05-02T14:46:10.999Z</time></trkpt><trkpt lat="45.59242191991643" lon="8.14805049739036"><ele>368.33333333333337</ele><time>2026-05-02T14:46:20.999Z</time></trkpt><trkpt lat="45.59248786238357" lon="8.148060355258846"><ele>368.5</ele><time>2026-05-02T14:46:47.999Z</time></trkpt><trkpt lat="45.59242713198802" lon="8.148116269987764"><ele>368.6666666666667</ele><time>2026-05-02T14:46:54.999Z</time></trkpt><trkpt lat="45.5923620656432" lon="8.148172307838168"><ele>368.8333333333333</ele><time>2026-05-02T14:46:56.999Z</time></trkpt><trkpt lat="45.592288060466096" lon="8.148204662080593"><ele>369.0</ele><time>2026-05-02T14:46:58.999Z</time></trkpt><trkpt lat="45.59220640031166" lon="8.148248418024815"><ele>369.0</ele><time>2026-05-02T14:47:00.999Z</time></trkpt><trkpt lat="45.59215228237978" lon="8.148308574089288"><ele>369.0</ele><time>2026-05-02T14:47:04.999Z</time></trkpt><trkpt lat="45.59207732131225" lon="8.148378182326251"><ele>369.0</ele><time>2026-05-02T14:47:27.999Z</time></trkpt><trkpt lat="45.59197435252442" lon="8.14844094039605"><ele>369.0</ele><time>2026-05-02T14:47:29.999Z</time></trkpt><trkpt lat="45.59187794214753" lon="8.148483864140761"><ele>369.0</ele><time>2026-05-02T14:47:30.999Z</time></trkpt><trkpt lat="45.59181721400476" lon="8.148511643042994"><ele>369.0</ele><time>2026-05-02T14:47:31.999Z</time></trkpt><trkpt lat="45.59175963496645" lon="8.148552130245466"><ele>366.79999999999995</ele><time>2026-05-02T14:47:32.999Z</time></trkpt><trkpt lat="45.59165048147957" lon="8.148662630731387"><ele>364.59999999999997</ele><time>2026-05-02T14:47:34.999Z</time></trkpt><trkpt lat="45.5915697766952" lon="8.148748901046533"><ele>362.4</ele><time>2026-05-02T14:47:35.999Z</time></trkpt><trkpt lat="45.59148599920588" lon="8.148790537652152"><ele>360.2</ele><time>2026-05-02T14:47:36.999Z</time></trkpt><trkpt lat="45.59137505837992" lon="8.148855270014321"><ele>358.0</ele><time>2026-05-02T14:47:37.999Z</time></trkpt><trkpt lat="45.591296801855584" lon="8.148905806644805"><ele>358.0</ele><time>2026-05-02T14:47:38.999Z</time></trkpt><trkpt lat="45.59121606603964" lon="8.148963993632762"><ele>358.0</ele><time>2026-05-02T14:47:39.999Z</time></trkpt><trkpt lat="45.5911633226491" lon="8.149018385630054"><ele>358.0</ele><time>2026-05-02T14:47:40.999Z</time></trkpt><trkpt lat="45.5910828241217" lon="8.149186704679279"><ele>358.0</ele><time>2026-05-02T14:47:42.999Z</time></trkpt><trkpt lat="45.5910197824208" lon="8.149272445463188"><ele>358.0</ele><time>2026-05-02T14:47:43.999Z</time></trkpt><trkpt lat="45.590958543731624" lon="8.149360985972857"><ele>356.0</ele><time>2026-05-02T14:47:44.999Z</time></trkpt><trkpt lat="45.59086796494938" lon="8.149370261503229"><ele>354.0</ele><time>2026-05-02T14:47:47.999Z</time></trkpt><trkpt lat="45.59080320895644" lon="8.149366113398685"><ele>352.0</ele><time>2026-05-02T14:47:48.999Z</time></trkpt><trkpt lat="45.590692337683535" lon="8.149462872865884"><ele>350.0</ele><time>2026-05-02T14:47:50.999Z</time></trkpt><trkpt lat="45.590609381524374" lon="8.149516908304232"><ele>348.0</ele><time>2026-05-02T14:47:51.999Z</time></trkpt><trkpt lat="45.590510223278095" lon="8.14961829931606"><ele>348.0</ele><time>2026-05-02T14:47:52.999Z</time></trkpt><trkpt lat="45.59042576623348" lon="8.149713000921455"><ele>348.0</ele><time>2026-05-02T14:47:53.999Z</time></trkpt><trkpt lat="45.59035209023453" lon="8.149767353040339"><ele>348.0</ele><time>2026-05-02T14:47:54.999Z</time></trkpt><trkpt lat="45.590262609499355" lon="8.14981708329937"><ele>348.0</ele><time>2026-05-02T14:47:55.999Z</time></trkpt><trkpt lat="45.5901620483499" lon="8.149881001968767"><ele>348.0</ele><time>2026-05-02T14:47:56.999Z</time></trkpt><trkpt lat="45.59007402751201" lon="8.149981209386237"><ele>346.2</ele><time>2026-05-02T14:47:57.999Z</time></trkpt><trkpt lat="45.590000242562496" lon="8.150071555425447"><ele>344.4</ele><time>2026-05-02T14:47:58.999Z</time></trkpt><trkpt lat="45.589931986427096" lon="8.150150914885076"><ele>342.59999999999997</ele><time>2026-05-02T14:47:59.999Z</time></trkpt><trkpt lat="45.58985245157641" lon="8.150223066353167"><ele>340.79999999999995</ele><time>2026-05-02T14:48:00.999Z</time></trkpt><trkpt lat="45.58979328879159" lon="8.150329771487094"><ele>339.0</ele><time>2026-05-02T14:48:01.999Z</time></trkpt><trkpt lat="45.58972853365776" lon="8.150406151845281"><ele>339.0</ele><time>2026-05-02T14:48:02.999Z</time></trkpt><trkpt lat="45.589689543210454" lon="8.150486502164613"><ele>339.0</ele><time>2026-05-02T14:48:03.999Z</time></trkpt><trkpt lat="45.589668115797586" lon="8.150571499286894"><ele>339.0</ele><time>2026-05-02T14:48:04.999Z</time></trkpt><trkpt lat="45.589593926197395" lon="8.150704197329944"><ele>339.0</ele><time>2026-05-02T14:48:06.999Z</time></trkpt><trkpt lat="45.589543259594485" lon="8.150770897090629"><ele>339.0</ele><time>2026-05-02T14:48:07.999Z</time></trkpt><trkpt lat="45.589481528535266" lon="8.150855617585908"><ele>339.0</ele><time>2026-05-02T14:48:08.999Z</time></trkpt><trkpt lat="45.58942601844263" lon="8.150934359736729"><ele>340.6</ele><time>2026-05-02T14:48:09.999Z</time></trkpt><trkpt lat="45.58937464874637" lon="8.150995176095865"><ele>342.2</ele><time>2026-05-02T14:48:10.999Z</time></trkpt><trkpt lat="45.58932148460935" lon="8.151057505830254"><ele>343.8</ele><time>2026-05-02T14:48:11.999Z</time></trkpt><trkpt lat="45.5892585339492" lon="8.151179118787766"><ele>345.40000000000003</ele><time>2026-05-02T14:48:13.999Z</time></trkpt><trkpt lat="45.58923257577998" lon="8.1513042557402"><ele>347.0</ele><time>2026-05-02T14:48:15.999Z</time></trkpt><trkpt lat="45.589184085285375" lon="8.151459494195667"><ele>346.6666666666667</ele><time>2026-05-02T14:48:17.999Z</time></trkpt><trkpt lat="45.58916167053427" lon="8.15154563178302"><ele>346.33333333333337</ele><time>2026-05-02T14:48:18.999Z</time></trkpt><trkpt lat="45.589134072677346" lon="8.151642170958725"><ele>346.0</ele><time>2026-05-02T14:48:19.999Z</time></trkpt><trkpt lat="45.58912093032238" lon="8.151812047158758"><ele>345.6666666666667</ele><time>2026-05-02T14:48:21.999Z</time></trkpt><trkpt lat="45.58910847438425" lon="8.151901822525522"><ele>345.3333333333333</ele><time>2026-05-02T14:48:22.999Z</time></trkpt><trkpt lat="45.58909001491203" lon="8.151995177714245"><ele>345.0</ele><time>2026-05-02T14:48:23.999Z</time></trkpt><trkpt lat="45.58907394489998" lon="8.152102077189832"><ele>345.0</ele><time>2026-05-02T14:48:24.999Z</time></trkpt><trkpt lat="45.589059809084326" lon="8.15219808931128"><ele>345.0</ele><time>2026-05-02T14:48:25.999Z</time></trkpt><trkpt lat="45.58904581520701" lon="8.152291384055152"><ele>345.0</ele><time>2026-05-02T14:48:26.999Z</time></trkpt><trkpt lat="45.589019892857806" lon="8.152378754614082"><ele>345.0</ele><time>2026-05-02T14:48:27.999Z</time></trkpt><trkpt lat="45.5890013027801" lon="8.152467193978373"><ele>345.0</ele><time>2026-05-02T14:48:28.999Z</time></trkpt><trkpt lat="45.58894738579868" lon="8.152585772919345"><ele>345.0</ele><time>2026-05-02T14:48:30.999Z</time></trkpt><trkpt lat="45.58891632851527" lon="8.152669860463837"><ele>345.0</ele><time>2026-05-02T14:48:31.999Z</time></trkpt><trkpt lat="45.58888334282568" lon="8.15282736695398"><ele>343.4</ele><time>2026-05-02T14:48:33.999Z</time></trkpt><trkpt lat="45.5887953767238" lon="8.1529380564698"><ele>341.8</ele><time>2026-05-02T14:48:35.999Z</time></trkpt><trkpt lat="45.58872730001853" lon="8.152986102192843"><ele>340.20000000000005</ele><time>2026-05-02T14:48:36.999Z</time></trkpt><trkpt lat="45.588659546194265" lon="8.153022793608812"><ele>338.6</ele><time>2026-05-02T14:48:37.999Z</time></trkpt><trkpt lat="45.58858833706122" lon="8.153065649685383"><ele>337.0</ele><time>2026-05-02T14:48:38.999Z</time></trkpt><trkpt lat="45.588495958200575" lon="8.153164503637871"><ele>336.0</ele><time>2026-05-02T14:48:40.999Z</time></trkpt><trkpt lat="45.58839440100348" lon="8.153149057692929"><ele>335.0</ele><time>2026-05-02T14:48:42.999Z</time></trkpt><trkpt lat="45.58833318104795" lon="8.153126324247209"><ele>334.0</ele><time>2026-05-02T14:48:43.999Z</time></trkpt><trkpt lat="45.588269063859876" lon="8.153124047959091"><ele>333.0</ele><time>2026-05-02T14:48:44.999Z</time></trkpt><trkpt lat="45.588194721242935" lon="8.153191172481579"><ele>332.0</ele><time>2026-05-02T14:48:46.999Z</time></trkpt><trkpt lat="45.58806063057595" lon="8.153164737368487"><ele>331.1666666666667</ele><time>2026-05-02T14:48:47.999Z</time></trkpt><trkpt lat="45.58800964287472" lon="8.153242190844088"><ele>330.33333333333337</ele><time>2026-05-02T14:48:48.999Z</time></trkpt><trkpt lat="45.58796455031287" lon="8.153329169645799"><ele>329.5</ele><time>2026-05-02T14:48:50.999Z</time></trkpt><trkpt lat="45.587928791880216" lon="8.153405883320689"><ele>328.6666666666667</ele><time>2026-05-02T14:49:02.999Z</time></trkpt><trkpt lat="45.58784682686419" lon="8.153449970515696"><ele>327.8333333333333</ele><time>2026-05-02T14:49:04.999Z</time></trkpt><trkpt lat="45.58776053328755" lon="8.153473706668187"><ele>327.0</ele><time>2026-05-02T14:49:06.999Z</time></trkpt><trkpt lat="45.58768262405158" lon="8.153554189565579"><ele>326.40000000000003</ele><time>2026-05-02T14:49:08.999Z</time></trkpt><trkpt lat="45.5876046485276" lon="8.15365614055659"><ele>325.8</ele><time>2026-05-02T14:49:10.999Z</time></trkpt><trkpt lat="45.58750849987511" lon="8.153714266095058"><ele>325.2</ele><time>2026-05-02T14:49:12.999Z</time></trkpt><trkpt lat="45.58744616467189" lon="8.153804022312274"><ele>324.6</ele><time>2026-05-02T14:49:14.999Z</time></trkpt><trkpt lat="45.58738875840123" lon="8.153907116276086"><ele>324.0</ele><time>2026-05-02T14:49:16.999Z</time></trkpt><trkpt lat="45.58737235566678" lon="8.154047071853611"><ele>324.0</ele><time>2026-05-02T14:49:18.999Z</time></trkpt><trkpt lat="45.587380504372234" lon="8.15417451292148"><ele>324.0</ele><time>2026-05-02T14:49:20.999Z</time></trkpt><trkpt lat="45.58734573862087" lon="8.15428659886898"><ele>324.0</ele><time>2026-05-02T14:49:22.999Z</time></trkpt><trkpt lat="45.58728185251171" lon="8.154382950752117"><ele>324.0</ele><time>2026-05-02T14:49:24.999Z</time></trkpt><trkpt lat="45.58722533271335" lon="8.154475101472714"><ele>324.0</ele><time>2026-05-02T14:49:26.999Z</time></trkpt><trkpt lat="45.58717683226991" lon="8.154541546454464"><ele>324.0</ele><time>2026-05-02T14:49:28.999Z</time></trkpt><trkpt lat="45.587102665997726" lon="8.154624403149992"><ele>324.0</ele><time>2026-05-02T14:49:31.999Z</time></trkpt><trkpt lat="45.58703316210646" lon="8.154702839604226"><ele>324.0</ele><time>2026-05-02T14:49:34.999Z</time></trkpt><trkpt lat="45.58695738143322" lon="8.154837353354274"><ele>324.0</ele><time>2026-05-02T14:49:36.999Z</time></trkpt><trkpt lat="45.58689543672892" lon="8.154944773598627"><ele>324.0</ele><time>2026-05-02T14:49:38.999Z</time></trkpt><trkpt lat="45.586830023801475" lon="8.15505984130441"><ele>324.0</ele><time>2026-05-02T14:49:40.999Z</time></trkpt><trkpt lat="45.586752854612975" lon="8.155175358868465"><ele>322.8</ele><time>2026-05-02T14:49:42.999Z</time></trkpt><trkpt lat="45.58666642390811" lon="8.155277510361781"><ele>321.59999999999997</ele><time>2026-05-02T14:49:44.999Z</time></trkpt><trkpt lat="45.586578786597485" lon="8.155354929947462"><ele>320.4</ele><time>2026-05-02T14:49:46.999Z</time></trkpt><trkpt lat="45.586477094569226" lon="8.15544098471196"><ele>319.2</ele><time>2026-05-02T14:49:48.999Z</time></trkpt><trkpt lat="45.58638314810757" lon="8.15553346649688"><ele>318.0</ele><time>2026-05-02T14:49:50.999Z</time></trkpt><trkpt lat="45.586299445947894" lon="8.155625153579289"><ele>318.0</ele><time>2026-05-02T14:49:52.999Z</time></trkpt><trkpt lat="45.58625130872884" lon="8.155683433684855"><ele>318.0</ele><time>2026-05-02T14:49:53.999Z</time></trkpt><trkpt lat="45.586184323618916" lon="8.155788658326829"><ele>318.0</ele><time>2026-05-02T14:49:55.999Z</time></trkpt><trkpt lat="45.58611721320866" lon="8.155909654703919"><ele>318.0</ele><time>2026-05-02T14:49:57.999Z</time></trkpt><trkpt lat="45.58603094389845" lon="8.156035264551937"><ele>318.0</ele><time>2026-05-02T14:49:59.999Z</time></trkpt><trkpt lat="45.58595716165455" lon="8.15614942249622"><ele>316.8</ele><time>2026-05-02T14:50:01.999Z</time></trkpt><trkpt lat="45.5858965483822" lon="8.156251520969684"><ele>315.6</ele><time>2026-05-02T14:50:03.999Z</time></trkpt><trkpt lat="45.585831543176035" lon="8.156389453933144"><ele>314.4</ele><time>2026-05-02T14:50:05.999Z</time></trkpt><trkpt lat="45.58578667731539" lon="8.156532238634126"><ele>313.2</ele><time>2026-05-02T14:50:07.999Z</time></trkpt><trkpt lat="45.585710629411366" lon="8.156672417641273"><ele>312.0</ele><time>2026-05-02T14:50:09.999Z</time></trkpt><trkpt lat="45.585676063688055" lon="8.15675036780763"><ele>311.8</ele><time>2026-05-02T14:50:10.999Z</time></trkpt><trkpt lat="45.585640806517176" lon="8.15682987749127"><ele>311.6</ele><time>2026-05-02T14:50:11.999Z</time></trkpt><trkpt lat="45.58557788450156" lon="8.156959737478847"><ele>311.40000000000003</ele><time>2026-05-02T14:50:13.999Z</time></trkpt><trkpt lat="45.58549449495671" lon="8.157089380642168"><ele>311.2</ele><time>2026-05-02T14:50:15.999Z</time></trkpt><trkpt lat="45.58545099488737" lon="8.157162979357018"><ele>311.0</ele><time>2026-05-02T14:50:16.999Z</time></trkpt><trkpt lat="45.58536058411972" lon="8.157262264237715"><ele>310.2</ele><time>2026-05-02T14:50:18.999Z</time></trkpt><trkpt lat="45.58532037287742" lon="8.157332909501916"><ele>309.40000000000003</ele><time>2026-05-02T14:50:19.999Z</time></trkpt><trkpt lat="45.58521957541424" lon="8.15742097845888"><ele>308.6</ele><time>2026-05-02T14:50:21.999Z</time></trkpt><trkpt lat="45.58512484562477" lon="8.157452271369642"><ele>307.8</ele><time>2026-05-02T14:50:23.999Z</time></trkpt><trkpt lat="45.5850440970535" lon="8.157378816249595"><ele>307.0</ele><time>2026-05-02T14:50:25.999Z</time></trkpt><trkpt lat="45.58495681320704" lon="8.157301965994195"><ele>306.4</ele><time>2026-05-02T14:50:27.999Z</time></trkpt><trkpt lat="45.58486993305693" lon="8.157224878962388"><ele>305.79999999999995</ele><time>2026-05-02T14:50:29.999Z</time></trkpt><trkpt lat="45.58481417255479" lon="8.157170600563527"><ele>305.2</ele><time>2026-05-02T14:50:30.999Z</time></trkpt><trkpt lat="45.58470545726164" lon="8.157113013727098"><ele>304.59999999999997</ele><time>2026-05-02T14:50:32.999Z</time></trkpt><trkpt lat="45.58462343316162" lon="8.157132918661368"><ele>304.0</ele><time>2026-05-02T14:50:33.999Z</time></trkpt><trkpt lat="45.58454551575802" lon="8.15716558402742"><ele>302.8333333333333</ele><time>2026-05-02T14:50:34.999Z</time></trkpt><trkpt lat="45.58447553945123" lon="8.157202793749734"><ele>301.66666666666663</ele><time>2026-05-02T14:50:35.999Z</time></trkpt><trkpt lat="45.58436979008543" lon="8.15725545133889"><ele>300.5</ele><time>2026-05-02T14:50:37.999Z</time></trkpt><trkpt lat="45.584297320444605" lon="8.15729803603728"><ele>299.3333333333333</ele><time>2026-05-02T14:50:39.999Z</time></trkpt><trkpt lat="45.5842373934061" lon="8.157335566283722"><ele>298.1666666666667</ele><time>2026-05-02T14:50:41.999Z</time></trkpt><trkpt lat="45.58418717899567" lon="8.157413327128376"><ele>297.0</ele><time>2026-05-02T14:50:54.999Z</time></trkpt><trkpt lat="45.58413632368933" lon="8.157486529038735"><ele>297.0</ele><time>2026-05-02T14:50:56.999Z</time></trkpt><trkpt lat="45.58411908728309" lon="8.157585496177212"><ele>297.0</ele><time>2026-05-02T14:50:59.999Z</time></trkpt><trkpt lat="45.58413311237695" lon="8.157691904384658"><ele>297.0</ele><time>2026-05-02T14:51:02.999Z</time></trkpt><trkpt lat="45.584132948598416" lon="8.157804579730358"><ele>297.0</ele><time>2026-05-02T14:51:05.999Z</time></trkpt><trkpt lat="45.584158369864994" lon="8.157916284308444"><ele>297.0</ele><time>2026-05-02T14:51:07.999Z</time></trkpt><trkpt lat="45.58419895678406" lon="8.158019017134373"><ele>297.0</ele><time>2026-05-02T14:51:09.999Z</time></trkpt><trkpt lat="45.58426601434363" lon="8.15810091095476"><ele>297.0</ele><time>2026-05-02T14:51:11.999Z</time></trkpt><trkpt lat="45.584325401976336" lon="8.15816490191907"><ele>297.0</ele><time>2026-05-02T14:51:13.999Z</time></trkpt><trkpt lat="45.584322228872466" lon="8.158267680616715"><ele>297.0</ele><time>2026-05-02T14:51:15.999Z</time></trkpt><trkpt lat="45.58428662021768" lon="8.158368999536371"><ele>297.0</ele><time>2026-05-02T14:51:18.999Z</time></trkpt><trkpt lat="45.584298900318394" lon="8.158488605662377"><ele>297.0</ele><time>2026-05-02T14:51:20.999Z</time></trkpt><trkpt lat="45.58435169245326" lon="8.158554903280955"><ele>297.0</ele><time>2026-05-02T14:51:22.999Z</time></trkpt><trkpt lat="45.584416504581924" lon="8.15856597352141"><ele>297.0</ele><time>2026-05-02T14:51:23.999Z</time></trkpt><trkpt lat="45.584479230842426" lon="8.158586453425535"><ele>295.5</ele><time>2026-05-02T14:51:25.999Z</time></trkpt><trkpt lat="45.58448452178906" lon="8.158715438523766"><ele>294.0</ele><time>2026-05-02T14:51:28.999Z</time></trkpt><trkpt lat="45.58445109779017" lon="8.158818767457234"><ele>292.5</ele><time>2026-05-02T14:51:30.999Z</time></trkpt><trkpt lat="45.58437537305953" lon="8.158898561672856"><ele>291.0</ele><time>2026-05-02T14:51:32.999Z</time></trkpt><trkpt lat="45.58428381565359" lon="8.158970105318815"><ele>289.5</ele><time>2026-05-02T14:51:34.999Z</time></trkpt><trkpt lat="45.58422575611792" lon="8.159042460585377"><ele>288.0</ele><time>2026-05-02T14:51:36.999Z</time></trkpt><trkpt lat="45.584159774294925" lon="8.159062988023054"><ele>288.0</ele><time>2026-05-02T14:51:41.999Z</time></trkpt><trkpt lat="45.584094037315964" lon="8.159083950833661"><ele>288.0</ele><time>2026-05-02T14:51:47.999Z</time></trkpt><trkpt lat="45.58401841969634" lon="8.159110646067967"><ele>288.0</ele><time>2026-05-02T14:52:13.999Z</time></trkpt><trkpt lat="45.58397999137132" lon="8.158992694329518"><ele>288.0</ele><time>2026-05-02T14:52:17.999Z</time></trkpt><trkpt lat="45.583942724471555" lon="8.158860984526198"><ele>288.0</ele><time>2026-05-02T14:52:19.999Z</time></trkpt><trkpt lat="45.583915566607224" lon="8.158767902037733"><ele>288.0</ele><time>2026-05-02T14:52:21.999Z</time></trkpt><trkpt lat="45.58379449523285" lon="8.158656741119541"><ele>288.0</ele><time>2026-05-02T14:52:30.999Z</time></trkpt><trkpt lat="45.58374023029243" lon="8.158596107434475"><ele>288.0</ele><time>2026-05-02T14:52:31.999Z</time></trkpt><trkpt lat="45.58369638941523" lon="8.15852730709829"><ele>288.0</ele><time>2026-05-02T14:52:32.999Z</time></trkpt><trkpt lat="45.58365623779861" lon="8.158451992640757"><ele>288.0</ele><time>2026-05-02T14:52:33.999Z</time></trkpt><trkpt lat="45.58361220324604" lon="8.158379996495475"><ele>288.0</ele><time>2026-05-02T14:52:34.999Z</time></trkpt><trkpt lat="45.583537788289824" lon="8.158270498140798"><ele>288.0</ele><time>2026-05-02T14:52:36.999Z</time></trkpt><trkpt lat="45.58350315479814" lon="8.158165210490465"><ele>286.6666666666667</ele><time>2026-05-02T14:52:38.999Z</time></trkpt><trkpt lat="45.5835222933233" lon="8.15805502232733"><ele>285.3333333333333</ele><time>2026-05-02T14:52:40.999Z</time></trkpt><trkpt lat="45.58354829292989" lon="8.157941163633767"><ele>284.0</ele><time>2026-05-02T14:52:43.999Z</time></trkpt><trkpt lat="45.58352444926507" lon="8.1577685311229"><ele>282.66666666666663</ele><time>2026-05-02T14:52:45.999Z</time></trkpt><trkpt lat="45.58351694065528" lon="8.157677049482496"><ele>281.3333333333333</ele><time>2026-05-02T14:52:46.998Z</time></trkpt><trkpt lat="45.58351403821972" lon="8.157572918929702"><ele>280.0</ele><time>2026-05-02T14:52:48.998Z</time></trkpt><trkpt lat="45.58352012835328" lon="8.157468844787216"><ele>280.0</ele><time>2026-05-02T14:52:55.999Z</time></trkpt><trkpt lat="45.5834818623159" lon="8.157378012092838"><ele>280.0</ele><time>2026-05-02T14:53:03.999Z</time></trkpt><trkpt lat="45.583419370857236" lon="8.157321797810694"><ele>280.0</ele><time>2026-05-02T14:53:07.999Z</time></trkpt><trkpt lat="45.583437071794656" lon="8.157218803727853"><ele>280.0</ele><time>2026-05-02T14:53:09.999Z</time></trkpt><trkpt lat="45.58348210474021" lon="8.15709839748028"><ele>280.0</ele><time>2026-05-02T14:53:11.999Z</time></trkpt><trkpt lat="45.583497854116075" lon="8.156957156193608"><ele>280.0</ele><time>2026-05-02T14:53:13.999Z</time></trkpt><trkpt lat="45.583537225013295" lon="8.156831831295811"><ele>280.2</ele><time>2026-05-02T14:53:15.999Z</time></trkpt><trkpt lat="45.583579571922186" lon="8.15673394158035"><ele>280.4</ele><time>2026-05-02T14:53:16.999Z</time></trkpt><trkpt lat="45.58361563518008" lon="8.15661554652327"><ele>280.6</ele><time>2026-05-02T14:53:17.999Z</time></trkpt><trkpt lat="45.58364495486488" lon="8.15647850196662"><ele>280.8</ele><time>2026-05-02T14:53:18.999Z</time></trkpt><trkpt lat="45.58367892572162" lon="8.15637971749098"><ele>281.0</ele><time>2026-05-02T14:53:20.999Z</time></trkpt><trkpt lat="45.58367711110277" lon="8.156233223508519"><ele>281.0</ele><time>2026-05-02T14:53:23.999Z</time></trkpt><trkpt lat="45.58365560214014" lon="8.156095428074742"><ele>281.0</ele><time>2026-05-02T14:53:25.999Z</time></trkpt><trkpt lat="45.58364969784929" lon="8.156000912031049"><ele>281.0</ele><time>2026-05-02T14:53:26.999Z</time></trkpt><trkpt lat="45.58360202113115" lon="8.155845559702977"><ele>281.0</ele><time>2026-05-02T14:53:28.999Z</time></trkpt><trkpt lat="45.58358665431083" lon="8.15567467433694"><ele>281.0</ele><time>2026-05-02T14:53:30.999Z</time></trkpt><trkpt lat="45.58359490902332" lon="8.155510985887833"><ele>282.8</ele><time>2026-05-02T14:53:32.999Z</time></trkpt><trkpt lat="45.58367370102692" lon="8.155475382000695"><ele>284.6</ele><time>2026-05-02T14:53:37.999Z</time></trkpt><trkpt lat="45.583688621872135" lon="8.155353016233763"><ele>286.4</ele><time>2026-05-02T14:53:40.999Z</time></trkpt><trkpt lat="45.583718465733284" lon="8.155173685401026"><ele>288.2</ele><time>2026-05-02T14:53:42.999Z</time></trkpt><trkpt lat="45.58374390333156" lon="8.155077559157206"><ele>290.0</ele><time>2026-05-02T14:53:43.999Z</time></trkpt><trkpt lat="45.58375362129657" lon="8.154899857031635"><ele>293.83333333333337</ele><time>2026-05-02T14:53:45.999Z</time></trkpt><trkpt lat="45.5837598412423" lon="8.154787723970177"><ele>297.6666666666667</ele><time>2026-05-02T14:53:46.999Z</time></trkpt><trkpt lat="45.58378606748278" lon="8.154681212761773"><ele>301.5</ele><time>2026-05-02T14:53:47.999Z</time></trkpt><trkpt lat="45.5838340361061" lon="8.154517925357226"><ele>305.3333333333333</ele><time>2026-05-02T14:53:49.999Z</time></trkpt><trkpt lat="45.583863519813654" lon="8.15442452833534"><ele>309.16666666666663</ele><time>2026-05-02T14:53:50.999Z</time></trkpt><trkpt lat="45.58391277836418" lon="8.154368308618446"><ele>313.0</ele><time>2026-05-02T14:53:51.999Z</time></trkpt><trkpt lat="45.5840250345795" lon="8.154211866625616"><ele>313.0</ele><time>2026-05-02T14:53:53.999Z</time></trkpt><trkpt lat="45.584091714575834" lon="8.154115903046588"><ele>313.0</ele><time>2026-05-02T14:53:54.999Z</time></trkpt><trkpt lat="45.58417471004799" lon="8.154033338921193"><ele>313.0</ele><time>2026-05-02T14:53:55.999Z</time></trkpt><trkpt lat="45.58425654734713" lon="8.153965622273313"><ele>313.0</ele><time>2026-05-02T14:53:56.999Z</time></trkpt><trkpt lat="45.58432586273744" lon="8.153865082758413"><ele>313.0</ele><time>2026-05-02T14:53:57.999Z</time></trkpt><trkpt lat="45.58438422291056" lon="8.153749471147261"><ele>314.0</ele><time>2026-05-02T14:53:58.999Z</time></trkpt><trkpt lat="45.584452153646666" lon="8.153629370949611"><ele>315.0</ele><time>2026-05-02T14:53:59.999Z</time></trkpt><trkpt lat="45.584525682208536" lon="8.153558605173005"><ele>316.0</ele><time>2026-05-02T14:54:00.999Z</time></trkpt><trkpt lat="45.584630625531496" lon="8.153477955931264"><ele>317.0</ele><time>2026-05-02T14:54:02.999Z</time></trkpt><trkpt lat="45.58469748490385" lon="8.153431232479114"><ele>318.0</ele><time>2026-05-02T14:54:03.999Z</time></trkpt><trkpt lat="45.58476227754877" lon="8.153353540360536"><ele>318.2</ele><time>2026-05-02T14:54:04.999Z</time></trkpt><trkpt lat="45.58486266097362" lon="8.153277120000618"><ele>318.4</ele><time>2026-05-02T14:54:05.999Z</time></trkpt><trkpt lat="45.584917908371814" lon="8.15314869799954"><ele>318.59999999999997</ele><time>2026-05-02T14:54:07.999Z</time></trkpt><trkpt lat="45.58496438696647" lon="8.153051309422857"><ele>318.8</ele><time>2026-05-02T14:54:08.999Z</time></trkpt><trkpt lat="45.585034928971794" lon="8.152948264161617"><ele>319.0</ele><time>2026-05-02T14:54:09.999Z</time></trkpt><trkpt lat="45.585094388080094" lon="8.152864239049627"><ele>320.8333333333333</ele><time>2026-05-02T14:54:11.999Z</time></trkpt><trkpt lat="45.58515249122155" lon="8.152807235924652"><ele>322.66666666666663</ele><time>2026-05-02T14:54:12.999Z</time></trkpt><trkpt lat="45.5852312741544" lon="8.152753989806854"><ele>324.5</ele><time>2026-05-02T14:54:13.999Z</time></trkpt><trkpt lat="45.58534171667447" lon="8.152713191999657"><ele>326.3333333333333</ele><time>2026-05-02T14:54:14.999Z</time></trkpt><trkpt lat="45.58542414459716" lon="8.152683587802093"><ele>328.1666666666667</ele><time>2026-05-02T14:54:15.999Z</time></trkpt><trkpt lat="45.58550743205386" lon="8.152656131268095"><ele>330.0</ele><time>2026-05-02T14:54:16.999Z</time></trkpt><trkpt lat="45.58558051632932" lon="8.152629103446976"><ele>330.2</ele><time>2026-05-02T14:54:17.999Z</time></trkpt><trkpt lat="45.585657192364735" lon="8.152574060320111"><ele>330.4</ele><time>2026-05-02T14:54:18.999Z</time></trkpt><trkpt lat="45.585757247255856" lon="8.15250421126655"><ele>330.6</ele><time>2026-05-02T14:54:19.999Z</time></trkpt><trkpt lat="45.58585427896928" lon="8.152429326684809"><ele>330.8</ele><time>2026-05-02T14:54:20.999Z</time></trkpt><trkpt lat="45.58593440049237" lon="8.152382560877157"><ele>331.0</ele><time>2026-05-02T14:54:21.999Z</time></trkpt><trkpt lat="45.58599170217261" lon="8.152274513674355"><ele>330.6</ele><time>2026-05-02T14:54:23.999Z</time></trkpt><trkpt lat="45.58602931512688" lon="8.152151439756144"><ele>330.20000000000005</ele><time>2026-05-02T14:54:24.999Z</time></trkpt><trkpt lat="45.586091409981954" lon="8.152036710427922"><ele>329.79999999999995</ele><time>2026-05-02T14:54:25.999Z</time></trkpt><trkpt lat="45.58616600085472" lon="8.15195755056856"><ele>329.4</ele><time>2026-05-02T14:54:26.999Z</time></trkpt><trkpt lat="45.58625655348925" lon="8.15192952894974"><ele>329.0</ele><time>2026-05-02T14:54:27.999Z</time></trkpt><trkpt lat="45.58632739911632" lon="8.15190565518113"><ele>329.0</ele><time>2026-05-02T14:54:28.999Z</time></trkpt><trkpt lat="45.58639704867442" lon="8.151839326445756"><ele>329.0</ele><time>2026-05-02T14:54:29.999Z</time></trkpt><trkpt lat="45.58645011427189" lon="8.151756784814765"><ele>329.0</ele><time>2026-05-02T14:54:30.999Z</time></trkpt><trkpt lat="45.58649633066092" lon="8.15164762272908"><ele>329.0</ele><time>2026-05-02T14:54:32.999Z</time></trkpt><trkpt lat="45.58641754034538" lon="8.151442118812232"><ele>329.0</ele><time>2026-05-02T14:54:34.999Z</time></trkpt><trkpt lat="45.58638148762613" lon="8.151311006354769"><ele>329.0</ele><time>2026-05-02T14:54:35.999Z</time></trkpt><trkpt lat="45.58633283510467" lon="8.151210551491966"><ele>329.0</ele><time>2026-05-02T14:54:36.999Z</time></trkpt><trkpt lat="45.58627590781505" lon="8.151132216098457"><ele>329.0</ele><time>2026-05-02T14:54:37.999Z</time></trkpt><trkpt lat="45.5862113699605" lon="8.151023190779037"><ele>329.0</ele><time>2026-05-02T14:54:38.999Z</time></trkpt><trkpt lat="45.58619063323828" lon="8.150925661589753"><ele>329.0</ele><time>2026-05-02T14:54:40.999Z</time></trkpt><trkpt lat="45.58615049633986" lon="8.150832005643547"><ele>329.0</ele><time>2026-05-02T14:54:42.999Z</time></trkpt><trkpt lat="45.58615418170773" lon="8.15072815893795"><ele>329.4</ele><time>2026-05-02T14:54:45.999Z</time></trkpt><trkpt lat="45.58617019069023" lon="8.150576977408054"><ele>329.79999999999995</ele><time>2026-05-02T14:54:48.999Z</time></trkpt><trkpt lat="45.5861616683626" lon="8.150456483090501"><ele>330.20000000000005</ele><time>2026-05-02T14:54:50.999Z</time></trkpt><trkpt lat="45.586161881386495" lon="8.150325597416174"><ele>330.6</ele><time>2026-05-02T14:54:53.999Z</time></trkpt><trkpt lat="45.586168355069404" lon="8.150156575924678"><ele>331.0</ele><time>2026-05-02T14:54:55.999Z</time></trkpt><trkpt lat="45.58619216084398" lon="8.1500269477942"><ele>334.0</ele><time>2026-05-02T14:54:58Z</time></trkpt><trkpt lat="45.58613305170635" lon="8.149936608692363"><ele>337.0</ele><time>2026-05-02T14:55:21Z</time></trkpt><trkpt lat="45.5860724773336" lon="8.149803464992257"><ele>340.0</ele><time>2026-05-02T14:55:23Z</time></trkpt><trkpt lat="45.58602275552478" lon="8.149661859698769"><ele>343.0</ele><time>2026-05-02T14:55:25Z</time></trkpt><trkpt lat="45.58597953195474" lon="8.149541870737488"><ele>346.0</ele><time>2026-05-02T14:55:27Z</time></trkpt><trkpt lat="45.58594444802096" lon="8.149418753524206"><ele>346.57142857142856</ele><time>2026-05-02T14:55:28.999Z</time></trkpt><trkpt lat="45.585948174035124" lon="8.14930453205631"><ele>347.14285714285717</ele><time>2026-05-02T14:55:30.999Z</time></trkpt><trkpt lat="45.58600247934137" lon="8.149243354422076"><ele>347.7142857142857</ele><time>2026-05-02T14:55:31.999Z</time></trkpt><trkpt lat="45.586022156653804" lon="8.149156544031358"><ele>348.2857142857143</ele><time>2026-05-02T14:55:32.999Z</time></trkpt><trkpt lat="45.5860415955031" lon="8.149069068975137"><ele>348.8571428571429</ele><time>2026-05-02T14:55:33.999Z</time></trkpt><trkpt lat="45.58606065941537" lon="8.148979707415778"><ele>349.42857142857144</ele><time>2026-05-02T14:55:34.999Z</time></trkpt><trkpt lat="45.586069294414564" lon="8.148887029389869"><ele>350.0</ele><time>2026-05-02T14:55:35.999Z</time></trkpt><trkpt lat="45.58608426923265" lon="8.14878963631498"><ele>350.5</ele><time>2026-05-02T14:55:36.999Z</time></trkpt><trkpt lat="45.586114260849214" lon="8.148685344147204"><ele>351.0</ele><time>2026-05-02T14:55:37.999Z</time></trkpt><trkpt lat="45.58611243958572" lon="8.148504440410184"><ele>351.5</ele><time>2026-05-02T14:55:39.999Z</time></trkpt><trkpt lat="45.586108387964224" lon="8.14840717919192"><ele>352.0</ele><time>2026-05-02T14:55:40.999Z</time></trkpt><trkpt lat="45.58610687181287" lon="8.148307622290268"><ele>352.5</ele><time>2026-05-02T14:55:41.999Z</time></trkpt><trkpt lat="45.586093441771176" lon="8.148205048351091"><ele>353.0</ele><time>2026-05-02T14:55:42.999Z</time></trkpt><trkpt lat="45.58607148341931" lon="8.14810135190176"><ele>353.5</ele><time>2026-05-02T14:55:43.999Z</time></trkpt><trkpt lat="45.58603665875318" lon="8.147997928729534"><ele>354.0</ele><time>2026-05-02T14:55:44.999Z</time></trkpt><trkpt lat="45.586011193726" lon="8.147896690352296"><ele>354.5</ele><time>2026-05-02T14:55:45.999Z</time></trkpt><trkpt lat="45.585991552751615" lon="8.147792298153794"><ele>355.0</ele><time>2026-05-02T14:55:46.999Z</time></trkpt><trkpt lat="45.58598345986468" lon="8.147686489527587"><ele>355.5</ele><time>2026-05-02T14:55:47.999Z</time></trkpt><trkpt lat="45.585981555543654" lon="8.1475713153675"><ele>356.0</ele><time>2026-05-02T14:55:48.999Z</time></trkpt><trkpt lat="45.58597711253321" lon="8.147463409258009"><ele>355.83333333333337</ele><time>2026-05-02T14:55:49.999Z</time></trkpt><trkpt lat="45.58596755844143" lon="8.147358924283303"><ele>355.6666666666667</ele><time>2026-05-02T14:55:50.999Z</time></trkpt><trkpt lat="45.58595321876718" lon="8.147255789987684"><ele>355.5</ele><time>2026-05-02T14:55:51.999Z</time></trkpt><trkpt lat="45.58593478042435" lon="8.14715274822056"><ele>355.3333333333333</ele><time>2026-05-02T14:55:52.999Z</time></trkpt><trkpt lat="45.58591263179202" lon="8.147042853308472"><ele>355.16666666666663</ele><time>2026-05-02T14:55:53.999Z</time></trkpt><trkpt lat="45.585890168980285" lon="8.146938150190758"><ele>355.0</ele><time>2026-05-02T14:55:54.999Z</time></trkpt><trkpt lat="45.5858661873014" lon="8.14682726850279"><ele>355.0</ele><time>2026-05-02T14:55:55.999Z</time></trkpt><trkpt lat="45.585842902012764" lon="8.146703330077102"><ele>355.0</ele><time>2026-05-02T14:55:56.999Z</time></trkpt><trkpt lat="45.58582678522332" lon="8.146583198579744"><ele>355.0</ele><time>2026-05-02T14:55:57.999Z</time></trkpt><trkpt lat="45.585816824056984" lon="8.146464092757238"><ele>355.0</ele><time>2026-05-02T14:55:58.999Z</time></trkpt><trkpt lat="45.58580709474641" lon="8.146340348716066"><ele>355.0</ele><time>2026-05-02T14:55:59.999Z</time></trkpt><trkpt lat="45.58579451392845" lon="8.146219665755057"><ele>355.0</ele><time>2026-05-02T14:56:00.999Z</time></trkpt><trkpt lat="45.585779918935366" lon="8.146107762960698"><ele>355.0</ele><time>2026-05-02T14:56:01.999Z</time></trkpt><trkpt lat="45.585764244436575" lon="8.145992525026573"><ele>355.0</ele><time>2026-05-02T14:56:02.999Z</time></trkpt><trkpt lat="45.58574756896227" lon="8.145883243334097"><ele>355.0</ele><time>2026-05-02T14:56:03.999Z</time></trkpt><trkpt lat="45.585720059574015" lon="8.145798972060915"><ele>355.0</ele><time>2026-05-02T14:56:05.999Z</time></trkpt><trkpt lat="45.5857025807538" lon="8.145680450353217"><ele>355.0</ele><time>2026-05-02T14:56:45Z</time></trkpt><trkpt lat="45.585669406134876" lon="8.145572978011588"><ele>355.0</ele><time>2026-05-02T14:56:47Z</time></trkpt><trkpt lat="45.5856324605885" lon="8.145447195307128"><ele>355.0</ele><time>2026-05-02T14:56:49Z</time></trkpt><trkpt lat="45.58557227230536" lon="8.145326824107904"><ele>355.0</ele><time>2026-05-02T14:56:51Z</time></trkpt><trkpt lat="45.58550705266516" lon="8.14522022746139"><ele>355.0</ele><time>2026-05-02T14:56:53Z</time></trkpt><trkpt lat="45.585432011327704" lon="8.145134435090757"><ele>355.0</ele><time>2026-05-02T14:56:55Z</time></trkpt><trkpt lat="45.585373039995915" lon="8.145059945729969"><ele>355.0</ele><time>2026-05-02T14:56:57Z</time></trkpt><trkpt lat="45.58531386629005" lon="8.144950050849724"><ele>355.8</ele><time>2026-05-02T14:56:59Z</time></trkpt><trkpt lat="45.58528465943998" lon="8.144805775570859"><ele>356.6</ele><time>2026-05-02T14:57:01Z</time></trkpt><trkpt lat="45.58527660387975" lon="8.144714620453328"><ele>357.4</ele><time>2026-05-02T14:57:03.001Z</time></trkpt><trkpt lat="45.585264083918155" lon="8.144585496789722"><ele>358.2</ele><time>2026-05-02T14:57:05.001Z</time></trkpt><trkpt lat="45.58526949353758" lon="8.144426007873157"><ele>359.0</ele><time>2026-05-02T14:57:07.001Z</time></trkpt><trkpt lat="45.585288944263205" lon="8.1442703592506"><ele>359.0</ele><time>2026-05-02T14:57:09.001Z</time></trkpt><trkpt lat="45.58528691726536" lon="8.144110864190676"><ele>359.0</ele><time>2026-05-02T14:57:11.001Z</time></trkpt><trkpt lat="45.58528614425928" lon="8.143933645123294"><ele>359.0</ele><time>2026-05-02T14:57:13.001Z</time></trkpt><trkpt lat="45.58528614425834" lon="8.14384358332079"><ele>359.0</ele><time>2026-05-02T14:57:14.001Z</time></trkpt><trkpt lat="45.58530161240924" lon="8.14366816535949"><ele>359.0</ele><time>2026-05-02T14:57:16.001Z</time></trkpt><trkpt lat="45.585339365624556" lon="8.143504260678725"><ele>359.33333333333337</ele><time>2026-05-02T14:57:18.001Z</time></trkpt><trkpt lat="45.58537793859184" lon="8.143343183838295"><ele>359.6666666666667</ele><time>2026-05-02T14:57:20.001Z</time></trkpt><trkpt lat="45.58541837580171" lon="8.143174321880831"><ele>360.0</ele><time>2026-05-02T14:57:22.001Z</time></trkpt><trkpt lat="45.585439716237126" lon="8.143085206170754"><ele>360.3333333333333</ele><time>2026-05-02T14:57:23.001Z</time></trkpt><trkpt lat="45.585461539343" lon="8.142994074755464"><ele>360.66666666666663</ele><time>2026-05-02T14:57:24.001Z</time></trkpt><trkpt lat="45.585483346329255" lon="8.142903010884904"><ele>361.0</ele><time>2026-05-02T14:57:25.001Z</time></trkpt><trkpt lat="45.585504653511926" lon="8.142814034317702"><ele>361.0</ele><time>2026-05-02T14:57:26.001Z</time></trkpt><trkpt lat="45.58552639534839" lon="8.14272187051265"><ele>361.0</ele><time>2026-05-02T14:57:27.001Z</time></trkpt><trkpt lat="45.585546728482115" lon="8.142629151159458"><ele>361.0</ele><time>2026-05-02T14:57:28.001Z</time></trkpt><trkpt lat="45.58556480606266" lon="8.142536213923034"><ele>361.0</ele><time>2026-05-02T14:57:29.001Z</time></trkpt><trkpt lat="45.58558070883561" lon="8.142444731279092"><ele>361.0</ele><time>2026-05-02T14:57:30.001Z</time></trkpt><trkpt lat="45.58559278371295" lon="8.142354255103275"><ele>361.0</ele><time>2026-05-02T14:57:31.001Z</time></trkpt><trkpt lat="45.58561480180628" lon="8.142208167347755"><ele>361.0</ele><time>2026-05-02T14:57:33Z</time></trkpt><trkpt lat="45.58563654150429" lon="8.142096294114543"><ele>361.16666666666663</ele><time>2026-05-02T14:57:35Z</time></trkpt><trkpt lat="45.58565683348962" lon="8.142004442184755"><ele>361.3333333333333</ele><time>2026-05-02T14:57:37Z</time></trkpt><trkpt lat="45.585680732674845" lon="8.141910465977173"><ele>361.5</ele><time>2026-05-02T14:57:39Z</time></trkpt><trkpt lat="45.58571168329253" lon="8.141789926451107"><ele>361.6666666666667</ele><time>2026-05-02T14:57:41Z</time></trkpt><trkpt lat="45.58573955517434" lon="8.141689105438317"><ele>361.83333333333337</ele><time>2026-05-02T14:57:43Z</time></trkpt><trkpt lat="45.58576719806665" lon="8.141592276088046"><ele>362.0</ele><time>2026-05-02T14:57:45Z</time></trkpt><trkpt lat="45.58580210604851" lon="8.141478031900188"><ele>361.6</ele><time>2026-05-02T14:57:47Z</time></trkpt><trkpt lat="45.585838473112325" lon="8.141366025691275"><ele>361.20000000000005</ele><time>2026-05-02T14:57:49Z</time></trkpt><trkpt lat="45.58585546237687" lon="8.141242373000713"><ele>360.8</ele><time>2026-05-02T14:57:51Z</time></trkpt><trkpt lat="45.585894221387925" lon="8.141117885475667"><ele>360.4</ele><time>2026-05-02T14:57:53Z</time></trkpt><trkpt lat="45.58594683591315" lon="8.141000108006653"><ele>360.0</ele><time>2026-05-02T14:57:55Z</time></trkpt><trkpt lat="45.58600086077684" lon="8.140874031815404"><ele>360.0</ele><time>2026-05-02T14:57:57Z</time></trkpt><trkpt lat="45.586055982588746" lon="8.140749208586925"><ele>360.0</ele><time>2026-05-02T14:57:59Z</time></trkpt><trkpt lat="45.58613346865354" lon="8.14065660086614"><ele>360.0</ele><time>2026-05-02T14:58:01Z</time></trkpt><trkpt lat="45.58619665633072" lon="8.140559727760238"><ele>360.0</ele><time>2026-05-02T14:58:03Z</time></trkpt><trkpt lat="45.58626122488587" lon="8.140468807283007"><ele>360.0</ele><time>2026-05-02T14:58:05Z</time></trkpt><trkpt lat="45.58630183166256" lon="8.140383136275952"><ele>360.0</ele><time>2026-05-02T14:58:07Z</time></trkpt><trkpt lat="45.58635734487314" lon="8.140316595580426"><ele>360.0</ele><time>2026-05-02T14:58:10Z</time></trkpt><trkpt lat="45.58629539624725" lon="8.140356474377109"><ele>360.0</ele><time>2026-05-02T14:59:20Z</time></trkpt><trkpt lat="45.586242348830105" lon="8.140447896226078"><ele>360.0</ele><time>2026-05-02T14:59:22Z</time></trkpt><trkpt lat="45.58617133754226" lon="8.140535942265018"><ele>360.0</ele><time>2026-05-02T14:59:24Z</time></trkpt><trkpt lat="45.58610332985869" lon="8.140630660556461"><ele>360.0</ele><time>2026-05-02T14:59:26Z</time></trkpt><trkpt lat="45.586054164599545" lon="8.14073312532922"><ele>360.0</ele><time>2026-05-02T14:59:28Z</time></trkpt><trkpt lat="45.5860044065001" lon="8.140855581243253"><ele>360.0</ele><time>2026-05-02T14:59:30Z</time></trkpt><trkpt lat="45.58594747252593" lon="8.140975643924026"><ele>360.0</ele><time>2026-05-02T14:59:32Z</time></trkpt><trkpt lat="45.58590220805478" lon="8.141111587241092"><ele>360.0</ele><time>2026-05-02T14:59:34Z</time></trkpt><trkpt lat="45.585855743507956" lon="8.141254188546794"><ele>360.0</ele><time>2026-05-02T14:59:36Z</time></trkpt><trkpt lat="45.585804218177195" lon="8.141403970620814"><ele>360.5</ele><time>2026-05-02T14:59:38Z</time></trkpt><trkpt lat="45.58575029064714" lon="8.141560471955549"><ele>361.0</ele><time>2026-05-02T14:59:40Z</time></trkpt><trkpt lat="45.585709357325186" lon="8.141718124222887"><ele>361.5</ele><time>2026-05-02T14:59:42Z</time></trkpt><trkpt lat="45.585663812762604" lon="8.141868587499484"><ele>362.0</ele><time>2026-05-02T14:59:44Z</time></trkpt><trkpt lat="45.585633314776544" lon="8.142005850204187"><ele>362.0</ele><time>2026-05-02T14:59:46Z</time></trkpt><trkpt lat="45.58559009111307" lon="8.14215390551261"><ele>362.0</ele><time>2026-05-02T14:59:48Z</time></trkpt><trkpt lat="45.58556354856703" lon="8.142318219758636"><ele>362.0</ele><time>2026-05-02T14:59:50Z</time></trkpt><trkpt lat="45.58555045287314" lon="8.142500647530182"><ele>362.0</ele><time>2026-05-02T14:59:52Z</time></trkpt><trkpt lat="45.585530896431436" lon="8.142593184336757"><ele>362.0</ele><time>2026-05-02T14:59:53Z</time></trkpt><trkpt lat="45.58551453171009" lon="8.142688713673998"><ele>362.0</ele><time>2026-05-02T14:59:54Z</time></trkpt><trkpt lat="45.5854946637151" lon="8.142776487475091"><ele>362.0</ele><time>2026-05-02T14:59:55Z</time></trkpt><trkpt lat="45.585458876631165" lon="8.142858322821358"><ele>362.0</ele><time>2026-05-02T14:59:56Z</time></trkpt><trkpt lat="45.58543848407008" lon="8.142943480203447"><ele>362.0</ele><time>2026-05-02T14:59:57Z</time></trkpt><trkpt lat="45.58541343940289" lon="8.143108749326007"><ele>362.0</ele><time>2026-05-02T14:59:59Z</time></trkpt><trkpt lat="45.58537695266257" lon="8.14326813660578"><ele>362.0</ele><time>2026-05-02T15:00:01Z</time></trkpt><trkpt lat="45.5853571598374" lon="8.143355148175944"><ele>361.1428571428571</ele><time>2026-05-02T15:00:02Z</time></trkpt><trkpt lat="45.585336197694254" lon="8.143441554108504"><ele>360.2857142857143</ele><time>2026-05-02T15:00:03Z</time></trkpt><trkpt lat="45.58531518529441" lon="8.143530064928463"><ele>359.42857142857144</ele><time>2026-05-02T15:00:04Z</time></trkpt><trkpt lat="45.585278983526955" lon="8.143612867534538"><ele>358.57142857142856</ele><time>2026-05-02T15:00:05Z</time></trkpt><trkpt lat="45.58526155970105" lon="8.143709630860455"><ele>357.7142857142857</ele><time>2026-05-02T15:00:06Z</time></trkpt><trkpt lat="45.58526938933705" lon="8.143808131583356"><ele>356.85714285714283</ele><time>2026-05-02T15:00:07Z</time></trkpt><trkpt lat="45.58526824927718" lon="8.143911190784506"><ele>356.0</ele><time>2026-05-02T15:00:08Z</time></trkpt><trkpt lat="45.58525293108608" lon="8.144015454291075"><ele>356.5</ele><time>2026-05-02T15:00:09Z</time></trkpt><trkpt lat="45.585253705323716" lon="8.14412161098124"><ele>357.0</ele><time>2026-05-02T15:00:10Z</time></trkpt><trkpt lat="45.58525509305637" lon="8.144226817263128"><ele>357.5</ele><time>2026-05-02T15:00:11Z</time></trkpt><trkpt lat="45.58525565573538" lon="8.144335210728904"><ele>358.0</ele><time>2026-05-02T15:00:12Z</time></trkpt><trkpt lat="45.58525116685456" lon="8.1444398839259"><ele>358.5</ele><time>2026-05-02T15:00:13Z</time></trkpt><trkpt lat="45.585247633946054" lon="8.144550165626931"><ele>359.0</ele><time>2026-05-02T15:00:14Z</time></trkpt><trkpt lat="45.58524488614934" lon="8.144658382360884"><ele>359.0</ele><time>2026-05-02T15:00:15Z</time></trkpt><trkpt lat="45.5852457854089" lon="8.14476818290232"><ele>359.0</ele><time>2026-05-02T15:00:16Z</time></trkpt><trkpt lat="45.58527496699704" lon="8.14487167509239"><ele>359.0</ele><time>2026-05-02T15:00:17Z</time></trkpt><trkpt lat="45.58529704989633" lon="8.14496482019913"><ele>359.0</ele><time>2026-05-02T15:00:18Z</time></trkpt><trkpt lat="45.58533914718302" lon="8.145112315541231"><ele>359.0</ele><time>2026-05-02T15:00:20Z</time></trkpt><trkpt lat="45.58526520311481" lon="8.14523802318618"><ele>358.5</ele><time>2026-05-02T15:00:22Z</time></trkpt><trkpt lat="45.585212580372826" lon="8.145320898959206"><ele>358.0</ele><time>2026-05-02T15:00:23Z</time></trkpt><trkpt lat="45.58515467763276" lon="8.145400047396098"><ele>357.5</ele><time>2026-05-02T15:00:24Z</time></trkpt><trkpt lat="45.585094159997006" lon="8.145479799955934"><ele>357.0</ele><time>2026-05-02T15:00:25Z</time></trkpt><trkpt lat="45.585029517231895" lon="8.145564476556016"><ele>356.5</ele><time>2026-05-02T15:00:26Z</time></trkpt><trkpt lat="45.58496543350084" lon="8.145644672385695"><ele>356.0</ele><time>2026-05-02T15:00:27Z</time></trkpt><trkpt lat="45.584899098760715" lon="8.1457058422741"><ele>355.33333333333337</ele><time>2026-05-02T15:00:28Z</time></trkpt><trkpt lat="45.58483897192784" lon="8.14577809425039"><ele>354.6666666666667</ele><time>2026-05-02T15:00:29Z</time></trkpt><trkpt lat="45.58477012381833" lon="8.145813323483715"><ele>354.0</ele><time>2026-05-02T15:00:30Z</time></trkpt><trkpt lat="45.584700960459024" lon="8.145820792533767"><ele>353.3333333333333</ele><time>2026-05-02T15:00:31Z</time></trkpt><trkpt lat="45.584589939273094" lon="8.145865789608655"><ele>352.66666666666663</ele><time>2026-05-02T15:00:33Z</time></trkpt><trkpt lat="45.58452812055281" lon="8.14589705703934"><ele>352.0</ele><time>2026-05-02T15:00:34Z</time></trkpt><trkpt lat="45.58447921806692" lon="8.145969561451865"><ele>351.0</ele><time>2026-05-02T15:00:35Z</time></trkpt><trkpt lat="45.58437020453879" lon="8.146050910351757"><ele>350.0</ele><time>2026-05-02T15:00:37Z</time></trkpt><trkpt lat="45.58431628253148" lon="8.146103529457516"><ele>349.0</ele><time>2026-05-02T15:00:38Z</time></trkpt><trkpt lat="45.584213030359734" lon="8.146196742219011"><ele>348.0</ele><time>2026-05-02T15:00:40Z</time></trkpt><trkpt lat="45.58411479146165" lon="8.146292851057332"><ele>347.0</ele><time>2026-05-02T15:00:42Z</time></trkpt><trkpt lat="45.58402692584927" lon="8.146378882998398"><ele>347.0</ele><time>2026-05-02T15:00:44Z</time></trkpt><trkpt lat="45.58393938124003" lon="8.146449463010814"><ele>347.0</ele><time>2026-05-02T15:00:46Z</time></trkpt><trkpt lat="45.58384590922401" lon="8.14650424346905"><ele>347.0</ele><time>2026-05-02T15:00:48Z</time></trkpt><trkpt lat="45.583743598106516" lon="8.146549643446987"><ele>347.0</ele><time>2026-05-02T15:00:50Z</time></trkpt><trkpt lat="45.58363593727877" lon="8.146594479204158"><ele>347.0</ele><time>2026-05-02T15:00:52Z</time></trkpt><trkpt lat="45.58355339043267" lon="8.146626495988578"><ele>345.1666666666667</ele><time>2026-05-02T15:00:54Z</time></trkpt><trkpt lat="45.58349191378343" lon="8.146660957124011"><ele>343.33333333333337</ele><time>2026-05-02T15:01:15Z</time></trkpt><trkpt lat="45.583406922861464" lon="8.146709845732628"><ele>341.5</ele><time>2026-05-02T15:01:18Z</time></trkpt><trkpt lat="45.58331718159791" lon="8.14673832357527"><ele>339.6666666666667</ele><time>2026-05-02T15:01:20Z</time></trkpt><trkpt lat="45.5832042588733" lon="8.14678692079971"><ele>337.8333333333333</ele><time>2026-05-02T15:01:22Z</time></trkpt><trkpt lat="45.58314088401094" lon="8.146786706224118"><ele>336.0</ele><time>2026-05-02T15:01:23Z</time></trkpt><trkpt lat="45.58303385472609" lon="8.146851813481149"><ele>336.0</ele><time>2026-05-02T15:01:25Z</time></trkpt><trkpt lat="45.582942539272324" lon="8.146889430069155"><ele>336.0</ele><time>2026-05-02T15:01:27Z</time></trkpt><trkpt lat="45.582835893257034" lon="8.146933283757338"><ele>336.0</ele><time>2026-05-02T15:01:29Z</time></trkpt><trkpt lat="45.58270767841438" lon="8.146965848598375"><ele>336.0</ele><time>2026-05-02T15:01:31Z</time></trkpt><trkpt lat="45.58263847284821" lon="8.146994757817207"><ele>336.0</ele><time>2026-05-02T15:01:32Z</time></trkpt><trkpt lat="45.5825675020013" lon="8.147024404507844"><ele>335.1666666666667</ele><time>2026-05-02T15:01:33Z</time></trkpt><trkpt lat="45.58249706893812" lon="8.147053826523596"><ele>334.3333333333333</ele><time>2026-05-02T15:01:34Z</time></trkpt><trkpt lat="45.58243062811887" lon="8.147081276190411"><ele>333.5</ele><time>2026-05-02T15:01:35Z</time></trkpt><trkpt lat="45.5823655410131" lon="8.147108095782642"><ele>332.66666666666663</ele><time>2026-05-02T15:01:36Z</time></trkpt><trkpt lat="45.58227404349518" lon="8.147145797996613"><ele>331.8333333333333</ele><time>2026-05-02T15:01:38Z</time></trkpt><trkpt lat="45.5821869291981" lon="8.147181694089507"><ele>331.0</ele><time>2026-05-02T15:01:42Z</time></trkpt><trkpt lat="45.5821199360633" lon="8.147210349670823"><ele>331.0</ele><time>2026-05-02T15:01:44Z</time></trkpt><trkpt lat="45.58219784634166" lon="8.147217269610687"><ele>331.0</ele><time>2026-05-02T15:02:41Z</time></trkpt><trkpt lat="45.58229696681402" lon="8.147168264444009"><ele>331.0</ele><time>2026-05-02T15:02:43Z</time></trkpt><trkpt lat="45.58239405373055" lon="8.147122076558208"><ele>331.0</ele><time>2026-05-02T15:02:45Z</time></trkpt><trkpt lat="45.5824929514071" lon="8.147104952222339"><ele>331.0</ele><time>2026-05-02T15:02:47Z</time></trkpt><trkpt lat="45.58257947218944" lon="8.147068809852264"><ele>331.0</ele><time>2026-05-02T15:02:49Z</time></trkpt><trkpt lat="45.582658757817015" lon="8.147035689883719"><ele>331.0</ele><time>2026-05-02T15:02:51Z</time></trkpt><trkpt lat="45.58274650982627" lon="8.146999033186823"><ele>331.0</ele><time>2026-05-02T15:02:53Z</time></trkpt><trkpt lat="45.582829495549646" lon="8.146964367553435"><ele>331.0</ele><time>2026-05-02T15:02:55Z</time></trkpt><trkpt lat="45.582928107265154" lon="8.146915167368377"><ele>331.0</ele><time>2026-05-02T15:02:57Z</time></trkpt><trkpt lat="45.58303613858513" lon="8.146874731626172"><ele>332.0</ele><time>2026-05-02T15:02:59Z</time></trkpt><trkpt lat="45.58312397706652" lon="8.146824856305251"><ele>333.0</ele><time>2026-05-02T15:03:01Z</time></trkpt><trkpt lat="45.58322009872061" lon="8.146781377580044"><ele>334.0</ele><time>2026-05-02T15:03:03Z</time></trkpt><trkpt lat="45.58330935289987" lon="8.146757751585534"><ele>335.0</ele><time>2026-05-02T15:03:05Z</time></trkpt><trkpt lat="45.583406439176606" lon="8.146719505292321"><ele>336.0</ele><time>2026-05-02T15:03:07Z</time></trkpt><trkpt lat="45.58351007014101" lon="8.146672432907401"><ele>336.0</ele><time>2026-05-02T15:03:09Z</time></trkpt><trkpt lat="45.58362484934828" lon="8.146638387545364"><ele>336.0</ele><time>2026-05-02T15:03:11Z</time></trkpt><trkpt lat="45.583742626758834" lon="8.146588374457483"><ele>336.0</ele><time>2026-05-02T15:03:13Z</time></trkpt><trkpt lat="45.583860523568845" lon="8.146536891224633"><ele>336.0</ele><time>2026-05-02T15:03:15Z</time></trkpt><trkpt lat="45.58397333566867" lon="8.14648107917731"><ele>337.8333333333333</ele><time>2026-05-02T15:03:17Z</time></trkpt><trkpt lat="45.58401841512814" lon="8.14640930290336"><ele>339.6666666666667</ele><time>2026-05-02T15:03:18Z</time></trkpt><trkpt lat="45.58407243862878" lon="8.146359380852095"><ele>341.5</ele><time>2026-05-02T15:03:19Z</time></trkpt><trkpt lat="45.58413133917878" lon="8.146303597473958"><ele>343.33333333333337</ele><time>2026-05-02T15:03:20Z</time></trkpt><trkpt lat="45.58418874724189" lon="8.146245367134899"><ele>345.1666666666667</ele><time>2026-05-02T15:03:21Z</time></trkpt><trkpt lat="45.584293757380166" lon="8.146145253759116"><ele>347.0</ele><time>2026-05-02T15:03:23Z</time></trkpt><trkpt lat="45.5843967613298" lon="8.146050939359732"><ele>347.0</ele><time>2026-05-02T15:03:25Z</time></trkpt><trkpt lat="45.584450806822545" lon="8.145999585339213"><ele>347.0</ele><time>2026-05-02T15:03:26Z</time></trkpt><trkpt lat="45.58456928500644" lon="8.145910925374169"><ele>347.0</ele><time>2026-05-02T15:03:28Z</time></trkpt><trkpt lat="45.58463851742434" lon="8.145878797172468"><ele>347.0</ele><time>2026-05-02T15:03:29Z</time></trkpt><trkpt lat="45.58477740211777" lon="8.145825122601181"><ele>347.0</ele><time>2026-05-02T15:03:31Z</time></trkpt><trkpt lat="45.58484976694154" lon="8.145781377462745"><ele>347.83333333333337</ele><time>2026-05-02T15:03:32Z</time></trkpt><trkpt lat="45.58492265404972" lon="8.145720170052813"><ele>348.6666666666667</ele><time>2026-05-02T15:03:33Z</time></trkpt><trkpt lat="45.58499617275993" lon="8.14564807381843"><ele>349.5</ele><time>2026-05-02T15:03:34Z</time></trkpt><trkpt lat="45.585066661749075" lon="8.145563432589395"><ele>350.3333333333333</ele><time>2026-05-02T15:03:35Z</time></trkpt><trkpt lat="45.58513511896633" lon="8.145474036407348"><ele>351.16666666666663</ele><time>2026-05-02T15:03:36Z</time></trkpt><trkpt lat="45.585198122711354" lon="8.145380825888196"><ele>352.0</ele><time>2026-05-02T15:03:37Z</time></trkpt><trkpt lat="45.585261396854214" lon="8.145295590636808"><ele>352.5</ele><time>2026-05-02T15:03:38Z</time></trkpt><trkpt lat="45.58531222419518" lon="8.1452238506397"><ele>353.0</ele><time>2026-05-02T15:03:39Z</time></trkpt><trkpt lat="45.585360467179484" lon="8.145134189842393"><ele>353.5</ele><time>2026-05-02T15:03:41Z</time></trkpt><trkpt lat="45.5853162539988" lon="8.144972617007523"><ele>354.0</ele><time>2026-05-02T15:03:44Z</time></trkpt><trkpt lat="45.58528147092587" lon="8.144886848347129"><ele>354.5</ele><time>2026-05-02T15:03:45Z</time></trkpt><trkpt lat="45.58528202805602" lon="8.144778604229042"><ele>355.0</ele><time>2026-05-02T15:03:46Z</time></trkpt><trkpt lat="45.58527741868869" lon="8.144665507778333"><ele>355.16666666666663</ele><time>2026-05-02T15:03:47Z</time></trkpt><trkpt lat="45.58528110447289" lon="8.14454385537749"><ele>355.3333333333333</ele><time>2026-05-02T15:03:48Z</time></trkpt><trkpt lat="45.58528517538769" lon="8.144422764470553"><ele>355.5</ele><time>2026-05-02T15:03:49Z</time></trkpt><trkpt lat="45.585273562208826" lon="8.144295163993025"><ele>355.6666666666667</ele><time>2026-05-02T15:03:50Z</time></trkpt><trkpt lat="45.58527830453245" lon="8.144175774828271"><ele>355.83333333333337</ele><time>2026-05-02T15:03:51Z</time></trkpt><trkpt lat="45.58527333696537" lon="8.144050228190883"><ele>356.0</ele><time>2026-05-02T15:03:52Z</time></trkpt><trkpt lat="45.585286144260294" lon="8.143921759538598"><ele>356.0</ele><time>2026-05-02T15:03:53Z</time></trkpt><trkpt lat="45.585270339531895" lon="8.143793504813175"><ele>356.0</ele><time>2026-05-02T15:03:54Z</time></trkpt><trkpt lat="45.58530108867009" lon="8.143671752170153"><ele>356.0</ele><time>2026-05-02T15:03:55Z</time></trkpt><trkpt lat="45.585328249489955" lon="8.143550680608861"><ele>356.0</ele><time>2026-05-02T15:03:56Z</time></trkpt><trkpt lat="45.58535640523832" lon="8.143433104981744"><ele>356.0</ele><time>2026-05-02T15:03:57Z</time></trkpt><trkpt lat="45.58538446652847" lon="8.143315923612185"><ele>356.0</ele><time>2026-05-02T15:03:58Z</time></trkpt><trkpt lat="45.58539832658913" lon="8.143190070876521"><ele>356.83333333333337</ele><time>2026-05-02T15:03:59Z</time></trkpt><trkpt lat="45.58542779434723" lon="8.143070193652738"><ele>357.6666666666667</ele><time>2026-05-02T15:04:00Z</time></trkpt><trkpt lat="45.5854577167236" lon="8.142951778151888"><ele>358.5</ele><time>2026-05-02T15:04:01Z</time></trkpt><trkpt lat="45.58548579583403" lon="8.1428305139911"><ele>359.3333333333333</ele><time>2026-05-02T15:04:02Z</time></trkpt><trkpt lat="45.58551311787187" lon="8.142709137154679"><ele>360.16666666666663</ele><time>2026-05-02T15:04:03Z</time></trkpt><trkpt lat="45.58553919790837" lon="8.142588908622843"><ele>361.0</ele><time>2026-05-02T15:04:04Z</time></trkpt><trkpt lat="45.58557575992369" lon="8.1424737612523"><ele>361.16666666666663</ele><time>2026-05-02T15:04:05Z</time></trkpt><trkpt lat="45.58559353878253" lon="8.142348621540076"><ele>361.3333333333333</ele><time>2026-05-02T15:04:06Z</time></trkpt><trkpt lat="45.585609593742916" lon="8.142228824111003"><ele>361.5</ele><time>2026-05-02T15:04:07Z</time></trkpt><trkpt lat="45.58561729513062" lon="8.142107610631562"><ele>361.6666666666667</ele><time>2026-05-02T15:04:08Z</time></trkpt><trkpt lat="45.585643619305706" lon="8.141992047846133"><ele>361.83333333333337</ele><time>2026-05-02T15:04:09Z</time></trkpt><trkpt lat="45.58568693577683" lon="8.141886076526111"><ele>362.0</ele><time>2026-05-02T15:04:10Z</time></trkpt><trkpt lat="45.58571604129674" lon="8.14177299447035"><ele>362.0</ele><time>2026-05-02T15:04:11Z</time></trkpt><trkpt lat="45.58574705896179" lon="8.141662630148813"><ele>362.0</ele><time>2026-05-02T15:04:12Z</time></trkpt><trkpt lat="45.58577890624093" lon="8.141553958462781"><ele>362.0</ele><time>2026-05-02T15:04:13Z</time></trkpt><trkpt lat="45.585812590134154" lon="8.141444496960661"><ele>362.0</ele><time>2026-05-02T15:04:14Z</time></trkpt><trkpt lat="45.5858478236332" lon="8.141337676961061"><ele>362.0</ele><time>2026-05-02T15:04:15Z</time></trkpt><trkpt lat="45.58588488973548" lon="8.141231609732179"><ele>362.0</ele><time>2026-05-02T15:04:16Z</time></trkpt><trkpt lat="45.58590906957025" lon="8.141115400832746"><ele>362.1666666666667</ele><time>2026-05-02T15:04:17Z</time></trkpt><trkpt lat="45.58596356088375" lon="8.14102333177853"><ele>362.33333333333337</ele><time>2026-05-02T15:04:18Z</time></trkpt><trkpt lat="45.5859921557651" lon="8.140910194466962"><ele>362.5</ele><time>2026-05-02T15:04:19Z</time></trkpt><trkpt lat="45.58604969035968" lon="8.140822056311514"><ele>362.6666666666667</ele><time>2026-05-02T15:04:20Z</time></trkpt><trkpt lat="45.58609563276232" lon="8.140724545474653"><ele>362.8333333333333</ele><time>2026-05-02T15:04:21Z</time></trkpt><trkpt lat="45.58614693291896" lon="8.140636512930946"><ele>363.0</ele><time>2026-05-02T15:04:22Z</time></trkpt><trkpt lat="45.5862017199973" lon="8.140552491707947"><ele>363.0</ele><time>2026-05-02T15:04:23Z</time></trkpt><trkpt lat="45.586259549423076" lon="8.140471082217308"><ele>363.0</ele><time>2026-05-02T15:04:24Z</time></trkpt><trkpt lat="45.58631941843214" lon="8.140389908206048"><ele>363.0</ele><time>2026-05-02T15:04:25Z</time></trkpt><trkpt lat="45.58638087340288" lon="8.140308500149478"><ele>363.0</ele><time>2026-05-02T15:04:26Z</time></trkpt><trkpt lat="45.586443686206984" lon="8.140225293250127"><ele>363.0</ele><time>2026-05-02T15:04:27Z</time></trkpt><trkpt lat="45.58650558886465" lon="8.140143292183724"><ele>363.0</ele><time>2026-05-02T15:04:28Z</time></trkpt><trkpt lat="45.58656646446463" lon="8.14006265158818"><ele>363.0</ele><time>2026-05-02T15:04:29Z</time></trkpt><trkpt lat="45.58661654347084" lon="8.139966460012241"><ele>363.0</ele><time>2026-05-02T15:04:30Z</time></trkpt><trkpt lat="45.586678247077145" lon="8.139890044585574"><ele>363.0</ele><time>2026-05-02T15:04:31Z</time></trkpt><trkpt lat="45.58673949685592" lon="8.139811149527354"><ele>363.0</ele><time>2026-05-02T15:04:32Z</time></trkpt><trkpt lat="45.58680056607708" lon="8.139731315030177"><ele>363.0</ele><time>2026-05-02T15:04:33Z</time></trkpt><trkpt lat="45.58686079236558" lon="8.139646403252032"><ele>363.0</ele><time>2026-05-02T15:04:34Z</time></trkpt><trkpt lat="45.586923337313806" lon="8.13957052420545"><ele>362.5</ele><time>2026-05-02T15:04:35Z</time></trkpt><trkpt lat="45.586988467368954" lon="8.139493474429425"><ele>362.0</ele><time>2026-05-02T15:04:36Z</time></trkpt><trkpt lat="45.58705349318655" lon="8.139417701938054"><ele>361.5</ele><time>2026-05-02T15:04:37Z</time></trkpt><trkpt lat="45.58711771027905" lon="8.139335570528418"><ele>361.0</ele><time>2026-05-02T15:04:38Z</time></trkpt><trkpt lat="45.58717603512021" lon="8.139246172335953"><ele>360.5</ele><time>2026-05-02T15:04:39Z</time></trkpt><trkpt lat="45.58724445717226" lon="8.139165400071832"><ele>360.0</ele><time>2026-05-02T15:04:40Z</time></trkpt><trkpt lat="45.58727934804759" lon="8.139045641550853"><ele>361.3333333333333</ele><time>2026-05-02T15:04:41Z</time></trkpt><trkpt lat="45.58732470188516" lon="8.138937284179272"><ele>362.6666666666667</ele><time>2026-05-02T15:04:42Z</time></trkpt><trkpt lat="45.587366621956214" lon="8.138825815767593"><ele>364.0</ele><time>2026-05-02T15:04:43Z</time></trkpt><trkpt lat="45.58739647099268" lon="8.138705836721266"><ele>365.33333333333337</ele><time>2026-05-02T15:04:44Z</time></trkpt><trkpt lat="45.58742512098577" lon="8.138586106179764"><ele>366.6666666666667</ele><time>2026-05-02T15:04:45Z</time></trkpt><trkpt lat="45.58744583271667" lon="8.13846328303502"><ele>368.0</ele><time>2026-05-02T15:04:46Z</time></trkpt><trkpt lat="45.58746461130212" lon="8.13833968503076"><ele>368.0</ele><time>2026-05-02T15:04:47Z</time></trkpt><trkpt lat="45.587499021327034" lon="8.138218239539235"><ele>368.0</ele><time>2026-05-02T15:04:48Z</time></trkpt><trkpt lat="45.58751667737713" lon="8.138085335427002"><ele>368.0</ele><time>2026-05-02T15:04:49Z</time></trkpt><trkpt lat="45.58751886917192" lon="8.137947735568613"><ele>368.0</ele><time>2026-05-02T15:04:50Z</time></trkpt><trkpt lat="45.5875489688402" lon="8.13781670857881"><ele>368.0</ele><time>2026-05-02T15:04:51Z</time></trkpt><trkpt lat="45.58756533083523" lon="8.137682830530562"><ele>367.79999999999995</ele><time>2026-05-02T15:04:52Z</time></trkpt><trkpt lat="45.58758193913831" lon="8.137551907801607"><ele>367.6</ele><time>2026-05-02T15:04:53Z</time></trkpt><trkpt lat="45.58758270596101" lon="8.137418112429458"><ele>367.4</ele><time>2026-05-02T15:04:54Z</time></trkpt><trkpt lat="45.587612644942325" lon="8.137290263624687"><ele>367.20000000000005</ele><time>2026-05-02T15:04:55Z</time></trkpt><trkpt lat="45.58762251440212" lon="8.137159720512946"><ele>367.0</ele><time>2026-05-02T15:04:56Z</time></trkpt><trkpt lat="45.58763132078973" lon="8.137029540612408"><ele>367.0</ele><time>2026-05-02T15:04:57Z</time></trkpt><trkpt lat="45.58762828814159" lon="8.136898715013396"><ele>367.0</ele><time>2026-05-02T15:04:58Z</time></trkpt><trkpt lat="45.58764345922082" lon="8.136767874391273"><ele>367.0</ele><time>2026-05-02T15:04:59Z</time></trkpt><trkpt lat="45.587659273082885" lon="8.136639765532365"><ele>367.0</ele><time>2026-05-02T15:05:00Z</time></trkpt><trkpt lat="45.587677519283595" lon="8.136513015267917"><ele>367.0</ele><time>2026-05-02T15:05:01Z</time></trkpt><trkpt lat="45.587699114284256" lon="8.13638728637787"><ele>367.16666666666663</ele><time>2026-05-02T15:05:02Z</time></trkpt><trkpt lat="45.58772327953068" lon="8.13626832736614"><ele>367.3333333333333</ele><time>2026-05-02T15:05:03Z</time></trkpt><trkpt lat="45.58775659378508" lon="8.136160989909177"><ele>367.5</ele><time>2026-05-02T15:05:04Z</time></trkpt><trkpt lat="45.58778170594125" lon="8.136053674123632"><ele>367.6666666666667</ele><time>2026-05-02T15:05:05Z</time></trkpt><trkpt lat="45.58779413830043" lon="8.135944266525359"><ele>367.83333333333337</ele><time>2026-05-02T15:05:06Z</time></trkpt><trkpt lat="45.58779205607068" lon="8.135843481940732"><ele>368.0</ele><time>2026-05-02T15:05:07Z</time></trkpt><trkpt lat="45.58775780803263" lon="8.135698982884144"><ele>368.0</ele><time>2026-05-02T15:05:09Z</time></trkpt><trkpt lat="45.5877597450143" lon="8.135592918376712"><ele>368.0</ele><time>2026-05-02T15:05:12Z</time></trkpt><trkpt lat="45.58782723534754" lon="8.135560858079957"><ele>368.0</ele><time>2026-05-02T15:05:14Z</time></trkpt><trkpt lat="45.58789506547299" lon="8.13551662585146"><ele>368.0</ele><time>2026-05-02T15:05:15Z</time></trkpt><trkpt lat="45.58797038999884" lon="8.135489508416983"><ele>368.0</ele><time>2026-05-02T15:05:16Z</time></trkpt><trkpt lat="45.588042559827336" lon="8.135444749370295"><ele>368.0</ele><time>2026-05-02T15:05:17Z</time></trkpt><trkpt lat="45.58810447144872" lon="8.135393046499923"><ele>368.0</ele><time>2026-05-02T15:05:18Z</time></trkpt><trkpt lat="45.588197419166946" lon="8.1352748422471"><ele>368.79999999999995</ele><time>2026-05-02T15:05:20Z</time></trkpt><trkpt lat="45.58811034913007" lon="8.135079652174174"><ele>369.6</ele><time>2026-05-02T15:05:23Z</time></trkpt><trkpt lat="45.58801099179729" lon="8.134995514233111"><ele>370.4</ele><time>2026-05-02T15:05:25Z</time></trkpt><trkpt lat="45.588002487015274" lon="8.13489811892725"><ele>371.20000000000005</ele><time>2026-05-02T15:05:26Z</time></trkpt><trkpt lat="45.58797278007721" lon="8.134811685522655"><ele>372.0</ele><time>2026-05-02T15:05:27Z</time></trkpt><trkpt lat="45.587941849894705" lon="8.134721692493828"><ele>372.0</ele><time>2026-05-02T15:05:28Z</time></trkpt><trkpt lat="45.58791028378169" lon="8.134630664483792"><ele>372.0</ele><time>2026-05-02T15:05:29Z</time></trkpt><trkpt lat="45.58788169150374" lon="8.134548446911863"><ele>372.0</ele><time>2026-05-02T15:05:30Z</time></trkpt><trkpt lat="45.58785271596009" lon="8.134467818850407"><ele>372.0</ele><time>2026-05-02T15:05:31Z</time></trkpt><trkpt lat="45.58781477286712" lon="8.134388445935029"><ele>372.0</ele><time>2026-05-02T15:05:32Z</time></trkpt><trkpt lat="45.58773793955427" lon="8.134289724593396"><ele>372.0</ele><time>2026-05-02T15:05:34Z</time></trkpt><trkpt lat="45.58768398237663" lon="8.134199283860466"><ele>369.6666666666667</ele><time>2026-05-02T15:05:36Z</time></trkpt><trkpt lat="45.58761596910543" lon="8.134180236906765"><ele>367.33333333333337</ele><time>2026-05-02T15:05:39Z</time></trkpt><trkpt lat="45.58757315595829" lon="8.134255047553685"><ele>365.0</ele><time>2026-05-02T15:05:41Z</time></trkpt><trkpt lat="45.587470082040426" lon="8.133574602028226"><ele>364.0</ele><time>2026-05-02T15:05:44Z</time></trkpt><trkpt lat="45.58741604199605" lon="8.133507677141989"><ele>363.0</ele><time>2026-05-02T15:05:45Z</time></trkpt><trkpt lat="45.5873205858957" lon="8.13342067828692"><ele>362.0</ele><time>2026-05-02T15:05:47Z</time></trkpt><trkpt lat="45.587234866056605" lon="8.133331100477804"><ele>361.0</ele><time>2026-05-02T15:05:49Z</time></trkpt><trkpt lat="45.58713803723202" lon="8.133269428668633"><ele>360.0</ele><time>2026-05-02T15:05:51Z</time></trkpt><trkpt lat="45.58706771113305" lon="8.133215905313241"><ele>357.8333333333333</ele><time>2026-05-02T15:05:53Z</time></trkpt><trkpt lat="45.587084651701" lon="8.13309814890916"><ele>355.6666666666667</ele><time>2026-05-02T15:06:04Z</time></trkpt><trkpt lat="45.587134703046054" lon="8.133007418126333"><ele>353.5</ele><time>2026-05-02T15:06:06Z</time></trkpt><trkpt lat="45.587230231852075" lon="8.13289383110005"><ele>351.33333333333337</ele><time>2026-05-02T15:06:08Z</time></trkpt><trkpt lat="45.58728155021753" lon="8.132803489936654"><ele>349.1666666666667</ele><time>2026-05-02T15:06:09Z</time></trkpt><trkpt lat="45.58732580621938" lon="8.132714485169782"><ele>347.0</ele><time>2026-05-02T15:06:10Z</time></trkpt><trkpt lat="45.58735909561735" lon="8.132630524597571"><ele>347.0</ele><time>2026-05-02T15:06:11Z</time></trkpt><trkpt lat="45.587396566302544" lon="8.132557566961458"><ele>347.0</ele><time>2026-05-02T15:06:12Z</time></trkpt><trkpt lat="45.587403773413946" lon="8.132375763643306"><ele>347.0</ele><time>2026-05-02T15:06:14Z</time></trkpt><trkpt lat="45.587432890129264" lon="8.13225752191838"><ele>347.0</ele><time>2026-05-02T15:06:15Z</time></trkpt><trkpt lat="45.5874629242491" lon="8.13215158111614"><ele>347.0</ele><time>2026-05-02T15:06:16Z</time></trkpt><trkpt lat="45.58749214977323" lon="8.13204971682171"><ele>347.0</ele><time>2026-05-02T15:06:17Z</time></trkpt><trkpt lat="45.58752502937296" lon="8.131875567244855"><ele>344.0</ele><time>2026-05-02T15:06:19Z</time></trkpt><trkpt lat="45.58749967149969" lon="8.131718381962283"><ele>341.0</ele><time>2026-05-02T15:06:21Z</time></trkpt><trkpt lat="45.58748718308603" lon="8.131605376116969"><ele>338.0</ele><time>2026-05-02T15:06:23Z</time></trkpt><trkpt lat="45.587510170744395" lon="8.131487632339539"><ele>335.0</ele><time>2026-05-02T15:06:25Z</time></trkpt><trkpt lat="45.58750789249179" lon="8.131364707031997"><ele>332.0</ele><time>2026-05-02T15:06:27Z</time></trkpt><trkpt lat="45.58751882673606" lon="8.131244277726314"><ele>331.5</ele><time>2026-05-02T15:06:29Z</time></trkpt><trkpt lat="45.58751706286289" lon="8.131138356325046"><ele>331.0</ele><time>2026-05-02T15:06:31Z</time></trkpt><trkpt lat="45.58748261186141" lon="8.131032324537008"><ele>330.5</ele><time>2026-05-02T15:06:33Z</time></trkpt><trkpt lat="45.58746993510195" lon="8.130939864292216"><ele>330.0</ele><time>2026-05-02T15:06:35Z</time></trkpt><trkpt lat="45.58753647973374" lon="8.130863081235411"><ele>329.5</ele><time>2026-05-02T15:06:37Z</time></trkpt><trkpt lat="45.58751982418225" lon="8.130747769687245"><ele>329.0</ele><time>2026-05-02T15:06:39Z</time></trkpt><trkpt lat="45.58750531285741" lon="8.130631479664576"><ele>329.0</ele><time>2026-05-02T15:06:41Z</time></trkpt><trkpt lat="45.587485942384426" lon="8.130542743361506"><ele>329.0</ele><time>2026-05-02T15:06:45Z</time></trkpt><trkpt lat="45.58743871418364" lon="8.1304490921584"><ele>329.0</ele><time>2026-05-02T15:06:47Z</time></trkpt><trkpt lat="45.58736919239357" lon="8.130425558561948"><ele>329.0</ele><time>2026-05-02T15:06:51Z</time></trkpt><trkpt lat="45.58731314792949" lon="8.130376960764027"><ele>329.0</ele><time>2026-05-02T15:06:55Z</time></trkpt><trkpt lat="45.587245045418655" lon="8.130302509630972"><ele>329.0</ele><time>2026-05-02T15:07:00Z</time></trkpt><trkpt lat="45.58716261692221" lon="8.13019998206057"><ele>329.0</ele><time>2026-05-02T15:07:02Z</time></trkpt><trkpt lat="45.58710213681233" lon="8.130141069886818"><ele>329.0</ele><time>2026-05-02T15:07:04Z</time></trkpt><trkpt lat="45.58705942036516" lon="8.130066195333061"><ele>329.0</ele><time>2026-05-02T15:07:13Z</time></trkpt><trkpt lat="45.5870718304159" lon="8.129964871491062"><ele>329.0</ele><time>2026-05-02T15:07:35.001Z</time></trkpt><trkpt lat="45.58710028644986" lon="8.129875111671298"><ele>329.0</ele><time>2026-05-02T15:07:40.001Z</time></trkpt><trkpt lat="45.58707587242844" lon="8.129719285883821"><ele>329.0</ele><time>2026-05-02T15:07:43.001Z</time></trkpt><trkpt lat="45.58703365172448" lon="8.129588567306541"><ele>333.79999999999995</ele><time>2026-05-02T15:07:45.001Z</time></trkpt><trkpt lat="45.586946790996834" lon="8.129510865403166"><ele>338.59999999999997</ele><time>2026-05-02T15:07:47.001Z</time></trkpt><trkpt lat="45.586984946822184" lon="8.129586667304848"><ele>343.4</ele><time>2026-05-02T15:07:52.001Z</time></trkpt><trkpt lat="45.58688732755517" lon="8.129588196003716"><ele>348.2</ele><time>2026-05-02T15:07:54.001Z</time></trkpt><trkpt lat="45.58681600592054" lon="8.129658917878436"><ele>353.0</ele><time>2026-05-02T15:07:57Z</time></trkpt><trkpt lat="45.58670964026277" lon="8.129593192186197"><ele>353.0</ele><time>2026-05-02T15:07:59Z</time></trkpt><trkpt lat="45.58661588637712" lon="8.129446531393352"><ele>353.0</ele><time>2026-05-02T15:08:01Z</time></trkpt><trkpt lat="45.58656202545539" lon="8.129358918026881"><ele>353.0</ele><time>2026-05-02T15:08:02Z</time></trkpt><trkpt lat="45.58649808412259" lon="8.129280130145572"><ele>353.0</ele><time>2026-05-02T15:08:03Z</time></trkpt><trkpt lat="45.58646180532334" lon="8.129146439546732"><ele>353.0</ele><time>2026-05-02T15:08:05Z</time></trkpt><trkpt lat="45.5864519293965" lon="8.129044796373107"><ele>351.59999999999997</ele><time>2026-05-02T15:08:06Z</time></trkpt><trkpt lat="45.586376241661995" lon="8.128914605302976"><ele>350.2</ele><time>2026-05-02T15:08:08Z</time></trkpt><trkpt lat="45.5863273201095" lon="8.128835722633204"><ele>348.8</ele><time>2026-05-02T15:08:09Z</time></trkpt><trkpt lat="45.58626854060835" lon="8.128773325189831"><ele>347.4</ele><time>2026-05-02T15:08:10Z</time></trkpt><trkpt lat="45.58618938396903" lon="8.128696640589338"><ele>346.0</ele><time>2026-05-02T15:08:11Z</time></trkpt><trkpt lat="45.58610036437229" lon="8.128668471497075"><ele>350.8</ele><time>2026-05-02T15:08:12Z</time></trkpt><trkpt lat="45.586015993411706" lon="8.128658928135748"><ele>355.6</ele><time>2026-05-02T15:08:13Z</time></trkpt><trkpt lat="45.5859107177098" lon="8.128598352984325"><ele>360.4</ele><time>2026-05-02T15:08:15Z</time></trkpt><trkpt lat="45.5858480978643" lon="8.128588758869425"><ele>365.2</ele><time>2026-05-02T15:08:16Z</time></trkpt><trkpt lat="45.58577363479353" lon="8.128534462101227"><ele>370.0</ele><time>2026-05-02T15:08:17Z</time></trkpt><trkpt lat="45.585632313020746" lon="8.128472863310634"><ele>370.0</ele><time>2026-05-02T15:08:19Z</time></trkpt><trkpt lat="45.585551378652006" lon="8.128423864898188"><ele>370.0</ele><time>2026-05-02T15:08:20Z</time></trkpt><trkpt lat="45.58548311104505" lon="8.128382900631514"><ele>370.0</ele><time>2026-05-02T15:08:21Z</time></trkpt><trkpt lat="45.585391070805635" lon="8.128295098901777"><ele>370.0</ele><time>2026-05-02T15:08:22Z</time></trkpt><trkpt lat="45.58533498507484" lon="8.128252188523913"><ele>370.0</ele><time>2026-05-02T15:08:23Z</time></trkpt><trkpt lat="45.585237865287176" lon="8.128117186056057"><ele>372.2</ele><time>2026-05-02T15:08:25Z</time></trkpt><trkpt lat="45.585177849378915" lon="8.127990518627682"><ele>374.4</ele><time>2026-05-02T15:08:26Z</time></trkpt><trkpt lat="45.58511747697398" lon="8.127891788490171"><ele>376.6</ele><time>2026-05-02T15:08:27Z</time></trkpt><trkpt lat="45.58504228134498" lon="8.127789100419124"><ele>378.8</ele><time>2026-05-02T15:08:28Z</time></trkpt><trkpt lat="45.58497046578939" lon="8.127708359570159"><ele>381.0</ele><time>2026-05-02T15:08:29Z</time></trkpt><trkpt lat="45.58490019220527" lon="8.127680657986994"><ele>381.0</ele><time>2026-05-02T15:08:32Z</time></trkpt><trkpt lat="45.58483337214591" lon="8.1276242039955"><ele>381.0</ele><time>2026-05-02T15:08:35Z</time></trkpt><trkpt lat="45.584815910800835" lon="8.127734463355004"><ele>381.0</ele><time>2026-05-02T15:08:40Z</time></trkpt><trkpt lat="45.584735970303385" lon="8.127806125560777"><ele>381.0</ele><time>2026-05-02T15:08:54Z</time></trkpt><trkpt lat="45.58465777552219" lon="8.127902770728504"><ele>381.0</ele><time>2026-05-02T15:08:57Z</time></trkpt><trkpt lat="45.58462368367723" lon="8.128017980910426"><ele>381.0</ele><time>2026-05-02T15:08:59Z</time></trkpt><trkpt lat="45.58459316167522" lon="8.128164640439206"><ele>381.0</ele><time>2026-05-02T15:09:01Z</time></trkpt><trkpt lat="45.58452062017391" lon="8.128282223161735"><ele>381.0</ele><time>2026-05-02T15:09:03Z</time></trkpt><trkpt lat="45.58447223033354" lon="8.128343042778807"><ele>381.0</ele><time>2026-05-02T15:09:04Z</time></trkpt><trkpt lat="45.58438067998037" lon="8.128442932114995"><ele>381.0</ele><time>2026-05-02T15:09:06Z</time></trkpt><trkpt lat="45.58428305101954" lon="8.128534439037644"><ele>381.0</ele><time>2026-05-02T15:09:08Z</time></trkpt><trkpt lat="45.58419350762131" lon="8.128623656924558"><ele>381.0</ele><time>2026-05-02T15:09:10Z</time></trkpt><trkpt lat="45.58410569123452" lon="8.128696862751335"><ele>381.0</ele><time>2026-05-02T15:09:12Z</time></trkpt><trkpt lat="45.584015264444396" lon="8.128801568919155"><ele>381.0</ele><time>2026-05-02T15:09:14Z</time></trkpt><trkpt lat="45.583917613566435" lon="8.128878400248805"><ele>381.0</ele><time>2026-05-02T15:09:16Z</time></trkpt><trkpt lat="45.58382872349741" lon="8.12897183354485"><ele>381.0</ele><time>2026-05-02T15:09:18Z</time></trkpt><trkpt lat="45.58373902580879" lon="8.129072263529656"><ele>381.6</ele><time>2026-05-02T15:09:20Z</time></trkpt><trkpt lat="45.58364436961242" lon="8.129181835087726"><ele>382.20000000000005</ele><time>2026-05-02T15:09:22Z</time></trkpt><trkpt lat="45.583591712136275" lon="8.129233286882945"><ele>382.79999999999995</ele><time>2026-05-02T15:09:23Z</time></trkpt><trkpt lat="45.5834970877001" lon="8.129327565663601"><ele>383.4</ele><time>2026-05-02T15:09:25Z</time></trkpt><trkpt lat="45.58340510610668" lon="8.129388762434672"><ele>384.0</ele><time>2026-05-02T15:09:27Z</time></trkpt><trkpt lat="45.58332175865828" lon="8.12926280621008"><ele>384.0</ele><time>2026-05-02T15:09:30Z</time></trkpt><trkpt lat="45.58329356569384" lon="8.129168452830424"><ele>384.0</ele><time>2026-05-02T15:09:32Z</time></trkpt><trkpt lat="45.58322830392607" lon="8.129074476745956"><ele>384.0</ele><time>2026-05-02T15:09:34Z</time></trkpt><trkpt lat="45.583116235439995" lon="8.12910328053202"><ele>384.0</ele><time>2026-05-02T15:09:36Z</time></trkpt><trkpt lat="45.58304848990196" lon="8.129190401181848"><ele>384.0</ele><time>2026-05-02T15:09:38Z</time></trkpt><trkpt lat="45.583069071565795" lon="8.129319374544835"><ele>384.0</ele><time>2026-05-02T15:09:40Z</time></trkpt><trkpt lat="45.58307665992736" lon="8.129418857868455"><ele>384.0</ele><time>2026-05-02T15:09:43Z</time></trkpt><trkpt lat="45.58294821674711" lon="8.12942763395868"><ele>384.0</ele><time>2026-05-02T15:09:46Z</time></trkpt><trkpt lat="45.58288065371532" lon="8.129403817260224"><ele>384.0</ele><time>2026-05-02T15:09:47Z</time></trkpt><trkpt lat="45.582813922204366" lon="8.129396639953423"><ele>384.0</ele><time>2026-05-02T15:09:48Z</time></trkpt><trkpt lat="45.58270079783434" lon="8.12937326192736"><ele>384.0</ele><time>2026-05-02T15:09:50Z</time></trkpt><trkpt lat="45.582595917248454" lon="8.129352536577029"><ele>381.4</ele><time>2026-05-02T15:09:52Z</time></trkpt><trkpt lat="45.58247969490047" lon="8.129335346106709"><ele>378.79999999999995</ele><time>2026-05-02T15:09:54Z</time></trkpt><trkpt lat="45.5824139902851" lon="8.129320262480853"><ele>376.20000000000005</ele><time>2026-05-02T15:09:55Z</time></trkpt><trkpt lat="45.582296683872045" lon="8.129287845550039"><ele>373.6</ele><time>2026-05-02T15:09:57Z</time></trkpt><trkpt lat="45.58221817800388" lon="8.129286781795466"><ele>371.0</ele><time>2026-05-02T15:09:58Z</time></trkpt><trkpt lat="45.5821309025083" lon="8.129281387788186"><ele>371.0</ele><time>2026-05-02T15:09:59Z</time></trkpt><trkpt lat="45.58204251136309" lon="8.129274440537658"><ele>371.0</ele><time>2026-05-02T15:10:00Z</time></trkpt><trkpt lat="45.5819614400483" lon="8.129274804033535"><ele>371.0</ele><time>2026-05-02T15:10:01Z</time></trkpt><trkpt lat="45.58187807220669" lon="8.12928990687256"><ele>371.0</ele><time>2026-05-02T15:10:02Z</time></trkpt><trkpt lat="45.58179049590035" lon="8.129280395111797"><ele>371.0</ele><time>2026-05-02T15:10:03Z</time></trkpt><trkpt lat="45.581687937532315" lon="8.129263817084338"><ele>371.0</ele><time>2026-05-02T15:10:04Z</time></trkpt><trkpt lat="45.58159215271019" lon="8.129245482731381"><ele>367.6</ele><time>2026-05-02T15:10:05Z</time></trkpt><trkpt lat="45.58148217370384" lon="8.129243501899197"><ele>364.20000000000005</ele><time>2026-05-02T15:10:06Z</time></trkpt><trkpt lat="45.58140149018996" lon="8.129245059587854"><ele>360.79999999999995</ele><time>2026-05-02T15:10:07Z</time></trkpt><trkpt lat="45.58131332488612" lon="8.129246111400812"><ele>357.4</ele><time>2026-05-02T15:10:08Z</time></trkpt><trkpt lat="45.58122285792516" lon="8.129248290619437"><ele>354.0</ele><time>2026-05-02T15:10:09Z</time></trkpt><trkpt lat="45.58112229623409" lon="8.129243193829442"><ele>351.0</ele><time>2026-05-02T15:10:10Z</time></trkpt><trkpt lat="45.581021180757816" lon="8.129231234199004"><ele>348.0</ele><time>2026-05-02T15:10:11Z</time></trkpt><trkpt lat="45.58092786224739" lon="8.129207046077763"><ele>345.0</ele><time>2026-05-02T15:10:12Z</time></trkpt><trkpt lat="45.58082290706467" lon="8.129177345287665"><ele>342.0</ele><time>2026-05-02T15:10:13Z</time></trkpt><trkpt lat="45.5807260728688" lon="8.12914343466971"><ele>339.0</ele><time>2026-05-02T15:10:14Z</time></trkpt><trkpt lat="45.58062972130278" lon="8.129130736070476"><ele>339.0</ele><time>2026-05-02T15:10:15Z</time></trkpt><trkpt lat="45.58053314882004" lon="8.129135196536918"><ele>339.0</ele><time>2026-05-02T15:10:16Z</time></trkpt><trkpt lat="45.58044308021529" lon="8.12914326753439"><ele>339.0</ele><time>2026-05-02T15:10:17Z</time></trkpt><trkpt lat="45.58034123541093" lon="8.129168444461497"><ele>339.0</ele><time>2026-05-02T15:10:18Z</time></trkpt><trkpt lat="45.58024532292727" lon="8.129198634217724"><ele>339.0</ele><time>2026-05-02T15:10:19Z</time></trkpt><trkpt lat="45.580156558583354" lon="8.129211407769702"><ele>337.6666666666667</ele><time>2026-05-02T15:10:20Z</time></trkpt><trkpt lat="45.58007411482394" lon="8.12924682521037"><ele>336.3333333333333</ele><time>2026-05-02T15:10:21Z</time></trkpt><trkpt lat="45.580006540041516" lon="8.129294037983959"><ele>335.0</ele><time>2026-05-02T15:10:22Z</time></trkpt><trkpt lat="45.57995449715911" lon="8.129358755168402"><ele>333.66666666666663</ele><time>2026-05-02T15:10:23Z</time></trkpt><trkpt lat="45.57984897643798" lon="8.129409752915137"><ele>332.3333333333333</ele><time>2026-05-02T15:10:25Z</time></trkpt><trkpt lat="45.579782560639075" lon="8.129376034361021"><ele>331.0</ele><time>2026-05-02T15:10:26Z</time></trkpt><trkpt lat="45.579718148770326" lon="8.129379818410673"><ele>331.0</ele><time>2026-05-02T15:10:28Z</time></trkpt><trkpt lat="45.579681195998795" lon="8.129517152113081"><ele>331.0</ele><time>2026-05-02T15:10:30Z</time></trkpt><trkpt lat="45.579652679177386" lon="8.129624597117656"><ele>331.0</ele><time>2026-05-02T15:10:35Z</time></trkpt><trkpt lat="45.57967742422494" lon="8.129737346976817"><ele>331.0</ele><time>2026-05-02T15:10:37Z</time></trkpt><trkpt lat="45.57971299528433" lon="8.12986354472526"><ele>331.0</ele><time>2026-05-02T15:10:38Z</time></trkpt><trkpt lat="45.57974278943864" lon="8.129966379685298"><ele>331.0</ele><time>2026-05-02T15:10:39Z</time></trkpt><trkpt lat="45.57974562906434" lon="8.130135238782946"><ele>331.0</ele><time>2026-05-02T15:10:41Z</time></trkpt><trkpt lat="45.57973018762773" lon="8.130252516426786"><ele>331.0</ele><time>2026-05-02T15:10:42Z</time></trkpt><trkpt lat="45.57972984799281" lon="8.130353329357021"><ele>331.0</ele><time>2026-05-02T15:10:43Z</time></trkpt><trkpt lat="45.57968960339273" lon="8.130433270300214"><ele>331.0</ele><time>2026-05-02T15:10:46Z</time></trkpt><trkpt lat="45.57970573539357" lon="8.13054109893259"><ele>331.0</ele><time>2026-05-02T15:10:49Z</time></trkpt><trkpt lat="45.57968222771794" lon="8.13064171562422"><ele>331.0</ele><time>2026-05-02T15:10:51Z</time></trkpt><trkpt lat="45.57966989386859" lon="8.130819051206226"><ele>331.0</ele><time>2026-05-02T15:10:53Z</time></trkpt><trkpt lat="45.579683073686006" lon="8.130935079855236"><ele>331.0</ele><time>2026-05-02T15:10:54Z</time></trkpt><trkpt lat="45.57969887356221" lon="8.131049566039671"><ele>331.0</ele><time>2026-05-02T15:10:55Z</time></trkpt><trkpt lat="45.57972189915292" lon="8.131153355150909"><ele>331.0</ele><time>2026-05-02T15:10:56Z</time></trkpt><trkpt lat="45.579741188691386" lon="8.131259928826204"><ele>331.0</ele><time>2026-05-02T15:10:57Z</time></trkpt><trkpt lat="45.579738873133174" lon="8.131368951109717"><ele>331.0</ele><time>2026-05-02T15:10:58Z</time></trkpt><trkpt lat="45.57972368363823" lon="8.131497555856312"><ele>330.66666666666663</ele><time>2026-05-02T15:10:59Z</time></trkpt><trkpt lat="45.57970250978684" lon="8.13164012890028"><ele>330.3333333333333</ele><time>2026-05-02T15:11:00Z</time></trkpt><trkpt lat="45.57968985729852" lon="8.131805560335033"><ele>330.0</ele><time>2026-05-02T15:11:01Z</time></trkpt><trkpt lat="45.57969773829487" lon="8.131921684768942"><ele>329.6666666666667</ele><time>2026-05-02T15:11:02Z</time></trkpt><trkpt lat="45.5797073044057" lon="8.13202497390228"><ele>329.33333333333337</ele><time>2026-05-02T15:11:03Z</time></trkpt><trkpt lat="45.57972316580821" lon="8.132117860776328"><ele>329.0</ele><time>2026-05-02T15:11:04Z</time></trkpt><trkpt lat="45.57976928003887" lon="8.132215329643055"><ele>329.0</ele><time>2026-05-02T15:11:05Z</time></trkpt><trkpt lat="45.57975921509338" lon="8.132344377633352"><ele>329.0</ele><time>2026-05-02T15:11:06Z</time></trkpt><trkpt lat="45.57973828828332" lon="8.13247521788258"><ele>329.0</ele><time>2026-05-02T15:11:07Z</time></trkpt><trkpt lat="45.57981005833192" lon="8.132573531554034"><ele>329.0</ele><time>2026-05-02T15:11:09Z</time></trkpt><trkpt lat="45.57985450151927" lon="8.132698601055893"><ele>329.0</ele><time>2026-05-02T15:11:11Z</time></trkpt><trkpt lat="45.57987827374693" lon="8.13283123523852"><ele>328.33333333333337</ele><time>2026-05-02T15:11:13Z</time></trkpt><trkpt lat="45.57988361769972" lon="8.132994755261148"><ele>327.6666666666667</ele><time>2026-05-02T15:11:15Z</time></trkpt><trkpt lat="45.57984949636756" lon="8.13311897261813"><ele>327.0</ele><time>2026-05-02T15:11:17Z</time></trkpt><trkpt lat="45.57978803499999" lon="8.133194659690822"><ele>326.3333333333333</ele><time>2026-05-02T15:11:21Z</time></trkpt><trkpt lat="45.579738524226215" lon="8.133259219799092"><ele>325.66666666666663</ele><time>2026-05-02T15:11:27Z</time></trkpt><trkpt lat="45.57967667429537" lon="8.13329792881541"><ele>325.0</ele><time>2026-05-02T15:11:31Z</time></trkpt><trkpt lat="45.57961909875203" lon="8.133351866938552"><ele>324.5</ele><time>2026-05-02T15:11:35Z</time></trkpt><trkpt lat="45.57955523371464" lon="8.133337362284088"><ele>324.0</ele><time>2026-05-02T15:12:04Z</time></trkpt><trkpt lat="45.57946709092776" lon="8.13336920180826"><ele>323.5</ele><time>2026-05-02T15:12:07Z</time></trkpt><trkpt lat="45.57939149904751" lon="8.133446833346616"><ele>323.0</ele><time>2026-05-02T15:12:09Z</time></trkpt><trkpt lat="45.57933361541942" lon="8.133556249847958"><ele>322.5</ele><time>2026-05-02T15:12:10Z</time></trkpt><trkpt lat="45.5792842610921" lon="8.133684131583196"><ele>322.0</ele><time>2026-05-02T15:12:11Z</time></trkpt><trkpt lat="45.57922531633783" lon="8.133829769285606"><ele>322.0</ele><time>2026-05-02T15:12:12Z</time></trkpt><trkpt lat="45.5792164785472" lon="8.1339724449631"><ele>322.0</ele><time>2026-05-02T15:12:13Z</time></trkpt><trkpt lat="45.57925321011387" lon="8.134098720856114"><ele>322.0</ele><time>2026-05-02T15:12:15Z</time></trkpt><trkpt lat="45.57930903011242" lon="8.134176158393913"><ele>322.0</ele><time>2026-05-02T15:12:16Z</time></trkpt><trkpt lat="45.579324339928064" lon="8.134306426536813"><ele>322.0</ele><time>2026-05-02T15:12:17Z</time></trkpt><trkpt lat="45.579309926173956" lon="8.134435998494526"><ele>322.0</ele><time>2026-05-02T15:12:18Z</time></trkpt><trkpt lat="45.57928478380326" lon="8.134578539544405"><ele>322.0</ele><time>2026-05-02T15:12:19Z</time></trkpt><trkpt lat="45.57922399969996" lon="8.134701613875386"><ele>322.0</ele><time>2026-05-02T15:12:20Z</time></trkpt><trkpt lat="45.579138436636484" lon="8.134799489783376"><ele>322.0</ele><time>2026-05-02T15:12:21Z</time></trkpt><trkpt lat="45.57902009709452" lon="8.134864747951433"><ele>322.0</ele><time>2026-05-02T15:12:22Z</time></trkpt><trkpt lat="45.578911668406086" lon="8.134881471281112"><ele>322.3333333333333</ele><time>2026-05-02T15:12:23Z</time></trkpt><trkpt lat="45.57880261949673" lon="8.134917441693982"><ele>322.66666666666663</ele><time>2026-05-02T15:12:25Z</time></trkpt><trkpt lat="45.57873923295858" lon="8.134927244681618"><ele>323.0</ele><time>2026-05-02T15:12:27Z</time></trkpt><trkpt lat="45.57865046426654" lon="8.134952525800784"><ele>323.3333333333333</ele><time>2026-05-02T15:12:30Z</time></trkpt><trkpt lat="45.57862291658933" lon="8.135059219252463"><ele>323.6666666666667</ele><time>2026-05-02T15:12:33Z</time></trkpt><trkpt lat="45.578619239905294" lon="8.135193881738418"><ele>324.0</ele><time>2026-05-02T15:12:36Z</time></trkpt><trkpt lat="45.57865558803451" lon="8.135299280339288"><ele>324.0</ele><time>2026-05-02T15:12:38Z</time></trkpt><trkpt lat="45.57860884895655" lon="8.135404298683541"><ele>324.0</ele><time>2026-05-02T15:12:43Z</time></trkpt><trkpt lat="45.578614536263466" lon="8.135521744647795"><ele>324.0</ele><time>2026-05-02T15:12:46Z</time></trkpt><trkpt lat="45.578618648266925" lon="8.135618459831463"><ele>324.0</ele><time>2026-05-02T15:12:48Z</time></trkpt><trkpt lat="45.57862211559025" lon="8.135711646300452"><ele>324.0</ele><time>2026-05-02T15:12:49Z</time></trkpt><trkpt lat="45.57865659540481" lon="8.135819384380508"><ele>324.0</ele><time>2026-05-02T15:12:52Z</time></trkpt><trkpt lat="45.57869678220758" lon="8.13591370089247"><ele>324.2</ele><time>2026-05-02T15:12:54Z</time></trkpt><trkpt lat="45.57870483055007" lon="8.136020352874073"><ele>324.4</ele><time>2026-05-02T15:12:55Z</time></trkpt><trkpt lat="45.57867668705912" lon="8.136143294738325"><ele>324.6</ele><time>2026-05-02T15:12:56Z</time></trkpt><trkpt lat="45.578628984819616" lon="8.136207601333778"><ele>324.8</ele><time>2026-05-02T15:12:57Z</time></trkpt><trkpt lat="45.57857020701875" lon="8.136258214176932"><ele>325.0</ele><time>2026-05-02T15:12:58Z</time></trkpt><trkpt lat="45.578438845638516" lon="8.13641283829178"><ele>325.0</ele><time>2026-05-02T15:12:59Z</time></trkpt><trkpt lat="45.57834296054779" lon="8.136540289341609"><ele>325.0</ele><time>2026-05-02T15:13:00Z</time></trkpt><trkpt lat="45.57825404135401" lon="8.136665508893019"><ele>325.0</ele><time>2026-05-02T15:13:01Z</time></trkpt><trkpt lat="45.57818141579158" lon="8.13678027455231"><ele>325.0</ele><time>2026-05-02T15:13:02Z</time></trkpt><trkpt lat="45.57813273285222" lon="8.136868626925212"><ele>325.0</ele><time>2026-05-02T15:13:03Z</time></trkpt><trkpt lat="45.57815493723467" lon="8.136955104841691"><ele>324.6</ele><time>2026-05-02T15:13:05Z</time></trkpt><trkpt lat="45.578211290944495" lon="8.137066319834261"><ele>324.2</ele><time>2026-05-02T15:13:07Z</time></trkpt><trkpt lat="45.578248652862655" lon="8.137231713670051"><ele>323.79999999999995</ele><time>2026-05-02T15:13:09Z</time></trkpt><trkpt lat="45.57831662198492" lon="8.137340582584585"><ele>323.4</ele><time>2026-05-02T15:13:11Z</time></trkpt><trkpt lat="45.57837621390292" lon="8.137467968174645"><ele>323.0</ele><time>2026-05-02T15:13:13Z</time></trkpt><trkpt lat="45.57828429491922" lon="8.137563759007568"><ele>322.33333333333337</ele><time>2026-05-02T15:13:16Z</time></trkpt><trkpt lat="45.57825012345548" lon="8.137640063245536"><ele>321.6666666666667</ele><time>2026-05-02T15:13:17Z</time></trkpt><trkpt lat="45.57817755603694" lon="8.137680819168269"><ele>321.0</ele><time>2026-05-02T15:13:18Z</time></trkpt><trkpt lat="45.57811527066451" lon="8.137755017055147"><ele>320.3333333333333</ele><time>2026-05-02T15:13:19Z</time></trkpt><trkpt lat="45.578061216317245" lon="8.137844260479353"><ele>319.66666666666663</ele><time>2026-05-02T15:13:20Z</time></trkpt><trkpt lat="45.57798707272413" lon="8.137903498671822"><ele>319.0</ele><time>2026-05-02T15:13:21Z</time></trkpt><trkpt lat="45.57790604006468" lon="8.137918392367839"><ele>321.8333333333333</ele><time>2026-05-02T15:13:22Z</time></trkpt><trkpt lat="45.57781587598395" lon="8.137962706401266"><ele>324.66666666666663</ele><time>2026-05-02T15:13:23Z</time></trkpt><trkpt lat="45.57773693200102" lon="8.138003129563652"><ele>327.5</ele><time>2026-05-02T15:13:24Z</time></trkpt><trkpt lat="45.57766020442974" lon="8.138063295325729"><ele>330.3333333333333</ele><time>2026-05-02T15:13:25Z</time></trkpt><trkpt lat="45.57757701722405" lon="8.138098657908213"><ele>333.1666666666667</ele><time>2026-05-02T15:13:26Z</time></trkpt><trkpt lat="45.5774962637569" lon="8.138138488775633"><ele>336.0</ele><time>2026-05-02T15:13:27Z</time></trkpt><trkpt lat="45.57741239893625" lon="8.13816510575899"><ele>336.0</ele><time>2026-05-02T15:13:28Z</time></trkpt><trkpt lat="45.57732559531519" lon="8.138188143293315"><ele>336.0</ele><time>2026-05-02T15:13:29Z</time></trkpt><trkpt lat="45.57722658474148" lon="8.138190827172373"><ele>336.0</ele><time>2026-05-02T15:13:30Z</time></trkpt><trkpt lat="45.57712306288101" lon="8.138182051055216"><ele>336.0</ele><time>2026-05-02T15:13:31Z</time></trkpt><trkpt lat="45.57702557828519" lon="8.138177421072994"><ele>336.0</ele><time>2026-05-02T15:13:32Z</time></trkpt><trkpt lat="45.576922814297035" lon="8.138170713887646"><ele>333.6</ele><time>2026-05-02T15:13:33Z</time></trkpt><trkpt lat="45.57682281435123" lon="8.138153707767867"><ele>331.20000000000005</ele><time>2026-05-02T15:13:34Z</time></trkpt><trkpt lat="45.57672123124251" lon="8.138151173197858"><ele>328.79999999999995</ele><time>2026-05-02T15:13:35Z</time></trkpt><trkpt lat="45.57662275511792" lon="8.138151320876688"><ele>326.4</ele><time>2026-05-02T15:13:36Z</time></trkpt><trkpt lat="45.57653452782605" lon="8.138157826960924"><ele>324.0</ele><time>2026-05-02T15:13:37Z</time></trkpt><trkpt lat="45.576452011807824" lon="8.138141017024632"><ele>324.0</ele><time>2026-05-02T15:13:38Z</time></trkpt><trkpt lat="45.57638716738978" lon="8.138142674092824"><ele>324.0</ele><time>2026-05-02T15:13:39Z</time></trkpt><trkpt lat="45.57632555346403" lon="8.138162881340188"><ele>324.0</ele><time>2026-05-02T15:13:42Z</time></trkpt><trkpt lat="45.57631069786428" lon="8.138394393444326"><ele>324.0</ele><time>2026-05-02T15:13:43Z</time></trkpt><trkpt lat="45.57630849705596" lon="8.1385116817528"><ele>324.0</ele><time>2026-05-02T15:13:45Z</time></trkpt><trkpt lat="45.576304786442925" lon="8.138656618308497"><ele>323.3333333333333</ele><time>2026-05-02T15:13:47Z</time></trkpt><trkpt lat="45.57630038208455" lon="8.138804499609869"><ele>322.6666666666667</ele><time>2026-05-02T15:13:49Z</time></trkpt><trkpt lat="45.57629547597116" lon="8.138969227992368"><ele>322.0</ele><time>2026-05-02T15:13:51.001Z</time></trkpt><trkpt lat="45.57629272301153" lon="8.139061661798934"><ele>321.33333333333337</ele><time>2026-05-02T15:13:52.001Z</time></trkpt><trkpt lat="45.57628939149204" lon="8.13915419934631"><ele>320.6666666666667</ele><time>2026-05-02T15:13:53.001Z</time></trkpt><trkpt lat="45.576285940485285" lon="8.139247714596328"><ele>320.0</ele><time>2026-05-02T15:13:54.001Z</time></trkpt><trkpt lat="45.576282127616565" lon="8.139351035578155"><ele>320.0</ele><time>2026-05-02T15:13:55.001Z</time></trkpt><trkpt lat="45.576278678382046" lon="8.139444502866214"><ele>320.0</ele><time>2026-05-02T15:13:56.001Z</time></trkpt><trkpt lat="45.576275283068476" lon="8.139536509046197"><ele>320.0</ele><time>2026-05-02T15:13:57.001Z</time></trkpt><trkpt lat="45.576271671760814" lon="8.139634368168846"><ele>320.0</ele><time>2026-05-02T15:13:58.001Z</time></trkpt><trkpt lat="45.576267860131416" lon="8.139737655578857"><ele>320.0</ele><time>2026-05-02T15:13:59.001Z</time></trkpt><trkpt lat="45.576263959110086" lon="8.139843365363058"><ele>320.0</ele><time>2026-05-02T15:14:00.001Z</time></trkpt><trkpt lat="45.57626018825" lon="8.139945548029562"><ele>320.0</ele><time>2026-05-02T15:14:01.001Z</time></trkpt><trkpt lat="45.576256540401836" lon="8.140040205715353"><ele>320.2857142857143</ele><time>2026-05-02T15:14:02.001Z</time></trkpt><trkpt lat="45.57625232257327" lon="8.140139015419601"><ele>320.57142857142856</ele><time>2026-05-02T15:14:03.001Z</time></trkpt><trkpt lat="45.57624826432426" lon="8.140234086586911"><ele>320.8571428571429</ele><time>2026-05-02T15:14:04.001Z</time></trkpt><trkpt lat="45.57624435096286" lon="8.140325763578785"><ele>321.1428571428571</ele><time>2026-05-02T15:14:05.001Z</time></trkpt><trkpt lat="45.57624023349841" lon="8.140422222048764"><ele>321.42857142857144</ele><time>2026-05-02T15:14:06.001Z</time></trkpt><trkpt lat="45.576235897181526" lon="8.14052380746048"><ele>321.7142857142857</ele><time>2026-05-02T15:14:07.001Z</time></trkpt><trkpt lat="45.57623346607752" lon="8.140619142764798"><ele>322.0</ele><time>2026-05-02T15:14:08.001Z</time></trkpt><trkpt lat="45.57623150654525" lon="8.140709156123517"><ele>321.66666666666663</ele><time>2026-05-02T15:14:09.001Z</time></trkpt><trkpt lat="45.57623200342666" lon="8.140801063409913"><ele>321.3333333333333</ele><time>2026-05-02T15:14:10.001Z</time></trkpt><trkpt lat="45.57623931750391" lon="8.140893545229154"><ele>321.0</ele><time>2026-05-02T15:14:11.001Z</time></trkpt><trkpt lat="45.5762664003227" lon="8.141060695513199"><ele>320.6666666666667</ele><time>2026-05-02T15:14:13.001Z</time></trkpt><trkpt lat="45.576350831075025" lon="8.141141573335458"><ele>320.33333333333337</ele><time>2026-05-02T15:14:15Z</time></trkpt><trkpt lat="45.576412034576144" lon="8.141242285384715"><ele>320.0</ele><time>2026-05-02T15:14:17Z</time></trkpt><trkpt lat="45.57646638872305" lon="8.141362604367625"><ele>318.33333333333337</ele><time>2026-05-02T15:14:19Z</time></trkpt><trkpt lat="45.576239143392364" lon="8.141738120453153"><ele>316.6666666666667</ele><time>2026-05-02T15:14:20Z</time></trkpt><trkpt lat="45.57622620855384" lon="8.141839345432983"><ele>315.0</ele><time>2026-05-02T15:14:21Z</time></trkpt><trkpt lat="45.57621376855289" lon="8.141942112557274"><ele>315.0</ele><time>2026-05-02T15:14:22Z</time></trkpt><trkpt lat="45.57620443124684" lon="8.142032501231608"><ele>315.0</ele><time>2026-05-02T15:14:23Z</time></trkpt><trkpt lat="45.576193088339934" lon="8.142125272003865"><ele>315.0</ele><time>2026-05-02T15:14:24Z</time></trkpt><trkpt lat="45.57618694221685" lon="8.142219543521216"><ele>315.0</ele><time>2026-05-02T15:14:25Z</time></trkpt><trkpt lat="45.57618426132316" lon="8.142317522159535"><ele>315.0</ele><time>2026-05-02T15:14:26Z</time></trkpt><trkpt lat="45.576187956682816" lon="8.142413516763394"><ele>315.0</ele><time>2026-05-02T15:14:27Z</time></trkpt><trkpt lat="45.57620250387146" lon="8.14251254967805"><ele>315.0</ele><time>2026-05-02T15:14:28Z</time></trkpt><trkpt lat="45.57623151772684" lon="8.142615574266433"><ele>314.3333333333333</ele><time>2026-05-02T15:14:29Z</time></trkpt><trkpt lat="45.576266909844755" lon="8.142721314768798"><ele>313.6666666666667</ele><time>2026-05-02T15:14:30Z</time></trkpt><trkpt lat="45.576306394472816" lon="8.142831323025188"><ele>313.0</ele><time>2026-05-02T15:14:31Z</time></trkpt><trkpt lat="45.57634901421323" lon="8.142943682573572"><ele>312.33333333333337</ele><time>2026-05-02T15:14:32Z</time></trkpt><trkpt lat="45.57638946415214" lon="8.14306191086503"><ele>311.6666666666667</ele><time>2026-05-02T15:14:33Z</time></trkpt><trkpt lat="45.576432311118054" lon="8.143180379711342"><ele>311.0</ele><time>2026-05-02T15:14:34Z</time></trkpt><trkpt lat="45.576475601864175" lon="8.143297447990587"><ele>310.0</ele><time>2026-05-02T15:14:35Z</time></trkpt><trkpt lat="45.57651626941008" lon="8.14341590447471"><ele>309.0</ele><time>2026-05-02T15:14:36Z</time></trkpt><trkpt lat="45.5765567868026" lon="8.14352789578848"><ele>308.0</ele><time>2026-05-02T15:14:37Z</time></trkpt><trkpt lat="45.5765957405632" lon="8.1436380141958"><ele>307.0</ele><time>2026-05-02T15:14:38Z</time></trkpt><trkpt lat="45.576633792771645" lon="8.143742931287804"><ele>306.0</ele><time>2026-05-02T15:14:39Z</time></trkpt><trkpt lat="45.57666747652151" lon="8.143845651940833"><ele>305.0</ele><time>2026-05-02T15:14:40Z</time></trkpt><trkpt lat="45.576700565987764" lon="8.143943686895522"><ele>305.0</ele><time>2026-05-02T15:14:41Z</time></trkpt><trkpt lat="45.576730858233866" lon="8.144035634349036"><ele>305.0</ele><time>2026-05-02T15:14:42Z</time></trkpt><trkpt lat="45.57676094744201" lon="8.144123102404578"><ele>305.0</ele><time>2026-05-02T15:14:43Z</time></trkpt><trkpt lat="45.57679352795596" lon="8.144203504884024"><ele>305.0</ele><time>2026-05-02T15:14:44Z</time></trkpt><trkpt lat="45.57685773617997" lon="8.144345710642353"><ele>305.0</ele><time>2026-05-02T15:14:46Z</time></trkpt><trkpt lat="45.576901376414845" lon="8.14445633958404"><ele>305.0</ele><time>2026-05-02T15:14:48Z</time></trkpt><trkpt lat="45.57695505534718" lon="8.144569249216424"><ele>304.4</ele><time>2026-05-02T15:14:50Z</time></trkpt><trkpt lat="45.57699625331869" lon="8.144692973323494"><ele>303.8</ele><time>2026-05-02T15:14:52Z</time></trkpt><trkpt lat="45.57704311182349" lon="8.14484555531488"><ele>303.2</ele><time>2026-05-02T15:14:54Z</time></trkpt><trkpt lat="45.57709437625416" lon="8.144981414390962"><ele>302.6</ele><time>2026-05-02T15:14:56Z</time></trkpt><trkpt lat="45.57714353393533" lon="8.145075861247022"><ele>302.0</ele><time>2026-05-02T15:14:58Z</time></trkpt><trkpt lat="45.577172809051994" lon="8.145200388911292"><ele>302.2</ele><time>2026-05-02T15:15:00Z</time></trkpt><trkpt lat="45.577201228140424" lon="8.14534559084345"><ele>302.4</ele><time>2026-05-02T15:15:02Z</time></trkpt><trkpt lat="45.57724395497034" lon="8.145490665968177"><ele>302.6</ele><time>2026-05-02T15:15:04Z</time></trkpt><trkpt lat="45.57728917030815" lon="8.145640877897703"><ele>302.8</ele><time>2026-05-02T15:15:06Z</time></trkpt><trkpt lat="45.5773424923798" lon="8.145788408560412"><ele>303.0</ele><time>2026-05-02T15:15:08Z</time></trkpt><trkpt lat="45.57738329651999" lon="8.145966700154071"><ele>303.0</ele><time>2026-05-02T15:15:10Z</time></trkpt><trkpt lat="45.57737927173261" lon="8.146096888728772"><ele>303.0</ele><time>2026-05-02T15:15:11Z</time></trkpt><trkpt lat="45.57737774633509" lon="8.14622809022762"><ele>303.0</ele><time>2026-05-02T15:15:12Z</time></trkpt><trkpt lat="45.577384916169954" lon="8.146369825409039"><ele>303.0</ele><time>2026-05-02T15:15:13Z</time></trkpt><trkpt lat="45.57738645399662" lon="8.146509688081741"><ele>303.0</ele><time>2026-05-02T15:15:14Z</time></trkpt><trkpt lat="45.57740332766589" lon="8.146642501023525"><ele>302.8333333333333</ele><time>2026-05-02T15:15:15Z</time></trkpt><trkpt lat="45.57742753794998" lon="8.146775181070003"><ele>302.6666666666667</ele><time>2026-05-02T15:15:16Z</time></trkpt><trkpt lat="45.57744157797702" lon="8.146896291819678"><ele>302.5</ele><time>2026-05-02T15:15:17Z</time></trkpt><trkpt lat="45.577454138103356" lon="8.147004397715575"><ele>302.33333333333337</ele><time>2026-05-02T15:15:18Z</time></trkpt><trkpt lat="45.577491478403644" lon="8.147094131930418"><ele>302.1666666666667</ele><time>2026-05-02T15:15:19Z</time></trkpt><trkpt lat="45.577541416434" lon="8.147171084161332"><ele>302.0</ele><time>2026-05-02T15:15:20Z</time></trkpt><trkpt lat="45.577620727205186" lon="8.147237221464517"><ele>302.0</ele><time>2026-05-02T15:15:21Z</time></trkpt><trkpt lat="45.57769302326965" lon="8.147300092613921"><ele>302.0</ele><time>2026-05-02T15:15:22Z</time></trkpt><trkpt lat="45.577769543141734" lon="8.147366164653603"><ele>302.0</ele><time>2026-05-02T15:15:23Z</time></trkpt><trkpt lat="45.57784671199648" lon="8.147431224139794"><ele>302.0</ele><time>2026-05-02T15:15:24Z</time></trkpt><trkpt lat="45.57791381977005" lon="8.14749197385472"><ele>302.0</ele><time>2026-05-02T15:15:25Z</time></trkpt><trkpt lat="45.5779696089015" lon="8.147551900537591"><ele>302.0</ele><time>2026-05-02T15:15:26Z</time></trkpt><trkpt lat="45.57806206654778" lon="8.147664581615697"><ele>300.5</ele><time>2026-05-02T15:15:28Z</time></trkpt><trkpt lat="45.57812934664093" lon="8.14777840011608"><ele>299.0</ele><time>2026-05-02T15:15:30Z</time></trkpt><trkpt lat="45.57812590723362" lon="8.147907680155965"><ele>297.5</ele><time>2026-05-02T15:15:32Z</time></trkpt><trkpt lat="45.57811348423375" lon="8.148006408965431"><ele>296.0</ele><time>2026-05-02T15:15:33Z</time></trkpt><trkpt lat="45.57809120862022" lon="8.148105550165615"><ele>294.5</ele><time>2026-05-02T15:15:34Z</time></trkpt><trkpt lat="45.57809619063484" lon="8.148230731177954"><ele>293.0</ele><time>2026-05-02T15:15:35Z</time></trkpt><trkpt lat="45.57809346135119" lon="8.148374835618418"><ele>292.0</ele><time>2026-05-02T15:15:36Z</time></trkpt><trkpt lat="45.57806139591015" lon="8.148512849201408"><ele>291.0</ele><time>2026-05-02T15:15:37Z</time></trkpt><trkpt lat="45.578020956453265" lon="8.14863515500751"><ele>290.0</ele><time>2026-05-02T15:15:38Z</time></trkpt><trkpt lat="45.57796196596465" lon="8.148746578162017"><ele>289.0</ele><time>2026-05-02T15:15:39Z</time></trkpt><trkpt lat="45.57789467376192" lon="8.148868966623775"><ele>288.0</ele><time>2026-05-02T15:15:40Z</time></trkpt><trkpt lat="45.57781035964933" lon="8.14900896005543"><ele>288.2</ele><time>2026-05-02T15:15:41Z</time></trkpt><trkpt lat="45.57773593199047" lon="8.149140742052776"><ele>288.4</ele><time>2026-05-02T15:15:42Z</time></trkpt><trkpt lat="45.57766615303305" lon="8.149265554396857"><ele>288.59999999999997</ele><time>2026-05-02T15:15:43Z</time></trkpt><trkpt lat="45.577595240321095" lon="8.149368919245653"><ele>288.8</ele><time>2026-05-02T15:15:44Z</time></trkpt><trkpt lat="45.577532353660246" lon="8.149464077240689"><ele>289.0</ele><time>2026-05-02T15:15:45Z</time></trkpt><trkpt lat="45.57749468817191" lon="8.149561361652347"><ele>289.0</ele><time>2026-05-02T15:15:46Z</time></trkpt><trkpt lat="45.577458331253084" lon="8.149662250453686"><ele>289.0</ele><time>2026-05-02T15:15:48Z</time></trkpt><trkpt lat="45.577439247557" lon="8.149756880077094"><ele>289.0</ele><time>2026-05-02T15:15:50Z</time></trkpt><trkpt lat="45.57740646139835" lon="8.149856865117465"><ele>289.0</ele><time>2026-05-02T15:15:52Z</time></trkpt><trkpt lat="45.57736683342401" lon="8.149991956675105"><ele>289.0</ele><time>2026-05-02T15:15:53.999Z</time></trkpt><trkpt lat="45.577324551123894" lon="8.1500671035794"><ele>289.0</ele><time>2026-05-02T15:15:54.999Z</time></trkpt><trkpt lat="45.57727066589733" lon="8.150134968216564"><ele>288.42857142857144</ele><time>2026-05-02T15:15:55.999Z</time></trkpt><trkpt lat="45.57722450019379" lon="8.150198653489628"><ele>287.85714285714283</ele><time>2026-05-02T15:15:57.001Z</time></trkpt><trkpt lat="45.577168100709976" lon="8.150244430826104"><ele>287.2857142857143</ele><time>2026-05-02T15:15:58.001Z</time></trkpt><trkpt lat="45.57710657766567" lon="8.150298578177237"><ele>286.7142857142857</ele><time>2026-05-02T15:15:59.001Z</time></trkpt><trkpt lat="45.57703315832278" lon="8.150344981866475"><ele>286.14285714285717</ele><time>2026-05-02T15:16:00.001Z</time></trkpt><trkpt lat="45.57695041718717" lon="8.150376719409714"><ele>285.57142857142856</ele><time>2026-05-02T15:16:01.001Z</time></trkpt><trkpt lat="45.57687102809847" lon="8.150407512947787"><ele>285.0</ele><time>2026-05-02T15:16:02.001Z</time></trkpt><trkpt lat="45.576801692388635" lon="8.150456921194463"><ele>284.6</ele><time>2026-05-02T15:16:03.001Z</time></trkpt><trkpt lat="45.576711594860704" lon="8.150476045452296"><ele>284.2</ele><time>2026-05-02T15:16:04.001Z</time></trkpt><trkpt lat="45.576623957651634" lon="8.150463143636362"><ele>283.8</ele><time>2026-05-02T15:16:05.001Z</time></trkpt><trkpt lat="45.57652826800684" lon="8.150484632942218"><ele>283.4</ele><time>2026-05-02T15:16:06.001Z</time></trkpt><trkpt lat="45.5764348222545" lon="8.150522184822117"><ele>283.0</ele><time>2026-05-02T15:16:07.001Z</time></trkpt><trkpt lat="45.57634361519238" lon="8.150558786311356"><ele>283.0</ele><time>2026-05-02T15:16:08.001Z</time></trkpt><trkpt lat="45.57626622885196" lon="8.150605986421786"><ele>283.0</ele><time>2026-05-02T15:16:09.001Z</time></trkpt><trkpt lat="45.5761909632346" lon="8.150634140165607"><ele>283.0</ele><time>2026-05-02T15:16:10.001Z</time></trkpt><trkpt lat="45.57610967165953" lon="8.150655822561843"><ele>283.0</ele><time>2026-05-02T15:16:11.001Z</time></trkpt><trkpt lat="45.5760176481189" lon="8.150664908656823"><ele>283.0</ele><time>2026-05-02T15:16:12.001Z</time></trkpt><trkpt lat="45.57592316199638" lon="8.150700559592204"><ele>283.0</ele><time>2026-05-02T15:16:13.001Z</time></trkpt><trkpt lat="45.575833091340314" lon="8.150729660694326"><ele>282.8333333333333</ele><time>2026-05-02T15:16:14.001Z</time></trkpt><trkpt lat="45.575748143243956" lon="8.150760659999152"><ele>282.66666666666663</ele><time>2026-05-02T15:16:15.001Z</time></trkpt><trkpt lat="45.575662212766744" lon="8.150793735926166"><ele>282.5</ele><time>2026-05-02T15:16:16Z</time></trkpt><trkpt lat="45.575572315216014" lon="8.15084281203198"><ele>282.3333333333333</ele><time>2026-05-02T15:16:17Z</time></trkpt><trkpt lat="45.57548910502118" lon="8.150883874456992"><ele>282.1666666666667</ele><time>2026-05-02T15:16:18Z</time></trkpt><trkpt lat="45.57541379353466" lon="8.15092394075015"><ele>282.0</ele><time>2026-05-02T15:16:19Z</time></trkpt><trkpt lat="45.575340351385755" lon="8.150963383387683"><ele>283.5</ele><time>2026-05-02T15:16:20Z</time></trkpt><trkpt lat="45.57525733664179" lon="8.151007545773982"><ele>285.0</ele><time>2026-05-02T15:16:21Z</time></trkpt><trkpt lat="45.5751742598935" lon="8.15105514670917"><ele>286.5</ele><time>2026-05-02T15:16:22Z</time></trkpt><trkpt lat="45.575083584341314" lon="8.151097240511636"><ele>288.0</ele><time>2026-05-02T15:16:23Z</time></trkpt><trkpt lat="45.57500457071293" lon="8.151139556809792"><ele>289.5</ele><time>2026-05-02T15:16:24Z</time></trkpt><trkpt lat="45.57495708726524" lon="8.151201060776573"><ele>291.0</ele><time>2026-05-02T15:16:25Z</time></trkpt><trkpt lat="45.574900824658336" lon="8.151411562606755"><ele>291.0</ele><time>2026-05-02T15:17:34Z</time></trkpt><trkpt lat="45.57488372336364" lon="8.151517961679277"><ele>291.0</ele><time>2026-05-02T15:17:35Z</time></trkpt><trkpt lat="45.57486269746051" lon="8.151665469832631"><ele>291.0</ele><time>2026-05-02T15:17:36Z</time></trkpt><trkpt lat="45.57484134322179" lon="8.151778510457603"><ele>291.0</ele><time>2026-05-02T15:17:37Z</time></trkpt><trkpt lat="45.574792085183915" lon="8.151850247660459"><ele>291.0</ele><time>2026-05-02T15:17:38Z</time></trkpt><trkpt lat="45.57473333421776" lon="8.151898280154175"><ele>291.0</ele><time>2026-05-02T15:17:40Z</time></trkpt><trkpt lat="45.57474905912001" lon="8.152041195136793"><ele>290.6</ele><time>2026-05-02T15:17:43.999Z</time></trkpt><trkpt lat="45.574713350107466" lon="8.152231332036662"><ele>290.20000000000005</ele><time>2026-05-02T15:17:45.999Z</time></trkpt><trkpt lat="45.574682013600786" lon="8.152335417948906"><ele>289.79999999999995</ele><time>2026-05-02T15:17:46.999Z</time></trkpt><trkpt lat="45.57463664366423" lon="8.152428781147725"><ele>289.4</ele><time>2026-05-02T15:17:47.999Z</time></trkpt><trkpt lat="45.57457904897134" lon="8.152533401505211"><ele>289.0</ele><time>2026-05-02T15:17:48.999Z</time></trkpt><trkpt lat="45.57451307893076" lon="8.152636547014717"><ele>289.0</ele><time>2026-05-02T15:17:49.999Z</time></trkpt><trkpt lat="45.57444539551109" lon="8.152754498060794"><ele>289.0</ele><time>2026-05-02T15:17:51.999Z</time></trkpt><trkpt lat="45.57439544641923" lon="8.15293360137305"><ele>289.0</ele><time>2026-05-02T15:17:53.999Z</time></trkpt><trkpt lat="45.57436994883761" lon="8.153055802234459"><ele>289.0</ele><time>2026-05-02T15:17:54.999Z</time></trkpt><trkpt lat="45.574353609358305" lon="8.153181319433514"><ele>289.0</ele><time>2026-05-02T15:17:55.999Z</time></trkpt><trkpt lat="45.574349166265065" lon="8.153312049711875"><ele>287.8</ele><time>2026-05-02T15:17:56.999Z</time></trkpt><trkpt lat="45.57434134597384" lon="8.15345301285898"><ele>286.59999999999997</ele><time>2026-05-02T15:17:57.999Z</time></trkpt><trkpt lat="45.57432671105107" lon="8.15360140848746"><ele>285.4</ele><time>2026-05-02T15:17:58.999Z</time></trkpt><trkpt lat="45.57429304689775" lon="8.15372135518949"><ele>284.2</ele><time>2026-05-02T15:17:59.999Z</time></trkpt><trkpt lat="45.57427520448335" lon="8.153835149690961"><ele>283.0</ele><time>2026-05-02T15:18:00.999Z</time></trkpt><trkpt lat="45.574286408286895" lon="8.15393988001292"><ele>282.66666666666663</ele><time>2026-05-02T15:18:01.999Z</time></trkpt><trkpt lat="45.57433460857697" lon="8.154096069385869"><ele>282.3333333333333</ele><time>2026-05-02T15:18:04Z</time></trkpt><trkpt lat="45.574401181652604" lon="8.15418368610587"><ele>282.0</ele><time>2026-05-02T15:18:05Z</time></trkpt><trkpt lat="45.574474567497305" lon="8.154253910950205"><ele>281.6666666666667</ele><time>2026-05-02T15:18:06Z</time></trkpt><trkpt lat="45.57453230917452" lon="8.154294407585024"><ele>281.33333333333337</ele><time>2026-05-02T15:18:07Z</time></trkpt><trkpt lat="45.57459075230737" lon="8.15434652949277"><ele>281.0</ele><time>2026-05-02T15:18:08Z</time></trkpt><trkpt lat="45.57466934076691" lon="8.154423366249805"><ele>281.0</ele><time>2026-05-02T15:18:09Z</time></trkpt><trkpt lat="45.57476444824162" lon="8.1544786553244"><ele>281.0</ele><time>2026-05-02T15:18:10Z</time></trkpt><trkpt lat="45.5748243856791" lon="8.154518430807352"><ele>281.0</ele><time>2026-05-02T15:18:11Z</time></trkpt><trkpt lat="45.57483025669983" lon="8.154612336254603"><ele>281.0</ele><time>2026-05-02T15:18:18Z</time></trkpt><trkpt lat="45.57494682053813" lon="8.154688154614764"><ele>281.0</ele><time>2026-05-02T15:18:22Z</time></trkpt><trkpt lat="45.57500745828757" lon="8.154733544418038"><ele>281.0</ele><time>2026-05-02T15:18:23Z</time></trkpt><trkpt lat="45.57506954415321" lon="8.154781733273307"><ele>281.0</ele><time>2026-05-02T15:18:25Z</time></trkpt><trkpt lat="45.57517262087971" lon="8.154840318732958"><ele>281.0</ele><time>2026-05-02T15:18:27Z</time></trkpt><trkpt lat="45.57523008483122" lon="8.154903758887981"><ele>281.0</ele><time>2026-05-02T15:18:30Z</time></trkpt><trkpt lat="45.57531537596516" lon="8.154871452288095"><ele>281.0</ele><time>2026-05-02T15:18:33Z</time></trkpt><trkpt lat="45.57538673707449" lon="8.15489616638624"><ele>281.0</ele><time>2026-05-02T15:18:36Z</time></trkpt><trkpt lat="45.57547938880563" lon="8.154884134471628"><ele>281.0</ele><time>2026-05-02T15:18:38Z</time></trkpt><trkpt lat="45.57556029019708" lon="8.15491485609449"><ele>280.2</ele><time>2026-05-02T15:18:40Z</time></trkpt><trkpt lat="45.57563209516762" lon="8.155118321473227"><ele>279.40000000000003</ele><time>2026-05-02T15:18:42Z</time></trkpt><trkpt lat="45.575621337819975" lon="8.155251146902609"><ele>278.6</ele><time>2026-05-02T15:18:43Z</time></trkpt><trkpt lat="45.57563645025342" lon="8.155399672037731"><ele>277.8</ele><time>2026-05-02T15:18:45Z</time></trkpt><trkpt lat="45.57565099747977" lon="8.155491552138452"><ele>277.0</ele><time>2026-05-02T15:18:48Z</time></trkpt><trkpt lat="45.575855400196616" lon="8.155447996804453"><ele>277.0</ele><time>2026-05-02T15:18:49Z</time></trkpt><trkpt lat="45.57590874142564" lon="8.155586266368347"><ele>277.0</ele><time>2026-05-02T15:18:51Z</time></trkpt><trkpt lat="45.57594850221054" lon="8.15566990083835"><ele>277.0</ele><time>2026-05-02T15:18:52Z</time></trkpt><trkpt lat="45.57601223585928" lon="8.155727326984477"><ele>277.0</ele><time>2026-05-02T15:18:53Z</time></trkpt><trkpt lat="45.5760672262511" lon="8.155858331394802"><ele>277.0</ele><time>2026-05-02T15:18:55Z</time></trkpt><trkpt lat="45.576129496927145" lon="8.155989386292577"><ele>275.4</ele><time>2026-05-02T15:18:57Z</time></trkpt><trkpt lat="45.57619111087497" lon="8.156081516086878"><ele>273.79999999999995</ele><time>2026-05-02T15:18:58Z</time></trkpt><trkpt lat="45.57625561794715" lon="8.156176911072262"><ele>272.2</ele><time>2026-05-02T15:18:59Z</time></trkpt><trkpt lat="45.57630538045747" lon="8.156284548017332"><ele>270.59999999999997</ele><time>2026-05-02T15:19:00Z</time></trkpt><trkpt lat="45.57635537060775" lon="8.156378823314641"><ele>269.0</ele><time>2026-05-02T15:19:01Z</time></trkpt><trkpt lat="45.57642711550207" lon="8.15649521685206"><ele>270.75</ele><time>2026-05-02T15:19:02Z</time></trkpt><trkpt lat="45.5764822662622" lon="8.15664001608431"><ele>272.5</ele><time>2026-05-02T15:19:03Z</time></trkpt><trkpt lat="45.57654925832493" lon="8.15679316389653"><ele>274.25</ele><time>2026-05-02T15:19:04Z</time></trkpt><trkpt lat="45.57662790772886" lon="8.156932942532743"><ele>276.0</ele><time>2026-05-02T15:19:05Z</time></trkpt><trkpt lat="45.57667585740741" lon="8.15709871589402"><ele>276.0</ele><time>2026-05-02T15:19:06Z</time></trkpt><trkpt lat="45.576737317151725" lon="8.157209669214227"><ele>276.0</ele><time>2026-05-02T15:19:07Z</time></trkpt><trkpt lat="45.57667501586799" lon="8.157591365268619"><ele>276.0</ele><time>2026-05-02T15:19:08Z</time></trkpt><trkpt lat="45.57675643703167" lon="8.157685780584057"><ele>278.8</ele><time>2026-05-02T15:19:09Z</time></trkpt><trkpt lat="45.57679832219936" lon="8.15782911792719"><ele>281.6</ele><time>2026-05-02T15:19:11Z</time></trkpt><trkpt lat="45.576854791621805" lon="8.157888843986813"><ele>284.4</ele><time>2026-05-02T15:19:12Z</time></trkpt><trkpt lat="45.57691968765907" lon="8.157885079834157"><ele>287.2</ele><time>2026-05-02T15:19:13Z</time></trkpt><trkpt lat="45.577047902133764" lon="8.15793600744689"><ele>290.0</ele><time>2026-05-02T15:19:15Z</time></trkpt><trkpt lat="45.57712383635817" lon="8.157999828994436"><ele>290.0</ele><time>2026-05-02T15:19:16Z</time></trkpt><trkpt lat="45.57718280477045" lon="8.158124849714827"><ele>290.0</ele><time>2026-05-02T15:19:18Z</time></trkpt><trkpt lat="45.57710109776488" lon="8.158098420034031"><ele>290.0</ele><time>2026-05-02T15:19:56.999Z</time></trkpt><trkpt lat="45.57701018680941" lon="8.158079234649046"><ele>290.0</ele><time>2026-05-02T15:19:59.999Z</time></trkpt><trkpt lat="45.57694579247237" lon="8.15811103249761"><ele>290.0</ele><time>2026-05-02T15:20:02.999Z</time></trkpt><trkpt lat="45.57685371829973" lon="8.158134114772128"><ele>290.0</ele><time>2026-05-02T15:20:07.999Z</time></trkpt><trkpt lat="45.576792785560706" lon="8.158162510035597"><ele>292.6</ele><time>2026-05-02T15:20:11Z</time></trkpt><trkpt lat="45.576730556366385" lon="8.158251693166095"><ele>295.2</ele><time>2026-05-02T15:20:13Z</time></trkpt><trkpt lat="45.57663440110134" lon="8.15833172173333"><ele>297.8</ele><time>2026-05-02T15:20:15Z</time></trkpt><trkpt lat="45.57658984101039" lon="8.158416481967643"><ele>300.4</ele><time>2026-05-02T15:20:16Z</time></trkpt><trkpt lat="45.57654329231428" lon="8.158527063071487"><ele>303.0</ele><time>2026-05-02T15:20:17Z</time></trkpt><trkpt lat="45.57649424234513" lon="8.158630737992127"><ele>303.0</ele><time>2026-05-02T15:20:18Z</time></trkpt><trkpt lat="45.57642267433084" lon="8.15868737467411"><ele>303.0</ele><time>2026-05-02T15:20:19Z</time></trkpt><trkpt lat="45.576338088523585" lon="8.158711338820899"><ele>303.0</ele><time>2026-05-02T15:20:20Z</time></trkpt><trkpt lat="45.5762661144005" lon="8.15872266000146"><ele>303.0</ele><time>2026-05-02T15:20:23Z</time></trkpt><trkpt lat="45.576157035253374" lon="8.158647601587354"><ele>303.0</ele><time>2026-05-02T15:20:25Z</time></trkpt><trkpt lat="45.576095168830705" lon="8.158569636932786"><ele>303.0</ele><time>2026-05-02T15:20:26Z</time></trkpt><trkpt lat="45.57604616360984" lon="8.158491072788944"><ele>304.3333333333333</ele><time>2026-05-02T15:20:28Z</time></trkpt><trkpt lat="45.57598376808358" lon="8.158408974479164"><ele>305.6666666666667</ele><time>2026-05-02T15:20:30Z</time></trkpt><trkpt lat="45.57589729679115" lon="8.158428923354903"><ele>307.0</ele><time>2026-05-02T15:20:32Z</time></trkpt><trkpt lat="45.57581897475408" lon="8.158359113548173"><ele>308.33333333333337</ele><time>2026-05-02T15:20:35Z</time></trkpt><trkpt lat="45.57571872949052" lon="8.158377683891045"><ele>309.6666666666667</ele><time>2026-05-02T15:20:37Z</time></trkpt><trkpt lat="45.575640859819394" lon="8.15836756171494"><ele>311.0</ele><time>2026-05-02T15:20:39Z</time></trkpt><trkpt lat="45.57557917366983" lon="8.15828510086338"><ele>311.0</ele><time>2026-05-02T15:20:41Z</time></trkpt><trkpt lat="45.575516502281594" lon="8.158213781274483"><ele>311.0</ele><time>2026-05-02T15:20:43Z</time></trkpt><trkpt lat="45.57544648060646" lon="8.158123499195556"><ele>311.0</ele><time>2026-05-02T15:20:45Z</time></trkpt><trkpt lat="45.57540344833301" lon="8.158021018836154"><ele>311.0</ele><time>2026-05-02T15:20:47Z</time></trkpt><trkpt lat="45.57509348943754" lon="8.157663694168814"><ele>313.1666666666667</ele><time>2026-05-02T15:20:49Z</time></trkpt><trkpt lat="45.57503194671557" lon="8.157601608589031"><ele>315.33333333333337</ele><time>2026-05-02T15:20:53Z</time></trkpt><trkpt lat="45.57498945466386" lon="8.157491547439815"><ele>317.5</ele><time>2026-05-02T15:21:40.999Z</time></trkpt><trkpt lat="45.57498210699714" lon="8.157357018822728"><ele>319.6666666666667</ele><time>2026-05-02T15:21:42.999Z</time></trkpt><trkpt lat="45.57497302078979" lon="8.157262394293362"><ele>321.8333333333333</ele><time>2026-05-02T15:21:44.999Z</time></trkpt><trkpt lat="45.574981342301484" lon="8.157141613203505"><ele>324.0</ele><time>2026-05-02T15:21:48.999Z</time></trkpt><trkpt lat="45.574968551193166" lon="8.156978872518794"><ele>324.0</ele><time>2026-05-02T15:21:50.999Z</time></trkpt><trkpt lat="45.574922194931" lon="8.156830400719166"><ele>324.0</ele><time>2026-05-02T15:21:52.999Z</time></trkpt><trkpt lat="45.57488988524589" lon="8.15674343551228"><ele>324.0</ele><time>2026-05-02T15:21:53.999Z</time></trkpt><trkpt lat="45.57480038480192" lon="8.156612060186339"><ele>324.0</ele><time>2026-05-02T15:21:55.999Z</time></trkpt><trkpt lat="45.57473223263949" lon="8.156578833210231"><ele>324.0</ele><time>2026-05-02T15:21:57.999Z</time></trkpt><trkpt lat="45.57465640614967" lon="8.156507731026142"><ele>325.4</ele><time>2026-05-02T15:22:21Z</time></trkpt><trkpt lat="45.57458619476952" lon="8.156479536851858"><ele>326.79999999999995</ele><time>2026-05-02T15:22:23Z</time></trkpt><trkpt lat="45.57450774047804" lon="8.15641601350568"><ele>328.20000000000005</ele><time>2026-05-02T15:22:25Z</time></trkpt><trkpt lat="45.57443113355073" lon="8.156329409617975"><ele>329.6</ele><time>2026-05-02T15:22:27Z</time></trkpt><trkpt lat="45.574366912841484" lon="8.156223391573157"><ele>331.0</ele><time>2026-05-02T15:22:29Z</time></trkpt><trkpt lat="45.574295096754504" lon="8.156089826934705"><ele>331.0</ele><time>2026-05-02T15:22:31Z</time></trkpt><trkpt lat="45.57422318795696" lon="8.156041932999408"><ele>331.0</ele><time>2026-05-02T15:22:32Z</time></trkpt><trkpt lat="45.57413545593052" lon="8.155999282866787"><ele>331.0</ele><time>2026-05-02T15:22:33Z</time></trkpt><trkpt lat="45.574055062788375" lon="8.155920213154497"><ele>331.0</ele><time>2026-05-02T15:22:34Z</time></trkpt><trkpt lat="45.57400193790741" lon="8.155855710319925"><ele>331.0</ele><time>2026-05-02T15:22:35Z</time></trkpt><trkpt lat="45.573944704416796" lon="8.155806418530599"><ele>331.0</ele><time>2026-05-02T15:22:36Z</time></trkpt><trkpt lat="45.573849165139684" lon="8.155730191150013"><ele>331.20000000000005</ele><time>2026-05-02T15:22:38Z</time></trkpt><trkpt lat="45.57376061517178" lon="8.155686136508704"><ele>331.40000000000003</ele><time>2026-05-02T15:22:40Z</time></trkpt><trkpt lat="45.573692284583785" lon="8.155622765955956"><ele>331.6</ele><time>2026-05-02T15:22:42Z</time></trkpt><trkpt lat="45.57368453432387" lon="8.155519483443591"><ele>331.8</ele><time>2026-05-02T15:22:45Z</time></trkpt><trkpt lat="45.57362293096511" lon="8.155418964663935"><ele>332.0</ele><time>2026-05-02T15:22:47Z</time></trkpt><trkpt lat="45.57354134760601" lon="8.155293549627508"><ele>332.0</ele><time>2026-05-02T15:22:49Z</time></trkpt><trkpt lat="45.57345981148281" lon="8.15518125659352"><ele>332.0</ele><time>2026-05-02T15:22:51Z</time></trkpt><trkpt lat="45.57339599962192" lon="8.155089469109813"><ele>332.0</ele><time>2026-05-02T15:22:53Z</time></trkpt><trkpt lat="45.57333752767344" lon="8.154976501303498"><ele>332.0</ele><time>2026-05-02T15:22:55Z</time></trkpt><trkpt lat="45.57330119973404" lon="8.154857455271443"><ele>332.0</ele><time>2026-05-02T15:22:57Z</time></trkpt><trkpt lat="45.57326587176982" lon="8.154700472975998"><ele>329.6</ele><time>2026-05-02T15:22:59Z</time></trkpt><trkpt lat="45.573234895022054" lon="8.154537050198215"><ele>327.20000000000005</ele><time>2026-05-02T15:23:01Z</time></trkpt><trkpt lat="45.5731896312175" lon="8.15440961821005"><ele>324.8</ele><time>2026-05-02T15:23:03Z</time></trkpt><trkpt lat="45.57314456284121" lon="8.15427025962555"><ele>322.4</ele><time>2026-05-02T15:23:04.999Z</time></trkpt><trkpt lat="45.573063142422924" lon="8.1541505155569"><ele>320.0</ele><time>2026-05-02T15:23:06.999Z</time></trkpt><trkpt lat="45.57300052219082" lon="8.15403998765874"><ele>318.33333333333337</ele><time>2026-05-02T15:23:08.999Z</time></trkpt><trkpt lat="45.57291042308969" lon="8.15399599031213"><ele>316.6666666666667</ele><time>2026-05-02T15:23:10.999Z</time></trkpt><trkpt lat="45.572816033829604" lon="8.154055596603609"><ele>315.0</ele><time>2026-05-02T15:23:12.999Z</time></trkpt><trkpt lat="45.572745865198534" lon="8.15410670783932"><ele>313.3333333333333</ele><time>2026-05-02T15:23:13.999Z</time></trkpt><trkpt lat="45.5726937703553" lon="8.154166838209834"><ele>311.66666666666663</ele><time>2026-05-02T15:23:14.999Z</time></trkpt><trkpt lat="45.572647222577345" lon="8.154234020764493"><ele>310.0</ele><time>2026-05-02T15:23:15.999Z</time></trkpt><trkpt lat="45.57256894049248" lon="8.15435014488198"><ele>309.8</ele><time>2026-05-02T15:23:17.999Z</time></trkpt><trkpt lat="45.57256340513061" lon="8.154440580591908"><ele>309.6</ele><time>2026-05-02T15:23:18.999Z</time></trkpt><trkpt lat="45.572510081676455" lon="8.154574796483937"><ele>309.4</ele><time>2026-05-02T15:23:20.999Z</time></trkpt><trkpt lat="45.57247519472463" lon="8.154718711675988"><ele>309.2</ele><time>2026-05-02T15:23:22.999Z</time></trkpt><trkpt lat="45.572446715336916" lon="8.15486086902087"><ele>309.0</ele><time>2026-05-02T15:23:24.999Z</time></trkpt><trkpt lat="45.57238185185302" lon="8.154988242041346"><ele>309.4</ele><time>2026-05-02T15:23:26.999Z</time></trkpt><trkpt lat="45.57233287866573" lon="8.155150778626462"><ele>309.79999999999995</ele><time>2026-05-02T15:23:28.999Z</time></trkpt><trkpt lat="45.57232452421649" lon="8.155256896177665"><ele>310.20000000000005</ele><time>2026-05-02T15:23:29.999Z</time></trkpt><trkpt lat="45.57234209138539" lon="8.155355734882644"><ele>310.6</ele><time>2026-05-02T15:23:30.999Z</time></trkpt><trkpt lat="45.57233980339878" lon="8.155507370885827"><ele>311.0</ele><time>2026-05-02T15:23:32.999Z</time></trkpt><trkpt lat="45.5722742571733" lon="8.155601655028459"><ele>311.0</ele><time>2026-05-02T15:23:34.999Z</time></trkpt><trkpt lat="45.572219990025104" lon="8.155661257025939"><ele>311.0</ele><time>2026-05-02T15:23:35.999Z</time></trkpt><trkpt lat="45.572155823355985" lon="8.155691093241197"><ele>311.0</ele><time>2026-05-02T15:23:36.999Z</time></trkpt><trkpt lat="45.572098171255995" lon="8.155748812470744"><ele>311.0</ele><time>2026-05-02T15:23:37.999Z</time></trkpt><trkpt lat="45.57204874854769" lon="8.155825490906981"><ele>311.0</ele><time>2026-05-02T15:23:38.999Z</time></trkpt><trkpt lat="45.571984375293326" lon="8.155882290345666"><ele>311.0</ele><time>2026-05-02T15:23:39.999Z</time></trkpt><trkpt lat="45.57192560216121" lon="8.155943900764088"><ele>311.0</ele><time>2026-05-02T15:23:40.999Z</time></trkpt><trkpt lat="45.57191544893511" lon="8.156089695712515"><ele>307.6</ele><time>2026-05-02T15:23:41.999Z</time></trkpt><trkpt lat="45.571859207225955" lon="8.15617083971554"><ele>304.20000000000005</ele><time>2026-05-02T15:23:42.999Z</time></trkpt><trkpt lat="45.57181639051383" lon="8.15625171735391"><ele>300.79999999999995</ele><time>2026-05-02T15:23:43.999Z</time></trkpt><trkpt lat="45.57174402992791" lon="8.156387079950736"><ele>297.4</ele><time>2026-05-02T15:23:45.999Z</time></trkpt><trkpt lat="45.571689155757646" lon="8.156503472983207"><ele>294.0</ele><time>2026-05-02T15:23:47.999Z</time></trkpt><trkpt lat="45.571631001386365" lon="8.156618267293783"><ele>293.6666666666667</ele><time>2026-05-02T15:23:49.999Z</time></trkpt><trkpt lat="45.57159269455647" lon="8.156708493104952"><ele>293.3333333333333</ele><time>2026-05-02T15:23:50.999Z</time></trkpt><trkpt lat="45.571532365594905" lon="8.15678347979567"><ele>293.0</ele><time>2026-05-02T15:23:51.999Z</time></trkpt><trkpt lat="45.57147678685695" lon="8.156851502246365"><ele>292.66666666666663</ele><time>2026-05-02T15:23:52.999Z</time></trkpt><trkpt lat="45.57142325290392" lon="8.156930025810672"><ele>292.3333333333333</ele><time>2026-05-02T15:23:53.999Z</time></trkpt><trkpt lat="45.571373220499346" lon="8.157009985972657"><ele>292.0</ele><time>2026-05-02T15:23:54.999Z</time></trkpt><trkpt lat="45.57133074162344" lon="8.157096650021794"><ele>292.0</ele><time>2026-05-02T15:23:55.999Z</time></trkpt><trkpt lat="45.571298494175885" lon="8.157183556999104"><ele>292.0</ele><time>2026-05-02T15:23:56.999Z</time></trkpt><trkpt lat="45.57128294953529" lon="8.15727071448127"><ele>292.0</ele><time>2026-05-02T15:23:57.999Z</time></trkpt><trkpt lat="45.57127920225571" lon="8.157449900672166"><ele>292.0</ele><time>2026-05-02T15:23:59.999Z</time></trkpt><trkpt lat="45.57124317262033" lon="8.157625093548543"><ele>292.0</ele><time>2026-05-02T15:24:01.999Z</time></trkpt><trkpt lat="45.57119512954051" lon="8.157787130278892"><ele>290.16666666666663</ele><time>2026-05-02T15:24:03.999Z</time></trkpt><trkpt lat="45.571165559358086" lon="8.157972448181352"><ele>288.3333333333333</ele><time>2026-05-02T15:24:05.999Z</time></trkpt><trkpt lat="45.57116327176789" lon="8.158075603562729"><ele>286.5</ele><time>2026-05-02T15:24:06.999Z</time></trkpt><trkpt lat="45.57115389313988" lon="8.158178782798132"><ele>284.6666666666667</ele><time>2026-05-02T15:24:07.999Z</time></trkpt><trkpt lat="45.57113963905811" lon="8.158274391668282"><ele>282.83333333333337</ele><time>2026-05-02T15:24:08.999Z</time></trkpt><trkpt lat="45.57111301100193" lon="8.158367434356812"><ele>281.0</ele><time>2026-05-02T15:24:09.999Z</time></trkpt><trkpt lat="45.571066281947665" lon="8.158437680767548"><ele>280.14285714285717</ele><time>2026-05-02T15:24:10.999Z</time></trkpt><trkpt lat="45.57101975384507" lon="8.158515995371273"><ele>279.2857142857143</ele><time>2026-05-02T15:24:11.999Z</time></trkpt><trkpt lat="45.57098555097199" lon="8.158603266032282"><ele>278.42857142857144</ele><time>2026-05-02T15:24:12.999Z</time></trkpt><trkpt lat="45.57096882615099" lon="8.158707076377778"><ele>277.57142857142856</ele><time>2026-05-02T15:24:13.999Z</time></trkpt><trkpt lat="45.5709636763151" lon="8.158811874760021"><ele>276.7142857142857</ele><time>2026-05-02T15:24:14.999Z</time></trkpt><trkpt lat="45.57097819767266" lon="8.158920011951755"><ele>275.8571428571429</ele><time>2026-05-02T15:24:15.999Z</time></trkpt><trkpt lat="45.570986622335404" lon="8.159030429583602"><ele>275.0</ele><time>2026-05-02T15:24:16.999Z</time></trkpt><trkpt lat="45.57099552790025" lon="8.15915047578888"><ele>274.1666666666667</ele><time>2026-05-02T15:24:17.999Z</time></trkpt><trkpt lat="45.57100323942413" lon="8.15927500866341"><ele>273.33333333333337</ele><time>2026-05-02T15:24:18.999Z</time></trkpt><trkpt lat="45.57101103100257" lon="8.159400834048613"><ele>272.5</ele><time>2026-05-02T15:24:19.999Z</time></trkpt><trkpt lat="45.57101870059512" lon="8.15952468906972"><ele>271.6666666666667</ele><time>2026-05-02T15:24:21Z</time></trkpt><trkpt lat="45.57102669572457" lon="8.159649432108628"><ele>270.8333333333333</ele><time>2026-05-02T15:24:22Z</time></trkpt><trkpt lat="45.57103625608522" lon="8.159773106438763"><ele>270.0</ele><time>2026-05-02T15:24:23Z</time></trkpt><trkpt lat="45.57104350002365" lon="8.159891749042474"><ele>269.5</ele><time>2026-05-02T15:24:24Z</time></trkpt><trkpt lat="45.571046443264656" lon="8.160008660498152"><ele>269.0</ele><time>2026-05-02T15:24:25Z</time></trkpt><trkpt lat="45.571045690063116" lon="8.16012553247387"><ele>268.5</ele><time>2026-05-02T15:24:26Z</time></trkpt><trkpt lat="45.57104423951087" lon="8.160239106485713"><ele>268.0</ele><time>2026-05-02T15:24:27Z</time></trkpt><trkpt lat="45.57104361638444" lon="8.160358879508731"><ele>267.5</ele><time>2026-05-02T15:24:28Z</time></trkpt><trkpt lat="45.5710451349253" lon="8.16047239044591"><ele>267.0</ele><time>2026-05-02T15:24:29Z</time></trkpt><trkpt lat="45.57104595546591" lon="8.160582492785952"><ele>267.0</ele><time>2026-05-02T15:24:30Z</time></trkpt><trkpt lat="45.57104459371581" lon="8.160690481524686"><ele>267.0</ele><time>2026-05-02T15:24:31Z</time></trkpt><trkpt lat="45.5710417511152" lon="8.16080073659376"><ele>267.0</ele><time>2026-05-02T15:24:32Z</time></trkpt><trkpt lat="45.571026305070845" lon="8.160901209089623"><ele>267.0</ele><time>2026-05-02T15:24:33Z</time></trkpt><trkpt lat="45.57101173924844" lon="8.161004119360305"><ele>267.0</ele><time>2026-05-02T15:24:34Z</time></trkpt><trkpt lat="45.57100260438158" lon="8.161093823683661"><ele>267.0</ele><time>2026-05-02T15:24:35Z</time></trkpt><trkpt lat="45.57098676640605" lon="8.1612493509301"><ele>266.1666666666667</ele><time>2026-05-02T15:24:37Z</time></trkpt><trkpt lat="45.570974108340884" lon="8.161373651819996"><ele>265.3333333333333</ele><time>2026-05-02T15:24:39Z</time></trkpt><trkpt lat="45.57096467957351" lon="8.161466242943044"><ele>264.5</ele><time>2026-05-02T15:24:41Z</time></trkpt><trkpt lat="45.57095189575409" lon="8.161560049021789"><ele>263.66666666666663</ele><time>2026-05-02T15:24:43Z</time></trkpt><trkpt lat="45.570934541054314" lon="8.161675893909695"><ele>262.8333333333333</ele><time>2026-05-02T15:24:46Z</time></trkpt><trkpt lat="45.57091005475692" lon="8.161806275093218"><ele>262.0</ele><time>2026-05-02T15:24:49Z</time></trkpt><trkpt lat="45.5708618545734" lon="8.16191281514993"><ele>261.5</ele><time>2026-05-02T15:24:53Z</time></trkpt><trkpt lat="45.5707979156476" lon="8.161966863754923"><ele>261.0</ele><time>2026-05-02T15:24:56Z</time></trkpt><trkpt lat="45.570695070985074" lon="8.161945185993172"><ele>260.5</ele><time>2026-05-02T15:24:59Z</time></trkpt><trkpt lat="45.570618853945874" lon="8.161924033209823"><ele>260.0</ele><time>2026-05-02T15:25:01Z</time></trkpt><trkpt lat="45.57053343745609" lon="8.161970463286382"><ele>259.5</ele><time>2026-05-02T15:25:03Z</time></trkpt><trkpt lat="45.57046834748611" lon="8.16201941206917"><ele>259.0</ele><time>2026-05-02T15:25:05Z</time></trkpt><trkpt lat="45.570419153765855" lon="8.16208841181456"><ele>259.0</ele><time>2026-05-02T15:25:07Z</time></trkpt><trkpt lat="45.57036985990282" lon="8.162210051047879"><ele>259.0</ele><time>2026-05-02T15:25:10Z</time></trkpt><trkpt lat="45.57032682936745" lon="8.162314442994266"><ele>259.0</ele><time>2026-05-02T15:25:12Z</time></trkpt><trkpt lat="45.57028590929422" lon="8.162437288917145"><ele>259.0</ele><time>2026-05-02T15:25:13.999Z</time></trkpt><trkpt lat="45.570240687949024" lon="8.162561597516058"><ele>259.0</ele><time>2026-05-02T15:25:15.999Z</time></trkpt><trkpt lat="45.570195198027655" lon="8.162675919612683"><ele>259.0</ele><time>2026-05-02T15:25:17.999Z</time></trkpt><trkpt lat="45.57015419549205" lon="8.162780728091118"><ele>259.0</ele><time>2026-05-02T15:25:19.999Z</time></trkpt><trkpt lat="45.570112416014254" lon="8.162890555141677"><ele>259.0</ele><time>2026-05-02T15:25:21.999Z</time></trkpt><trkpt lat="45.57005947944827" lon="8.163013766429074"><ele>259.0</ele><time>2026-05-02T15:25:23.999Z</time></trkpt><trkpt lat="45.56998223765921" lon="8.163127583765815"><ele>259.0</ele><time>2026-05-02T15:25:25.999Z</time></trkpt><trkpt lat="45.569946827625984" lon="8.163245696961681"><ele>259.0</ele><time>2026-05-02T15:25:27.999Z</time></trkpt><trkpt lat="45.569919379741656" lon="8.16334051845351"><ele>259.0</ele><time>2026-05-02T15:25:29.999Z</time></trkpt><trkpt lat="45.56988610289961" lon="8.163462774304152"><ele>259.0</ele><time>2026-05-02T15:25:32.999Z</time></trkpt><trkpt lat="45.56984905560076" lon="8.163586192641112"><ele>259.0</ele><time>2026-05-02T15:25:35.999Z</time></trkpt><trkpt lat="45.56982200018792" lon="8.163669727209028"><ele>259.0</ele><time>2026-05-02T15:25:37.999Z</time></trkpt><trkpt lat="45.569792391385896" lon="8.163752955044618"><ele>259.0</ele><time>2026-05-02T15:25:39.999Z</time></trkpt><trkpt lat="45.56974656009343" lon="8.163856206844889"><ele>259.0</ele><time>2026-05-02T15:25:42.999Z</time></trkpt><trkpt lat="45.56972947539515" lon="8.163946593872351"><ele>259.0</ele><time>2026-05-02T15:26:00.999Z</time></trkpt><trkpt lat="45.5697061335704" lon="8.164036757222064"><ele>259.0</ele><time>2026-05-02T15:26:04.999Z</time></trkpt><trkpt lat="45.56971142202425" lon="8.164128885949323"><ele>259.0</ele><time>2026-05-02T15:26:06.999Z</time></trkpt><trkpt lat="45.5697222806893" lon="8.16424795227441"><ele>259.0</ele><time>2026-05-02T15:26:08.999Z</time></trkpt><trkpt lat="45.56971125467918" lon="8.16437753040806"><ele>259.0</ele><time>2026-05-02T15:26:10.999Z</time></trkpt><trkpt lat="45.569686324352894" lon="8.164501494144414"><ele>257.59999999999997</ele><time>2026-05-02T15:26:12.999Z</time></trkpt><trkpt lat="45.56966411002517" lon="8.164607870878278"><ele>256.2</ele><time>2026-05-02T15:26:14.999Z</time></trkpt><trkpt lat="45.569639455001294" lon="8.164732338701661"><ele>254.79999999999998</ele><time>2026-05-02T15:26:16.999Z</time></trkpt><trkpt lat="45.56961015051499" lon="8.164870611684231"><ele>253.39999999999998</ele><time>2026-05-02T15:26:18.999Z</time></trkpt><trkpt lat="45.56954931535309" lon="8.164998471777631"><ele>252.0</ele><time>2026-05-02T15:26:20.999Z</time></trkpt><trkpt lat="45.569511910625025" lon="8.165124528027578"><ele>251.6</ele><time>2026-05-02T15:26:22.999Z</time></trkpt><trkpt lat="45.569450690242036" lon="8.16523683453623"><ele>251.2</ele><time>2026-05-02T15:26:24.999Z</time></trkpt><trkpt lat="45.569360426023586" lon="8.16530516834235"><ele>250.8</ele><time>2026-05-02T15:26:27Z</time></trkpt><trkpt lat="45.56924507442953" lon="8.165363329769297"><ele>250.4</ele><time>2026-05-02T15:26:29Z</time></trkpt><trkpt lat="45.569136520719674" lon="8.165396603354381"><ele>250.0</ele><time>2026-05-02T15:26:31Z</time></trkpt><trkpt lat="45.5690254673424" lon="8.165443423780696"><ele>250.0</ele><time>2026-05-02T15:26:33Z</time></trkpt><trkpt lat="45.56891704931495" lon="8.165496818890038"><ele>250.0</ele><time>2026-05-02T15:26:35Z</time></trkpt><trkpt lat="45.56884927723907" lon="8.165601038451204"><ele>250.0</ele><time>2026-05-02T15:26:37Z</time></trkpt><trkpt lat="45.56882169802199" lon="8.165760877731056"><ele>250.0</ele><time>2026-05-02T15:26:39Z</time></trkpt><trkpt lat="45.56881835970357" lon="8.16594321436754"><ele>249.2</ele><time>2026-05-02T15:26:41Z</time></trkpt><trkpt lat="45.56881361251058" lon="8.16604467741546"><ele>248.4</ele><time>2026-05-02T15:26:42Z</time></trkpt><trkpt lat="45.568808844434656" lon="8.16614658730008"><ele>247.60000000000002</ele><time>2026-05-02T15:26:43Z</time></trkpt><trkpt lat="45.568800871061775" lon="8.166324725310703"><ele>246.8</ele><time>2026-05-02T15:26:45Z</time></trkpt><trkpt lat="45.56879341491586" lon="8.166494153584818"><ele>246.0</ele><time>2026-05-02T15:26:47Z</time></trkpt><trkpt lat="45.568786432102165" lon="8.166652826207503"><ele>245.60000000000002</ele><time>2026-05-02T15:26:49Z</time></trkpt><trkpt lat="45.56878152012153" lon="8.166798940067443"><ele>245.20000000000002</ele><time>2026-05-02T15:26:51Z</time></trkpt><trkpt lat="45.56877813398967" lon="8.166902077789285"><ele>244.79999999999998</ele><time>2026-05-02T15:26:53Z</time></trkpt><trkpt lat="45.56877655285142" lon="8.167015898469133"><ele>244.39999999999998</ele><time>2026-05-02T15:26:57Z</time></trkpt><trkpt lat="45.56868918727246" lon="8.167101555620711"><ele>244.0</ele><time>2026-05-02T15:27:00Z</time></trkpt><trkpt lat="45.568598136888326" lon="8.167112188243602"><ele>244.0</ele><time>2026-05-02T15:27:01Z</time></trkpt><trkpt lat="45.56849478398888" lon="8.167138576583142"><ele>243.99999999999997</ele><time>2026-05-02T15:27:02Z</time></trkpt><trkpt lat="45.56839386233579" lon="8.167167127958189"><ele>243.99999999999997</ele><time>2026-05-02T15:27:03Z</time></trkpt><trkpt lat="45.568294689204784" lon="8.167188163174268"><ele>244.0</ele><time>2026-05-02T15:27:04Z</time></trkpt><trkpt lat="45.56819654348563" lon="8.167217560702738"><ele>244.0</ele><time>2026-05-02T15:27:05Z</time></trkpt><trkpt lat="45.56810073353565" lon="8.1672523588569"><ele>244.0</ele><time>2026-05-02T15:27:06Z</time></trkpt><trkpt lat="45.56800539551893" lon="8.167282536439998"><ele>243.99999999999997</ele><time>2026-05-02T15:27:07Z</time></trkpt><trkpt lat="45.567906848238565" lon="8.167311855614104"><ele>243.99999999999997</ele><time>2026-05-02T15:27:08Z</time></trkpt><trkpt lat="45.56780870593896" lon="8.167340606843835"><ele>244.0</ele><time>2026-05-02T15:27:09Z</time></trkpt><trkpt lat="45.567711661041486" lon="8.167367071198933"><ele>244.0</ele><time>2026-05-02T15:27:10Z</time></trkpt><trkpt lat="45.56761491992429" lon="8.167392578217571"><ele>244.2</ele><time>2026-05-02T15:27:11Z</time></trkpt><trkpt lat="45.567516259138365" lon="8.167415824322422"><ele>244.39999999999998</ele><time>2026-05-02T15:27:12Z</time></trkpt><trkpt lat="45.56741967887079" lon="8.167439327536025"><ele>244.6</ele><time>2026-05-02T15:27:13Z</time></trkpt><trkpt lat="45.567319785992616" lon="8.167449205285175"><ele>244.8</ele><time>2026-05-02T15:27:14Z</time></trkpt><trkpt lat="45.56722193664544" lon="8.167451160848783"><ele>245.0</ele><time>2026-05-02T15:27:15Z</time></trkpt><trkpt lat="45.5671270421687" lon="8.16745086563767"><ele>245.00000000000003</ele><time>2026-05-02T15:27:16Z</time></trkpt><trkpt lat="45.56704300043231" lon="8.167440432339948"><ele>245.0</ele><time>2026-05-02T15:27:17Z</time></trkpt><trkpt lat="45.566979550057766" lon="8.167416015354782"><ele>245.0</ele><time>2026-05-02T15:27:18Z</time></trkpt><trkpt lat="45.566889618854056" lon="8.167287596731484"><ele>245.0</ele><time>2026-05-02T15:27:20Z</time></trkpt><trkpt lat="45.566889570466515" lon="8.167170359422105"><ele>245.00000000000003</ele><time>2026-05-02T15:27:21Z</time></trkpt><trkpt lat="45.56692116958261" lon="8.167052152607587"><ele>245.0</ele><time>2026-05-02T15:27:22Z</time></trkpt><trkpt lat="45.56696501386691" lon="8.166943621670946"><ele>244.83333333333334</ele><time>2026-05-02T15:27:23Z</time></trkpt><trkpt lat="45.56699734089945" lon="8.166827642487942"><ele>244.66666666666669</ele><time>2026-05-02T15:27:24Z</time></trkpt><trkpt lat="45.567010982426645" lon="8.166711057911755"><ele>244.5</ele><time>2026-05-02T15:27:25Z</time></trkpt><trkpt lat="45.56701869411063" lon="8.166580227174126"><ele>244.33333333333331</ele><time>2026-05-02T15:27:26Z</time></trkpt><trkpt lat="45.567029134413296" lon="8.166476165393401"><ele>244.16666666666666</ele><time>2026-05-02T15:27:26.999Z</time></trkpt><trkpt lat="45.56704686531237" lon="8.166374612536924"><ele>244.0</ele><time>2026-05-02T15:27:27.999Z</time></trkpt><trkpt lat="45.56706621923282" lon="8.16626866872283"><ele>244.28571428571425</ele><time>2026-05-02T15:27:28.999Z</time></trkpt><trkpt lat="45.56708029879276" lon="8.166160346389617"><ele>244.57142857142856</ele><time>2026-05-02T15:27:29.999Z</time></trkpt><trkpt lat="45.567091952726116" lon="8.166052946778384"><ele>244.85714285714286</ele><time>2026-05-02T15:27:30.999Z</time></trkpt><trkpt lat="45.56710207425692" lon="8.165948018247853"><ele>245.14285714285714</ele><time>2026-05-02T15:27:31.999Z</time></trkpt><trkpt lat="45.56711358866557" lon="8.165845292439512"><ele>245.42857142857144</ele><time>2026-05-02T15:27:32.999Z</time></trkpt><trkpt lat="45.56712163669803" lon="8.165744654724472"><ele>245.71428571428575</ele><time>2026-05-02T15:27:33.999Z</time></trkpt><trkpt lat="45.56713654406578" lon="8.165644263977098"><ele>246.00000000000003</ele><time>2026-05-02T15:27:34.999Z</time></trkpt><trkpt lat="45.56714696080547" lon="8.16553951391703"><ele>246.5714285714286</ele><time>2026-05-02T15:27:35.999Z</time></trkpt><trkpt lat="45.567159823983715" lon="8.165438085523146"><ele>247.14285714285717</ele><time>2026-05-02T15:27:36.999Z</time></trkpt><trkpt lat="45.56716230227923" lon="8.1653311267657"><ele>247.71428571428572</ele><time>2026-05-02T15:27:37.999Z</time></trkpt><trkpt lat="45.56717661574582" lon="8.165233176597356"><ele>248.2857142857143</ele><time>2026-05-02T15:27:38.999Z</time></trkpt><trkpt lat="45.5671855368018" lon="8.165137500140005"><ele>248.8571428571429</ele><time>2026-05-02T15:27:39.999Z</time></trkpt><trkpt lat="45.567192193011884" lon="8.165034050331002"><ele>249.42857142857142</ele><time>2026-05-02T15:27:40.999Z</time></trkpt><trkpt lat="45.56719352798942" lon="8.164938872389166"><ele>250.0</ele><time>2026-05-02T15:27:41.999Z</time></trkpt><trkpt lat="45.56721825925418" lon="8.164814882302535"><ele>253.0</ele><time>2026-05-02T15:27:43.999Z</time></trkpt><trkpt lat="45.56722824000281" lon="8.164722855736374"><ele>253.0</ele><time>2026-05-02T15:27:47.999Z</time></trkpt></trkseg></trk></gpx>